# Wetter Temperatur Luftdruck Luftfeuchtigkeit Sichtweite Windgeschwindigkeit Windrichtung Zeit
1 Clear 3 1020 87 10000 1.56 339 08:30 02.10.2022
2 Clear 3 1019 86 10000 1.63 347 08:30 02.10.2022
3 Clear 6 1021 72 10000 1.93 6 05:21 02.10.2022
4 Clouds 6 1019 76 10000 3.4 18 01:20 02.10.2022
5 Clouds 6 1019 76 10000 3.4 18 00:38 02.10.2022
6 Clouds 10 1014 51 10000 4.17 71 23:29 01.10.2022
7 Clouds 13 1012 40 10000 5.76 54 21:58 01.10.2022
8 Clouds 16 1011 16 10000 4.86 28 19:21 01.10.2022
9 Clouds 15 1013 16 10000 3.55 12 17:46 01.10.2022
10 Clouds 15 1013 16 10000 3.55 12 17:46 01.10.2022
11 Clouds 11 1017 30 10000 1.81 357 16:24 01.10.2022
12 Clouds 6 1021 66 10000 1.53 310 14:18 01.10.2022
13 Clouds 3 1022 86 10000 1.22 313 12:35 01.10.2022
14 Clouds 1 1020 92 10000 1.4 328 11:23 01.10.2022
15 Clouds 1 1020 92 10000 1.4 328 10:53 01.10.2022
16 Clouds 1 1020 92 10000 1.4 328 10:30 01.10.2022
17 Clouds 1 1020 92 10000 1.4 328 10:30 01.10.2022
18 Clouds 1 1020 92 10000 1.4 328 10:30 01.10.2022
19 Clouds 2 1019 93 10000 1.16 321 09:26 01.10.2022
20 Clouds 2 1019 92 10000 1.05 312 08:40 01.10.2022
21 Clear 5 1019 64 10000 2.3 38 03:52 01.10.2022
22 Clear 6 1017 58 10000 2.24 38 03:24 01.10.2022
23 Clear 10 1013 43 10000 5.46 35 23:30 30.09.2022
24 Clear 13 1009 26 10000 5.33 73 22:19 30.09.2022
25 Clear 15 1008 17 10000 7.13 80 21:22 30.09.2022
26 Clear 16 1033 22 10000 3.09 60 20:42 30.09.2022
27 Clear 15 1034 25 10000 4.12 60 19:30 30.09.2022
28 Clear 13 1035 30 10000 3.09 360 17:27 30.09.2022
29 Clear 2 1035 44 10000 3.09 240 14:55 30.09.2022
30 Clear -1 1035 59 10000 3.09 200 13:24 30.09.2022
31 Clear -3 1020 18 10000 1.75 278 11:56 30.09.2022
32 Clear -2 1019 27 10000 1.75 296 09:50 30.09.2022
33 Clear -1 1019 71 10000 1.56 316 08:21 30.09.2022
34 Clear 2 1018 36 10000 2.03 347 04:31 30.09.2022
35 Clear 5 1014 7 10000 3.34 231 02:23 30.09.2022
36 Clear 15 1006 3 10000 10.65 275 22:24 29.09.2022
37 Clear 15 1005 3 10000 10.82 280 21:26 29.09.2022
38 Clear 15 1031 18 10000 7.72 270 20:26 29.09.2022
39 Clear 13 1032 21 10000 9.26 270 18:32 29.09.2022
40 Clear 9 1035 34 10000 5.14 300 16:56 29.09.2022
41 Clear 9 1035 34 10000 5.14 300 16:26 29.09.2022
42 Clear 8 1035 40 10000 3.09 360 15:35 29.09.2022
43 Clouds -1 1034 64 10000 0 0 13:28 29.09.2022
44 Clouds 1 1018 90 5894 1.54 310 09:21 29.09.2022
45 Clear 2 1018 89 10000 2.23 29 05:42 29.09.2022
46 Clear 4 1016 61 10000 2.84 94 02:44 29.09.2022
47 Clear 13 1006 3 10000 11.24 274 23:54 28.09.2022
48 Clear 15 1004 3 10000 12.38 284 22:32 28.09.2022
49 Clear 16 1004 3 10000 12.35 297 21:29 28.09.2022
50 Clear 16 1031 20 10000 6.17 360 20:20 28.09.2022
51 Clear 13 1033 26 10000 4.12 360 18:20 28.09.2022
52 Clear 3 1035 45 10000 0 0 14:51 28.09.2022
53 Clear -4 1034 74 10000 0 0 12:41 28.09.2022
54 Clear -1 1018 7 10000 2.51 335 10:50 28.09.2022
55 Clear 0 1018 9 10000 1.33 305 08:26 28.09.2022
56 Clear 1 1019 10 10000 1.56 306 06:45 28.09.2022
57 Clear 6 1015 6 10000 3.07 223 01:54 28.09.2022
58 Clear 6 1015 6 10000 3.07 223 01:31 28.09.2022
59 Clear 6 1015 6 10000 3.07 223 01:31 28.09.2022
60 Clear 14 1007 3 10000 10.7 286 23:19 27.09.2022
61 Clear 15 1006 4 10000 10.28 288 21:40 27.09.2022
62 Clear 17 1032 22 10000 9.26 280 20:37 27.09.2022
63 Clouds 16 1033 25 10000 7.72 280 19:47 27.09.2022
64 Clouds 14 1034 26 10000 4.12 280 18:37 27.09.2022
65 Clouds 12 1035 24 10000 0 0 17:44 27.09.2022
66 Clouds 7 1036 36 10000 3.09 240 15:29 27.09.2022
67 Clouds 3 1035 45 10000 3.09 240 14:45 27.09.2022
68 Clear -2 1034 64 10000 0 0 12:42 27.09.2022
69 Clear -1 1018 19 10000 1.56 286 10:58 27.09.2022
70 Clear 0 1017 28 10000 1.8 275 08:46 27.09.2022
71 Clear 1 1018 76 10000 1.81 318 06:39 27.09.2022
72 Clouds 7 1013 19 10000 2.27 205 01:57 27.09.2022
73 Clouds 9 1010 12 10000 1.97 210 01:27 27.09.2022
74 Clouds 9 1010 12 10000 1.97 210 01:27 27.09.2022
75 Clouds 14 1006 6 10000 8.7 284 23:25 26.09.2022
76 Clouds 14 1006 6 10000 8.7 284 22:31 26.09.2022
77 Clear 15 1031 18 10000 9.26 360 20:45 26.09.2022
78 Clouds 14 1032 23 10000 6.17 360 19:30 26.09.2022
79 Clouds 13 1034 23 10000 6.17 360 18:31 26.09.2022
80 Clouds 9 1036 40 10000 3.09 40 16:29 26.09.2022
81 Clear 4 1035 52 10000 0 0 14:24 26.09.2022
82 Clear -1 1018 11 10000 1.77 297 11:29 26.09.2022
83 Clear -1 1018 11 10000 1.77 297 10:38 26.09.2022
84 Clear -1 1018 11 10000 2.06 301 10:20 26.09.2022
85 Clear -1 1018 11 10000 2.06 301 09:54 26.09.2022
86 Clear 0 1018 12 10000 1.67 299 09:24 26.09.2022
87 Clear 1 1017 17 10000 1.43 275 07:37 26.09.2022
88 Clear 5 1015 12 10000 1.66 171 02:54 26.09.2022
89 Clouds 11 1009 5 10000 6.52 274 23:50 25.09.2022
90 Clouds 14 1008 4 10000 8.15 299 22:29 25.09.2022
91 Clouds 14 1008 4 10000 8.15 299 21:35 25.09.2022
92 Clouds 14 1008 4 10000 8.89 298 20:47 25.09.2022
93 Clouds 14 1009 4 10000 8.4 298 19:43 25.09.2022
94 Clouds 14 1010 3 10000 8.16 294 18:43 25.09.2022
95 Clouds 13 1012 3 10000 8.51 290 18:20 25.09.2022
96 Clouds 12 1013 3 10000 8.85 292 16:36 25.09.2022
97 Clouds 10 1015 4 10000 8.62 295 15:44 25.09.2022
98 Clouds 5 1018 10 10000 3.61 279 14:22 25.09.2022
99 Clouds 3 1018 13 10000 2.49 250 12:55 25.09.2022
100 Clouds 2 1016 15 10000 3.27 272 10:32 25.09.2022
101 Clouds 4 1016 16 10000 3.69 282 08:24 25.09.2022
102 Clouds 4 1016 17 10000 2.69 282 05:47 25.09.2022
103 Clouds 8 1012 17 10000 0.92 260 01:55 25.09.2022
104 Clouds 15 1004 7 10000 8.16 291 22:35 24.09.2022
105 Clouds 17 1004 8 10000 11.5 290 20:55 24.09.2022
106 Clouds 17 1006 7 10000 9.13 303 19:23 24.09.2022
107 Clouds 16 1008 7 10000 8.09 311 17:49 24.09.2022
108 Clear 12 1013 8 10000 5.11 320 16:25 24.09.2022
109 Clear 10 1015 8 10000 4.15 301 15:21 24.09.2022
110 Clouds 4 1017 15 10000 2.09 288 13:27 24.09.2022
111 Clouds 4 1017 15 10000 2.09 288 12:50 24.09.2022
112 Clouds 2 1016 17 10000 1.93 289 10:54 24.09.2022
113 Clouds 2 1016 17 10000 2.23 297 09:46 24.09.2022
114 Clear 3 1016 19 10000 1.92 286 08:45 24.09.2022
115 Clear 3 1016 24 10000 2.29 300 07:38 24.09.2022
116 Clear 5 1016 24 10000 2.27 333 04:46 24.09.2022
117 Clouds 8 1013 11 10000 4.05 204 02:24 24.09.2022
118 Clouds 16 1006 5 10000 9.63 282 22:29 23.09.2022
119 Clouds 17 1006 5 10000 9.47 287 21:28 23.09.2022
120 Clouds 17 1032 20 10000 8.23 240 20:56 23.09.2022
121 Clouds 17 1032 20 10000 8.23 240 20:20 23.09.2022
122 Clouds 16 1034 22 10000 9.26 240 18:50 23.09.2022
123 Clouds 4 1035 48 10000 1.54 240 14:33 23.09.2022
124 Clouds 1 1018 56 10000 1.48 323 10:45 23.09.2022
125 Clouds 1 1018 68 10000 1.28 307 09:32 23.09.2022
126 Clouds 4 1018 62 10000 2.12 17 05:20 23.09.2022
127 Clouds 10 1010 5 10000 2.91 260 00:31 23.09.2022
128 Clouds 16 1006 3 10000 9.1 280 23:21 22.09.2022
129 Clouds 17 1005 3 10000 8.55 279 22:26 22.09.2022
130 Clouds 17 1032 17 10000 9.26 240 20:51 22.09.2022
131 Clouds 16 1034 20 10000 3.09 320 19:37 22.09.2022
132 Clouds 12 1037 24 10000 0 0 16:57 22.09.2022
133 Clouds -2 1035 74 10000 0 0 12:20 22.09.2022
134 Clouds 1 1016 9 10000 2.24 322 10:32 22.09.2022
135 Clouds 2 1016 8 10000 2.05 292 08:52 22.09.2022
136 Clouds 3 1016 8 10000 2.18 275 06:45 22.09.2022
137 Clouds 5 1015 7 10000 2.21 311 03:46 22.09.2022
138 Clouds 13 1008 4 10000 6.27 279 23:31 21.09.2022
139 Clouds 17 1005 3 10000 9.02 263 21:50 21.09.2022
140 Clouds 17 1031 17 10000 9.26 240 20:18 21.09.2022
141 Clouds 14 1033 23 10000 7.72 240 17:49 21.09.2022
142 Clouds 12 1034 30 10000 5.14 240 16:51 21.09.2022
143 Clouds 5 1034 42 10000 5.14 240 14:37 21.09.2022
144 Clouds -1 1033 59 10000 3.09 240 12:54 21.09.2022
145 Clouds 2 1016 6 10000 2.62 269 11:29 21.09.2022
146 Clouds 2 1016 6 10000 2.65 267 09:55 21.09.2022
147 Clouds 3 1016 6 10000 2.65 265 09:00 21.09.2022
148 Clear 3 1016 8 10000 2.59 275 07:41 21.09.2022
149 Clear 7 1014 9 10000 2.48 277 02:48 21.09.2022
150 Clear 9 1012 8 10000 2.9 274 02:28 21.09.2022
151 Clear 10 1010 6 10000 4.29 265 00:34 21.09.2022
152 Clear 10 1010 6 10000 4.29 265 00:34 21.09.2022
153 Clear 16 1006 3 10000 11.95 284 23:18 20.09.2022
154 Clear 18 1031 19 10000 9.26 240 20:52 20.09.2022
155 Clear 16 1031 20 10000 9.26 300 19:32 20.09.2022
156 Clear 11 1035 35 10000 1.54 240 16:28 20.09.2022
157 Clear 4 1035 48 10000 3.09 240 14:46 20.09.2022
158 Clear 0 1034 64 10000 3.09 240 13:28 20.09.2022
159 Clear 2 1016 53 10000 2.01 284 09:50 20.09.2022
160 Clouds 3 1017 78 10000 2.45 328 08:27 20.09.2022
161 Clouds 5 1017 63 10000 2.61 4 05:24 20.09.2022
162 Clouds 6 1015 44 10000 2.04 2 03:59 20.09.2022
163 Clouds 16 1007 4 10000 8.72 276 22:59 19.09.2022
164 Clouds 17 1006 4 10000 9.65 279 22:18 19.09.2022
165 Clouds 19 1032 21 10000 8.23 240 20:51 19.09.2022
166 Clouds 19 1032 21 10000 8.23 240 20:31 19.09.2022
167 Clouds 14 1035 25 10000 4.12 240 17:46 19.09.2022
168 Clouds 8 1036 46 10000 3.09 200 15:37 19.09.2022
169 Clouds 1 1035 64 10000 3.09 200 13:33 19.09.2022
170 Clear 0 1019 14 10000 2.16 272 11:28 19.09.2022
171 Clear 2 1018 12 10000 2.4 266 08:51 19.09.2022
172 Clear 3 1018 11 10000 2.95 251 08:18 19.09.2022
173 Clouds 9 1013 11 10000 4.12 232 01:58 19.09.2022
174 Clouds 14 1007 9 10000 7.97 296 23:22 18.09.2022
175 Clouds 15 1007 9 10000 10.48 290 21:45 18.09.2022
176 Clouds 17 1006 6 10000 10.39 289 20:33 18.09.2022
177 Clouds 17 1007 6 10000 9.63 294 18:34 18.09.2022
178 Clouds 15 1009 9 10000 6.8 313 17:39 18.09.2022
179 Clouds 11 1014 16 10000 3.38 311 15:53 18.09.2022
180 Clouds 8 1016 18 10000 2.73 299 14:30 18.09.2022
181 Clouds 3 1019 28 10000 2.43 251 12:36 18.09.2022
182 Clouds 2 1018 31 10000 2.65 240 11:39 18.09.2022
183 Clear 6 1015 19 10000 1.66 225 05:24 18.09.2022
184 Clear 11 1011 12 10000 5.55 271 01:27 18.09.2022
185 Clear 11 1011 12 10000 5.55 271 00:42 18.09.2022
186 Clear 16 1006 7 10000 7.87 285 21:54 17.09.2022
187 Clear 17 1008 8 10000 7.47 297 20:29 17.09.2022
188 Clear 16 1010 9 10000 7.3 301 19:19 17.09.2022
189 Clear 13 1014 13 10000 4.79 302 16:57 17.09.2022
190 Clear 6 1019 18 10000 2.35 282 13:59 17.09.2022
191 Clear 2 1019 23 10000 2.37 259 11:55 17.09.2022
192 Clear 3 1017 28 10000 2.05 276 10:28 17.09.2022
193 Clear 5 1017 57 10000 1.38 307 06:28 17.09.2022
194 Clear 7 1016 49 10000 1.94 55 02:43 17.09.2022
195 Clouds 14 1009 16 10000 4.33 344 22:58 16.09.2022
196 Clouds 16 1007 10 10000 5.52 4 21:33 16.09.2022
197 Clouds 17 1034 20 10000 6.17 30 20:31 16.09.2022
198 Clouds 14 1038 31 10000 0 0 18:18 16.09.2022
199 Clouds 7 1040 46 10000 1.54 240 15:57 16.09.2022
200 Clouds 4 1039 48 10000 1.54 240 14:32 16.09.2022
201 Clouds -2 1037 80 10000 1.54 240 12:31 16.09.2022
202 Clouds 1 1021 76 10000 1.94 301 09:34 16.09.2022
203 Clear 2 1021 72 10000 2.09 325 07:21 16.09.2022
204 Clear 2 1021 72 10000 2.09 325 06:47 16.09.2022
205 Clear 3 1021 65 10000 1.87 1 05:19 16.09.2022
206 Clear 9 1014 30 10000 3.76 61 23:50 15.09.2022
207 Clear 14 1010 6 10000 3.88 164 21:24 15.09.2022
208 Clear 16 1034 20 10000 6.17 300 20:26 15.09.2022
209 Clouds 13 1037 23 10000 9.26 240 18:54 15.09.2022
210 Clouds 11 1037 28 10000 6.17 240 17:34 15.09.2022
211 Clouds 8 1039 37 10000 1.54 240 16:57 15.09.2022
212 Clouds 1 1038 64 10000 3.09 240 14:58 15.09.2022
213 Clouds -3 1037 69 10000 0 0 12:49 15.09.2022
214 Clouds -1 1022 76 10000 1.08 283 10:34 15.09.2022
215 Clouds -1 1022 82 10000 1.26 277 09:42 15.09.2022
216 Clear 1 1023 77 10000 1.76 352 04:46 15.09.2022
217 Clouds 3 1019 51 10000 3.47 75 02:18 15.09.2022
218 Clouds 14 1008 4 10000 7.85 267 22:26 14.09.2022
219 Clouds 15 1032 25 10000 0 0 20:19 14.09.2022
220 Clouds 14 1034 29 10000 0 0 19:32 14.09.2022
221 Clouds 10 1036 37 10000 3.09 200 17:28 14.09.2022
222 Clouds 5 1036 52 10000 3.09 240 15:58 14.09.2022
223 Clouds 2 1036 56 10000 1.54 240 14:35 14.09.2022
224 Clouds -3 1036 74 10000 3.09 240 12:24 14.09.2022
225 Clouds -1 1019 13 10000 1.8 294 09:49 14.09.2022
226 Clouds 1 1019 17 10000 2.12 278 07:39 14.09.2022
227 Clouds 2 1019 18 10000 2.3 279 06:48 14.09.2022
228 Clouds 4 1018 35 10000 1.61 310 05:22 14.09.2022
229 Clouds 7 1012 16 10000 0.94 188 01:53 14.09.2022
230 Clouds 9 1010 8 10000 3.22 243 01:29 14.09.2022
231 Clouds 9 1010 8 10000 3.22 243 00:52 14.09.2022
232 Clouds 12 1007 7 10000 7.82 270 23:54 13.09.2022
233 Clouds 12 1007 7 10000 7.82 270 23:36 13.09.2022
234 Clouds 14 1006 7 10000 9.76 283 23:18 13.09.2022
235 Clouds 15 1005 10 10000 10.03 288 22:22 13.09.2022
236 Clouds 16 1030 16 10000 7.72 240 20:29 13.09.2022
237 Clouds 14 1032 23 10000 7.72 240 18:21 13.09.2022
238 Clear 6 1034 57 10000 3.09 200 15:56 13.09.2022
239 Clouds 3 1034 60 10000 3.09 240 14:47 13.09.2022
240 Clouds -2 1034 74 10000 1.54 240 13:25 13.09.2022
241 Clouds 2 1016 38 10000 1.93 283 09:49 13.09.2022
242 Clouds 4 1016 83 10000 2.48 342 07:21 13.09.2022
243 Clouds 10 1009 13 10000 2.62 284 00:31 13.09.2022
244 Clouds 14 1006 7 10000 8.63 280 22:51 12.09.2022
245 Clouds 16 1005 5 10000 9.23 282 22:22 12.09.2022
246 Clouds 16 1032 25 10000 7.72 360 20:46 12.09.2022
247 Clouds 15 1033 29 10000 4.12 300 19:22 12.09.2022
248 Clouds 11 1034 35 10000 3.09 360 17:42 12.09.2022
249 Clouds 6 1036 39 10000 3.09 320 15:22 12.09.2022
250 Clouds 1 1019 28 10000 2.4 291 11:57 12.09.2022
251 Clouds 2 1018 29 10000 2.16 290 10:20 12.09.2022
252 Clouds 5 1018 27 10000 2.45 287 05:50 12.09.2022
253 Clouds 6 1017 25 10000 2.18 287 04:30 12.09.2022
254 Clouds 13 1009 16 10000 8.13 278 23:58 11.09.2022
255 Clouds 15 1008 14 10000 9.24 289 22:43 11.09.2022
256 Clear 17 1008 12 10000 9.82 288 21:19 11.09.2022
257 Clear 17 1008 12 10000 9.82 288 20:42 11.09.2022
258 Clear 16 1010 11 10000 9.31 295 19:26 11.09.2022
259 Clear 16 1010 11 10000 9.31 295 18:38 11.09.2022
260 Clear 13 1015 16 10000 7.79 293 16:57 11.09.2022
261 Clear 8 1019 25 10000 3.8 286 15:22 11.09.2022
262 Clear 4 1020 34 10000 2.3 286 12:54 11.09.2022
263 Clear 3 1019 35 10000 2.4 275 10:35 11.09.2022
264 Clouds 6 1018 39 10000 2.4 278 07:49 11.09.2022
265 Clouds 9 1018 48 10000 1.12 21 03:34 11.09.2022
266 Clear 14 1009 30 10000 4.7 308 23:45 10.09.2022
267 Clear 17 1007 19 10000 8.28 290 21:38 10.09.2022
268 Clouds 17 1009 18 10000 6.98 305 19:58 10.09.2022
269 Clouds 17 1009 18 10000 6.98 305 19:40 10.09.2022
270 Clouds 16 1011 20 10000 6.29 322 19:20 10.09.2022
271 Clouds 13 1015 28 10000 4.14 327 16:58 10.09.2022
272 Clouds 10 1018 41 10000 3.14 323 15:32 10.09.2022
273 Clouds 4 1020 87 10000 2.22 333 13:29 10.09.2022
274 Clouds 4 1019 91 10000 2.55 333 12:26 10.09.2022
275 Clouds 4 1019 97 3712 2.22 345 10:26 10.09.2022
276 Clouds 4 1019 96 3932 2.01 334 08:37 10.09.2022
277 Clear 4 1018 95 5022 2.29 356 08:18 10.09.2022
278 Clear 7 1017 77 10000 2.79 31 03:42 10.09.2022
279 Clouds 9 1014 61 10000 4.23 71 23:35 09.09.2022
280 Clouds 10 1012 53 10000 4.94 68 22:31 09.09.2022
281 Clouds 15 1033 23 10000 8.23 30 20:49 09.09.2022
282 Clear 15 1034 27 10000 6.17 20 19:52 09.09.2022
283 Clear 15 1034 27 10000 6.17 20 19:22 09.09.2022
284 Clear 10 1037 32 10000 3.09 240 16:52 09.09.2022
285 Clear 5 1036 52 10000 1.54 240 14:42 09.09.2022
286 Clouds 0 1036 64 10000 1.54 200 13:18 09.09.2022
287 Clear 3 1016 26 10000 1.35 264 10:41 09.09.2022
288 Clear 5 1016 22 10000 1.81 239 07:25 09.09.2022
289 Clear 8 1014 18 10000 3.54 224 03:31 09.09.2022
290 Clouds 15 1007 11 10000 6.65 283 22:34 08.09.2022
291 Clouds 16 1006 10 10000 6.68 284 21:51 08.09.2022
292 Clouds 17 1032 22 10000 7.72 240 20:46 08.09.2022
293 Clouds 17 1032 22 10000 7.72 240 20:24 08.09.2022
294 Clouds 14 1034 26 10000 3.09 240 18:43 08.09.2022
295 Clouds 13 1035 33 10000 3.09 240 17:23 08.09.2022
296 Clouds 7 1035 42 10000 4.12 240 15:18 08.09.2022
297 Clouds 0 1034 75 10000 1.54 240 13:30 08.09.2022
298 Clouds 1 1033 75 10000 4.12 240 12:40 08.09.2022
299 Clouds 2 1016 16 10000 2.1 273 11:22 08.09.2022
300 Clear 2 1016 15 10000 2.07 275 09:35 08.09.2022
301 Clear 4 1016 10 10000 2.87 259 07:18 08.09.2022
302 Clear 7 1016 8 10000 3.7 234 03:37 08.09.2022
303 Clear 8 1014 7 10000 3 249 02:36 08.09.2022
304 Clear 9 1013 7 10000 2.7 268 02:18 08.09.2022
305 Clear 15 1008 4 10000 6.88 280 22:58 07.09.2022
306 Clear 16 1007 4 10000 7.03 279 21:45 07.09.2022
307 Clear 17 1007 3 10000 6.62 274 21:21 07.09.2022
308 Clear 17 1007 3 10000 6.62 274 21:21 07.09.2022
309 Clear 17 1033 22 10000 9.26 300 20:28 07.09.2022
310 Clear 15 1035 23 10000 4.12 240 18:54 07.09.2022
311 Clear 11 1037 35 10000 4.12 240 16:18 07.09.2022
312 Clear 1 1018 14 10000 2.22 275 10:52 07.09.2022
313 Clear 1 1018 14 10000 2.22 275 10:32 07.09.2022
314 Clear 3 1018 33 10000 1.69 265 08:26 07.09.2022
315 Clear 4 1019 45 10000 2.17 325 05:46 07.09.2022
316 Clear 8 1016 28 10000 3.38 12 00:31 07.09.2022
317 Clear 14 1011 7 10000 3.34 100 21:51 06.09.2022
318 Clear 14 1011 7 10000 3.34 100 21:51 06.09.2022
319 Clear 14 1011 7 10000 3.34 100 21:32 06.09.2022
320 Clear 14 1037 31 10000 7.72 240 19:38 06.09.2022
321 Clear 12 1039 33 10000 6.17 240 18:39 06.09.2022
322 Clear 10 1040 35 10000 4.12 240 17:37 06.09.2022
323 Clear 5 1041 42 10000 3.09 240 16:44 06.09.2022
324 Clear 3 1041 41 10000 3.09 240 15:58 06.09.2022
325 Clear -5 1039 74 10000 3.09 240 13:48 06.09.2022
326 Clear -5 1039 74 10000 3.09 240 13:27 06.09.2022
327 Clear -5 1039 68 10000 4.12 240 12:57 06.09.2022
328 Clear -3 1024 46 10000 1.82 260 10:55 06.09.2022
329 Clear -2 1025 73 10000 1.45 271 09:18 06.09.2022
330 Clouds -2 1024 80 10000 1.19 290 07:52 06.09.2022
331 Clouds 0 1025 81 10000 0.84 38 06:19 06.09.2022
332 Clear 7 1015 18 10000 1.8 232 00:54 06.09.2022
333 Clear 11 1011 6 10000 10.85 262 22:49 05.09.2022
334 Clear 13 1010 6 10000 9.52 275 21:38 05.09.2022
335 Clear 14 1033 21 10000 7.72 300 20:20 05.09.2022
336 Clear 12 1035 26 10000 4.12 240 18:53 05.09.2022
337 Clear 12 1035 26 10000 4.12 240 18:24 05.09.2022
338 Clear 10 1036 35 10000 0 0 17:50 05.09.2022
339 Clear 5 1037 45 10000 0 0 15:53 05.09.2022
340 Clear 1 1037 64 10000 0 0 14:40 05.09.2022
341 Clear -5 1035 80 10000 0 0 12:51 05.09.2022
342 Clear -1 1021 46 10000 1.89 303 10:37 05.09.2022
343 Clear 0 1021 65 10000 2 321 08:45 05.09.2022
344 Clear 3 1021 67 10000 2.75 32 03:57 05.09.2022
345 Clear 8 1013 23 10000 1.64 261 00:30 05.09.2022
346 Clear 13 1009 9 10000 9.74 298 22:29 04.09.2022
347 Clear 13 1009 9 10000 9.74 298 21:57 04.09.2022
348 Clear 14 1010 10 10000 9.87 300 20:26 04.09.2022
349 Clear 13 1012 10 10000 10.59 297 18:35 04.09.2022
350 Clear 13 1013 11 10000 10.61 294 17:43 04.09.2022
351 Clear 10 1017 17 10000 7.55 305 16:24 04.09.2022
352 Clouds 4 1020 46 10000 2.62 301 14:25 04.09.2022
353 Clouds 1 1021 63 10000 1.58 297 12:52 04.09.2022
354 Clouds 1 1019 66 10000 1.86 314 11:28 04.09.2022
355 Clouds 2 1019 66 10000 2.31 312 09:38 04.09.2022
356 Clouds 2 1020 85 10000 2.4 352 06:35 04.09.2022
357 Clear 4 1019 62 10000 2.67 38 03:18 04.09.2022
358 Clouds 13 1008 12 10000 7.74 286 22:56 03.09.2022
359 Clouds 14 1008 13 10000 10.29 279 22:18 03.09.2022
360 Clouds 14 1009 15 10000 10.91 284 21:22 03.09.2022
361 Clouds 14 1011 17 10000 10.33 290 18:49 03.09.2022
362 Clouds 12 1015 23 10000 5.9 310 17:22 03.09.2022
363 Clouds 12 1015 23 10000 5.9 310 17:22 03.09.2022
364 Clouds 8 1018 45 10000 3.93 324 16:20 03.09.2022
365 Clouds 6 1020 64 10000 3.13 328 14:43 03.09.2022
366 Clouds 4 1021 82 10000 3.09 337 13:50 03.09.2022
367 Clouds 3 1019 86 10000 2.35 347 11:34 03.09.2022
368 Clouds 3 1018 86 10000 1.86 346 09:37 03.09.2022
369 Clouds 3 1020 93 3789 2.79 352 07:57 03.09.2022
370 Clouds 4 1019 84 10000 2.75 19 04:56 03.09.2022
371 Clouds 5 1018 77 10000 3.15 20 03:29 03.09.2022
372 Clouds 10 1010 37 10000 4.12 343 23:49 02.09.2022
373 Clouds 13 1008 24 10000 4.59 312 22:33 02.09.2022
374 Clouds 11 1033 50 10000 6.17 360 20:57 02.09.2022
375 Clouds 11 1033 50 10000 6.17 360 20:23 02.09.2022
376 Clouds 11 1035 50 10000 7.72 60 18:59 02.09.2022
377 Clouds 11 1035 50 10000 7.72 60 18:26 02.09.2022
378 Clouds 9 1036 53 10000 6.17 20 17:30 02.09.2022
379 Clouds 9 1036 53 10000 6.17 20 17:30 02.09.2022
380 Clouds 8 1037 53 10000 3.09 60 16:45 02.09.2022
381 Clouds 0 1036 80 10000 0 0 13:51 02.09.2022
382 Clear 1 1018 87 10000 2.13 14 11:47 02.09.2022
383 Clear 2 1017 73 10000 2.05 15 09:49 02.09.2022
384 Clear 3 1017 75 10000 2.38 13 08:55 02.09.2022
385 Clear 4 1017 40 10000 2.57 32 07:24 02.09.2022
386 Clear 4 1017 40 10000 2.57 32 06:34 02.09.2022
387 Clear 8 1013 16 10000 1.29 300 02:34 02.09.2022
388 Clear 14 1008 9 10000 7.57 276 22:26 01.09.2022
389 Clear 14 1008 9 10000 7.57 276 21:40 01.09.2022
390 Clear 15 1008 9 10000 8.49 279 21:21 01.09.2022
391 Clear 15 1032 23 10000 10.29 240 20:37 01.09.2022
392 Clear 13 1034 33 10000 5.14 240 18:38 01.09.2022
393 Clear 11 1034 40 10000 5.14 240 17:21 01.09.2022
394 Clear 7 1035 42 10000 0 0 15:34 01.09.2022
395 Clear 0 1035 64 10000 0 0 13:49 01.09.2022
396 Clear -1 1034 74 10000 0 0 12:57 01.09.2022
397 Clear 2 1017 33 10000 2.1 277 11:52 01.09.2022
398 Clear 2 1017 33 10000 2.1 277 11:30 01.09.2022
399 Clear 3 1015 29 10000 2.4 281 09:49 01.09.2022
400 Clear 5 1015 26 10000 2.32 274 07:50 01.09.2022
401 Clear 6 1015 24 10000 1.95 296 06:21 01.09.2022
402 Clear 9 1012 20 10000 0.89 275 01:31 01.09.2022
403 Clear 9 1012 20 10000 0.89 275 01:31 01.09.2022
404 Clear 9 1012 20 10000 0.89 275 01:31 01.09.2022
405 Clear 14 1007 9 10000 7.1 279 23:19 31.08.2022
406 Clear 15 1008 8 10000 5.8 291 21:20 31.08.2022
407 Clear 15 1035 33 10000 3.09 240 19:23 31.08.2022
408 Clear 12 1038 38 10000 0 0 17:52 31.08.2022
409 Clear 6 1040 33 10000 1.54 240 15:44 31.08.2022
410 Clear -2 1038 69 10000 1.54 240 13:56 31.08.2022
411 Clear -2 1038 69 10000 3.09 240 12:20 31.08.2022
412 Clear 3 1019 61 10000 1.66 302 10:30 31.08.2022
413 Clear 3 1019 66 10000 1.57 316 08:34 31.08.2022
414 Clear 7 1018 42 10000 1.37 16 03:46 31.08.2022
415 Clear 14 1010 15 10000 2.06 227 22:44 30.08.2022
416 Clear 15 1009 13 10000 2.53 238 21:33 30.08.2022
417 Clear 15 1010 12 10000 2.1 242 20:47 30.08.2022
418 Clear 12 1041 38 10000 5.14 240 17:25 30.08.2022
419 Clear 3 1041 75 10000 0 0 14:42 30.08.2022
420 Clear -1 1040 86 10000 0 0 13:24 30.08.2022
421 Clear 2 1021 82 10000 1.68 304 11:21 30.08.2022
422 Clear 2 1021 82 10000 1.68 304 10:35 30.08.2022
423 Clouds 3 1022 82 10000 1.81 324 06:50 30.08.2022
424 Clouds 5 1021 69 10000 2.54 35 01:45 30.08.2022
425 Clouds 8 1016 55 10000 4.05 74 22:54 29.08.2022
426 Clouds 9 1016 54 10000 4.4 75 22:20 29.08.2022
427 Clouds 11 1015 44 10000 4.68 45 21:24 29.08.2022
428 Clouds 12 1039 44 10000 6.17 60 19:51 29.08.2022
429 Clouds 10 1042 58 10000 3.09 60 17:50 29.08.2022
430 Clouds 10 1042 58 10000 3.09 60 17:24 29.08.2022
431 Clouds 7 1043 46 10000 1.54 240 16:22 29.08.2022
432 Clouds 3 1042 70 10000 0 0 14:44 29.08.2022
433 Clouds 2 1041 75 10000 0 0 12:53 29.08.2022
434 Clouds 2 1023 89 10000 1.78 10 11:19 29.08.2022
435 Clouds 3 1023 80 10000 1.84 14 09:45 29.08.2022
436 Clouds 3 1023 77 10000 1.29 14 08:28 29.08.2022
437 Clouds 4 1023 74 10000 2.17 42 02:49 29.08.2022
438 Clouds 6 1019 59 10000 5.32 23 23:55 28.08.2022
439 Clouds 8 1018 50 10000 6.91 21 22:37 28.08.2022
440 Clouds 9 1017 45 10000 8.34 24 21:43 28.08.2022
441 Clouds 10 1017 42 10000 8.72 21 20:54 28.08.2022
442 Clouds 10 1018 39 10000 5.79 25 19:20 28.08.2022
443 Clouds 10 1020 43 10000 4.93 21 18:20 28.08.2022
444 Clouds 8 1022 47 10000 3.65 17 16:57 28.08.2022
445 Clouds 7 1023 54 10000 2.99 21 15:55 28.08.2022
446 Clouds 5 1023 67 10000 2.64 20 14:36 28.08.2022
447 Clouds 3 1023 83 10000 2.06 56 12:32 28.08.2022
448 Clouds 5 1020 67 10000 2.25 61 10:43 28.08.2022
449 Clouds 5 1020 64 10000 0.56 75 09:42 28.08.2022
450 Clouds 6 1019 64 10000 1.76 71 08:37 28.08.2022
451 Clouds 6 1019 61 10000 2.97 51 07:42 28.08.2022
452 Clouds 8 1018 47 10000 2.64 55 02:39 28.08.2022
453 Clouds 12 1011 21 10000 5.82 65 00:26 28.08.2022
454 Clouds 14 1009 14 10000 4.67 51 22:34 27.08.2022
455 Clouds 16 1008 8 10000 1.79 301 21:31 27.08.2022
456 Clear 15 1010 7 10000 1.88 339 19:44 27.08.2022
457 Clear 13 1015 6 10000 2.18 300 17:29 27.08.2022
458 Clear 11 1017 5 10000 1.85 283 15:53 27.08.2022
459 Clear 10 1017 4 10000 1.58 272 15:24 27.08.2022
460 Clear 2 1018 21 10000 1.47 272 12:23 27.08.2022
461 Clear 2 1018 21 10000 1.47 272 11:31 27.08.2022
462 Clear 3 1017 34 10000 1.56 260 09:48 27.08.2022
463 Clouds 4 1018 57 10000 1.26 253 07:54 27.08.2022
464 Clear 7 1017 49 10000 1.3 26 02:52 27.08.2022
465 Clear 11 1012 26 10000 1.68 27 23:57 26.08.2022
466 Clear 14 1010 14 10000 2.59 339 22:40 26.08.2022
467 Clear 15 1009 3 10000 4.66 273 21:19 26.08.2022
468 Clear 15 1037 23 10000 1.54 360 19:23 26.08.2022
469 Clear 10 1041 40 10000 3.09 240 16:50 26.08.2022
470 Clear 5 1041 42 10000 5.14 240 15:31 26.08.2022
471 Clear 1 1040 55 10000 3.09 240 14:30 26.08.2022
472 Clear -3 1039 80 10000 0 0 12:51 26.08.2022
473 Clouds 0 1022 67 10000 1.01 314 11:33 26.08.2022
474 Clouds 0 1021 70 10000 0.81 292 10:46 26.08.2022
475 Clouds 2 1021 67 10000 1.23 313 07:31 26.08.2022
476 Clouds 5 1020 28 10000 2.37 101 02:30 26.08.2022
477 Clouds 11 1014 4 10000 5.05 249 23:44 25.08.2022
478 Clouds 14 1012 3 10000 5.65 258 21:37 25.08.2022
479 Clouds 16 1036 22 10000 6.17 240 20:30 25.08.2022
480 Clear 15 1038 27 10000 5.14 240 19:20 25.08.2022
481 Clear 12 1041 24 10000 4.12 240 17:59 25.08.2022
482 Clear 12 1041 24 10000 4.12 240 17:31 25.08.2022
483 Clear 5 1041 33 10000 4.12 240 15:54 25.08.2022
484 Clear 5 1041 33 10000 4.12 240 15:27 25.08.2022
485 Clear -6 1040 80 10000 3.09 240 12:40 25.08.2022
486 Clear 0 1020 13 10000 1.55 271 10:48 25.08.2022
487 Clear 1 1020 20 10000 1.63 281 09:20 25.08.2022
488 Clouds 3 1020 18 10000 2.25 311 06:31 25.08.2022
489 Clouds 7 1017 7 10000 1.85 257 01:43 25.08.2022
490 Clouds 13 1013 3 10000 8.02 251 23:27 24.08.2022
491 Clouds 13 1013 3 10000 8.02 251 22:41 24.08.2022
492 Clouds 14 1013 4 10000 6.42 251 21:36 24.08.2022
493 Clouds 15 1036 27 10000 4.12 200 20:56 24.08.2022
494 Clear 14 1039 25 10000 5.14 240 19:24 24.08.2022
495 Clear 9 1041 32 10000 4.12 240 16:47 24.08.2022
496 Clear 4 1042 42 10000 3.09 240 15:52 24.08.2022
497 Clouds -4 1041 80 10000 3.09 240 13:46 24.08.2022
498 Clouds 0 1022 18 10000 1.6 256 11:58 24.08.2022
499 Clouds 1 1021 25 10000 1.36 267 11:18 24.08.2022
500 Clouds 2 1022 43 10000 0.99 302 08:26 24.08.2022
501 Clouds 4 1020 18 10000 0.58 350 03:44 24.08.2022
502 Clouds 10 1014 5 10000 5.05 246 23:47 23.08.2022
503 Clouds 12 1012 4 10000 6.61 251 22:33 23.08.2022
504 Clouds 13 1012 3 10000 6.89 254 21:39 23.08.2022
505 Clouds 15 1035 27 10000 3.09 200 20:31 23.08.2022
506 Clear 13 1038 35 10000 1.54 240 18:53 23.08.2022
507 Clear 11 1039 35 10000 1.54 240 17:51 23.08.2022
508 Clear 11 1039 35 10000 1.54 240 17:18 23.08.2022
509 Clear 4 1039 38 10000 4.12 240 15:49 23.08.2022
510 Clear 4 1021 9 10000 1.83 277 13:36 23.08.2022
511 Clear -5 1037 80 10000 0 0 12:30 23.08.2022
512 Clear 0 1019 27 10000 1.82 275 10:53 23.08.2022
513 Clear 0 1019 27 10000 1.82 275 10:32 23.08.2022
514 Clear 1 1019 41 10000 1.52 264 08:55 23.08.2022
515 Clear 1 1019 49 10000 1.33 288 08:22 23.08.2022
516 Clear 1 1019 49 10000 1.33 288 07:48 23.08.2022
517 Clear 2 1019 49 10000 1.13 298 06:58 23.08.2022
518 Clear 2 1020 50 10000 1.04 311 06:19 23.08.2022
519 Clouds 6 1017 38 10000 2.28 31 01:42 23.08.2022
520 Clouds 11 1010 16 10000 3.12 316 00:26 23.08.2022
521 Clouds 11 1010 16 10000 3.12 316 23:30 22.08.2022
522 Clouds 14 1008 9 10000 6.51 304 22:19 22.08.2022
523 Clouds 15 1033 29 10000 5.14 360 19:51 22.08.2022
524 Clouds 15 1033 29 10000 5.14 360 19:30 22.08.2022
525 Clear 13 1034 28 10000 5.14 280 18:36 22.08.2022
526 Clear 4 1036 42 10000 1.54 240 15:45 22.08.2022
527 Clear 0 1036 60 10000 1.54 240 14:46 22.08.2022
528 Clear -1 1021 52 10000 1.58 302 11:20 22.08.2022
529 Clear 0 1021 51 10000 2.06 322 09:20 22.08.2022
530 Clear 2 1022 42 10000 2.61 358 04:45 22.08.2022
531 Clear 5 1019 31 10000 3.2 38 00:56 22.08.2022
532 Clear 5 1019 31 10000 3.2 38 00:36 22.08.2022
533 Clear 9 1015 20 10000 4.71 75 22:57 21.08.2022
534 Clear 11 1012 14 10000 5.87 68 21:50 21.08.2022
535 Clear 13 1012 8 10000 4.62 60 21:18 21.08.2022
536 Clear 12 1013 8 10000 3.91 36 19:42 21.08.2022
537 Clear 11 1015 8 10000 3.13 17 18:35 21.08.2022
538 Clear 9 1019 10 10000 2.05 360 16:34 21.08.2022
539 Clear 7 1021 13 10000 1.56 352 15:51 21.08.2022
540 Clear 5 1022 17 10000 1.12 319 14:41 21.08.2022
541 Clear 3 1023 21 10000 0.91 306 13:44 21.08.2022
542 Clear -1 1023 30 10000 0.85 318 12:53 21.08.2022
543 Clear -1 1021 29 10000 1.06 312 10:36 21.08.2022
544 Clear 0 1022 31 10000 1.4 312 08:57 21.08.2022
545 Clear 0 1022 31 10000 1.4 312 08:38 21.08.2022
546 Clear 0 1022 30 10000 1.59 322 07:53 21.08.2022
547 Clear 2 1023 26 10000 2.12 7 05:39 21.08.2022
548 Clear 6 1018 19 10000 2.76 53 00:54 21.08.2022
549 Clear 8 1016 15 10000 3.9 70 23:32 20.08.2022
550 Clear 11 1013 8 10000 2.93 98 21:51 20.08.2022
551 Clear 11 1014 7 10000 2.1 87 20:50 20.08.2022
552 Clear 11 1015 7 10000 1.12 75 19:42 20.08.2022
553 Clear 10 1017 7 10000 0.31 31 18:45 20.08.2022
554 Clear 9 1019 9 10000 0.53 330 18:25 20.08.2022
555 Clear 7 1021 12 10000 0.56 319 17:20 20.08.2022
556 Clear 5 1023 19 10000 0.6 308 15:52 20.08.2022
557 Clear 2 1025 37 10000 0.86 297 13:48 20.08.2022
558 Clear -3 1023 55 10000 0.34 286 11:56 20.08.2022
559 Clear -3 1023 55 10000 0.34 286 11:36 20.08.2022
560 Clear -2 1024 57 10000 1.3 268 09:20 20.08.2022
561 Clear -1 1024 45 10000 1.51 285 07:30 20.08.2022
562 Clear 0 1025 35 10000 1.59 346 04:50 20.08.2022
563 Clouds 3 1022 42 10000 3.35 45 00:57 20.08.2022
564 Clouds 4 1021 46 10000 4.43 64 23:45 19.08.2022
565 Clouds 6 1019 43 10000 4.42 84 22:45 19.08.2022
566 Clouds 9 1016 25 10000 5 50 21:20 19.08.2022
567 Clear 9 1042 29 10000 4.12 60 18:59 19.08.2022
568 Clear 9 1042 29 10000 4.12 60 18:59 19.08.2022
569 Clear 9 1042 29 10000 4.12 60 18:59 19.08.2022
570 Clear 9 1042 29 10000 4.12 60 18:59 19.08.2022
571 Clear 3 1043 45 10000 0 0 15:58 19.08.2022
572 Clear -6 1042 80 10000 0 0 13:44 19.08.2022
573 Clear -3 1027 79 10000 1.43 326 11:51 19.08.2022
574 Clear -3 1026 74 10000 1.79 337 10:31 19.08.2022
575 Clear -2 1025 61 10000 2.03 343 08:43 19.08.2022
576 Clear 1 1025 42 10000 2.52 56 04:39 19.08.2022
577 Clear 5 1019 7 10000 2.31 71 00:40 19.08.2022
578 Clear 7 1016 5 10000 3.97 82 00:19 19.08.2022
579 Clear 9 1014 4 10000 3.7 97 22:56 18.08.2022
580 Clear 10 1013 3 10000 2.23 87 22:23 18.08.2022
581 Clear 10 1013 3 10000 2.23 87 21:49 18.08.2022
582 Clear 11 1033 22 10000 4.12 200 20:47 18.08.2022
583 Clear 10 1034 25 10000 4.12 240 19:35 18.08.2022
584 Clear 10 1035 25 10000 4.12 200 18:43 18.08.2022
585 Clear 8 1035 31 10000 4.12 240 17:32 18.08.2022
586 Clear 2 1036 56 10000 6.17 240 15:53 18.08.2022
587 Clear -2 1036 59 10000 5.14 240 14:21 18.08.2022
588 Clear -7 1035 79 10000 5.14 200 13:44 18.08.2022
589 Clear -6 1035 74 10000 5.14 240 12:28 18.08.2022
590 Clear -4 1022 12 10000 2.58 277 11:20 18.08.2022
591 Clear -3 1021 11 10000 2.94 282 09:43 18.08.2022
592 Clear -2 1021 10 10000 3.44 286 07:27 18.08.2022
593 Clear -2 1021 10 10000 3.44 286 06:30 18.08.2022
594 Clouds 4 1015 14 10000 5.69 228 01:44 18.08.2022
595 Clear 10 1009 8 10000 8.37 258 22:45 17.08.2022
596 Clear 13 1030 18 10000 10.29 240 20:30 17.08.2022
597 Clear 12 1030 21 10000 10.29 240 19:58 17.08.2022
598 Clear 11 1031 24 10000 9.26 240 18:37 17.08.2022
599 Clear 9 1032 32 10000 6.17 240 17:21 17.08.2022
600 Clear 5 1032 49 10000 7.72 240 15:46 17.08.2022
601 Clear 3 1032 45 10000 6.17 240 14:41 17.08.2022
602 Clear 0 1031 64 10000 5.14 240 12:30 17.08.2022
603 Clear -1 1015 16 10000 2.77 279 11:25 17.08.2022
604 Clear 1 1014 17 10000 2.45 283 09:22 17.08.2022
605 Clear 2 1014 17 10000 2.24 293 06:50 17.08.2022
606 Clouds 6 1012 11 10000 3.5 269 01:23 17.08.2022
607 Clouds 9 1010 9 10000 7.18 270 23:32 16.08.2022
608 Clouds 11 1009 7 10000 6.97 269 21:33 16.08.2022
609 Clear 13 1031 26 10000 7.72 240 20:25 16.08.2022
610 Clear 12 1032 30 10000 9.26 240 19:40 16.08.2022
611 Clear 9 1034 32 10000 4.12 240 17:56 16.08.2022
612 Clear 9 1034 32 10000 4.12 240 17:56 16.08.2022
613 Clear 9 1034 32 10000 4.12 240 17:23 16.08.2022
614 Clear 3 1035 52 10000 0 0 15:45 16.08.2022
615 Clear -1 1035 64 10000 0 0 14:55 16.08.2022
616 Clear -1 1035 64 10000 0 0 14:36 16.08.2022
617 Clouds 0 1020 26 10000 2.08 259 12:40 16.08.2022
618 Clouds 1 1018 21 10000 3.1 240 10:29 16.08.2022
619 Clouds 1 1018 20 10000 2.98 229 09:29 16.08.2022
620 Clouds 2 1018 18 10000 2.38 234 08:26 16.08.2022
621 Clouds 2 1017 18 10000 2.37 279 07:23 16.08.2022
622 Clouds 8 1012 12 10000 2.83 289 01:23 16.08.2022
623 Clouds 13 1008 8 10000 10.93 285 22:29 15.08.2022
624 Clouds 13 1008 8 10000 10.93 285 21:51 15.08.2022
625 Clouds 15 1033 23 10000 7.72 240 20:47 15.08.2022
626 Clouds 15 1033 23 10000 7.72 240 20:18 15.08.2022
627 Clouds 13 1035 28 10000 1.54 240 18:31 15.08.2022
628 Clouds 8 1036 31 10000 1.54 240 16:47 15.08.2022
629 Clouds 8 1036 31 10000 1.54 240 16:21 15.08.2022
630 Clouds -5 1035 93 10000 2.57 60 13:55 15.08.2022
631 Clouds -5 1035 93 10000 2.57 60 12:29 15.08.2022
632 Clouds 2 1017 19 10000 2.41 283 09:59 15.08.2022
633 Clouds 3 1017 20 10000 2.23 275 08:22 15.08.2022
634 Clouds 6 1016 19 10000 1.86 267 04:55 15.08.2022
635 Clouds 8 1015 15 10000 2.32 256 02:19 15.08.2022
636 Clouds 14 1010 6 10000 6.36 265 22:39 14.08.2022
637 Clouds 15 1009 5 10000 6.87 269 21:39 14.08.2022
638 Clouds 16 1010 5 10000 7.3 266 20:24 14.08.2022
639 Clouds 16 1010 5 10000 7.3 266 19:31 14.08.2022
640 Clouds 14 1013 8 10000 4.44 287 18:20 14.08.2022
641 Clouds 12 1015 11 10000 3.64 301 16:55 14.08.2022
642 Clouds 10 1017 13 10000 2.49 294 15:51 14.08.2022
643 Clouds 8 1018 16 10000 2.23 293 14:37 14.08.2022
644 Clouds 6 1019 21 10000 1.87 269 13:50 14.08.2022
645 Clouds 2 1019 30 10000 1.9 268 13:24 14.08.2022
646 Clouds 2 1019 30 10000 1.9 268 12:34 14.08.2022
647 Clouds 3 1017 39 10000 1.68 281 11:18 14.08.2022
648 Clouds 4 1017 48 10000 1.5 271 08:53 14.08.2022
649 Clear 5 1018 48 10000 1.67 342 06:23 14.08.2022
650 Clear 5 1018 48 10000 1.67 342 06:23 14.08.2022
651 Clear 7 1017 41 10000 1.55 5 03:48 14.08.2022
652 Clouds 10 1014 24 10000 1.98 337 00:39 14.08.2022
653 Clouds 15 1009 10 10000 4.43 308 22:56 13.08.2022
654 Clouds 16 1008 8 10000 5.02 305 21:55 13.08.2022
655 Clouds 16 1009 8 10000 4.04 335 20:49 13.08.2022
656 Clouds 15 1011 10 10000 3.28 357 19:46 13.08.2022
657 Clouds 13 1015 13 10000 3.3 338 18:19 13.08.2022
658 Clouds 10 1019 17 10000 2.06 302 15:57 13.08.2022
659 Clouds 8 1019 20 10000 1.74 286 14:40 13.08.2022
660 Clouds 6 1020 24 10000 1.61 279 13:46 13.08.2022
661 Clouds 2 1020 31 10000 1.83 272 13:23 13.08.2022
662 Clouds 3 1019 28 10000 2.38 249 10:44 13.08.2022
663 Clouds 4 1019 26 10000 2.28 244 09:22 13.08.2022
664 Clouds 6 1017 20 10000 1.98 273 06:26 13.08.2022
665 Clouds 9 1014 14 10000 3.41 275 00:44 13.08.2022
666 Clouds 14 1009 8 10000 8.49 285 22:37 12.08.2022
667 Clouds 16 1008 7 10000 7.74 298 21:35 12.08.2022
668 Clouds 16 1036 25 10000 5.14 300 19:47 12.08.2022
669 Clouds 16 1036 25 10000 5.14 300 19:22 12.08.2022
670 Clouds 13 1039 33 10000 0 0 17:59 12.08.2022
671 Clear 10 1039 30 10000 0 0 16:26 12.08.2022
672 Clear 3 1039 45 10000 0 0 14:50 12.08.2022
673 Clear 0 1039 69 10000 0 0 13:30 12.08.2022
674 Clear 0 1038 69 10000 0 0 12:25 12.08.2022
675 Clear 3 1019 18 10000 1.49 282 08:50 12.08.2022
676 Clear 4 1019 21 10000 1.8 284 07:45 12.08.2022
677 Clear 5 1018 23 10000 2.04 335 04:55 12.08.2022
678 Clear 9 1015 14 10000 2.54 34 00:32 12.08.2022
679 Clear 11 1013 10 10000 4.17 43 23:55 11.08.2022
680 Clear 14 1011 5 10000 5.35 36 22:45 11.08.2022
681 Clear 15 1011 4 10000 3.94 25 21:53 11.08.2022
682 Clear 15 1011 4 10000 3.31 16 21:28 11.08.2022
683 Clear 16 1036 25 10000 4.12 360 20:30 11.08.2022
684 Clear 15 1039 25 10000 4.12 300 19:33 11.08.2022
685 Clear 13 1041 30 10000 1.54 200 18:53 11.08.2022
686 Clear 8 1041 37 10000 6.17 240 16:46 11.08.2022
687 Clear 4 1041 48 10000 5.14 240 15:43 11.08.2022
688 Clear 1 1040 55 10000 5.14 240 14:36 11.08.2022
689 Clear 0 1021 15 10000 1.96 242 11:56 11.08.2022
690 Clear 1 1020 22 10000 1.65 259 09:22 11.08.2022
691 Clear 2 1022 31 10000 1.43 270 06:49 11.08.2022
692 Clear 5 1021 29 10000 0.93 345 02:38 11.08.2022
693 Clear 9 1017 17 10000 2.6 110 23:57 10.08.2022
694 Clear 12 1014 6 10000 2 153 21:49 10.08.2022
695 Clear 12 1015 6 10000 0.85 118 21:18 10.08.2022
696 Clear 15 1038 27 10000 3.09 240 20:36 10.08.2022
697 Clear 11 1042 35 10000 3.09 300 18:53 10.08.2022
698 Clear 8 1042 37 10000 0 0 17:27 10.08.2022
699 Clear -1 1043 59 10000 1.54 240 14:57 10.08.2022
700 Clouds -5 1042 80 10000 1.54 240 13:34 10.08.2022
701 Clouds -2 1028 93 10000 2.08 298 10:51 10.08.2022
702 Clouds -1 1028 97 10000 2.13 320 08:42 10.08.2022
703 Clear -1 1027 96 10000 2.3 343 07:35 10.08.2022
704 Clear 1 1027 87 10000 2.39 2 05:46 10.08.2022
705 Clear 3 1024 39 10000 2.11 91 02:22 10.08.2022
706 Clear 7 1019 12 10000 2.49 131 23:33 09.08.2022
707 Clear 10 1017 5 10000 3.6 190 22:48 09.08.2022
708 Clear 11 1016 4 10000 5.5 217 21:33 09.08.2022
709 Clear 11 1037 28 10000 4.12 240 19:33 09.08.2022
710 Clear 9 1039 46 10000 6.17 240 17:59 09.08.2022
711 Clear 9 1039 46 10000 6.17 240 17:26 09.08.2022
712 Clear 7 1039 39 10000 7.72 240 16:33 09.08.2022
713 Clear 4 1038 48 10000 6.17 240 15:31 09.08.2022
714 Clear -3 1036 86 10000 1.54 240 12:20 09.08.2022
715 Clear -1 1021 10 10000 2.16 270 08:55 09.08.2022
716 Clouds 0 1021 11 10000 2.34 283 08:26 09.08.2022
717 Clouds 1 1020 11 10000 2.19 289 07:18 09.08.2022
718 Clouds 4 1018 10 10000 2.97 258 02:54 09.08.2022
719 Clear 10 1009 10 10000 11.44 293 23:26 08.08.2022
720 Clear 10 1009 10 10000 11.44 293 22:52 08.08.2022
721 Clear 11 1009 9 10000 13.52 288 21:48 08.08.2022
722 Clouds 12 1031 26 10000 9.26 340 20:52 08.08.2022
723 Clouds 11 1032 32 10000 7.72 300 19:50 08.08.2022
724 Clear 10 1034 40 10000 4.12 300 18:19 08.08.2022
725 Clear 2 1035 65 10000 4.12 240 15:57 08.08.2022
726 Clear 2 1035 65 10000 4.12 240 15:38 08.08.2022
727 Clear -5 1034 86 10000 0 0 12:39 08.08.2022
728 Clear -2 1018 18 10000 1.28 301 11:32 08.08.2022
729 Clear -1 1018 20 10000 1.34 333 09:29 08.08.2022
730 Clouds 2 1017 15 10000 1.41 318 05:35 08.08.2022
731 Clouds 4 1015 13 10000 1.51 253 01:55 08.08.2022
732 Clouds 9 1011 7 10000 8.15 275 21:51 07.08.2022
733 Clouds 9 1011 7 10000 8.15 275 21:32 07.08.2022
734 Clouds 11 1011 5 10000 8.31 280 20:25 07.08.2022
735 Clouds 11 1011 5 10000 8.31 280 19:53 07.08.2022
736 Clouds 10 1012 5 10000 6.48 283 19:29 07.08.2022
737 Clouds 9 1014 6 10000 4.79 300 18:21 07.08.2022
738 Clouds 7 1017 8 10000 3.78 303 16:53 07.08.2022
739 Clouds 5 1019 12 10000 2.8 301 15:54 07.08.2022
740 Clouds 3 1020 17 10000 1.84 290 14:39 07.08.2022
741 Clouds -1 1021 27 10000 1.76 306 12:59 07.08.2022
742 Clouds -1 1019 28 10000 1.69 281 10:59 07.08.2022
743 Clouds -1 1019 29 10000 1.75 277 10:28 07.08.2022
744 Clear 2 1019 32 10000 2.04 282 04:58 07.08.2022
745 Clear 4 1017 27 10000 2.53 257 03:19 07.08.2022
746 Clouds 8 1012 17 10000 7.55 268 23:37 06.08.2022
747 Clouds 10 1010 15 10000 8.87 268 22:20 06.08.2022
748 Clouds 11 1011 16 10000 10.73 274 20:24 06.08.2022
749 Clouds 11 1011 16 10000 10.24 280 19:39 06.08.2022
750 Clouds 10 1013 17 10000 11.19 292 18:22 06.08.2022
751 Clouds 9 1015 22 10000 11.61 290 17:28 06.08.2022
752 Clouds 5 1018 40 10000 6.79 291 14:31 06.08.2022
753 Clouds 2 1019 51 10000 3.48 278 13:40 06.08.2022
754 Clear 1 1017 54 10000 2.5 292 11:24 06.08.2022
755 Clear 2 1016 49 10000 2.35 274 09:51 06.08.2022
756 Clouds 3 1016 44 10000 2.47 286 08:28 06.08.2022
757 Clouds 5 1015 56 10000 1.19 345 03:35 06.08.2022
758 Clouds 9 1009 43 10000 3.43 325 23:32 05.08.2022
759 Clouds 13 1005 20 10000 8.26 280 22:22 05.08.2022
760 Clouds 14 1033 26 10000 0 0 19:32 05.08.2022
761 Clouds 13 1034 30 10000 0 0 18:44 05.08.2022
762 Clouds 11 1035 37 10000 0 0 17:27 05.08.2022
763 Clouds 9 1035 46 10000 0 0 16:48 05.08.2022
764 Clouds 9 1035 46 10000 0 0 16:48 05.08.2022
765 Clouds 6 1035 57 10000 0 0 15:22 05.08.2022
766 Clouds 1 1035 69 10000 0 0 14:19 05.08.2022
767 Clouds 1 1035 69 10000 0 0 13:23 05.08.2022
768 Clouds 2 1034 70 10000 1.54 240 12:28 05.08.2022
769 Clear 2 1016 84 10000 1.83 354 10:49 05.08.2022
770 Clouds 3 1017 80 10000 1.28 343 08:25 05.08.2022
771 Clouds 4 1016 67 10000 1.94 337 06:41 05.08.2022
772 Clear 7 1012 30 10000 0.75 10 00:34 05.08.2022
773 Clear 13 1008 5 10000 7.26 285 22:31 04.08.2022
774 Clear 15 1007 4 10000 7.84 288 21:27 04.08.2022
775 Clear 15 1032 23 10000 4.12 360 20:43 04.08.2022
776 Clear 14 1033 23 10000 4.12 300 19:46 04.08.2022
777 Clear 13 1034 26 10000 5.14 270 18:41 04.08.2022
778 Clear 13 1034 26 10000 5.14 270 18:23 04.08.2022
779 Clear 0 1036 64 10000 3.09 240 14:38 04.08.2022
780 Clear -4 1035 80 10000 1.54 240 13:18 04.08.2022
781 Clear 0 1018 14 10000 1.95 282 11:33 04.08.2022
782 Clear 2 1017 17 10000 1.99 301 07:55 04.08.2022
783 Clear 3 1017 18 10000 1.67 313 06:42 04.08.2022
784 Clear 6 1015 17 10000 1.29 252 02:38 04.08.2022
785 Clear 10 1011 12 10000 6.3 273 23:49 03.08.2022
786 Clear 12 1009 10 10000 8.81 284 23:27 03.08.2022
787 Clear 16 1031 22 10000 7.72 240 20:57 03.08.2022
788 Clouds 15 1032 29 10000 6.17 300 19:56 03.08.2022
789 Clouds 14 1033 33 10000 4.12 260 18:40 03.08.2022
790 Clouds 9 1034 37 10000 1.54 240 16:27 03.08.2022
791 Clouds 7 1035 42 10000 1.54 240 15:53 03.08.2022
792 Clouds 0 1034 60 10000 1.54 240 13:32 03.08.2022
793 Clouds 4 1014 49 10000 1.8 271 09:55 03.08.2022
794 Clouds 6 1015 53 10000 1.63 318 07:21 03.08.2022
795 Clear 7 1014 45 10000 1.14 15 04:22 03.08.2022
796 Clear 8 1013 39 10000 0.37 96 03:22 03.08.2022
797 Clouds 10 1010 28 10000 0.25 240 00:46 03.08.2022
798 Clear 14 1006 12 10000 6.18 283 22:33 02.08.2022
799 Clear 15 1005 10 10000 6.24 286 21:50 02.08.2022
800 Clear 16 1032 25 10000 3.09 240 20:27 02.08.2022
801 Clear 12 1034 35 10000 1.54 240 17:47 02.08.2022
802 Clear 2 1035 44 10000 1.54 240 14:39 02.08.2022
803 Clear 3 1014 32 10000 1.42 261 10:49 02.08.2022
804 Clear 4 1015 50 10000 1.52 259 08:54 02.08.2022
805 Clear 5 1016 69 10000 1.45 249 07:52 02.08.2022
806 Clear 6 1016 60 10000 1.67 8 04:59 02.08.2022
807 Clear 7 1015 50 10000 1.97 34 03:36 02.08.2022
808 Clear 12 1009 16 10000 2.71 240 23:32 01.08.2022
809 Clear 15 1006 11 10000 4.36 261 22:21 01.08.2022
810 Clear 17 1032 27 10000 0 0 20:40 01.08.2022
811 Clear 16 1033 29 10000 0 0 19:22 01.08.2022
812 Clear 12 1036 28 10000 1.54 240 17:27 01.08.2022
813 Clear 10 1036 32 10000 0 0 16:50 01.08.2022
814 Clear 6 1036 39 10000 0 0 15:48 01.08.2022
815 Clear 6 1036 39 10000 0 0 15:28 01.08.2022
816 Clear -2 1035 74 10000 0 0 13:44 01.08.2022
817 Clear 3 1016 53 10000 1.14 311 11:49 01.08.2022
818 Clear 4 1015 54 10000 0.98 297 09:38 01.08.2022
819 Clear 5 1016 48 10000 1.38 322 08:20 01.08.2022
820 Clear 7 1016 32 10000 1.3 22 04:45 01.08.2022
821 Clear 8 1015 20 10000 1.06 248 02:31 01.08.2022
822 Clear 13 1009 10 10000 2.14 217 23:42 31.07.2022
823 Clear 15 1008 6 10000 3.75 258 22:36 31.07.2022
824 Clear 16 1008 6 10000 2.36 291 20:49 31.07.2022
825 Clear 15 1011 6 10000 2.15 306 19:25 31.07.2022
826 Clear 14 1013 6 10000 2.06 309 17:44 31.07.2022
827 Clear 11 1016 9 10000 1.75 295 15:30 31.07.2022
828 Clear 7 1018 16 10000 1.39 263 13:31 31.07.2022
829 Clear 4 1016 17 10000 1.85 241 11:45 31.07.2022
830 Clouds 5 1015 21 10000 1.84 261 09:27 31.07.2022
831 Clouds 6 1016 20 10000 1.64 275 06:43 31.07.2022
832 Clear 9 1015 31 10000 1.01 297 02:57 31.07.2022
833 Clear 16 1007 11 10000 0.34 198 23:30 30.07.2022
834 Clear 16 1007 8 10000 0.76 97 22:19 30.07.2022
835 Clear 16 1007 8 10000 0.76 97 21:47 30.07.2022
836 Clear 16 1008 8 10000 0.6 64 20:51 30.07.2022
837 Clouds 16 1009 9 10000 0.87 337 19:58 30.07.2022
838 Clouds 14 1013 12 10000 1.36 304 18:26 30.07.2022
839 Clouds 14 1013 12 10000 1.36 304 17:41 30.07.2022
840 Clouds 11 1016 17 10000 1.56 298 15:38 30.07.2022
841 Clouds 9 1017 20 10000 1.58 273 14:53 30.07.2022
842 Clouds 4 1016 31 10000 1.5 254 12:47 30.07.2022
843 Clouds 4 1016 32 10000 1.7 253 11:55 30.07.2022
844 Clear 4 1016 42 10000 1.72 244 10:28 30.07.2022
845 Clear 4 1016 42 10000 1.72 244 09:46 30.07.2022
846 Clouds 4 1018 69 10000 1.39 235 07:54 30.07.2022
847 Clouds 7 1017 69 10000 1.42 24 02:36 30.07.2022
848 Clouds 8 1016 67 10000 1.57 52 01:46 30.07.2022
849 Clouds 16 1008 14 10000 1.56 135 22:25 29.07.2022
850 Clear 16 1009 13 10000 0.95 103 21:23 29.07.2022
851 Clear 17 1035 27 10000 0 0 19:57 29.07.2022
852 Clear 13 1039 24 10000 0 0 17:53 29.07.2022
853 Clear 7 1039 34 10000 1.54 240 15:21 29.07.2022
854 Clear 0 1037 64 10000 0 0 12:59 29.07.2022
855 Clear 3 1019 62 10000 1.66 303 10:42 29.07.2022
856 Clear 4 1019 64 10000 1.74 334 08:50 29.07.2022
857 Clouds 5 1019 67 10000 1.94 350 07:54 29.07.2022
858 Clouds 10 1015 25 10000 0.58 237 01:47 29.07.2022
859 Clouds 16 1009 11 10000 1.92 135 22:49 28.07.2022
860 Clouds 16 1010 10 10000 0.14 217 21:00 28.07.2022
861 Clouds 18 1035 26 10000 3.09 240 20:31 28.07.2022
862 Clouds 17 1039 25 10000 4.12 240 19:43 28.07.2022
863 Clouds 15 1040 27 10000 4.12 240 18:50 28.07.2022
864 Clouds 13 1041 28 10000 4.12 240 17:43 28.07.2022
865 Clouds 10 1041 32 10000 3.09 240 16:55 28.07.2022
866 Clouds 12 1017 17 10000 1.66 294 15:32 28.07.2022
867 Clear 1 1040 55 10000 1.54 240 13:29 28.07.2022
868 Clear 5 1017 32 10000 1.49 264 11:27 28.07.2022
869 Clouds 6 1018 40 10000 1.22 290 06:45 28.07.2022
870 Clear 7 1018 40 10000 1.27 296 05:31 28.07.2022
871 Clear 9 1018 32 10000 1.79 30 02:40 28.07.2022
872 Clear 15 1012 10 10000 3.13 32 22:45 27.07.2022
873 Clear 15 1012 9 10000 2.88 9 21:29 27.07.2022
874 Clouds 16 1040 27 10000 3.09 60 19:44 27.07.2022
875 Clouds 15 1041 29 10000 3.09 60 18:39 27.07.2022
876 Clouds 7 1043 53 10000 1.54 240 15:52 27.07.2022
877 Clear 7 1043 53 10000 1.54 240 15:20 27.07.2022
878 Clear 3 1042 65 10000 0 0 14:40 27.07.2022
879 Clouds 0 1041 75 10000 1.54 240 12:52 27.07.2022
880 Clear 5 1020 67 10000 0.47 287 08:55 27.07.2022
881 Clouds 5 1020 71 10000 0.78 271 07:33 27.07.2022
882 Clouds 8 1019 54 10000 2.08 38 02:43 27.07.2022
883 Clouds 13 1012 23 10000 4.54 47 22:39 26.07.2022
884 Clouds 15 1012 19 10000 5.04 31 21:23 26.07.2022
885 Clouds 16 1037 29 10000 3.09 60 20:43 26.07.2022
886 Clouds 15 1041 33 10000 1.54 60 18:44 26.07.2022
887 Clouds 15 1041 33 10000 1.54 60 18:20 26.07.2022
888 Clouds 11 1042 37 10000 0 0 16:46 26.07.2022
889 Clear 7 1041 49 10000 0 0 15:42 26.07.2022
890 Clear 0 1040 69 10000 0 0 13:47 26.07.2022
891 Clear 3 1019 74 10000 1.11 283 11:40 26.07.2022
892 Clear 4 1019 71 10000 0.68 299 09:32 26.07.2022
893 Clear 5 1020 70 10000 0.8 288 07:31 26.07.2022
894 Clouds 9 1016 46 10000 2.28 58 01:21 26.07.2022
895 Clouds 10 1014 38 10000 3.26 82 23:33 25.07.2022
896 Clouds 13 1011 24 10000 3.83 88 22:33 25.07.2022
897 Clouds 14 1010 14 10000 1.48 116 21:43 25.07.2022
898 Clear 17 1035 29 10000 1.54 60 20:42 25.07.2022
899 Clear 17 1038 32 10000 0 0 19:51 25.07.2022
900 Clear 15 1039 33 10000 0 0 18:23 25.07.2022
901 Clear 13 1040 35 10000 0 0 17:34 25.07.2022
902 Clear 6 1041 33 10000 3.09 240 15:37 25.07.2022
903 Clear -1 1039 69 10000 0 0 12:47 25.07.2022
904 Clear 3 1018 45 10000 0.88 263 10:42 25.07.2022
905 Clear 5 1018 37 10000 1.21 327 06:52 25.07.2022
906 Clouds 12 1012 20 10000 0.68 64 23:57 24.07.2022
907 Clouds 14 1010 15 10000 1.44 289 23:22 24.07.2022
908 Clouds 14 1010 15 10000 1.44 289 22:41 24.07.2022
909 Clouds 14 1010 14 10000 1.18 336 21:30 24.07.2022
910 Clouds 14 1011 14 10000 2.06 7 20:57 24.07.2022
911 Clouds 14 1010 14 10000 2.43 332 20:32 24.07.2022
912 Clear 13 1013 14 10000 2.38 333 18:59 24.07.2022
913 Clear 11 1016 15 10000 1.9 295 16:54 24.07.2022
914 Clear 9 1018 16 10000 1.86 283 15:54 24.07.2022
915 Clear 7 1018 18 10000 1.49 278 14:41 24.07.2022
916 Clear 7 1018 18 10000 1.49 278 14:41 24.07.2022
917 Clouds 5 1019 23 10000 1.51 278 13:47 24.07.2022
918 Clouds 3 1018 26 10000 1.97 259 12:19 24.07.2022
919 Clear 3 1017 27 10000 1.8 254 11:29 24.07.2022
920 Clear 3 1017 27 10000 1.83 257 09:33 24.07.2022
921 Clear 4 1016 26 10000 1.8 257 07:53 24.07.2022
922 Clear 5 1016 27 10000 1.51 261 07:26 24.07.2022
923 Clear 8 1015 23 10000 2.58 238 02:52 24.07.2022
924 Clouds 14 1009 13 10000 7.4 279 22:45 23.07.2022
925 Clear 15 1008 12 10000 2.98 318 20:47 23.07.2022
926 Clear 13 1012 14 10000 2.61 314 18:59 23.07.2022
927 Clear 12 1013 15 10000 2.29 314 18:18 23.07.2022
928 Clouds 11 1015 15 10000 1.81 309 17:25 23.07.2022
929 Clear 10 1016 16 10000 1.6 292 16:22 23.07.2022
930 Clear 8 1017 18 10000 1.49 279 15:21 23.07.2022
931 Clear 8 1017 18 10000 1.49 279 14:52 23.07.2022
932 Clouds 6 1018 25 10000 1.45 266 14:21 23.07.2022
933 Clouds 3 1016 27 10000 1.55 255 11:56 23.07.2022
934 Clouds 3 1015 26 10000 1.68 263 10:41 23.07.2022
935 Clear 3 1015 27 10000 1.16 264 09:38 23.07.2022
936 Clear 5 1016 27 10000 1.15 273 07:18 23.07.2022
937 Clear 7 1016 24 10000 1.64 251 03:37 23.07.2022
938 Clear 9 1012 19 10000 1.55 249 00:34 23.07.2022
939 Clear 15 1008 9 10000 5.12 282 21:36 22.07.2022
940 Clear 16 1033 25 10000 3.09 360 20:31 22.07.2022
941 Clear 14 1011 9 10000 2.86 323 18:42 22.07.2022
942 Clear 13 1037 35 10000 0 0 17:40 22.07.2022
943 Clear 7 1037 36 10000 0 0 15:48 22.07.2022
944 Clear 0 1036 51 10000 1.54 240 13:24 22.07.2022
945 Clear 3 1016 19 10000 1.7 283 10:23 22.07.2022
946 Clear 4 1016 20 10000 1.74 306 09:24 22.07.2022
947 Clouds 4 1016 21 10000 2.03 334 07:58 22.07.2022
948 Clouds 7 1016 17 10000 1.35 330 04:24 22.07.2022
949 Clear 11 1011 11 10000 2.79 3 23:44 21.07.2022
950 Clouds 15 1009 6 10000 4.4 339 21:55 21.07.2022
951 Clouds 17 1035 25 10000 4.12 60 20:36 21.07.2022
952 Clouds 15 1038 29 10000 4.12 60 18:52 21.07.2022
953 Clouds 13 1039 35 10000 2.57 60 17:22 21.07.2022
954 Clouds 8 1039 37 10000 1.54 240 16:43 21.07.2022
955 Clouds 3 1038 48 10000 0 0 14:49 21.07.2022
956 Clouds 0 1038 64 10000 1.54 240 13:58 21.07.2022
957 Clouds 0 1037 64 10000 1.54 240 12:27 21.07.2022
958 Clouds 4 1017 33 10000 1.29 299 10:37 21.07.2022
959 Clouds 5 1017 35 10000 1.13 290 08:54 21.07.2022
960 Clouds 5 1017 35 10000 1.13 290 08:35 21.07.2022
961 Clouds 6 1018 44 10000 1.28 285 07:23 21.07.2022
962 Clear 7 1018 49 10000 1.52 329 03:48 21.07.2022
963 Clouds 14 1011 15 10000 2.41 28 23:23 20.07.2022
964 Clouds 14 1011 14 10000 1.66 21 22:20 20.07.2022
965 Clouds 16 1036 29 10000 3.09 360 20:50 20.07.2022
966 Clouds 14 1012 15 10000 2.91 348 19:48 20.07.2022
967 Clouds 14 1014 17 10000 2.73 358 19:20 20.07.2022
968 Clouds 14 1039 33 10000 3.09 240 18:33 20.07.2022
969 Clouds 13 1040 35 10000 3.09 240 17:43 20.07.2022
970 Clouds 5 1042 52 10000 1.54 240 15:59 20.07.2022
971 Clouds 2 1041 70 10000 0 0 14:54 20.07.2022
972 Clouds 1 1041 75 10000 0 0 13:53 20.07.2022
973 Clouds 4 1019 74 10000 0.77 290 11:32 20.07.2022
974 Clouds 5 1021 81 10000 1.21 275 07:50 20.07.2022
975 Clouds 8 1020 66 10000 1.81 14 02:45 20.07.2022
976 Clouds 9 1018 62 10000 2.07 51 00:46 20.07.2022
977 Clouds 10 1015 50 10000 2.74 48 23:37 19.07.2022
978 Clouds 14 1013 26 10000 3.72 353 22:22 19.07.2022
979 Clouds 13 1014 28 10000 3.19 2 21:18 19.07.2022
980 Clouds 16 1040 34 10000 3.09 60 20:23 19.07.2022
981 Clouds 14 1042 38 10000 3.09 60 18:43 19.07.2022
982 Clouds 13 1043 38 10000 1.54 60 17:57 19.07.2022
983 Clouds 9 1043 46 10000 3.09 240 16:31 19.07.2022
984 Clouds 3 1043 70 10000 1.54 240 14:36 19.07.2022
985 Clouds 3 1023 87 10000 1.6 331 11:38 19.07.2022
986 Clouds 3 1022 84 10000 1.64 332 10:31 19.07.2022
987 Clouds 4 1022 72 10000 1.57 337 09:21 19.07.2022
988 Clouds 4 1022 72 10000 1.57 337 08:32 19.07.2022
989 Clouds 5 1022 56 10000 1.49 15 07:18 19.07.2022
990 Clouds 6 1022 44 10000 1.19 35 05:27 19.07.2022
991 Clouds 6 1022 44 10000 1.19 35 04:48 19.07.2022
992 Clouds 8 1019 29 10000 2.37 99 00:35 19.07.2022
993 Clouds 10 1016 18 10000 2.58 100 23:36 18.07.2022
994 Clouds 13 1015 10 10000 1.72 79 23:18 18.07.2022
995 Clouds 13 1014 9 10000 1.61 48 21:58 18.07.2022
996 Clouds 15 1040 25 10000 3.09 280 20:51 18.07.2022
997 Clouds 15 1041 29 10000 3.09 240 19:33 18.07.2022
998 Clouds 11 1043 35 10000 0 0 17:31 18.07.2022
999 Clouds 2 1043 44 10000 3.09 240 15:52 18.07.2022
1000 Clouds -1 1047 69 10000 3.09 240 14:51 18.07.2022
1001 Clouds -3 1042 69 10000 1.54 240 13:23 18.07.2022
1002 Clouds 1 1022 26 10000 1.66 284 11:31 18.07.2022
1003 Clouds 1 1021 29 10000 1.54 287 09:28 18.07.2022
1004 Clouds 2 1021 29 10000 1.49 270 07:43 18.07.2022
1005 Clouds 6 1018 22 10000 1.63 268 01:44 18.07.2022
1006 Clouds 11 1014 13 10000 8.23 283 22:46 17.07.2022
1007 Clouds 12 1012 11 10000 8.86 283 22:22 17.07.2022
1008 Clouds 12 1012 12 10000 7.81 285 21:24 17.07.2022
1009 Clouds 12 1012 12 10000 7.81 285 20:44 17.07.2022
1010 Clouds 12 1013 10 10000 6.3 299 19:34 17.07.2022
1011 Clouds 11 1015 8 10000 4.44 322 18:56 17.07.2022
1012 Clouds 10 1017 7 10000 3.5 320 17:39 17.07.2022
1013 Clouds 8 1019 7 10000 2.79 307 16:51 17.07.2022
1014 Clouds 7 1020 8 10000 2.29 307 16:27 17.07.2022
1015 Clear 5 1021 8 10000 1.75 299 15:27 17.07.2022
1016 Clear 2 1022 13 10000 1.48 303 13:34 17.07.2022
1017 Clear -1 1020 12 10000 1.83 299 12:22 17.07.2022
1018 Clear -1 1019 12 10000 1.46 283 09:30 17.07.2022
1019 Clear 0 1020 13 10000 1.28 296 06:37 17.07.2022
1020 Clear 2 1020 12 10000 1.95 242 02:33 17.07.2022
1021 Clear 9 1013 5 10000 6.81 294 23:22 16.07.2022
1022 Clear 9 1013 5 10000 6.81 294 23:22 16.07.2022
1023 Clear 10 1012 5 10000 7.54 289 21:57 16.07.2022
1024 Clear 11 1013 4 10000 7.48 288 20:26 16.07.2022
1025 Clear 10 1014 4 10000 6.75 281 18:42 16.07.2022
1026 Clear 8 1017 5 10000 4.66 292 17:20 16.07.2022
1027 Clear 5 1019 6 10000 3.8 294 15:41 16.07.2022
1028 Clear -3 1021 9 10000 3.4 272 11:55 16.07.2022
1029 Clear -2 1020 12 10000 3.1 268 09:37 16.07.2022
1030 Clear -1 1020 15 10000 3.34 254 08:58 16.07.2022
1031 Clear -1 1020 15 10000 3.34 254 08:33 16.07.2022
1032 Clear 0 1019 21 10000 2.86 269 05:59 16.07.2022
1033 Clear 2 1018 22 10000 2.42 289 03:31 16.07.2022
1034 Clear 6 1012 16 10000 7.25 291 23:52 15.07.2022
1035 Clouds 8 1010 12 10000 11.55 288 22:44 15.07.2022
1036 Clouds 10 1010 11 10000 12.54 293 21:31 15.07.2022
1037 Clouds 12 1029 18 10000 10.29 240 20:32 15.07.2022
1038 Clouds 9 1031 25 10000 7.72 240 18:46 15.07.2022
1039 Clouds 7 1032 27 10000 6.17 240 17:51 15.07.2022
1040 Clouds 4 1033 38 10000 5.14 240 16:23 15.07.2022
1041 Clouds -1 1032 51 10000 4.12 240 13:48 15.07.2022
1042 Clouds -1 1032 55 10000 6.17 240 12:22 15.07.2022
1043 Clear -1 1017 31 10000 3.94 266 10:52 15.07.2022
1044 Clear 0 1018 38 10000 3.78 272 07:47 15.07.2022
1045 Clear 3 1018 32 10000 4.99 267 02:47 15.07.2022
1046 Clouds 5 1014 21 10000 5.39 267 00:39 15.07.2022
1047 Clouds 10 1009 12 10000 12.35 299 22:56 14.07.2022
1048 Clouds 11 1008 10 10000 12.84 300 21:59 14.07.2022
1049 Clouds 11 1008 10 10000 12.84 300 21:37 14.07.2022
1050 Clouds 11 1008 9 10000 13.19 298 21:18 14.07.2022
1051 Clouds 13 1030 18 10000 10.29 280 20:41 14.07.2022
1052 Clouds 13 1030 18 10000 10.29 280 20:18 14.07.2022
1053 Clouds 9 1032 25 10000 9.26 200 17:25 14.07.2022
1054 Clouds 8 1033 27 10000 9.26 240 16:18 14.07.2022
1055 Clouds 3 1033 38 10000 7.72 240 14:44 14.07.2022
1056 Clouds 1 1033 51 10000 7.72 240 13:51 14.07.2022
1057 Clouds 1 1032 60 10000 6.17 200 12:34 14.07.2022
1058 Clouds -1 1018 15 10000 2.92 282 11:26 14.07.2022
1059 Clouds -1 1018 15 10000 2.92 282 10:51 14.07.2022
1060 Clouds 0 1017 15 10000 2.29 297 08:45 14.07.2022
1061 Clouds 3 1016 15 10000 2.3 268 04:18 14.07.2022
1062 Clouds 6 1012 15 10000 2.7 275 01:18 14.07.2022
1063 Clouds 6 1012 15 10000 2.7 275 00:50 14.07.2022
1064 Clouds 11 1009 10 10000 9.03 286 22:30 13.07.2022
1065 Clouds 11 1009 12 10000 10.02 292 21:38 13.07.2022
1066 Clouds 15 1031 21 10000 9.26 240 20:38 13.07.2022
1067 Clouds 12 1033 26 10000 3.09 240 18:36 13.07.2022
1068 Clouds 10 1034 30 10000 1.54 240 17:31 13.07.2022
1069 Clouds 6 1034 24 10000 1.54 240 16:19 13.07.2022
1070 Clouds -2 1034 55 10000 1.54 240 14:46 13.07.2022
1071 Clear 0 1017 13 10000 2.47 283 11:36 13.07.2022
1072 Clear 0 1016 14 10000 2.36 281 10:44 13.07.2022
1073 Clear 1 1016 16 10000 2.36 272 09:54 13.07.2022
1074 Clear 1 1016 20 10000 2.31 276 09:20 13.07.2022
1075 Clear 3 1017 18 10000 2.01 287 05:22 13.07.2022
1076 Clouds 6 1015 14 10000 2.67 280 01:21 13.07.2022
1077 Clouds 10 1011 8 10000 8.22 278 23:21 12.07.2022
1078 Clouds 12 1010 7 10000 8.02 276 21:53 12.07.2022
1079 Clouds 11 1033 32 10000 3.09 360 20:58 12.07.2022
1080 Clouds 11 1033 32 10000 3.09 360 20:37 12.07.2022
1081 Clouds 9 1036 50 10000 3.09 200 18:53 12.07.2022
1082 Clouds 7 1037 53 10000 3.09 200 17:32 12.07.2022
1083 Clouds -1 1038 59 10000 1.54 240 15:37 12.07.2022
1084 Clouds -5 1037 68 10000 0 0 13:55 12.07.2022
1085 Clouds -1 1019 16 10000 1.38 298 11:59 12.07.2022
1086 Clouds -1 1019 16 10000 1.54 297 10:47 12.07.2022
1087 Clouds 0 1019 16 10000 1.51 299 09:22 12.07.2022
1088 Clouds 1 1020 16 10000 1.59 303 08:18 12.07.2022
1089 Clouds 2 1019 16 10000 1.92 288 05:57 12.07.2022
1090 Clouds 2 1019 16 10000 1.92 288 05:39 12.07.2022
1091 Clouds 6 1017 14 10000 1.88 358 01:56 12.07.2022
1092 Clouds 6 1017 14 10000 1.88 358 01:56 12.07.2022
1093 Clouds 9 1014 11 10000 7.58 261 22:59 11.07.2022
1094 Clouds 10 1013 11 10000 9.14 265 21:45 11.07.2022
1095 Clouds 12 1031 19 10000 7.72 240 20:33 11.07.2022
1096 Clouds 12 1032 22 10000 9.26 240 19:36 11.07.2022
1097 Clouds 10 1033 20 10000 7.72 240 18:32 11.07.2022
1098 Clouds 9 1033 22 10000 7.72 240 17:39 11.07.2022
1099 Clouds 7 1034 27 10000 7.72 180 16:18 11.07.2022
1100 Clouds 3 1033 38 10000 6.17 200 14:32 11.07.2022
1101 Clouds 0 1018 31 10000 3.15 268 11:49 11.07.2022
1102 Clouds 1 1017 30 10000 3.53 272 10:22 11.07.2022
1103 Clouds 1 1017 30 10000 3.53 272 09:42 11.07.2022
1104 Clouds 1 1017 31 10000 4.02 278 08:33 11.07.2022
1105 Clouds 3 1018 30 10000 3.27 285 05:51 11.07.2022
1106 Clouds 9 1012 27 10000 6.68 297 00:22 11.07.2022
1107 Clouds 11 1011 25 10000 9.79 295 22:58 10.07.2022
1108 Clouds 12 1010 22 10000 10.52 296 21:51 10.07.2022
1109 Clouds 13 1011 21 10000 10.48 295 20:54 10.07.2022
1110 Clouds 13 1011 21 10000 10.71 294 19:50 10.07.2022
1111 Clouds 13 1011 21 10000 10.71 294 19:50 10.07.2022
1112 Clouds 13 1012 23 10000 9.76 299 18:49 10.07.2022
1113 Clouds 11 1014 25 10000 7.38 307 17:37 10.07.2022
1114 Clouds 9 1017 28 10000 4.54 313 16:57 10.07.2022
1115 Clouds 7 1019 30 10000 3.04 313 16:19 10.07.2022
1116 Clouds 6 1020 33 10000 2.48 299 14:33 10.07.2022
1117 Clouds 2 1021 43 10000 2.15 293 12:30 10.07.2022
1118 Clouds 2 1020 42 10000 2.12 282 11:25 10.07.2022
1119 Clouds 3 1019 39 10000 2.24 289 08:46 10.07.2022
1120 Clouds 4 1019 39 10000 2.25 288 07:59 10.07.2022
1121 Clouds 6 1018 33 10000 1.48 228 03:38 10.07.2022
1122 Clouds 10 1014 25 10000 5.7 275 23:30 09.07.2022
1123 Clouds 13 1012 19 10000 6.97 284 22:25 09.07.2022
1124 Clouds 13 1012 19 10000 7.04 285 21:29 09.07.2022
1125 Clear 12 1015 23 10000 3.68 311 18:45 09.07.2022
1126 Clear 11 1017 26 10000 2.95 310 17:59 09.07.2022
1127 Clear 10 1018 29 10000 2.29 299 16:59 09.07.2022
1128 Clear 9 1020 32 10000 1.84 298 15:44 09.07.2022
1129 Clear 7 1020 36 10000 1.49 296 15:25 09.07.2022
1130 Clouds 5 1021 48 10000 1.31 274 13:54 09.07.2022
1131 Clouds 3 1020 58 10000 1.16 265 13:27 09.07.2022
1132 Clouds 3 1020 60 10000 0.9 273 11:33 09.07.2022
1133 Clouds 3 1020 63 10000 1.02 248 10:24 09.07.2022
1134 Clouds 4 1020 62 10000 0.93 293 08:25 09.07.2022
1135 Clouds 5 1020 59 10000 0.86 321 06:59 09.07.2022
1136 Clouds 6 1019 55 10000 0.53 41 04:34 09.07.2022
1137 Clouds 12 1013 25 10000 7.25 285 23:22 08.07.2022
1138 Clouds 13 1012 23 10000 8.34 288 21:59 08.07.2022
1139 Clouds 14 1012 23 10000 7.85 297 21:18 08.07.2022
1140 Clouds 13 1035 33 10000 1.54 240 20:30 08.07.2022
1141 Clouds 13 1039 30 10000 3.09 200 18:33 08.07.2022
1142 Clouds 10 1040 43 10000 1.54 240 17:33 08.07.2022
1143 Clouds 10 1040 43 10000 1.54 240 17:33 08.07.2022
1144 Clouds 3 1041 60 10000 3.09 240 15:30 08.07.2022
1145 Clouds 0 1040 75 10000 0 0 14:49 08.07.2022
1146 Clouds -1 1038 80 10000 0 0 12:28 08.07.2022
1147 Clouds 2 1020 85 10000 2 336 10:45 08.07.2022
1148 Clouds 3 1020 80 10000 1.93 337 09:24 08.07.2022
1149 Clouds 4 1020 75 10000 1.83 354 06:55 08.07.2022
1150 Clouds 5 1020 66 10000 2.18 2 04:31 08.07.2022
1151 Clouds 8 1017 37 10000 4.55 12 23:56 07.07.2022
1152 Clouds 10 1015 31 10000 3.73 334 22:47 07.07.2022
1153 Clouds 11 1014 27 10000 4.99 9 21:39 07.07.2022
1154 Clouds 12 1039 33 10000 3.09 240 18:43 07.07.2022
1155 Clouds 11 1040 32 10000 1.54 240 17:41 07.07.2022
1156 Clouds 4 1040 38 10000 1.54 240 15:57 07.07.2022
1157 Clear -1 1039 64 10000 3.09 240 13:30 07.07.2022
1158 Clear 0 1038 60 10000 1.54 240 12:40 07.07.2022
1159 Clear 0 1038 60 10000 1.54 240 12:21 07.07.2022
1160 Clear 3 1020 41 10000 2.36 231 11:31 07.07.2022
1161 Clear 3 1019 40 10000 2.42 228 10:44 07.07.2022
1162 Clouds 3 1019 39 10000 2.54 230 10:26 07.07.2022
1163 Clear 4 1018 36 10000 2.16 247 08:21 07.07.2022
1164 Clear 6 1018 34 10000 1.77 222 05:23 07.07.2022
1165 Clouds 10 1012 24 10000 4.15 251 23:37 06.07.2022
1166 Clouds 12 1011 19 10000 4.75 264 23:19 06.07.2022
1167 Clouds 12 1011 19 10000 4.75 264 22:58 06.07.2022
1168 Clouds 12 1011 19 10000 4.75 264 22:40 06.07.2022
1169 Clouds 13 1010 18 10000 5.3 265 21:59 06.07.2022
1170 Clouds 15 1036 27 10000 4.12 240 19:45 06.07.2022
1171 Clouds 13 1037 30 10000 4.12 240 18:41 06.07.2022
1172 Clouds 9 1038 34 10000 3.09 240 16:43 06.07.2022
1173 Clouds 6 1038 36 10000 3.09 240 15:28 06.07.2022
1174 Clouds 0 1037 55 10000 3.09 240 12:44 06.07.2022
1175 Clear 3 1018 36 10000 1.5 284 11:49 06.07.2022
1176 Clear 4 1018 34 10000 1.76 259 10:22 06.07.2022
1177 Clear 5 1018 34 10000 1.89 260 08:41 06.07.2022
1178 Clouds 5 1018 35 10000 1.47 275 07:36 06.07.2022
1179 Clouds 6 1019 33 10000 1.4 289 05:31 06.07.2022
1180 Clouds 13 1012 16 10000 3.84 248 22:49 05.07.2022
1181 Clouds 14 1011 15 10000 2.13 275 22:27 05.07.2022
1182 Clouds 16 1038 27 10000 4.12 280 20:42 05.07.2022
1183 Clouds 15 1041 27 10000 4.12 240 19:44 05.07.2022
1184 Clouds 15 1041 27 10000 4.12 240 19:25 05.07.2022
1185 Clouds 11 1042 32 10000 3.09 240 17:48 05.07.2022
1186 Clouds 8 1043 29 10000 3.09 240 16:56 05.07.2022
1187 Clouds 5 1042 33 10000 1.54 240 15:38 05.07.2022
1188 Clouds 1 1042 51 10000 1.54 200 14:33 05.07.2022
1189 Clouds 0 1041 64 10000 0 0 12:48 05.07.2022
1190 Clouds 0 1041 64 10000 0 0 12:19 05.07.2022
1191 Clouds 4 1019 25 10000 1.39 291 10:44 05.07.2022
1192 Clouds 4 1019 26 10000 1.06 284 09:28 05.07.2022
1193 Clouds 5 1019 25 10000 1.23 273 08:18 05.07.2022
1194 Clouds 6 1020 24 10000 1.33 299 05:45 05.07.2022
1195 Clouds 7 1020 23 10000 1.54 260 04:26 05.07.2022
1196 Clouds 9 1018 22 10000 3.18 238 00:38 05.07.2022
1197 Clouds 10 1016 20 10000 4.22 241 23:34 04.07.2022
1198 Clouds 13 1014 15 10000 6.61 254 22:50 04.07.2022
1199 Clouds 14 1013 13 10000 5.48 261 21:53 04.07.2022
1200 Clouds 16 1039 20 10000 4.12 280 20:54 04.07.2022
1201 Clouds 16 1039 20 10000 4.12 280 20:35 04.07.2022
1202 Clouds 15 1041 20 10000 4.12 240 19:55 04.07.2022
1203 Clouds 15 1041 20 10000 4.12 240 19:36 04.07.2022
1204 Clouds 14 1042 21 10000 4.12 240 18:26 04.07.2022
1205 Clouds 7 1043 27 10000 4.12 240 16:34 04.07.2022
1206 Clouds 4 1043 42 10000 3.09 240 15:34 04.07.2022
1207 Clouds -1 1042 59 10000 0 0 13:35 04.07.2022
1208 Clouds -1 1041 59 10000 0 0 12:36 04.07.2022
1209 Clouds 4 1019 36 10000 1.21 269 10:35 04.07.2022
1210 Clouds 4 1019 36 10000 1.34 267 09:53 04.07.2022
1211 Clouds 4 1019 37 10000 1.54 278 08:31 04.07.2022
1212 Clouds 5 1020 39 10000 1.41 307 05:34 04.07.2022
1213 Clouds 8 1016 30 10000 2.58 259 00:42 04.07.2022
1214 Clouds 13 1012 14 10000 7.02 280 23:25 03.07.2022
1215 Clear 14 1011 13 10000 6.52 289 21:58 03.07.2022
1216 Clear 15 1011 12 10000 5.28 300 20:41 03.07.2022
1217 Clouds 14 1012 13 10000 3.96 319 19:42 03.07.2022
1218 Clouds 13 1014 13 10000 2.93 327 19:23 03.07.2022
1219 Clouds 12 1016 14 10000 2.78 317 17:45 03.07.2022
1220 Clouds 11 1018 14 10000 2.39 310 16:54 03.07.2022
1221 Clear 8 1020 15 10000 1.83 294 15:24 03.07.2022
1222 Clear 8 1020 15 10000 1.83 294 14:37 03.07.2022
1223 Clear 5 1020 20 10000 1.71 289 13:49 03.07.2022
1224 Clear 1 1019 19 10000 1.74 294 12:41 03.07.2022
1225 Clear 1 1019 19 10000 1.56 294 11:39 03.07.2022
1226 Clear 2 1018 18 10000 1.84 304 10:39 03.07.2022
1227 Clear 2 1018 18 10000 1.81 304 09:59 03.07.2022
1228 Clouds 3 1019 19 10000 1.36 294 07:37 03.07.2022
1229 Clouds 4 1019 19 10000 2.02 326 05:22 03.07.2022
1230 Clouds 9 1014 12 10000 3.03 43 00:24 03.07.2022
1231 Clouds 12 1012 7 10000 4.03 33 22:36 02.07.2022
1232 Clear 13 1011 5 10000 3.98 26 21:38 02.07.2022
1233 Clouds 14 1013 5 10000 3.39 9 19:53 02.07.2022
1234 Clouds 13 1012 5 10000 2.75 6 19:31 02.07.2022
1235 Clouds 12 1015 5 10000 1.56 347 17:58 02.07.2022
1236 Clouds 12 1015 5 10000 1.56 347 17:37 02.07.2022
1237 Clear 9 1018 5 10000 1.11 304 15:32 02.07.2022
1238 Clear 0 1018 6 10000 1.61 266 12:24 02.07.2022
1239 Clear 0 1018 7 10000 1.98 270 11:28 02.07.2022
1240 Clear 0 1018 7 10000 1.98 270 10:48 02.07.2022
1241 Clear 1 1018 7 10000 2.03 258 09:49 02.07.2022
1242 Clear 1 1019 9 10000 2.19 257 08:37 02.07.2022
1243 Clear 2 1019 11 10000 2.29 254 08:18 02.07.2022
1244 Clear 5 1017 13 10000 2.17 279 02:53 02.07.2022
1245 Clouds 8 1013 10 10000 3.39 273 00:27 02.07.2022
1246 Clouds 12 1011 7 10000 5.91 270 22:59 01.07.2022
1247 Clouds 13 1010 6 10000 5.88 263 22:26 01.07.2022
1248 Clouds 13 1010 6 10000 5.88 263 21:37 01.07.2022
1249 Clouds 15 1033 17 10000 5.14 240 20:58 01.07.2022
1250 Clouds 14 1033 15 10000 5.14 240 19:48 01.07.2022
1251 Clouds 14 1033 15 10000 5.14 240 19:22 01.07.2022
1252 Clouds 6 1035 31 10000 2.57 240 16:40 01.07.2022
1253 Clear 0 1035 51 10000 3.09 240 14:27 01.07.2022
1254 Clear -1 1035 55 10000 1.54 240 13:23 01.07.2022
1255 Clear 1 1017 15 10000 2.46 280 10:53 01.07.2022
1256 Clear 2 1017 14 10000 2.32 279 10:19 01.07.2022
1257 Clear 4 1017 20 10000 2.01 288 06:21 01.07.2022
1258 Clear 7 1015 16 10000 1.39 3 02:19 01.07.2022
1259 Clear 9 1012 13 10000 1.18 93 23:34 30.06.2022
1260 Clear 13 1011 6 10000 0.36 40 22:50 30.06.2022
1261 Clear 13 1011 5 10000 0.76 332 22:31 30.06.2022
1262 Clear 13 1011 5 10000 0.78 332 21:53 30.06.2022
1263 Clear 13 1012 5 10000 0.92 316 20:49 30.06.2022
1264 Clear 13 1013 6 10000 0.82 304 20:20 30.06.2022
1265 Clear 14 1040 20 10000 1.54 240 19:47 30.06.2022
1266 Clear 12 1040 24 10000 2.57 240 18:52 30.06.2022
1267 Clear 10 1041 25 10000 3.09 240 17:53 30.06.2022
1268 Clear 10 1041 25 10000 3.09 240 17:18 30.06.2022
1269 Clear 7 1041 27 10000 4.12 240 16:18 30.06.2022
1270 Clear -3 1039 80 10000 2.57 240 13:59 30.06.2022
1271 Clear -3 1039 80 10000 2.57 240 13:21 30.06.2022
1272 Clear -2 1039 74 10000 2.57 240 12:34 30.06.2022
1273 Clear 1 1020 23 10000 1.54 249 10:57 30.06.2022
1274 Clear 2 1020 26 10000 1.51 251 09:51 30.06.2022
1275 Clear 2 1020 29 10000 1.54 251 09:23 30.06.2022
1276 Clear 2 1020 32 10000 1.74 258 07:41 30.06.2022
1277 Clear 4 1020 36 10000 1.66 262 05:46 30.06.2022
1278 Clear 9 1015 24 10000 2.24 90 23:56 29.06.2022
1279 Clear 11 1014 17 10000 1.49 72 22:53 29.06.2022
1280 Clear 11 1014 17 10000 1.49 72 22:33 29.06.2022
1281 Clear 11 1015 17 10000 1.13 18 20:56 29.06.2022
1282 Clear 11 1015 17 10000 1.13 18 20:32 29.06.2022
1283 Clear 13 1041 30 10000 1.54 60 19:33 29.06.2022
1284 Clear 11 1042 30 10000 0 0 17:40 29.06.2022
1285 Clear 7 1043 36 10000 0 0 16:33 29.06.2022
1286 Clear -1 1043 59 10000 0 0 14:19 29.06.2022
1287 Clear -2 1041 74 10000 0 0 12:39 29.06.2022
1288 Clear 2 1022 45 10000 1.74 174 10:25 29.06.2022
1289 Clear 2 1022 45 10000 1.74 174 09:31 29.06.2022
1290 Clear 3 1022 44 10000 1.76 187 07:30 29.06.2022
1291 Clear 5 1022 41 10000 2.12 153 04:49 29.06.2022
1292 Clouds 7 1019 37 10000 2.58 238 00:56 29.06.2022
1293 Clouds 7 1019 37 10000 2.58 238 00:35 29.06.2022
1294 Clouds 11 1015 25 10000 6.83 265 22:53 28.06.2022
1295 Clouds 13 1014 21 10000 7.62 266 22:23 28.06.2022
1296 Clouds 13 1014 21 10000 7.62 266 21:53 28.06.2022
1297 Clouds 13 1014 21 10000 7.62 266 21:31 28.06.2022
1298 Clouds 14 1014 17 10000 8.57 280 20:27 28.06.2022
1299 Clouds 15 1039 23 10000 6.17 240 19:32 28.06.2022
1300 Clouds 15 1039 23 10000 6.17 240 19:32 28.06.2022
1301 Clouds 13 1040 24 10000 4.12 240 18:45 28.06.2022
1302 Clouds 11 1041 28 10000 4.12 240 17:39 28.06.2022
1303 Clouds 5 1041 33 10000 2.57 240 15:57 28.06.2022
1304 Clouds 5 1041 33 10000 2.57 240 15:21 28.06.2022
1305 Clear 2 1040 52 10000 1.54 240 14:20 28.06.2022
1306 Clear 0 1039 60 10000 1.54 240 13:50 28.06.2022
1307 Clear 0 1038 60 10000 1.54 240 12:54 28.06.2022
1308 Clear 1 1022 64 10000 2.13 288 11:18 28.06.2022
1309 Clear 2 1022 56 10000 2.74 273 09:28 28.06.2022
1310 Clear 2 1022 56 10000 2.74 273 08:43 28.06.2022
1311 Clouds 2 1022 50 10000 2.8 272 07:42 28.06.2022
1312 Clear 4 1020 45 10000 2.88 268 06:20 28.06.2022
1313 Clear 8 1014 18 10000 3.36 275 00:56 28.06.2022
1314 Clear 9 1012 16 10000 3.32 308 23:37 27.06.2022
1315 Clear 13 1011 12 10000 6.58 309 22:52 27.06.2022
1316 Clear 14 1010 10 10000 7.92 305 21:37 27.06.2022
1317 Clouds 14 1010 11 10000 8.79 299 20:52 27.06.2022
1318 Clouds 14 1036 29 10000 1.54 200 19:31 27.06.2022
1319 Clouds 13 1038 30 10000 1.54 240 18:25 27.06.2022
1320 Clear 9 1040 37 10000 1.54 240 16:20 27.06.2022
1321 Clouds 5 1040 49 10000 1.54 240 15:22 27.06.2022
1322 Clouds -2 1038 74 10000 1.54 240 13:37 27.06.2022
1323 Clouds -2 1037 80 10000 0 0 12:56 27.06.2022
1324 Clouds 3 1018 34 10000 1.97 260 10:34 27.06.2022
1325 Clouds 4 1018 38 10000 1.82 263 09:20 27.06.2022
1326 Clouds 3 1018 34 10000 1.61 281 08:30 27.06.2022
1327 Clear 4 1018 37 10000 1.39 321 06:39 27.06.2022
1328 Clear 6 1017 31 10000 1.44 295 03:55 27.06.2022
1329 Clear 8 1015 23 10000 2.45 266 00:56 27.06.2022
1330 Clear 14 1010 13 10000 5.94 314 22:22 26.06.2022
1331 Clouds 14 1010 14 10000 4.56 326 20:48 26.06.2022
1332 Clouds 14 1012 17 10000 3.57 344 19:42 26.06.2022
1333 Clouds 12 1014 20 10000 3.08 345 18:31 26.06.2022
1334 Clouds 10 1018 27 10000 2.4 310 16:47 26.06.2022
1335 Clouds 6 1021 41 10000 1.98 312 15:27 26.06.2022
1336 Clouds 4 1022 55 10000 1.78 297 13:53 26.06.2022
1337 Clouds 2 1021 65 10000 1.88 304 13:20 26.06.2022
1338 Clouds 2 1020 68 10000 1.99 313 11:26 26.06.2022
1339 Clouds 2 1020 70 10000 1.7 305 10:28 26.06.2022
1340 Clouds 2 1020 70 10000 1.7 305 09:39 26.06.2022
1341 Clouds 3 1021 72 10000 1.52 327 07:45 26.06.2022
1342 Clouds 6 1020 64 10000 1.55 358 02:52 26.06.2022
1343 Clouds 9 1016 37 10000 3.26 20 00:21 26.06.2022
1344 Clouds 9 1016 37 10000 3.26 20 23:51 25.06.2022
1345 Clear 12 1014 22 10000 4.57 355 23:24 25.06.2022
1346 Clear 12 1014 19 10000 4.84 349 22:27 25.06.2022
1347 Clear 12 1014 19 10000 4.84 349 21:46 25.06.2022
1348 Clear 12 1014 20 10000 4.77 353 21:20 25.06.2022
1349 Clear 12 1014 20 10000 4.77 353 20:30 25.06.2022
1350 Clear 12 1016 26 10000 3.76 354 19:54 25.06.2022
1351 Clouds 10 1020 36 10000 3.78 348 18:19 25.06.2022
1352 Clear 9 1021 44 10000 3.26 350 17:25 25.06.2022
1353 Clear 7 1023 53 10000 2.31 343 15:42 25.06.2022
1354 Clouds 4 1023 69 10000 1.38 1 13:48 25.06.2022
1355 Clouds 2 1023 76 10000 1.15 5 12:38 25.06.2022
1356 Clouds 2 1021 64 10000 0.87 355 10:58 25.06.2022
1357 Clouds 3 1020 57 10000 0.77 321 09:22 25.06.2022
1358 Clouds 3 1020 57 10000 0.77 321 08:46 25.06.2022
1359 Clouds 4 1021 55 10000 0.93 331 08:19 25.06.2022
1360 Clouds 5 1021 52 10000 1.02 33 05:23 25.06.2022
1361 Clouds 8 1017 38 10000 1.83 132 00:43 25.06.2022
1362 Clouds 12 1013 24 10000 1.56 342 22:56 24.06.2022
1363 Clouds 12 1013 23 10000 2.19 352 21:57 24.06.2022
1364 Clouds 12 1014 23 10000 2.21 356 21:19 24.06.2022
1365 Clouds 11 1015 23 10000 2.15 344 20:20 24.06.2022
1366 Clouds 11 1015 23 10000 2.15 344 20:19 24.06.2022
1367 Clouds 14 1038 31 10000 0 0 19:22 24.06.2022
1368 Clouds 12 1040 24 10000 2.57 240 18:49 24.06.2022
1369 Clouds 12 1040 24 10000 2.57 240 18:30 24.06.2022
1370 Clouds 10 1041 22 10000 1.54 240 17:46 24.06.2022
1371 Clouds 3 1042 33 10000 0 0 15:56 24.06.2022
1372 Clouds 0 1041 51 10000 0 0 14:29 24.06.2022
1373 Clouds -3 1039 74 10000 1.54 200 13:55 24.06.2022
1374 Clouds -3 1039 74 10000 1.54 200 13:55 24.06.2022
1375 Clouds 1 1020 34 10000 1.31 278 11:54 24.06.2022
1376 Clouds 1 1020 34 10000 1.31 278 11:34 24.06.2022
1377 Clouds 2 1019 32 10000 1.58 264 10:22 24.06.2022
1378 Clouds 2 1019 32 10000 1.58 264 09:41 24.06.2022
1379 Clouds 2 1019 31 10000 1.75 261 08:52 24.06.2022
1380 Clouds 2 1019 36 10000 1.33 303 07:20 24.06.2022
1381 Clouds 2 1019 36 10000 1.33 303 06:40 24.06.2022
1382 Clouds 3 1019 36 10000 1.41 318 06:18 24.06.2022
1383 Clear 4 1018 32 10000 2.04 233 02:44 24.06.2022
1384 Clouds 13 1031 23 10000 7.72 280 22:57 23.06.2022
1385 Clouds 13 1031 23 10000 7.72 280 22:38 23.06.2022
1386 Clouds 13 1032 26 10000 7.72 360 20:57 23.06.2022
1387 Clear 13 1032 26 10000 7.72 360 20:32 23.06.2022
1388 Clouds 11 1033 30 10000 5.14 360 19:25 23.06.2022
1389 Clouds 9 1036 32 10000 1.54 240 17:51 23.06.2022
1390 Clouds 6 1036 33 10000 2.57 260 16:58 23.06.2022
1391 Clouds 5 1019 15 10000 2.4 297 15:50 23.06.2022
1392 Clouds 4 1020 18 10000 2.28 293 15:24 23.06.2022
1393 Clouds -4 1035 68 10000 2.57 240 13:33 23.06.2022
1394 Clouds -1 1019 26 10000 2.15 274 11:27 23.06.2022
1395 Clouds -1 1019 26 10000 2.15 274 10:31 23.06.2022
1396 Clouds 0 1019 25 10000 2.15 277 08:49 23.06.2022
1397 Clear 2 1018 25 10000 2.57 243 03:35 23.06.2022
1398 Clear 5 1013 19 10000 5.19 297 00:26 23.06.2022
1399 Clear 10 1031 25 10000 5.14 300 23:30 22.06.2022
1400 Clear 11 1031 20 10000 6.17 300 22:39 22.06.2022
1401 Clear 11 1031 17 10000 5.14 300 21:22 22.06.2022
1402 Clear 11 1031 15 10000 7.72 300 20:42 22.06.2022
1403 Clouds 11 1032 15 10000 7.72 300 19:56 22.06.2022
1404 Clouds 9 1033 20 10000 7.72 300 18:47 22.06.2022
1405 Clouds 8 1034 25 10000 5.14 300 17:28 22.06.2022
1406 Clouds 6 1034 31 10000 4.12 280 16:24 22.06.2022
1407 Clouds 4 1034 36 10000 5.14 280 15:26 22.06.2022
1408 Clouds 2 1034 44 10000 5.14 280 14:19 22.06.2022
1409 Clouds 0 1033 55 10000 4.12 240 13:39 22.06.2022
1410 Clouds 0 1033 55 10000 4.12 240 13:18 22.06.2022
1411 Clouds -2 1020 18 10000 2.21 301 11:49 22.06.2022
1412 Clouds -2 1019 18 10000 1.99 284 10:55 22.06.2022
1413 Clouds -2 1019 18 10000 2.13 289 10:19 22.06.2022
1414 Clouds -1 1020 20 10000 2.34 307 08:27 22.06.2022
1415 Clouds 1 1020 19 10000 2.31 277 04:50 22.06.2022
1416 Clouds 4 1016 18 10000 3.73 274 01:23 22.06.2022
1417 Clouds 6 1015 16 10000 6.04 289 00:24 22.06.2022
1418 Clouds 9 1012 13 10000 13.17 296 22:19 21.06.2022
1419 Clouds 11 1032 22 10000 7.72 240 19:56 21.06.2022
1420 Clouds 9 1033 32 10000 9.26 240 18:35 21.06.2022
1421 Clouds 8 1034 31 10000 5.14 240 17:39 21.06.2022
1422 Clouds 2 1034 48 10000 4.12 240 14:22 21.06.2022
1423 Clouds -1 1019 46 10000 2.66 321 11:49 21.06.2022
1424 Clouds 0 1018 47 10000 1.84 273 10:18 21.06.2022
1425 Clouds 0 1019 46 10000 2.37 252 08:48 21.06.2022
1426 Clouds 1 1019 38 10000 2.65 247 07:23 21.06.2022
1427 Clear 4 1016 26 10000 2.13 264 01:43 21.06.2022
1428 Clear 8 1012 20 10000 8.43 285 23:26 20.06.2022
1429 Clear 10 1011 19 10000 9.09 291 21:58 20.06.2022
1430 Clear 10 1011 19 10000 9.09 291 21:30 20.06.2022
1431 Clear 12 1033 18 10000 5.14 240 19:44 20.06.2022
1432 Clear 11 1034 22 10000 4.12 240 18:53 20.06.2022
1433 Clear 11 1034 22 10000 4.12 240 18:23 20.06.2022
1434 Clear 8 1036 21 10000 4.12 200 17:36 20.06.2022
1435 Clear 1 1037 41 10000 1.54 240 15:58 20.06.2022
1436 Clear -3 1037 59 10000 1.54 200 14:18 20.06.2022
1437 Clear -1 1021 15 10000 2.09 272 11:30 20.06.2022
1438 Clear -1 1021 15 10000 1.83 266 09:48 20.06.2022
1439 Clear -1 1022 15 10000 1.96 272 08:45 20.06.2022
1440 Clear 0 1022 16 10000 2.04 264 06:59 20.06.2022
1441 Clear 2 1021 18 10000 1.92 247 03:29 20.06.2022
1442 Clear 3 1019 15 10000 1.87 237 00:37 20.06.2022
1443 Clear 7 1016 10 10000 6.76 281 23:29 19.06.2022
1444 Clear 9 1015 9 10000 8.44 282 22:19 19.06.2022
1445 Clear 8 1015 9 10000 8.43 282 22:19 19.06.2022
1446 Clear 8 1015 9 10000 8.43 282 21:41 19.06.2022
1447 Clear 9 1015 8 10000 8.95 274 20:48 19.06.2022
1448 Clear 10 1015 7 10000 8.08 271 19:49 19.06.2022
1449 Clear 10 1016 6 10000 8.07 272 19:24 19.06.2022
1450 Clear 10 1016 6 10000 8.07 272 18:31 19.06.2022
1451 Clear 9 1018 6 10000 6.27 291 17:39 19.06.2022
1452 Clear 8 1019 6 10000 5.96 291 16:47 19.06.2022
1453 Clear 6 1021 6 10000 4.81 286 16:23 19.06.2022
1454 Clear 3 1022 6 10000 2.9 280 15:29 19.06.2022
1455 Clear 3 1022 6 10000 2.9 280 14:41 19.06.2022
1456 Clear 0 1023 9 10000 2.1 275 13:52 19.06.2022
1457 Clear -2 1021 9 10000 2.28 257 12:19 19.06.2022
1458 Clear -2 1021 9 10000 2.33 258 10:52 19.06.2022
1459 Clear -1 1021 12 10000 1.91 286 09:21 19.06.2022
1460 Clear -1 1020 13 10000 2 297 08:32 19.06.2022
1461 Clear -1 1020 13 10000 2.2 298 07:26 19.06.2022
1462 Clear -1 1020 13 10000 2.2 298 07:26 19.06.2022
1463 Clear 1 1020 14 10000 1.57 240 03:57 19.06.2022
1464 Clear 3 1016 16 10000 2.01 213 00:51 19.06.2022
1465 Clear 5 1015 16 10000 3.35 261 00:22 19.06.2022
1466 Clear 5 1015 16 10000 3.35 261 23:35 18.06.2022
1467 Clear 8 1012 13 10000 7.55 292 22:30 18.06.2022
1468 Clear 10 1012 6 10000 9.53 290 20:54 18.06.2022
1469 Clear 10 1012 6 10000 6.95 300 20:18 18.06.2022
1470 Clear 9 1014 7 10000 5.58 316 19:21 18.06.2022
1471 Clear 9 1014 7 10000 5.58 316 18:42 18.06.2022
1472 Clear 6 1019 9 10000 3.09 314 17:29 18.06.2022
1473 Clear 4 1020 9 10000 2.23 306 16:20 18.06.2022
1474 Clear 3 1021 10 10000 2.17 309 15:18 18.06.2022
1475 Clear 3 1021 10 10000 2.17 309 14:41 18.06.2022
1476 Clear -3 1021 17 10000 1.95 307 12:46 18.06.2022
1477 Clear -2 1020 18 10000 1.31 282 11:29 18.06.2022
1478 Clear -2 1020 18 10000 1.36 292 10:25 18.06.2022
1479 Clear -2 1021 18 10000 1.67 313 09:19 18.06.2022
1480 Clear -2 1021 18 10000 1.9 324 07:58 18.06.2022
1481 Clear -1 1021 16 10000 0.75 308 06:24 18.06.2022
1482 Clear 1 1021 17 10000 2.31 250 02:54 18.06.2022
1483 Clear 2 1020 18 10000 3.42 280 01:24 18.06.2022
1484 Clear 2 1020 18 10000 3.42 280 00:41 18.06.2022
1485 Clear 3 1018 15 10000 5.45 277 23:45 17.06.2022
1486 Clear 10 1032 13 10000 7.72 240 22:55 17.06.2022
1487 Clear 11 1033 14 10000 5.14 240 20:40 17.06.2022
1488 Clear 12 1034 16 10000 6.17 240 19:26 17.06.2022
1489 Clear 9 1034 29 10000 4.12 240 18:25 17.06.2022
1490 Clear 6 1035 31 10000 5.14 240 17:34 17.06.2022
1491 Clear 4 1035 28 10000 5.14 200 16:38 17.06.2022
1492 Clear 2 1035 44 10000 5.14 200 15:42 17.06.2022
1493 Clear 0 1035 60 10000 3.09 200 14:50 17.06.2022
1494 Clear 0 1035 60 10000 3.09 200 14:19 17.06.2022
1495 Clear -2 1034 74 10000 4.12 240 13:42 17.06.2022
1496 Clear -2 1034 80 10000 5.14 240 12:45 17.06.2022
1497 Clear -2 1020 30 10000 2.97 269 11:56 17.06.2022
1498 Clear -2 1020 30 10000 2.97 269 11:35 17.06.2022
1499 Clear -2 1020 32 10000 2.89 272 10:48 17.06.2022
1500 Clear 0 1019 32 10000 3.54 254 08:29 17.06.2022
1501 Clear 0 1019 32 10000 3.39 254 06:58 17.06.2022
1502 Clear 1 1019 30 10000 3.52 254 05:35 17.06.2022
1503 Clear 4 1015 27 10000 3.41 266 02:47 17.06.2022
1504 Clear 6 1012 25 10000 2.79 280 00:36 17.06.2022
1505 Clear 9 1010 17 10000 8.21 297 22:44 16.06.2022
1506 Clear 11 1009 15 10000 9.79 297 21:58 16.06.2022
1507 Clear 12 1008 14 10000 9.34 301 21:18 16.06.2022
1508 Clear 12 1008 14 10000 9.34 301 20:49 16.06.2022
1509 Clear 13 1032 17 10000 5.14 240 19:56 16.06.2022
1510 Clear 13 1033 21 10000 3.09 240 18:30 16.06.2022
1511 Clear 9 1034 29 10000 5.14 240 17:44 16.06.2022
1512 Clear 6 1034 39 10000 4.12 200 16:46 16.06.2022
1513 Clear 2 1034 56 10000 4.12 240 15:24 16.06.2022
1514 Clear 0 1034 60 10000 3.09 240 14:56 16.06.2022
1515 Clear -3 1034 86 10000 1.54 240 13:46 16.06.2022
1516 Clear -3 1033 86 10000 0 0 12:38 16.06.2022
1517 Clear 1 1017 16 10000 2.41 271 11:54 16.06.2022
1518 Clear 1 1016 16 10000 2.46 269 11:18 16.06.2022
1519 Clear 1 1016 16 10000 2.46 269 10:34 16.06.2022
1520 Clear 2 1016 16 10000 2.23 266 09:26 16.06.2022
1521 Clear 2 1016 16 10000 2.23 266 08:46 16.06.2022
1522 Clear 3 1017 17 10000 2.13 263 07:29 16.06.2022
1523 Clear 3 1017 17 10000 1.99 266 05:42 16.06.2022
1524 Clear 5 1016 17 10000 2.65 257 03:23 16.06.2022
1525 Clear 6 1014 19 10000 2.63 252 01:51 16.06.2022
1526 Clear 7 1012 19 10000 1.91 274 01:22 16.06.2022
1527 Clear 8 1010 16 10000 1.76 311 23:58 15.06.2022
1528 Clear 12 1008 10 10000 4.07 330 22:47 15.06.2022
1529 Clear 13 1008 7 10000 2.15 5 21:29 15.06.2022
1530 Clear 13 1008 7 10000 2.15 5 20:57 15.06.2022
1531 Clear 13 1008 7 10000 2.15 5 20:35 15.06.2022
1532 Clear 15 1033 23 10000 0 0 19:49 15.06.2022
1533 Clear 13 1034 24 10000 1.54 240 18:30 15.06.2022
1534 Clear 9 1034 18 10000 1.54 240 17:43 15.06.2022
1535 Clear 5 1034 39 10000 5.14 240 16:21 15.06.2022
1536 Clear -1 1034 80 10000 1.54 200 14:37 15.06.2022
1537 Clear -4 1034 86 10000 1.54 240 13:20 15.06.2022
1538 Clear -3 1034 86 10000 1.54 240 12:40 15.06.2022
1539 Clear 0 1016 12 10000 1.92 271 11:24 15.06.2022
1540 Clear 0 1016 13 10000 1.84 278 10:21 15.06.2022
1541 Clear 1 1016 14 10000 1.91 281 08:59 15.06.2022
1542 Clear 1 1016 16 10000 1.75 288 07:36 15.06.2022
1543 Clear 2 1016 18 10000 1.92 281 05:36 15.06.2022
1544 Clear 4 1015 17 10000 2.08 247 02:47 15.06.2022
1545 Clear 5 1014 17 10000 2.03 239 01:36 15.06.2022
1546 Clear 6 1012 17 10000 1.73 211 00:36 15.06.2022
1547 Clear 7 1010 15 10000 1.84 198 23:38 14.06.2022
1548 Clear 11 1009 11 10000 1.88 214 22:47 14.06.2022
1549 Clear 12 1008 7 10000 1.75 230 21:43 14.06.2022
1550 Clear 12 1009 6 10000 1.57 243 21:20 14.06.2022
1551 Clear 12 1009 6 10000 1.57 243 20:40 14.06.2022
1552 Clear 12 1010 7 10000 1.34 264 19:58 14.06.2022
1553 Clear 12 1033 22 10000 5.14 240 18:40 14.06.2022
1554 Clear 10 1034 17 10000 5.14 240 17:19 14.06.2022
1555 Clear 6 1034 33 10000 3.09 240 16:42 14.06.2022
1556 Clear 2 1034 44 10000 5.14 240 15:49 14.06.2022
1557 Clear -2 1034 69 10000 3.09 240 14:56 14.06.2022
1558 Clear -2 1034 69 10000 3.09 240 14:18 14.06.2022
1559 Clear -5 1034 86 10000 3.09 240 13:28 14.06.2022
1560 Clear -5 1033 86 10000 4.12 240 12:19 14.06.2022
1561 Clear -1 1018 14 10000 2.07 234 10:59 14.06.2022
1562 Clear -1 1018 14 10000 2.07 234 10:59 14.06.2022
1563 Clear -1 1018 15 10000 1.86 259 10:29 14.06.2022
1564 Clear -1 1019 16 10000 1.75 257 09:28 14.06.2022
1565 Clear -1 1019 16 10000 1.75 257 08:41 14.06.2022
1566 Clear 0 1020 16 10000 1.69 267 06:54 14.06.2022
1567 Clear 2 1021 14 10000 1.95 248 04:28 14.06.2022
1568 Clear 2 1020 16 10000 0.58 185 01:50 14.06.2022
1569 Clear 4 1018 15 10000 1.88 114 00:27 14.06.2022
1570 Clear 8 1016 8 10000 1.92 114 23:18 13.06.2022
1571 Clear 8 1016 7 10000 1.65 129 22:24 13.06.2022
1572 Clear 8 1016 7 10000 1.65 129 21:41 13.06.2022
1573 Clear 11 1038 28 10000 3.09 240 19:59 13.06.2022
1574 Clear 11 1038 28 10000 3.09 240 19:25 13.06.2022
1575 Clear 6 1021 8 10000 1.01 228 17:57 13.06.2022
1576 Clear 6 1021 8 10000 1.01 228 17:35 13.06.2022
1577 Clear 1 1041 44 10000 5.14 240 16:32 13.06.2022
1578 Clear -5 1041 74 10000 0 0 14:53 13.06.2022
1579 Clear -5 1041 74 10000 0 0 14:33 13.06.2022
1580 Clear -7 1040 86 10000 0 0 13:39 13.06.2022
1581 Clear -7 1039 79 10000 0 0 12:25 13.06.2022
1582 Clear -2 1024 37 10000 0.95 241 11:18 13.06.2022
1583 Clear -2 1024 40 10000 0.93 253 10:26 13.06.2022
1584 Clear -2 1024 40 10000 0.89 280 09:22 13.06.2022
1585 Clear -2 1024 39 10000 1.17 313 07:34 13.06.2022
1586 Clear 0 1023 35 10000 0.68 322 05:39 13.06.2022
1587 Clear 1 1023 32 10000 0.67 90 02:47 13.06.2022
1588 Clear 2 1022 34 10000 1.09 90 01:36 13.06.2022
1589 Clear 4 1019 23 10000 1.84 109 23:52 12.06.2022
1590 Clear 7 1017 11 10000 2.29 170 22:50 12.06.2022
1591 Clear 8 1015 9 10000 2.07 183 22:22 12.06.2022
1592 Clear 8 1016 9 10000 0.89 167 21:20 12.06.2022
1593 Clear 8 1017 10 10000 0.55 30 20:27 12.06.2022
1594 Clear 8 1017 10 10000 0.55 30 19:30 12.06.2022
1595 Clear 6 1020 13 10000 0.86 347 17:51 12.06.2022
1596 Clear 4 1023 17 10000 0.56 169 16:24 12.06.2022
1597 Clear 3 1023 23 10000 0.92 195 14:58 12.06.2022
1598 Clear 1 1024 29 10000 1 185 14:23 12.06.2022
1599 Clear 1 1024 30 10000 1.06 181 13:55 12.06.2022
1600 Clear -2 1023 42 10000 0.75 178 12:40 12.06.2022
1601 Clear -2 1022 44 10000 0.5 211 11:39 12.06.2022
1602 Clear -2 1021 52 10000 0.76 248 10:22 12.06.2022
1603 Clear -1 1021 56 10000 0.83 278 09:19 12.06.2022
1604 Clear -1 1021 56 10000 0.83 278 08:45 12.06.2022
1605 Clear -1 1022 57 10000 0.9 294 07:33 12.06.2022
1606 Clear 1 1022 56 10000 1.41 347 04:52 12.06.2022
1607 Clear 2 1021 48 10000 1.35 24 03:24 12.06.2022
1608 Clear 3 1019 44 10000 1.06 34 01:42 12.06.2022
1609 Clear 4 1018 42 10000 0.9 70 00:58 12.06.2022
1610 Clear 5 1016 33 10000 1.68 107 00:21 12.06.2022
1611 Clear 5 1016 33 10000 1.68 107 23:44 11.06.2022
1612 Clear 8 1013 15 10000 1.9 202 22:39 11.06.2022
1613 Clear 9 1013 11 10000 1.45 238 21:53 11.06.2022
1614 Clear 9 1014 10 10000 0.72 15 20:38 11.06.2022
1615 Clear 8 1015 12 10000 1.3 15 19:59 11.06.2022
1616 Clear 8 1017 14 10000 1.52 349 19:26 11.06.2022
1617 Clear 8 1017 14 10000 1.52 349 18:34 11.06.2022
1618 Clear 6 1019 17 10000 1.71 325 17:51 11.06.2022
1619 Clear 5 1021 22 10000 1.78 319 17:28 11.06.2022
1620 Clear 5 1021 22 10000 1.78 319 16:56 11.06.2022
1621 Clear 4 1022 30 10000 1.71 320 16:29 11.06.2022
1622 Clear 4 1022 30 10000 1.71 320 15:42 11.06.2022
1623 Clouds 0 1025 62 10000 1.39 306 13:53 11.06.2022
1624 Clouds -3 1025 81 10000 1.41 304 12:57 11.06.2022
1625 Clouds -3 1024 88 10000 1.69 292 10:54 11.06.2022
1626 Clouds -2 1024 90 10000 1.75 295 09:55 11.06.2022
1627 Clouds -2 1024 89 10000 1.77 319 09:19 11.06.2022
1628 Clouds -1 1024 86 10000 1.79 336 07:43 11.06.2022
1629 Clouds -1 1025 83 10000 1.91 5 06:30 11.06.2022
1630 Clouds 0 1024 79 10000 1.62 6 04:49 11.06.2022
1631 Clouds 1 1023 71 10000 1.65 47 01:53 11.06.2022
1632 Clouds 1 1023 71 10000 1.65 47 01:33 11.06.2022
1633 Clouds 2 1021 63 10000 3.34 70 00:21 11.06.2022
1634 Clouds 4 1019 49 10000 4.22 79 22:32 10.06.2022
1635 Clouds 6 1017 33 10000 3.48 70 21:52 10.06.2022
1636 Clouds 7 1017 26 10000 2.66 54 20:42 10.06.2022
1637 Clouds 7 1018 25 10000 2.32 24 20:22 10.06.2022
1638 Clouds 8 1039 34 10000 1.54 60 19:38 10.06.2022
1639 Clouds 6 1020 29 10000 1.63 13 19:18 10.06.2022
1640 Clouds 6 1020 29 10000 1.63 13 19:18 10.06.2022
1641 Clouds 6 1020 29 10000 1.63 13 19:18 10.06.2022
1642 Clouds 7 1040 34 10000 2.57 60 18:19 10.06.2022
1643 Clouds 5 1041 31 10000 1.54 60 17:36 10.06.2022
1644 Clouds 4 1041 30 10000 2.06 60 16:55 10.06.2022
1645 Clouds 0 1041 51 10000 1.54 60 15:47 10.06.2022
1646 Clouds -4 1041 74 10000 0 0 14:57 10.06.2022
1647 Clouds -6 1040 74 10000 0 0 13:41 10.06.2022
1648 Clear -6 1040 68 10000 0 0 12:28 10.06.2022
1649 Clear -2 1024 41 10000 1.24 65 11:40 10.06.2022
1650 Clear -2 1023 35 10000 1.07 49 10:37 10.06.2022
1651 Clear -1 1022 33 10000 0.64 34 09:40 10.06.2022
1652 Clear -1 1022 30 10000 0.35 49 08:23 10.06.2022
1653 Clear 0 1022 27 10000 1.14 27 06:51 10.06.2022
1654 Clear 0 1022 27 10000 1.14 27 06:32 10.06.2022
1655 Clear 1 1022 24 10000 1.56 52 05:45 10.06.2022
1656 Clear 2 1021 22 10000 0.92 131 02:55 10.06.2022
1657 Clear 3 1020 21 10000 1.02 151 01:37 10.06.2022
1658 Clear 5 1016 17 10000 1.18 242 23:58 09.06.2022
1659 Clear 8 1014 8 10000 2.44 240 22:56 09.06.2022
1660 Clear 9 1014 7 10000 3.37 239 21:47 09.06.2022
1661 Clear 9 1014 7 10000 4.09 240 21:29 09.06.2022
1662 Clear 9 1014 7 10000 4.09 240 20:47 09.06.2022
1663 Clear 12 1034 33 10000 1.54 240 19:54 09.06.2022
1664 Clear 10 1034 40 10000 2.57 240 18:47 09.06.2022
1665 Clear 7 1035 39 10000 1.54 240 17:56 09.06.2022
1666 Clear 3 1035 41 10000 3.09 240 16:46 09.06.2022
1667 Clear 0 1035 51 10000 3.09 240 15:44 09.06.2022
1668 Clear -3 1035 69 10000 2.57 240 14:34 09.06.2022
1669 Clear -5 1034 74 10000 0 0 13:46 09.06.2022
1670 Clear -5 1034 74 10000 0 0 13:26 09.06.2022
1671 Clear -3 1021 30 10000 1.79 292 11:53 09.06.2022
1672 Clear -2 1020 31 10000 2.07 296 10:51 09.06.2022
1673 Clear -2 1020 31 10000 2.16 295 09:42 09.06.2022
1674 Clear -2 1020 31 10000 2.32 293 09:23 09.06.2022
1675 Clear -1 1019 29 10000 2.35 295 07:44 09.06.2022
1676 Clear 0 1019 23 10000 2.09 294 05:46 09.06.2022
1677 Clear 3 1018 19 10000 2.25 283 01:59 09.06.2022
1678 Clear 5 1014 15 10000 4.12 276 23:34 08.06.2022
1679 Clear 8 1012 10 10000 6.58 269 22:51 08.06.2022
1680 Clear 9 1012 8 10000 7.06 259 22:26 08.06.2022
1681 Clear 9 1012 8 10000 7.06 259 21:52 08.06.2022
1682 Clear 10 1011 8 10000 5.53 252 20:57 08.06.2022
1683 Clear 10 1033 35 10000 2.57 240 19:50 08.06.2022
1684 Clear 10 1033 35 10000 2.57 240 19:18 08.06.2022
1685 Clear 8 1034 37 10000 5.14 240 18:42 08.06.2022
1686 Clear 2 1035 56 10000 5.14 240 16:34 08.06.2022
1687 Clear 0 1035 60 10000 5.14 240 15:27 08.06.2022
1688 Clear -3 1034 80 10000 4.12 240 13:37 08.06.2022
1689 Clear -2 1019 16 10000 1.76 276 11:51 08.06.2022
1690 Clear -1 1019 17 10000 1.95 282 11:25 08.06.2022
1691 Clear -1 1018 19 10000 1.71 275 09:48 08.06.2022
1692 Clear -1 1018 21 10000 1.91 275 09:20 08.06.2022
1693 Clear 0 1018 21 10000 2.03 275 08:18 08.06.2022
1694 Clear 2 1018 20 10000 2.15 284 05:47 08.06.2022
1695 Clear 3 1017 21 10000 1.8 268 03:20 08.06.2022
1696 Clear 8 1012 15 10000 4.16 262 00:28 08.06.2022
1697 Clear 10 1011 12 10000 7.67 263 23:25 07.06.2022
1698 Clear 10 1011 12 10000 7.67 263 22:42 07.06.2022
1699 Clear 11 1010 12 10000 8.07 262 22:22 07.06.2022
1700 Clear 11 1010 11 10000 7.92 263 21:28 07.06.2022
1701 Clear 11 1010 11 10000 7.92 263 20:53 07.06.2022
1702 Clear 11 1010 11 10000 7.92 263 20:31 07.06.2022
1703 Clear 13 1033 26 10000 5.14 240 19:27 07.06.2022
1704 Clear 11 1033 32 10000 5.14 240 18:22 07.06.2022
1705 Clear 9 1034 37 10000 4.12 240 17:25 07.06.2022
1706 Clear 6 1035 49 10000 4.12 240 16:42 07.06.2022
1707 Clear 2 1035 65 10000 2.57 240 15:44 07.06.2022
1708 Clear 2 1035 65 10000 2.57 240 15:24 07.06.2022
1709 Clear 0 1034 69 10000 1.54 240 14:47 07.06.2022
1710 Clear 0 1034 69 10000 1.54 240 14:29 07.06.2022
1711 Clear -2 1034 74 10000 0 0 13:30 07.06.2022
1712 Clear -2 1034 80 10000 0 0 12:45 07.06.2022
1713 Clear 1 1017 66 10000 1.72 289 11:37 07.06.2022
1714 Clear 2 1017 70 10000 2.02 331 10:26 07.06.2022
1715 Clear 2 1017 70 10000 2.02 331 10:26 07.06.2022
1716 Clear 2 1017 66 10000 1.84 335 08:49 07.06.2022
1717 Clear 3 1017 57 10000 1.35 309 07:34 07.06.2022
1718 Clear 4 1017 51 10000 0.94 244 06:18 07.06.2022
1719 Clear 5 1016 46 10000 1.36 195 03:31 07.06.2022
1720 Clear 5 1016 46 10000 1.36 195 03:31 07.06.2022
1721 Clouds 8 1012 27 10000 3.29 256 00:45 07.06.2022
1722 Clouds 9 1010 25 10000 4.54 275 23:41 06.06.2022
1723 Clouds 11 1009 22 10000 6.7 290 22:47 06.06.2022
1724 Clouds 12 1008 23 10000 7.7 290 21:57 06.06.2022
1725 Clouds 12 1008 21 10000 9.23 291 20:42 06.06.2022
1726 Clouds 12 1033 30 10000 4.12 300 19:24 06.06.2022
1727 Clouds 11 1034 35 10000 5.14 240 18:47 06.06.2022
1728 Clouds 10 1034 43 10000 4.12 240 17:57 06.06.2022
1729 Clouds 8 1035 49 10000 4.12 280 16:55 06.06.2022
1730 Clouds 6 1035 61 10000 1.54 280 15:52 06.06.2022
1731 Clouds 3 1034 65 10000 1.54 240 14:59 06.06.2022
1732 Clouds 3 1034 65 10000 1.54 240 14:18 06.06.2022
1733 Clouds 2 1034 70 10000 1.54 200 13:20 06.06.2022
1734 Clouds 2 1033 70 10000 4.12 240 12:34 06.06.2022
1735 Clouds 3 1016 77 10000 1.9 293 11:47 06.06.2022
1736 Clouds 5 1015 70 10000 2.29 290 09:53 06.06.2022
1737 Clouds 4 1015 71 10000 2.09 283 09:18 06.06.2022
1738 Clouds 4 1015 71 10000 2.09 283 08:31 06.06.2022
1739 Clouds 5 1015 64 10000 2.13 282 07:20 06.06.2022
1740 Clouds 6 1015 60 10000 2.05 290 04:39 06.06.2022
1741 Clouds 8 1013 50 10000 2.15 297 02:19 06.06.2022
1742 Clouds 9 1012 47 10000 2.37 278 00:57 06.06.2022
1743 Clouds 9 1012 47 10000 2.37 278 00:35 06.06.2022
1744 Clouds 12 1009 36 10000 5.9 302 23:25 05.06.2022
1745 Clouds 12 1009 33 10000 5.83 318 22:27 05.06.2022
1746 Clouds 12 1010 34 10000 5.73 328 20:34 05.06.2022
1747 Clouds 12 1012 34 10000 3.58 332 19:26 05.06.2022
1748 Clouds 11 1014 35 10000 3.1 331 18:21 05.06.2022
1749 Clouds 11 1014 35 10000 3.1 331 17:46 05.06.2022
1750 Clouds 9 1016 37 10000 2.52 321 17:22 05.06.2022
1751 Clouds 9 1016 37 10000 2.52 321 16:48 05.06.2022
1752 Clouds 8 1018 39 10000 2.17 304 15:47 05.06.2022
1753 Clouds 5 1019 46 10000 1.61 255 14:21 05.06.2022
1754 Clouds 3 1019 53 10000 1.91 257 12:34 05.06.2022
1755 Clouds 3 1018 52 10000 1.73 258 11:30 05.06.2022
1756 Clouds 4 1017 51 10000 1.61 267 10:25 05.06.2022
1757 Clouds 4 1017 51 10000 1.61 267 09:58 05.06.2022
1758 Clouds 5 1017 49 10000 1.31 271 08:26 05.06.2022
1759 Clouds 5 1017 46 10000 1.22 274 06:48 05.06.2022
1760 Clouds 6 1017 46 10000 1.02 299 05:20 05.06.2022
1761 Clouds 7 1017 44 10000 1.03 281 03:38 05.06.2022
1762 Clouds 8 1016 42 10000 1.85 210 01:31 05.06.2022
1763 Clouds 10 1012 34 10000 2.36 203 23:49 04.06.2022
1764 Clouds 13 1010 25 10000 3.11 294 21:49 04.06.2022
1765 Clouds 13 1011 25 10000 2.69 329 20:21 04.06.2022
1766 Clouds 11 1015 28 10000 2.43 313 17:59 04.06.2022
1767 Clouds 9 1017 30 10000 2.24 305 16:42 04.06.2022
1768 Clouds 8 1018 33 10000 1.82 299 16:18 04.06.2022
1769 Clouds 8 1018 33 10000 1.82 299 16:18 04.06.2022
1770 Clouds 6 1019 36 10000 1.63 294 14:37 04.06.2022
1771 Clouds 3 1018 44 10000 1.66 297 12:27 04.06.2022
1772 Clouds 3 1018 43 10000 1.79 290 10:58 04.06.2022
1773 Clouds 3 1018 42 10000 1.68 289 10:26 04.06.2022
1774 Clouds 3 1018 42 10000 1.68 289 09:42 04.06.2022
1775 Clouds 3 1018 42 10000 1.46 289 08:40 04.06.2022
1776 Clouds 3 1018 40 10000 1.47 299 07:40 04.06.2022
1777 Clouds 5 1018 35 10000 1.4 244 04:57 04.06.2022
1778 Clouds 7 1015 31 10000 2.12 232 01:27 04.06.2022
1779 Clouds 9 1013 28 10000 2.93 257 23:59 03.06.2022
1780 Clouds 11 1011 22 10000 4.9 274 22:40 03.06.2022
1781 Clouds 12 1012 20 10000 4.12 292 21:24 03.06.2022
1782 Clouds 12 1012 20 10000 4.12 292 20:33 03.06.2022
1783 Clouds 12 1037 28 10000 2.57 240 18:27 03.06.2022
1784 Clear 7 1039 34 10000 2.57 240 16:47 03.06.2022
1785 Clear 4 1039 48 10000 0 0 15:23 03.06.2022
1786 Clouds -1 1038 64 10000 0 0 13:28 03.06.2022
1787 Clouds 1 1019 25 10000 1.51 285 11:40 03.06.2022
1788 Clouds 1 1019 28 10000 1.51 298 09:50 03.06.2022
1789 Clouds 2 1019 29 10000 1.65 306 09:24 03.06.2022
1790 Clouds 3 1019 27 10000 1.59 316 07:27 03.06.2022
1791 Clouds 3 1019 27 10000 1.59 316 06:39 03.06.2022
1792 Clouds 4 1019 27 10000 1.1 300 06:20 03.06.2022
1793 Clouds 6 1016 22 10000 1.92 275 00:41 03.06.2022
1794 Clouds 7 1015 19 10000 3.72 274 23:31 02.06.2022
1795 Clouds 11 1011 11 10000 7.19 281 21:57 02.06.2022
1796 Clouds 12 1011 9 10000 7.43 282 20:22 02.06.2022
1797 Clouds 12 1033 30 10000 2.57 240 19:52 02.06.2022
1798 Clouds 12 1033 30 10000 2.57 240 19:33 02.06.2022
1799 Clouds 7 1035 42 10000 2.57 240 17:58 02.06.2022
1800 Clouds 5 1035 45 10000 3.09 240 16:28 02.06.2022
1801 Clouds 0 1034 60 10000 4.12 240 14:58 02.06.2022
1802 Clouds -1 1034 64 10000 3.09 240 13:30 02.06.2022
1803 Clouds 0 1033 64 10000 5.14 240 12:42 02.06.2022
1804 Clouds 0 1019 46 10000 2.68 265 10:31 02.06.2022
1805 Clouds 1 1018 48 10000 3 257 09:28 02.06.2022
1806 Clouds 1 1018 49 10000 3.68 265 08:29 02.06.2022
1807 Clouds 1 1018 48 10000 1.88 320 07:48 02.06.2022
1808 Clouds 2 1018 48 10000 2.48 268 06:20 02.06.2022
1809 Clouds 3 1018 43 10000 3.04 256 03:48 02.06.2022
1810 Clouds 6 1012 44 10000 3.63 270 00:31 02.06.2022
1811 Clouds 9 1008 37 10000 7.92 306 22:57 01.06.2022
1812 Clouds 13 1029 24 10000 6.17 280 21:45 01.06.2022
1813 Clouds 13 1029 24 10000 6.17 280 21:22 01.06.2022
1814 Clouds 14 1030 26 10000 9.26 280 20:38 01.06.2022
1815 Clouds 13 1031 30 10000 6.17 240 19:49 01.06.2022
1816 Clouds 11 1032 32 10000 6.17 240 18:19 01.06.2022
1817 Clouds 6 1033 39 10000 6.17 240 16:48 01.06.2022
1818 Clouds 2 1033 52 10000 1.54 200 15:39 01.06.2022
1819 Clouds -1 1033 64 10000 1.54 240 14:35 01.06.2022
1820 Clouds -2 1032 69 10000 0 0 12:46 01.06.2022
1821 Clouds 0 1016 41 10000 2.17 281 10:42 01.06.2022
1822 Clouds 1 1016 39 10000 2.08 267 09:27 01.06.2022
1823 Clouds 1 1016 37 10000 2.26 269 07:57 01.06.2022
1824 Clouds 2 1016 35 10000 2.27 260 06:49 01.06.2022
1825 Clouds 5 1013 25 10000 2.39 257 01:44 01.06.2022
1826 Clouds 7 1010 24 10000 4.11 281 23:47 31.05.2022
1827 Clouds 9 1008 20 10000 8.1 290 22:38 31.05.2022
1828 Clouds 10 1007 16 10000 11.24 293 22:18 31.05.2022
1829 Clouds 12 1006 15 10000 11.62 298 21:22 31.05.2022
1830 Clouds 12 1006 15 10000 11.62 298 20:41 31.05.2022
1831 Clouds 12 1032 35 10000 6.17 240 18:57 31.05.2022
1832 Clouds 11 1032 35 10000 6.17 240 18:19 31.05.2022
1833 Clouds 9 1032 46 10000 5.14 240 17:37 31.05.2022
1834 Clouds 3 1033 56 10000 1.54 240 15:42 31.05.2022
1835 Clouds 3 1033 56 10000 1.54 240 15:22 31.05.2022
1836 Clouds 0 1017 28 10000 2.05 323 12:41 31.05.2022
1837 Clouds 0 1016 28 10000 1.6 323 12:18 31.05.2022
1838 Clouds 1 1015 27 10000 2.06 315 10:22 31.05.2022
1839 Clouds 1 1015 28 10000 1.68 290 07:46 31.05.2022
1840 Clouds 3 1016 27 10000 1.91 278 06:19 31.05.2022
1841 Clouds 4 1016 26 10000 2.29 242 03:49 31.05.2022
1842 Clouds 7 1011 21 10000 3.45 307 23:45 30.05.2022
1843 Clouds 10 1010 17 10000 7.55 303 23:23 30.05.2022
1844 Clouds 10 1010 17 10000 7.55 303 22:37 30.05.2022
1845 Clouds 11 1009 13 10000 9.95 298 21:40 30.05.2022
1846 Clouds 12 1009 12 10000 9.83 296 20:51 30.05.2022
1847 Clouds 14 1032 26 10000 6.17 240 19:43 30.05.2022
1848 Clouds 10 1033 30 10000 6.17 240 17:53 30.05.2022
1849 Clouds 10 1033 30 10000 6.17 240 17:21 30.05.2022
1850 Clouds 5 1034 39 10000 3.09 200 15:54 30.05.2022
1851 Clouds -2 1033 69 10000 2.57 240 13:32 30.05.2022
1852 Clouds 0 1018 26 10000 2.33 266 11:40 30.05.2022
1853 Clouds 1 1017 25 10000 2.6 271 09:52 30.05.2022
1854 Clouds 2 1016 23 10000 2.45 274 07:51 30.05.2022
1855 Clouds 3 1015 23 10000 1.92 276 06:26 30.05.2022
1856 Clouds 4 1015 23 10000 2.01 247 04:52 30.05.2022
1857 Clouds 7 1012 25 10000 3.79 302 00:43 30.05.2022
1858 Clouds 10 1009 18 10000 8.34 310 22:46 29.05.2022
1859 Clouds 11 1009 16 10000 9.99 302 22:28 29.05.2022
1860 Clouds 12 1009 15 10000 9.68 301 20:29 29.05.2022
1861 Clear 12 1010 14 10000 9.53 303 19:29 29.05.2022
1862 Clear 12 1010 14 10000 9.53 303 18:34 29.05.2022
1863 Clear 8 1015 20 10000 5.24 306 16:25 29.05.2022
1864 Clear 8 1015 20 10000 5.24 306 15:46 29.05.2022
1865 Clear 7 1016 22 10000 3.94 297 14:54 29.05.2022
1866 Clear 1 1018 33 10000 2.31 270 12:57 29.05.2022
1867 Clear 2 1017 32 10000 2.79 258 11:20 29.05.2022
1868 Clear 2 1017 32 10000 2.79 258 10:34 29.05.2022
1869 Clear 2 1017 30 10000 2.73 261 08:31 29.05.2022
1870 Clear 4 1017 23 10000 3.06 265 04:58 29.05.2022
1871 Clear 4 1017 23 10000 3.06 265 04:36 29.05.2022
1872 Clear 6 1014 23 10000 3.29 266 01:28 29.05.2022
1873 Clear 11 1031 26 10000 7.72 240 23:48 28.05.2022
1874 Clear 11 1031 26 10000 7.72 240 23:20 28.05.2022
1875 Clear 13 1030 19 10000 9.26 240 22:19 28.05.2022
1876 Clear 13 1031 18 10000 7.72 240 20:58 28.05.2022
1877 Clear 13 1032 24 10000 9.26 240 19:21 28.05.2022
1878 Clear 12 1033 30 10000 6.17 240 18:40 28.05.2022
1879 Clear 10 1034 35 10000 5.14 240 17:33 28.05.2022
1880 Clear 7 1017 18 10000 4.52 292 15:56 28.05.2022
1881 Clear 7 1017 18 10000 4.52 292 15:38 28.05.2022
1882 Clear 3 1020 24 10000 2.39 278 13:42 28.05.2022
1883 Clear 0 1020 27 10000 2.63 277 12:43 28.05.2022
1884 Clear 0 1019 25 10000 2.59 276 11:50 28.05.2022
1885 Clear 1 1018 23 10000 2.48 280 10:41 28.05.2022
1886 Clear 1 1018 23 10000 2.39 283 09:56 28.05.2022
1887 Clear 1 1018 23 10000 2.2 273 08:39 28.05.2022
1888 Clear 2 1019 24 10000 2 278 06:53 28.05.2022
1889 Clear 4 1019 23 10000 2.1 252 05:24 28.05.2022
1890 Clear 5 1018 22 10000 1.62 271 02:33 28.05.2022
1891 Clear 8 1014 19 10000 4.67 280 00:18 28.05.2022
1892 Clear 11 1012 13 10000 6.73 290 22:49 27.05.2022
1893 Clear 12 1012 12 10000 6.53 285 21:35 27.05.2022
1894 Clear 12 1012 11 10000 6.7 279 20:46 27.05.2022
1895 Clouds 12 1012 11 10000 7.62 277 20:21 27.05.2022
1896 Clouds 13 1035 26 10000 6.17 240 19:41 27.05.2022
1897 Clouds 13 1035 26 10000 6.17 240 19:21 27.05.2022
1898 Clouds 11 1037 40 10000 4.12 240 17:26 27.05.2022
1899 Clouds 8 1039 46 10000 4.12 240 16:36 27.05.2022
1900 Clouds 4 1039 38 10000 1.54 240 15:20 27.05.2022
1901 Clear -1 1036 80 10000 2.57 240 13:41 27.05.2022
1902 Clear -2 1036 69 10000 0 0 12:28 27.05.2022
1903 Clear 0 1021 22 10000 1.98 297 11:31 27.05.2022
1904 Clear 0 1020 22 10000 1.91 294 10:52 27.05.2022
1905 Clear 1 1019 22 10000 1.99 312 10:22 27.05.2022
1906 Clear 1 1019 22 10000 1.99 312 09:31 27.05.2022
1907 Clear 2 1019 21 10000 2.08 287 07:41 27.05.2022
1908 Clear 4 1020 19 10000 2.66 243 05:27 27.05.2022
1909 Clear 6 1018 19 10000 2.71 270 01:47 27.05.2022
1910 Clear 8 1015 16 10000 5.24 270 00:18 27.05.2022
1911 Clear 13 1011 12 10000 6.36 287 22:29 26.05.2022
1912 Clear 13 1011 12 10000 6.36 287 21:34 26.05.2022
1913 Clouds 13 1038 30 10000 3.09 20 19:51 26.05.2022
1914 Clouds 13 1038 30 10000 3.09 20 19:19 26.05.2022
1915 Clouds 13 1040 33 10000 3.09 60 17:36 26.05.2022
1916 Clouds 9 1041 37 10000 1.54 60 16:36 26.05.2022
1917 Clouds 5 1041 42 10000 0 0 15:41 26.05.2022
1918 Clouds 2 1040 52 10000 0 0 14:24 26.05.2022
1919 Clouds 2 1022 65 10000 1.75 14 12:36 26.05.2022
1920 Clouds 3 1020 61 10000 1.49 16 11:23 26.05.2022
1921 Clouds 3 1020 61 10000 1.07 351 09:40 26.05.2022
1922 Clouds 3 1020 62 10000 1.29 346 09:19 26.05.2022
1923 Clouds 4 1020 62 10000 1.57 341 07:57 26.05.2022
1924 Clouds 5 1020 41 10000 1.38 23 03:53 26.05.2022
1925 Clouds 7 1016 31 10000 0.45 130 00:33 26.05.2022
1926 Clouds 9 1014 23 10000 1.01 129 23:39 25.05.2022
1927 Clouds 13 1011 10 10000 1.33 294 21:56 25.05.2022
1928 Clouds 13 1011 10 10000 1.33 294 21:31 25.05.2022
1929 Clouds 12 1011 9 10000 1.24 349 20:35 25.05.2022
1930 Clouds 14 1036 26 10000 0 0 19:21 25.05.2022
1931 Clouds 9 1037 34 10000 3.09 240 17:40 25.05.2022
1932 Clouds 5 1038 39 10000 5.14 240 16:37 25.05.2022
1933 Clear 2 1038 44 10000 4.12 240 15:54 25.05.2022
1934 Clear -2 1037 55 10000 1.54 240 14:51 25.05.2022
1935 Clear -2 1037 55 10000 1.54 240 14:32 25.05.2022
1936 Clear -4 1037 68 10000 1.54 240 13:42 25.05.2022
1937 Clear -3 1037 69 10000 0 0 12:37 25.05.2022
1938 Clear 1 1019 25 10000 1.46 280 10:43 25.05.2022
1939 Clear 1 1019 26 10000 1.32 301 09:54 25.05.2022
1940 Clear 2 1018 28 10000 1.5 322 08:37 25.05.2022
1941 Clear 3 1018 26 10000 1.3 315 07:23 25.05.2022
1942 Clear 5 1017 27 10000 1.03 333 03:34 25.05.2022
1943 Clear 8 1012 18 10000 2.04 129 23:57 24.05.2022
1944 Clear 8 1012 18 10000 2.04 129 23:31 24.05.2022
1945 Clear 13 1010 8 10000 3.09 190 22:32 24.05.2022
1946 Clear 12 1010 8 10000 3.07 191 21:40 24.05.2022
1947 Clear 12 1010 8 10000 2.58 207 21:20 24.05.2022
1948 Clear 14 1033 25 10000 5.14 240 19:48 24.05.2022
1949 Clear 13 1034 26 10000 5.14 240 18:54 24.05.2022
1950 Clear 7 1035 36 10000 3.09 240 16:53 24.05.2022
1951 Clear 7 1035 36 10000 3.09 240 16:23 24.05.2022
1952 Clear 0 1035 51 10000 4.12 240 14:58 24.05.2022
1953 Clear 0 1035 51 10000 4.12 240 14:21 24.05.2022
1954 Clear -4 1034 80 10000 3.09 240 12:50 24.05.2022
1955 Clear -4 1034 80 10000 3.09 240 12:50 24.05.2022
1956 Clear 0 1018 16 10000 2.1 255 11:40 24.05.2022
1957 Clear 0 1017 19 10000 1.68 254 09:46 24.05.2022
1958 Clear 1 1017 22 10000 1.79 252 08:50 24.05.2022
1959 Clear 2 1018 29 10000 1.42 306 06:58 24.05.2022
1960 Clear 3 1018 27 10000 1.72 320 04:30 24.05.2022
1961 Clear 4 1018 26 10000 1.3 11 02:37 24.05.2022
1962 Clear 5 1018 25 10000 1.74 50 01:42 24.05.2022
1963 Clear 7 1015 20 10000 2.63 109 23:43 23.05.2022
1964 Clear 11 1012 9 10000 1.44 111 21:59 23.05.2022
1965 Clear 11 1012 9 10000 1.44 111 21:41 23.05.2022
1966 Clear 11 1012 8 10000 0.73 91 20:42 23.05.2022
1967 Clear 13 1035 33 10000 6.17 240 19:33 23.05.2022
1968 Clear 11 1036 35 10000 5.14 240 18:59 23.05.2022
1969 Clear 11 1036 35 10000 5.14 240 18:37 23.05.2022
1970 Clear 7 1036 42 10000 5.14 240 17:55 23.05.2022
1971 Clear 1 1037 51 10000 4.12 240 15:47 23.05.2022
1972 Clear -4 1036 80 10000 3.09 240 13:44 23.05.2022
1973 Clear -1 1022 24 10000 1.48 277 11:36 23.05.2022
1974 Clear -1 1021 24 10000 1.5 277 10:44 23.05.2022
1975 Clear -1 1021 24 10000 1.59 264 09:45 23.05.2022
1976 Clear 0 1021 25 10000 1.57 262 08:44 23.05.2022
1977 Clear 1 1021 25 10000 1.66 280 06:48 23.05.2022
1978 Clear 1 1021 26 10000 1.72 285 06:24 23.05.2022
1979 Clear 3 1021 26 10000 2.56 273 02:36 23.05.2022
1980 Clouds 4 1020 25 10000 2.32 228 01:48 23.05.2022
1981 Clouds 5 1018 24 10000 2.02 215 01:23 23.05.2022
1982 Clouds 9 1014 12 10000 2.34 261 22:48 22.05.2022
1983 Clouds 10 1013 11 10000 2.23 272 22:21 22.05.2022
1984 Clouds 10 1013 11 10000 2.23 272 21:50 22.05.2022
1985 Clear 10 1013 10 10000 1.81 245 20:42 22.05.2022
1986 Clear 10 1014 10 10000 2.57 223 20:20 22.05.2022
1987 Clear 10 1015 10 10000 4.31 227 18:58 22.05.2022
1988 Clear 10 1015 10 10000 4.31 227 18:37 22.05.2022
1989 Clear 9 1017 12 10000 6.7 256 18:18 22.05.2022
1990 Clear 8 1019 16 10000 8.26 271 16:51 22.05.2022
1991 Clear 5 1022 23 10000 5.34 276 15:24 22.05.2022
1992 Clear 5 1022 23 10000 5.34 276 14:36 22.05.2022
1993 Clouds 0 1023 29 10000 2.85 273 12:54 22.05.2022
1994 Clouds 0 1023 29 10000 2.85 273 12:31 22.05.2022
1995 Clouds 1 1021 25 10000 2.76 273 10:45 22.05.2022
1996 Clear 2 1021 26 10000 2.21 274 09:29 22.05.2022
1997 Clouds 2 1021 27 10000 2.22 287 07:44 22.05.2022
1998 Clouds 3 1021 27 10000 1.97 286 07:20 22.05.2022
1999 Clouds 4 1020 29 10000 0.68 241 04:19 22.05.2022
2000 Clouds 7 1018 21 10000 3.3 260 00:59 22.05.2022
2001 Clouds 8 1016 18 10000 5.39 269 23:57 21.05.2022
2002 Clouds 11 1014 14 10000 7.01 275 23:29 21.05.2022
2003 Clouds 12 1013 12 10000 6.38 276 21:59 21.05.2022
2004 Clouds 12 1013 12 10000 6.38 276 21:38 21.05.2022
2005 Clouds 12 1013 11 10000 5.29 277 20:47 21.05.2022
2006 Clouds 12 1014 11 10000 4.37 301 19:55 21.05.2022
2007 Clouds 11 1016 12 10000 3.67 331 19:21 21.05.2022
2008 Clouds 9 1020 13 10000 2.03 317 17:29 21.05.2022
2009 Clouds 6 1022 15 10000 1.17 279 14:58 21.05.2022
2010 Clouds 5 1022 21 10000 0.99 265 14:24 21.05.2022
2011 Clouds 4 1022 21 10000 1.05 285 13:36 21.05.2022
2012 Clouds 1 1021 24 10000 1.33 280 12:40 21.05.2022
2013 Clouds 1 1021 23 10000 1.46 274 11:52 21.05.2022
2014 Clouds 1 1020 25 10000 1.35 267 10:22 21.05.2022
2015 Clouds 2 1020 26 10000 1.35 271 09:20 21.05.2022
2016 Clouds 2 1020 26 10000 1.35 271 08:47 21.05.2022
2017 Clouds 4 1020 28 10000 1.59 301 06:22 21.05.2022
2018 Clouds 6 1017 29 10000 0.7 267 02:23 21.05.2022
2019 Clouds 8 1014 21 10000 0.18 103 23:44 20.05.2022
2020 Clouds 12 1012 12 10000 1.27 304 22:41 20.05.2022
2021 Clouds 12 1012 11 10000 0.86 349 22:22 20.05.2022
2022 Clouds 12 1013 11 10000 0.8 19 21:27 20.05.2022
2023 Clouds 12 1013 11 10000 0.8 19 20:51 20.05.2022
2024 Clouds 14 1037 26 10000 3.09 60 19:56 20.05.2022
2025 Clouds 11 1039 35 10000 2.06 20 18:59 20.05.2022
2026 Clouds 11 1039 35 10000 2.06 20 18:27 20.05.2022
2027 Clouds 5 1040 45 10000 4.12 240 16:50 20.05.2022
2028 Clouds 2 1039 64 10000 4.12 240 15:57 20.05.2022
2029 Clouds 1 1039 64 10000 4.12 240 15:39 20.05.2022
2030 Clouds -1 1038 59 10000 2.06 240 14:29 20.05.2022
2031 Clouds -3 1038 64 10000 1.54 240 13:44 20.05.2022
2032 Clear 0 1021 34 10000 1.95 264 10:56 20.05.2022
2033 Clear 1 1020 35 10000 1.7 263 09:50 20.05.2022
2034 Clear 1 1021 33 10000 1.94 244 08:41 20.05.2022
2035 Clouds 3 1021 32 10000 2.14 257 06:46 20.05.2022
2036 Clouds 3 1021 31 10000 2.39 272 06:21 20.05.2022
2037 Clouds 5 1020 29 10000 2.24 285 03:53 20.05.2022
2038 Clouds 8 1016 24 10000 5.47 247 00:24 20.05.2022
2039 Clouds 10 1014 18 10000 5.79 239 22:44 19.05.2022
2040 Clouds 11 1013 15 10000 4.78 239 21:53 19.05.2022
2041 Clouds 12 1013 14 10000 3.81 240 21:25 19.05.2022
2042 Clouds 12 1013 14 10000 3.81 240 20:59 19.05.2022
2043 Clouds 12 1014 14 10000 4.06 228 20:25 19.05.2022
2044 Clouds 13 1035 28 10000 6.17 240 19:34 19.05.2022
2045 Clouds 10 1037 40 10000 6.17 240 17:59 19.05.2022
2046 Clouds 8 1038 34 10000 5.14 240 16:29 19.05.2022
2047 Clouds 2 1038 48 10000 1.54 240 14:52 19.05.2022
2048 Clouds 2 1038 48 10000 1.54 240 14:23 19.05.2022
2049 Clouds 0 1037 51 10000 3.09 240 12:35 19.05.2022
2050 Clouds 2 1020 22 10000 2.46 260 11:25 19.05.2022
2051 Clouds 2 1020 27 10000 2.28 250 08:59 19.05.2022
2052 Clouds 3 1020 35 10000 2.22 260 07:48 19.05.2022
2053 Clouds 3 1021 54 10000 1.48 300 04:50 19.05.2022
2054 Clouds 5 1021 49 10000 1.74 336 01:58 19.05.2022
2055 Clouds 7 1018 41 10000 2.91 62 23:55 18.05.2022
2056 Clouds 10 1015 24 10000 1.41 96 22:47 18.05.2022
2057 Clouds 11 1014 17 10000 1.72 129 21:47 18.05.2022
2058 Clouds 12 1014 12 10000 1.62 146 21:26 18.05.2022
2059 Clouds 12 1014 12 10000 1.62 146 20:41 18.05.2022
2060 Clouds 12 1015 11 10000 0.9 157 20:18 18.05.2022
2061 Clouds 10 1041 35 10000 4.12 20 18:28 18.05.2022
2062 Clouds 6 1042 33 10000 3.09 240 17:41 18.05.2022
2063 Clouds 9 1021 10 10000 0.92 319 17:23 18.05.2022
2064 Clouds 4 1042 38 10000 3.09 240 16:31 18.05.2022
2065 Clouds 1 1041 44 10000 3.09 240 15:40 18.05.2022
2066 Clouds -3 1040 59 10000 2.06 200 14:35 18.05.2022
2067 Clouds -6 1040 74 10000 0 0 13:35 18.05.2022
2068 Clouds -6 1039 86 10000 0 0 12:42 18.05.2022
2069 Clouds -1 1023 28 10000 0.8 322 11:34 18.05.2022
2070 Clouds 0 1022 26 10000 1.06 316 10:56 18.05.2022
2071 Clouds 1 1022 23 10000 1.01 315 09:24 18.05.2022
2072 Clouds 1 1021 23 10000 0.89 280 07:36 18.05.2022
2073 Clouds 3 1021 25 10000 1.83 279 05:56 18.05.2022
2074 Clouds 7 1017 24 10000 0.88 356 01:20 18.05.2022
2075 Clouds 8 1015 17 10000 1.55 236 00:22 18.05.2022
2076 Clouds 13 1012 10 10000 7.15 248 21:56 17.05.2022
2077 Clouds 14 1011 9 10000 6.72 253 21:20 17.05.2022
2078 Clouds 15 1036 33 10000 5.14 240 19:59 17.05.2022
2079 Clouds 15 1036 33 10000 5.14 240 19:27 17.05.2022
2080 Clouds 11 1038 40 10000 4.12 200 17:51 17.05.2022
2081 Clouds 11 1017 10 10000 1.95 287 16:59 17.05.2022
2082 Clear 9 1019 13 10000 2.11 281 16:29 17.05.2022
2083 Clear 6 1038 49 10000 4.12 240 15:32 17.05.2022
2084 Clear 2 1037 56 10000 3.09 240 14:30 17.05.2022
2085 Clear -2 1036 74 10000 3.09 240 13:35 17.05.2022
2086 Clear 1 1020 29 10000 2.52 267 11:46 17.05.2022
2087 Clear 1 1020 39 10000 2.23 267 09:35 17.05.2022
2088 Clear 2 1020 45 10000 2.27 284 08:36 17.05.2022
2089 Clouds 3 1020 42 10000 2.17 293 06:50 17.05.2022
2090 Clear 5 1019 35 10000 2.19 298 03:45 17.05.2022
2091 Clouds 8 1017 27 10000 1.92 297 00:46 17.05.2022
2092 Clear 12 1013 16 10000 7.92 268 22:44 16.05.2022
2093 Clear 13 1012 13 10000 7.79 258 21:52 16.05.2022
2094 Clear 13 1012 13 10000 7.52 264 20:48 16.05.2022
2095 Clear 14 1035 33 10000 5.14 240 19:49 16.05.2022
2096 Clear 12 1037 41 10000 5.14 240 18:21 16.05.2022
2097 Clear 7 1021 24 10000 2.23 315 16:24 16.05.2022
2098 Clear 0 1037 64 10000 3.09 240 14:38 16.05.2022
2099 Clear -2 1037 59 10000 1.54 240 13:23 16.05.2022
2100 Clear 0 1022 47 10000 2.11 307 11:31 16.05.2022
2101 Clouds 1 1021 60 10000 1.81 324 09:58 16.05.2022
2102 Clouds 3 1021 59 10000 2.01 341 07:21 16.05.2022
2103 Clouds 4 1019 39 10000 1.48 316 05:23 16.05.2022
2104 Clouds 8 1015 27 10000 3.63 267 23:56 15.05.2022
2105 Clouds 10 1013 21 10000 6.58 269 22:34 15.05.2022
2106 Clouds 12 1012 19 10000 7.49 268 21:48 15.05.2022
2107 Clouds 12 1012 18 10000 7.94 271 21:19 15.05.2022
2108 Clouds 12 1012 18 10000 7.68 270 20:34 15.05.2022
2109 Clouds 11 1015 19 10000 8.22 270 17:56 15.05.2022
2110 Clouds 10 1017 22 10000 7.63 274 16:36 15.05.2022
2111 Clear 4 1022 40 10000 2.68 287 14:18 15.05.2022
2112 Clear 1 1023 49 10000 2.25 273 13:27 15.05.2022
2113 Clear 1 1022 46 10000 2.61 262 11:55 15.05.2022
2114 Clear 1 1021 43 10000 2.34 270 10:40 15.05.2022
2115 Clear 2 1020 38 10000 2.03 269 08:52 15.05.2022
2116 Clear 3 1020 35 10000 2.22 308 06:59 15.05.2022
2117 Clear 3 1020 35 10000 2.22 308 06:39 15.05.2022
2118 Clouds 6 1017 27 10000 2.11 233 02:24 15.05.2022
2119 Clouds 8 1014 23 10000 4.45 271 23:59 14.05.2022
2120 Clouds 8 1014 23 10000 4.45 271 23:35 14.05.2022
2121 Clouds 11 1012 16 10000 9.07 271 21:45 14.05.2022
2122 Clouds 12 1011 17 10000 9.74 274 21:24 14.05.2022
2123 Clouds 12 1011 17 10000 10.7 275 19:54 14.05.2022
2124 Clouds 12 1012 17 10000 10.38 278 19:20 14.05.2022
2125 Clouds 12 1012 17 10000 10.38 278 18:51 14.05.2022
2126 Clouds 12 1012 17 10000 10.38 278 18:51 14.05.2022
2127 Clear 12 1014 18 10000 10.45 279 17:43 14.05.2022
2128 Clear 9 1017 19 10000 10.07 283 15:55 14.05.2022
2129 Clear 8 1018 19 10000 8.6 280 14:38 14.05.2022
2130 Clear 2 1020 30 10000 2.86 288 13:24 14.05.2022
2131 Clear 2 1019 29 10000 2.9 291 11:42 14.05.2022
2132 Clear 2 1018 29 10000 2.78 293 10:39 14.05.2022
2133 Clear 2 1018 26 10000 2.66 292 10:18 14.05.2022
2134 Clear 3 1018 23 10000 2.44 282 09:19 14.05.2022
2135 Clear 3 1019 18 10000 2.38 281 07:26 14.05.2022
2136 Clear 4 1019 19 10000 2.13 274 04:32 14.05.2022
2137 Clear 9 1012 17 10000 4.11 264 00:25 14.05.2022
2138 Clear 11 1011 12 10000 8.95 274 23:25 13.05.2022
2139 Clear 11 1011 12 10000 8.95 274 22:54 13.05.2022
2140 Clear 12 1009 12 10000 9.15 286 22:21 13.05.2022
2141 Clear 13 1010 12 10000 9.13 288 20:58 13.05.2022
2142 Clear 13 1010 12 10000 9.13 288 20:32 13.05.2022
2143 Clear 15 1033 23 10000 6.17 240 19:51 13.05.2022
2144 Clear 14 1034 26 10000 3.09 240 18:47 13.05.2022
2145 Clear 12 1035 35 10000 3.09 240 17:29 13.05.2022
2146 Clear 9 1035 37 10000 1.54 240 16:29 13.05.2022
2147 Clear 5 1035 49 10000 3.09 240 15:45 13.05.2022
2148 Clear 1 1035 60 10000 1.54 240 14:29 13.05.2022
2149 Clear -2 1035 74 10000 0 0 12:47 13.05.2022
2150 Clear 2 1017 43 10000 1.97 303 11:39 13.05.2022
2151 Clear 3 1016 49 10000 1.95 295 09:54 13.05.2022
2152 Clear 4 1016 52 10000 1.73 301 09:26 13.05.2022
2153 Clear 4 1016 54 10000 1.41 291 07:50 13.05.2022
2154 Clear 4 1016 57 10000 1.3 304 06:50 13.05.2022
2155 Clear 5 1017 56 10000 1.55 320 04:54 13.05.2022
2156 Clear 8 1013 51 10000 1.02 19 00:57 13.05.2022
2157 Clear 12 1010 17 10000 3.11 4 22:59 12.05.2022
2158 Clear 12 1010 17 10000 3.11 4 22:34 12.05.2022
2159 Clear 12 1011 14 10000 2.02 357 21:24 12.05.2022
2160 Clouds 15 1037 31 10000 1.54 240 19:49 12.05.2022
2161 Clouds 13 1038 35 10000 1.54 240 18:25 12.05.2022
2162 Clear 8 1039 46 10000 3.09 240 16:44 12.05.2022
2163 Clear 2 1038 75 10000 0 0 14:57 12.05.2022
2164 Clear -1 1038 80 10000 0 0 13:50 12.05.2022
2165 Clear 2 1019 73 10000 1.43 288 11:55 12.05.2022
2166 Clear 2 1019 74 10000 1.56 274 10:32 12.05.2022
2167 Clear 3 1019 75 10000 1.25 282 08:53 12.05.2022
2168 Clear 3 1019 75 10000 1.25 282 08:35 12.05.2022
2169 Clear 4 1020 73 10000 1.69 339 07:25 12.05.2022
2170 Clear 5 1020 66 10000 1.98 12 04:32 12.05.2022
2171 Clouds 7 1018 58 10000 1.65 40 01:37 12.05.2022
2172 Clouds 8 1015 48 10000 2.84 83 23:36 11.05.2022
2173 Clouds 11 1011 24 10000 3.13 53 22:21 11.05.2022
2174 Clouds 12 1012 18 10000 2.72 27 21:26 11.05.2022
2175 Clouds 12 1012 18 10000 2.72 27 21:26 11.05.2022
2176 Clouds 11 1014 22 10000 4.4 19 20:20 11.05.2022
2177 Clouds 11 1040 47 10000 1.54 240 17:37 11.05.2022
2178 Clouds 8 1041 46 10000 2.57 240 16:39 11.05.2022
2179 Clouds 1 1041 75 10000 0 0 14:48 11.05.2022
2180 Clouds 1 1041 75 10000 0 0 14:25 11.05.2022
2181 Clouds -1 1040 74 10000 0 0 13:25 11.05.2022
2182 Clouds 3 1020 55 10000 0.6 324 11:48 11.05.2022
2183 Clouds 3 1019 50 10000 0.74 335 09:34 11.05.2022
2184 Clouds 4 1019 53 10000 1.28 308 06:59 11.05.2022
2185 Clear 6 1019 45 10000 1.75 89 03:38 11.05.2022
2186 Clear 10 1013 16 10000 1.95 180 23:45 10.05.2022
2187 Clear 12 1012 9 10000 3.1 204 22:30 10.05.2022
2188 Clear 13 1012 8 10000 3.35 218 21:43 10.05.2022
2189 Clear 13 1012 8 10000 3.99 232 20:48 10.05.2022
2190 Clear 13 1036 38 10000 1.54 240 19:18 10.05.2022
2191 Clear 10 1039 40 10000 1.54 240 17:43 10.05.2022
2192 Clear 7 1040 42 10000 4.12 240 16:39 10.05.2022
2193 Clouds -2 1037 74 10000 0 0 13:54 10.05.2022
2194 Clouds -2 1037 74 10000 0 0 12:30 10.05.2022
2195 Clouds 1 1022 80 10000 1.08 305 11:42 10.05.2022
2196 Clouds 1 1021 86 10000 1.08 308 11:18 10.05.2022
2197 Clouds 2 1021 90 10000 1.68 306 09:52 10.05.2022
2198 Clear 2 1021 96 1656 2.25 327 08:29 10.05.2022
2199 Clear 3 1021 87 5067 2.31 5 06:21 10.05.2022
2200 Clear 5 1017 39 10000 0.59 50 02:48 10.05.2022
2201 Clear 8 1014 17 10000 4.38 262 00:23 10.05.2022
2202 Clear 11 1011 12 10000 8.25 278 22:42 09.05.2022
2203 Clear 12 1010 9 10000 9.08 282 21:48 09.05.2022
2204 Clear 13 1011 9 10000 8.05 286 20:23 09.05.2022
2205 Clear 13 1012 10 10000 8.74 292 18:35 09.05.2022
2206 Clear 9 1036 46 10000 0 0 17:39 09.05.2022
2207 Clear 7 1036 49 10000 0 0 16:28 09.05.2022
2208 Clear 4 1037 56 10000 0 0 15:48 09.05.2022
2209 Clear 1 1036 75 10000 0 0 14:47 09.05.2022
2210 Clear 1 1036 75 10000 0 0 14:22 09.05.2022
2211 Clear -1 1035 74 10000 0 0 13:32 09.05.2022
2212 Clear 1 1020 39 10000 1.66 289 11:54 09.05.2022
2213 Clear 1 1019 49 10000 1.28 295 10:50 09.05.2022
2214 Clear 1 1019 49 10000 1.28 295 10:31 09.05.2022
2215 Clear 2 1019 62 9768 1.64 318 08:23 09.05.2022
2216 Clear 2 1019 62 9768 1.64 318 07:43 09.05.2022
2217 Clear 6 1015 40 10000 1.68 314 02:44 09.05.2022
2218 Clouds 12 1031 30 10000 5.14 280 23:29 08.05.2022
2219 Clouds 12 1031 30 10000 5.14 280 23:29 08.05.2022
2220 Clouds 14 1031 21 10000 7.72 280 22:51 08.05.2022
2221 Clouds 15 1031 20 10000 9.26 280 21:48 08.05.2022
2222 Clear 15 1031 18 10000 6.17 240 20:33 08.05.2022
2223 Clear 14 1032 26 10000 2.57 300 19:37 08.05.2022
2224 Clear 13 1033 38 10000 4.12 240 18:52 08.05.2022
2225 Clear 11 1034 40 10000 5.14 240 17:52 08.05.2022
2226 Clear 9 1034 46 10000 4.12 240 16:33 08.05.2022
2227 Clear 7 1035 53 10000 4.12 300 15:26 08.05.2022
2228 Clear 7 1016 57 10000 3.05 301 14:39 08.05.2022
2229 Clouds 3 1017 89 10000 1.79 302 12:21 08.05.2022
2230 Clouds 3 1017 93 10000 1.75 316 10:27 08.05.2022
2231 Clouds 3 1017 93 10000 1.75 316 09:56 08.05.2022
2232 Clouds 3 1018 94 10000 1.85 327 08:55 08.05.2022
2233 Clouds 4 1019 89 10000 2.3 335 06:57 08.05.2022
2234 Clouds 6 1019 72 10000 2.04 11 03:26 08.05.2022
2235 Clouds 6 1019 72 10000 2.04 11 02:41 08.05.2022
2236 Clouds 9 1014 51 10000 3.42 42 00:21 08.05.2022
2237 Clouds 9 1014 51 10000 3.42 42 23:47 07.05.2022
2238 Clouds 11 1013 39 10000 4.56 39 22:46 07.05.2022
2239 Clouds 13 1012 30 10000 4.72 35 21:58 07.05.2022
2240 Clouds 13 1012 30 10000 4.72 35 21:33 07.05.2022
2241 Clear 13 1013 25 10000 3.91 21 20:28 07.05.2022
2242 Clear 13 1015 26 10000 2.6 359 19:23 07.05.2022
2243 Clear 12 1016 30 10000 2.86 5 17:34 07.05.2022
2244 Clear 8 1020 49 10000 2.08 7 15:41 07.05.2022
2245 Clear 2 1022 83 10000 1.23 339 12:50 07.05.2022
2246 Clear 3 1021 84 10000 1.1 323 10:41 07.05.2022
2247 Clear 4 1021 79 10000 1.78 327 08:57 07.05.2022
2248 Clear 4 1021 83 10000 1.44 340 07:50 07.05.2022
2249 Clear 5 1021 78 10000 1.65 353 06:43 07.05.2022
2250 Clear 6 1021 69 10000 1.81 354 04:41 07.05.2022
2251 Clear 9 1017 51 10000 2.7 54 01:19 07.05.2022
2252 Clear 11 1015 42 10000 3.48 52 23:36 06.05.2022
2253 Clear 14 1011 25 10000 5.03 32 22:26 06.05.2022
2254 Clear 14 1011 25 10000 5.03 32 21:41 06.05.2022
2255 Clear 15 1012 17 10000 2.65 34 20:24 06.05.2022
2256 Clear 17 1039 32 10000 1.54 360 19:29 06.05.2022
2257 Clear 17 1039 32 10000 1.54 360 19:29 06.05.2022
2258 Clear 15 1040 33 10000 0 0 18:56 06.05.2022
2259 Clear 13 1041 41 10000 0 0 17:38 06.05.2022
2260 Clear 8 1041 46 10000 1.54 200 16:23 06.05.2022
2261 Clear 5 1041 56 10000 1.54 200 15:39 06.05.2022
2262 Clear 2 1040 65 10000 0 0 14:33 06.05.2022
2263 Clear 0 1039 75 10000 0 0 12:53 06.05.2022
2264 Clear 0 1039 75 10000 0 0 12:31 06.05.2022
2265 Clear 3 1019 56 10000 0.86 272 11:41 06.05.2022
2266 Clear 4 1019 58 10000 1.38 290 10:26 06.05.2022
2267 Clear 4 1019 58 10000 1.38 290 09:39 06.05.2022
2268 Clear 5 1019 66 10000 1.19 263 07:59 06.05.2022
2269 Clear 5 1020 67 10000 1.31 287 06:42 06.05.2022
2270 Clear 6 1020 64 10000 1.6 346 04:51 06.05.2022
2271 Clear 8 1019 57 10000 1.69 26 02:43 06.05.2022
2272 Clear 10 1014 39 10000 3.17 78 23:36 05.05.2022
2273 Clear 14 1012 16 10000 2.93 56 21:53 05.05.2022
2274 Clear 15 1012 13 10000 1.94 46 21:19 05.05.2022
2275 Clear 15 1039 36 10000 4.12 60 19:49 05.05.2022
2276 Clear 11 1018 15 10000 0.66 311 16:57 05.05.2022
2277 Clear 9 1020 19 10000 1.35 290 16:20 05.05.2022
2278 Clear 1 1040 64 10000 4.12 240 14:43 05.05.2022
2279 Clear -1 1040 74 10000 1.54 240 13:21 05.05.2022
2280 Clear -2 1021 80 10000 2.57 240 12:24 05.05.2022
2281 Clear 2 1021 64 10000 1.56 249 10:33 05.05.2022
2282 Clear 3 1020 72 10000 1.45 251 09:39 05.05.2022
2283 Clear 4 1020 77 10000 1.36 324 07:24 05.05.2022
2284 Clear 6 1019 64 10000 1.25 38 03:00 05.05.2022
2285 Clear 7 1018 64 10000 1.88 47 01:48 05.05.2022
2286 Clear 7 1017 61 10000 2.49 69 01:22 05.05.2022
2287 Clear 8 1016 52 10000 3.75 95 23:34 04.05.2022
2288 Clear 13 1012 21 10000 3.14 106 22:27 04.05.2022
2289 Clear 13 1012 21 10000 3.14 106 21:49 04.05.2022
2290 Clear 12 1013 17 10000 1.55 93 21:26 04.05.2022
2291 Clear 12 1013 17 10000 1.55 93 21:26 04.05.2022
2292 Clear 12 1015 18 10000 0.81 36 20:22 04.05.2022
2293 Clear 13 1040 38 10000 3.09 360 19:51 04.05.2022
2294 Clear 12 1041 41 10000 1.54 40 18:51 04.05.2022
2295 Clear 12 1041 41 10000 1.54 40 18:22 04.05.2022
2296 Clear 10 1042 50 10000 1.54 360 17:30 04.05.2022
2297 Clear 4 1042 81 10000 3.09 240 15:38 04.05.2022
2298 Clear 4 1042 81 10000 3.09 240 15:20 04.05.2022
2299 Clouds 1 1041 87 10000 0 0 14:20 04.05.2022
2300 Clear -2 1041 93 10000 0 0 13:26 04.05.2022
2301 Clear -2 1040 86 10000 0 0 12:29 04.05.2022
2302 Clear 1 1022 86 10000 0.99 296 10:40 04.05.2022
2303 Clear 2 1022 88 10000 1.27 299 09:43 04.05.2022
2304 Clear 2 1023 89 10000 1.06 289 08:41 04.05.2022
2305 Clear 3 1023 82 10000 1.62 326 06:31 04.05.2022
2306 Clear 5 1021 72 10000 2.73 70 02:58 04.05.2022
2307 Clouds 7 1016 48 10000 1.62 141 00:33 04.05.2022
2308 Clouds 13 1011 16 10000 4.04 248 22:34 03.05.2022
2309 Clouds 14 1010 14 10000 5.78 264 21:43 03.05.2022
2310 Clouds 14 1010 13 10000 6.75 276 20:54 03.05.2022
2311 Clouds 14 1034 26 10000 3.09 240 19:57 03.05.2022
2312 Clouds 13 1035 33 10000 1.54 60 18:54 03.05.2022
2313 Clouds 13 1035 33 10000 1.54 60 18:20 03.05.2022
2314 Clear 10 1036 40 10000 1.54 360 16:44 03.05.2022
2315 Clear 7 1036 53 10000 3.09 240 15:38 03.05.2022
2316 Clear 1 1034 75 10000 0 0 12:47 03.05.2022
2317 Clear 1 1034 75 10000 0 0 12:27 03.05.2022
2318 Clear 3 1017 76 10000 1.75 340 10:57 03.05.2022
2319 Clear 3 1017 76 10000 1.75 340 10:57 03.05.2022
2320 Clear 3 1017 71 10000 2.05 341 09:34 03.05.2022
2321 Clouds 4 1016 62 10000 3.01 323 07:33 03.05.2022
2322 Clouds 5 1016 60 10000 3.26 334 06:44 03.05.2022
2323 Clouds 9 1011 27 10000 2.05 247 01:47 03.05.2022
2324 Clouds 14 1007 16 10000 9.4 294 22:39 02.05.2022
2325 Clear 15 1005 17 10000 9.67 291 21:54 02.05.2022
2326 Clear 16 1005 18 10000 9.7 298 20:51 02.05.2022
2327 Clear 14 1034 33 10000 3.09 240 18:44 02.05.2022
2328 Clear 14 1034 33 10000 3.09 240 18:25 02.05.2022
2329 Clear 12 1035 44 10000 5.14 240 17:37 02.05.2022
2330 Clear 11 1035 43 10000 4.12 240 16:23 02.05.2022
2331 Clear 8 1036 46 10000 3.09 240 15:31 02.05.2022
2332 Clear 1 1035 69 10000 0 0 13:52 02.05.2022
2333 Clear 0 1035 69 10000 0 0 12:20 02.05.2022
2334 Clear 5 1015 25 10000 2.34 279 10:51 02.05.2022
2335 Clear 6 1014 27 10000 2.25 290 09:30 02.05.2022
2336 Clear 7 1014 30 10000 2.21 287 07:52 02.05.2022
2337 Clear 8 1014 44 10000 2.1 316 04:44 02.05.2022
2338 Clear 13 1008 19 10000 4.5 255 00:25 02.05.2022
2339 Clear 13 1008 19 10000 4.5 255 23:52 01.05.2022
2340 Clear 15 1006 14 10000 6.92 260 22:40 01.05.2022
2341 Clear 17 1005 12 10000 6.23 270 21:26 01.05.2022
2342 Clear 17 1006 12 10000 3.41 286 20:19 01.05.2022
2343 Clear 16 1008 13 10000 2.5 324 19:18 01.05.2022
2344 Clear 16 1008 13 10000 2.5 324 18:46 01.05.2022
2345 Clear 15 1010 15 10000 2.26 324 17:46 01.05.2022
2346 Clear 12 1014 18 10000 1.67 313 16:24 01.05.2022
2347 Clear 12 1014 18 10000 1.67 313 15:43 01.05.2022
2348 Clear 8 1015 31 10000 1.23 282 14:22 01.05.2022
2349 Clear 5 1014 48 10000 1.28 306 11:41 01.05.2022
2350 Clear 6 1013 55 10000 1.07 270 09:33 01.05.2022
2351 Clear 6 1013 60 10000 0.98 259 08:49 01.05.2022
2352 Clear 7 1015 79 10000 1.19 321 05:31 01.05.2022
2353 Clouds 11 1011 55 10000 1.34 57 00:43 01.05.2022
2354 Clear 16 1006 21 10000 2.84 168 21:59 30.04.2022
2355 Clear 16 1006 21 10000 2.84 168 21:30 30.04.2022
2356 Clear 16 1006 21 10000 2.84 168 21:30 30.04.2022
2357 Clear 16 1006 21 10000 2.84 168 21:30 30.04.2022
2358 Clear 16 1006 21 10000 2.84 168 21:30 30.04.2022
2359 Clear 16 1009 21 10000 1.56 228 19:48 30.04.2022
2360 Clear 15 1010 23 10000 1.61 260 18:50 30.04.2022
2361 Clear 12 1015 38 10000 1.3 287 17:26 30.04.2022
2362 Clear 10 1017 49 10000 1.44 308 15:51 30.04.2022
2363 Clear 8 1018 63 10000 1.67 318 14:54 30.04.2022
2364 Clouds 7 1019 73 10000 1.6 320 13:41 30.04.2022
2365 Clouds 5 1018 85 10000 2.08 316 11:39 30.04.2022
2366 Clouds 6 1018 80 10000 2.16 323 10:55 30.04.2022
2367 Clouds 6 1018 83 10000 2.14 319 09:54 30.04.2022
2368 Clouds 6 1019 94 10000 2.04 349 07:35 30.04.2022
2369 Clouds 8 1019 81 10000 2.34 18 03:53 30.04.2022
2370 Clouds 11 1014 52 10000 3.29 53 23:54 29.04.2022
2371 Clouds 13 1013 38 10000 3.14 39 22:36 29.04.2022
2372 Clouds 13 1013 34 10000 2.68 18 21:55 29.04.2022
2373 Clouds 13 1013 33 10000 2.62 8 21:21 29.04.2022
2374 Clouds 13 1015 34 10000 2.61 6 19:52 29.04.2022
2375 Clouds 12 1016 37 10000 2.44 355 19:26 29.04.2022
2376 Clouds 10 1043 66 10000 6.17 60 17:34 29.04.2022
2377 Clouds 8 1043 76 10000 4.12 60 16:30 29.04.2022
2378 Clouds 4 1042 81 10000 0 0 14:34 29.04.2022
2379 Clouds 2 1041 93 10000 0 0 13:27 29.04.2022
2380 Clouds 4 1023 91 10000 1.57 348 12:33 29.04.2022
2381 Clouds 4 1021 89 10000 1.75 340 10:29 29.04.2022
2382 Clear 5 1022 88 10000 1.35 357 07:52 29.04.2022
2383 Clear 5 1022 87 10000 1.71 15 07:25 29.04.2022
2384 Clear 6 1022 86 10000 1.8 19 06:29 29.04.2022
2385 Clear 8 1019 75 10000 3.08 32 01:47 29.04.2022
2386 Clear 10 1015 57 10000 4.54 43 23:55 28.04.2022
2387 Clear 13 1013 44 10000 5.44 48 23:25 28.04.2022
2388 Clear 14 1012 32 10000 5.3 59 22:19 28.04.2022
2389 Clear 14 1012 32 10000 5.3 59 21:41 28.04.2022
2390 Clear 15 1011 24 10000 5.2 66 20:43 28.04.2022
2391 Clouds 18 1038 26 10000 6.17 60 19:49 28.04.2022
2392 Clouds 18 1038 26 10000 6.17 60 19:24 28.04.2022
2393 Clouds 16 1039 27 10000 4.12 60 18:51 28.04.2022
2394 Clear 14 1040 33 10000 0 0 17:42 28.04.2022
2395 Clear 10 1040 40 10000 0 0 16:51 28.04.2022
2396 Clear 10 1040 40 10000 0 0 16:20 28.04.2022
2397 Clear 10 1040 40 10000 0 0 16:20 28.04.2022
2398 Clear 7 1040 42 10000 0 0 15:43 28.04.2022
2399 Clear 4 1039 52 10000 0 0 14:58 28.04.2022
2400 Clouds 1 1038 55 10000 0 0 13:33 28.04.2022
2401 Clouds 1 1037 64 10000 3.09 240 12:29 28.04.2022
2402 Clear 6 1015 23 10000 1.45 223 10:59 28.04.2022
2403 Clear 6 1014 26 10000 1.14 227 10:26 28.04.2022
2404 Clear 6 1014 26 10000 1.14 227 09:47 28.04.2022
2405 Clouds 7 1015 32 10000 1.11 287 07:41 28.04.2022
2406 Clouds 7 1015 31 10000 0.94 324 06:43 28.04.2022
2407 Clouds 8 1015 30 10000 0.94 348 05:52 28.04.2022
2408 Clouds 8 1014 29 10000 0.88 345 04:42 28.04.2022
2409 Clouds 11 1012 23 10000 1.45 86 01:53 28.04.2022
2410 Clouds 16 1008 11 10000 2.31 99 23:25 27.04.2022
2411 Clouds 17 1007 9 10000 0.95 70 22:18 27.04.2022
2412 Clouds 17 1007 9 10000 0.95 70 21:43 27.04.2022
2413 Clouds 17 1007 8 10000 0.36 335 20:45 27.04.2022
2414 Clouds 17 1008 8 10000 0.71 283 19:55 27.04.2022
2415 Clouds 17 1008 8 10000 0.77 293 19:34 27.04.2022
2416 Clouds 15 1036 27 10000 4.12 240 18:39 27.04.2022
2417 Clouds 13 1037 26 10000 5.14 240 17:55 27.04.2022
2418 Clouds 8 1037 37 10000 5.14 240 15:57 27.04.2022
2419 Clouds 1 1035 64 10000 5.14 240 13:18 27.04.2022
2420 Clouds 4 1016 15 10000 2.2 235 11:25 27.04.2022
2421 Clouds 4 1016 15 10000 2.2 235 10:45 27.04.2022
2422 Clear 6 1016 16 10000 2.01 233 08:28 27.04.2022
2423 Clear 7 1016 16 10000 2.6 237 06:41 27.04.2022
2424 Clouds 10 1014 22 10000 2.3 244 02:35 27.04.2022
2425 Clouds 11 1011 27 10000 1.08 140 01:23 27.04.2022
2426 Clouds 13 1009 20 10000 1.49 102 00:27 27.04.2022
2427 Clouds 16 1008 10 10000 1.16 92 23:24 26.04.2022
2428 Clouds 16 1008 10 10000 1.16 92 22:51 26.04.2022
2429 Clouds 16 1008 10 10000 1.16 92 22:31 26.04.2022
2430 Clouds 16 1008 9 10000 1.66 351 21:25 26.04.2022
2431 Clouds 16 1008 9 10000 1.66 351 20:39 26.04.2022
2432 Clouds 17 1035 27 10000 3.09 240 19:45 26.04.2022
2433 Clouds 17 1035 27 10000 3.09 240 19:26 26.04.2022
2434 Clouds 16 1036 29 10000 5.14 240 18:39 26.04.2022
2435 Clouds 15 1037 27 10000 5.14 240 17:42 26.04.2022
2436 Clouds 7 1037 39 10000 1.54 240 15:59 26.04.2022
2437 Clouds 2 1036 65 10000 1.54 240 13:55 26.04.2022
2438 Clouds 2 1036 65 10000 1.54 240 13:29 26.04.2022
2439 Clouds 5 1016 19 10000 1.23 265 11:29 26.04.2022
2440 Clouds 5 1016 19 10000 1.23 265 10:31 26.04.2022
2441 Clouds 6 1015 20 10000 1.77 258 08:38 26.04.2022
2442 Clouds 8 1016 23 10000 1.61 243 05:46 26.04.2022
2443 Clouds 9 1015 27 10000 1.34 267 04:23 26.04.2022
2444 Clouds 10 1013 27 10000 1.5 126 00:53 26.04.2022
2445 Clouds 12 1011 23 10000 1.6 102 23:52 25.04.2022
2446 Clouds 16 1009 10 10000 0.82 86 22:18 25.04.2022
2447 Clouds 16 1009 10 10000 0.82 86 21:33 25.04.2022
2448 Clouds 15 1010 10 10000 0.52 61 20:26 25.04.2022
2449 Clouds 13 1036 24 10000 6.17 240 18:52 25.04.2022
2450 Clouds 11 1037 28 10000 4.12 240 17:40 25.04.2022
2451 Clouds 10 1037 32 10000 3.09 240 16:50 25.04.2022
2452 Clouds 7 1037 39 10000 4.12 240 15:23 25.04.2022
2453 Clouds 3 1037 60 10000 3.09 240 14:34 25.04.2022
2454 Clouds -2 1036 86 10000 0 0 13:29 25.04.2022
2455 Clear 3 1017 24 10000 1.92 291 10:58 25.04.2022
2456 Clear 3 1016 24 10000 1.91 289 09:55 25.04.2022
2457 Clouds 5 1016 21 10000 2.13 256 08:23 25.04.2022
2458 Clear 6 1017 22 10000 2.26 241 06:18 25.04.2022
2459 Clear 8 1014 22 10000 2.72 270 02:20 25.04.2022
2460 Clear 11 1012 18 10000 4.99 287 23:58 24.04.2022
2461 Clear 11 1012 18 10000 4.99 287 23:30 24.04.2022
2462 Clear 13 1010 12 10000 7.05 291 22:40 24.04.2022
2463 Clear 14 1009 11 10000 6.91 294 21:58 24.04.2022
2464 Clear 14 1009 11 10000 6.91 294 21:58 24.04.2022
2465 Clear 15 1009 11 10000 7.21 293 21:23 24.04.2022
2466 Clear 15 1009 11 10000 7.21 293 20:47 24.04.2022
2467 Clear 15 1010 11 10000 6.84 293 20:21 24.04.2022
2468 Clear 14 1011 12 10000 6.88 301 18:59 24.04.2022
2469 Clear 13 1013 13 10000 6.27 312 18:20 24.04.2022
2470 Clear 12 1015 14 10000 4.48 315 17:27 24.04.2022
2471 Clear 12 1015 14 10000 4.48 315 16:58 24.04.2022
2472 Clear 12 1015 14 10000 4.48 315 16:30 24.04.2022
2473 Clear 10 1016 15 10000 3.07 310 15:53 24.04.2022
2474 Clear 8 1017 18 10000 2.17 301 14:57 24.04.2022
2475 Clear 6 1018 23 10000 1.87 292 13:51 24.04.2022
2476 Clear 3 1018 36 10000 1.82 290 13:23 24.04.2022
2477 Clear 3 1017 40 10000 1.71 289 11:55 24.04.2022
2478 Clouds 3 1016 48 10000 1.88 288 11:27 24.04.2022
2479 Clouds 4 1015 58 10000 1.54 283 09:51 24.04.2022
2480 Clouds 4 1015 65 10000 1.49 289 08:51 24.04.2022
2481 Clear 6 1015 40 10000 1.98 352 06:18 24.04.2022
2482 Clear 6 1014 33 10000 0.47 238 03:37 24.04.2022
2483 Clear 9 1012 24 10000 3.13 267 01:18 24.04.2022
2484 Clear 10 1011 19 10000 6.04 282 23:57 23.04.2022
2485 Clear 13 1009 13 10000 7.97 283 23:25 23.04.2022
2486 Clear 13 1009 13 10000 7.97 283 22:46 23.04.2022
2487 Clear 14 1008 11 10000 6.5 295 21:49 23.04.2022
2488 Clear 14 1008 11 10000 6.5 295 21:31 23.04.2022
2489 Clear 15 1008 11 10000 5.5 312 20:33 23.04.2022
2490 Clear 14 1010 12 10000 4.26 340 19:41 23.04.2022
2491 Clear 13 1012 15 10000 3.54 340 19:18 23.04.2022
2492 Clear 13 1012 15 10000 3.54 340 18:46 23.04.2022
2493 Clear 12 1014 17 10000 4.4 335 17:48 23.04.2022
2494 Clear 12 1015 17 10000 3.43 335 16:50 23.04.2022
2495 Clear 10 1016 17 10000 2.65 332 16:21 23.04.2022
2496 Clear 6 1018 18 10000 1.5 325 14:27 23.04.2022
2497 Clear 2 1016 22 10000 0.73 352 12:22 23.04.2022
2498 Clear 2 1015 22 10000 1.21 354 10:40 23.04.2022
2499 Clear 2 1015 22 10000 1.21 354 10:40 23.04.2022
2500 Clear 3 1014 23 10000 0.67 297 08:42 23.04.2022
2501 Clear 5 1016 20 10000 1.45 307 05:47 23.04.2022
2502 Clear 6 1015 22 10000 1.02 317 03:54 23.04.2022
2503 Clouds 8 1013 18 10000 3.99 231 00:46 23.04.2022
2504 Clouds 12 1009 12 10000 9.98 241 23:27 22.04.2022
2505 Clouds 14 1008 11 10000 11.17 240 21:59 22.04.2022
2506 Clouds 14 1008 11 10000 11.18 241 21:40 22.04.2022
2507 Clouds 15 1008 11 10000 11.84 248 20:45 22.04.2022
2508 Clouds 15 1008 12 10000 12.12 252 20:25 22.04.2022
2509 Clouds 14 1032 15 10000 7.72 240 19:18 22.04.2022
2510 Clouds 13 1033 19 10000 7.72 240 18:35 22.04.2022
2511 Clouds 12 1034 22 10000 6.17 240 17:37 22.04.2022
2512 Clouds 9 1035 37 10000 4.12 200 16:30 22.04.2022
2513 Clouds 7 1035 39 10000 4.12 240 15:32 22.04.2022
2514 Clouds 5 1035 42 10000 4.12 240 14:43 22.04.2022
2515 Clouds 3 1034 52 10000 1.54 240 13:43 22.04.2022
2516 Clouds 1 1034 64 10000 0 0 12:57 22.04.2022
2517 Clouds 4 1015 25 10000 2.79 294 11:43 22.04.2022
2518 Clouds 5 1014 24 10000 2.65 291 11:20 22.04.2022
2519 Clouds 5 1014 24 10000 2.65 291 10:47 22.04.2022
2520 Clouds 5 1014 24 10000 2.54 285 10:27 22.04.2022
2521 Clouds 5 1014 24 10000 2.54 285 09:50 22.04.2022
2522 Clouds 6 1014 24 10000 2.69 277 08:50 22.04.2022
2523 Clouds 7 1014 34 10000 2.36 283 06:56 22.04.2022
2524 Clear 10 1012 29 10000 2.23 249 01:53 22.04.2022
2525 Clear 13 1009 20 10000 5.59 261 23:53 21.04.2022
2526 Clear 15 1007 14 10000 7.4 272 22:59 21.04.2022
2527 Clear 16 1006 13 10000 7.01 283 21:59 21.04.2022
2528 Clear 17 1007 13 10000 5.03 295 20:34 21.04.2022
2529 Clouds 17 1037 27 10000 3.09 360 19:53 21.04.2022
2530 Clouds 15 1039 31 10000 1.54 20 18:35 21.04.2022
2531 Clouds 14 1040 33 10000 0 0 17:54 21.04.2022
2532 Clouds 11 1040 35 10000 0 0 16:30 21.04.2022
2533 Clear 7 1040 36 10000 0 0 15:21 21.04.2022
2534 Clear 3 1039 56 10000 0 0 14:38 21.04.2022
2535 Clouds 1 1038 64 10000 0 0 13:23 21.04.2022
2536 Clouds 5 1018 46 10000 1.44 277 12:42 21.04.2022
2537 Clear 5 1016 58 10000 1.31 273 10:47 21.04.2022
2538 Clear 6 1016 70 10000 1.07 296 08:55 21.04.2022
2539 Clear 7 1017 67 10000 1.4 329 07:24 21.04.2022
2540 Clear 8 1017 55 10000 1.49 13 04:58 21.04.2022
2541 Clear 9 1015 48 10000 0.51 59 03:28 21.04.2022
2542 Clear 9 1015 48 10000 0.51 59 02:47 21.04.2022
2543 Clear 9 1015 48 10000 0.51 59 02:47 21.04.2022
2544 Clouds 11 1013 38 10000 1.39 122 00:43 21.04.2022
2545 Clouds 13 1010 25 10000 0.46 45 23:50 20.04.2022
2546 Clouds 15 1009 13 10000 2.48 287 23:22 20.04.2022
2547 Clouds 15 1009 13 10000 2.48 287 22:49 20.04.2022
2548 Clouds 16 1008 12 10000 2.3 289 22:26 20.04.2022
2549 Clouds 16 1009 11 10000 1.73 339 21:27 20.04.2022
2550 Clear 16 1010 12 10000 2.51 358 20:24 20.04.2022
2551 Clear 18 1035 24 10000 2.06 20 19:52 20.04.2022
2552 Clear 18 1035 24 10000 2.06 20 19:20 20.04.2022
2553 Clear 15 1038 29 10000 1.54 360 17:56 20.04.2022
2554 Clear 11 1039 26 10000 4.12 240 16:54 20.04.2022
2555 Clear 11 1039 26 10000 4.12 240 16:36 20.04.2022
2556 Clouds 0 1037 51 10000 0 0 13:59 20.04.2022
2557 Clouds 4 1017 27 10000 1.71 281 11:50 20.04.2022
2558 Clouds 4 1016 30 10000 1.74 279 11:21 20.04.2022
2559 Clouds 5 1016 34 10000 1.53 259 10:22 20.04.2022
2560 Clouds 5 1016 42 10000 1.66 262 09:25 20.04.2022
2561 Clouds 6 1016 55 10000 1.5 256 08:22 20.04.2022
2562 Clouds 6 1016 55 10000 1.5 256 07:36 20.04.2022
2563 Clouds 8 1016 54 10000 1.81 360 03:38 20.04.2022
2564 Clear 12 1010 22 10000 3.61 253 00:23 20.04.2022
2565 Clear 12 1010 22 10000 3.61 253 23:56 19.04.2022
2566 Clear 17 1007 10 10000 5.6 278 22:27 19.04.2022
2567 Clear 17 1007 10 10000 5.6 278 21:57 19.04.2022
2568 Clear 17 1007 10 10000 5.24 290 21:24 19.04.2022
2569 Clear 17 1007 10 10000 5.24 290 20:46 19.04.2022
2570 Clear 17 1008 10 10000 3.45 312 20:26 19.04.2022
2571 Clear 16 1034 25 10000 1.54 60 19:19 19.04.2022
2572 Clear 16 1034 25 10000 1.54 60 19:19 19.04.2022
2573 Clear 14 1036 33 10000 0 0 17:50 19.04.2022
2574 Clear 9 1037 50 10000 1.54 240 16:43 19.04.2022
2575 Clear 9 1037 50 10000 1.54 240 16:23 19.04.2022
2576 Clear 3 1035 65 10000 3.09 240 14:51 19.04.2022
2577 Clouds 3 1035 65 10000 3.09 240 14:27 19.04.2022
2578 Clouds -1 1035 86 10000 0 0 12:51 19.04.2022
2579 Clouds -1 1035 86 10000 0 0 12:26 19.04.2022
2580 Clouds 4 1016 42 10000 1.69 291 10:50 19.04.2022
2581 Clouds 5 1016 54 10000 1.15 277 09:23 19.04.2022
2582 Clear 5 1018 66 10000 1.68 299 06:30 19.04.2022
2583 Clear 7 1017 64 10000 2.05 3 03:59 19.04.2022
2584 Clear 8 1016 60 10000 2.33 75 00:56 19.04.2022
2585 Clear 9 1013 50 10000 3.79 80 23:38 18.04.2022
2586 Clear 14 1010 20 10000 2.4 79 21:38 18.04.2022
2587 Clear 14 1010 19 10000 1.96 57 21:20 18.04.2022
2588 Clear 14 1010 19 10000 1.96 57 20:36 18.04.2022
2589 Clear 13 1036 38 10000 3.09 60 19:57 18.04.2022
2590 Clear 12 1038 44 10000 4.12 60 18:58 18.04.2022
2591 Clear 12 1038 44 10000 4.12 60 18:33 18.04.2022
2592 Clear 10 1039 54 10000 4.12 60 17:38 18.04.2022
2593 Clear 10 1039 54 10000 4.12 60 17:18 18.04.2022
2594 Clear 6 1039 57 10000 3.09 60 16:35 18.04.2022
2595 Clear 2 1039 65 10000 0 0 15:27 18.04.2022
2596 Clouds 0 1037 75 10000 0 0 13:42 18.04.2022
2597 Clouds 0 1037 75 10000 0 0 13:42 18.04.2022
2598 Clouds 1 1036 75 10000 0 0 12:40 18.04.2022
2599 Clouds 0 1022 90 10000 0.63 348 11:42 18.04.2022
2600 Clouds 0 1021 92 10000 0.95 5 10:42 18.04.2022
2601 Clouds 1 1021 91 7142 1.23 357 09:31 18.04.2022
2602 Clear 2 1020 89 10000 1.61 12 08:29 18.04.2022
2603 Clear 3 1020 84 10000 1.76 6 05:58 18.04.2022
2604 Clear 6 1016 59 10000 1.74 60 01:37 18.04.2022
2605 Clear 14 1009 11 10000 5.7 251 22:44 17.04.2022
2606 Clear 15 1008 11 10000 7.36 246 21:51 17.04.2022
2607 Clear 15 1008 11 10000 7.36 246 21:32 17.04.2022
2608 Clear 15 1008 10 10000 6.11 251 20:50 17.04.2022
2609 Clear 15 1009 9 10000 5.62 251 19:53 17.04.2022
2610 Clear 15 1010 10 10000 5.96 267 18:32 17.04.2022
2611 Clear 10 1016 23 10000 2.56 328 16:44 17.04.2022
2612 Clear 8 1018 32 10000 2.2 330 15:33 17.04.2022
2613 Clear 3 1020 58 10000 1.89 341 14:28 17.04.2022
2614 Clear 1 1021 68 10000 1.53 354 13:23 17.04.2022
2615 Clear 1 1021 68 10000 1.53 354 12:30 17.04.2022
2616 Clear 0 1020 68 10000 1.62 359 10:48 17.04.2022
2617 Clear 1 1019 65 10000 1.75 357 10:29 17.04.2022
2618 Clear 1 1019 65 10000 1.75 357 09:50 17.04.2022
2619 Clear 2 1019 66 10000 1.61 349 08:59 17.04.2022
2620 Clear 2 1018 68 10000 1.84 349 08:27 17.04.2022
2621 Clear 4 1018 59 10000 2.11 351 05:33 17.04.2022
2622 Clear 8 1012 21 10000 1.96 353 01:47 17.04.2022
2623 Clear 11 1011 15 10000 4.89 279 23:59 16.04.2022
2624 Clear 14 1008 11 10000 9.31 273 22:56 16.04.2022
2625 Clear 15 1007 10 10000 8.54 277 21:45 16.04.2022
2626 Clear 16 1007 10 10000 8.04 264 20:54 16.04.2022
2627 Clear 16 1009 9 10000 7.58 266 19:21 16.04.2022
2628 Clear 16 1009 9 10000 7.58 266 18:35 16.04.2022
2629 Clear 12 1013 12 10000 3.09 305 16:44 16.04.2022
2630 Clear 10 1015 14 10000 2.68 309 15:48 16.04.2022
2631 Clear 8 1016 15 10000 2.48 311 14:58 16.04.2022
2632 Clear 8 1016 15 10000 2.48 311 14:30 16.04.2022
2633 Clear 6 1017 18 10000 2.4 316 13:48 16.04.2022
2634 Clear 2 1018 26 10000 2.29 320 12:35 16.04.2022
2635 Clear 2 1017 25 10000 2.21 309 11:33 16.04.2022
2636 Clear 3 1016 28 10000 2.07 308 10:29 16.04.2022
2637 Clear 3 1016 28 10000 2.07 308 09:36 16.04.2022
2638 Clear 3 1015 27 10000 2.33 310 08:42 16.04.2022
2639 Clear 4 1016 49 10000 2.43 313 07:21 16.04.2022
2640 Clear 6 1016 48 10000 2.61 314 04:58 16.04.2022
2641 Clear 9 1011 25 10000 2.46 312 01:23 16.04.2022
2642 Clear 11 1010 18 10000 6.47 292 23:45 15.04.2022
2643 Clear 14 1008 13 10000 9.41 281 22:48 15.04.2022
2644 Clear 15 1007 13 10000 10 277 22:28 15.04.2022
2645 Clear 16 1006 12 10000 9.02 282 21:21 15.04.2022
2646 Clear 16 1006 12 10000 9.02 282 20:38 15.04.2022
2647 Clear 13 1034 24 10000 4.12 360 19:44 15.04.2022
2648 Clear 12 1034 28 10000 3.09 360 18:59 15.04.2022
2649 Clear 12 1034 28 10000 3.09 360 18:41 15.04.2022
2650 Clear 12 1034 28 10000 3.09 360 18:21 15.04.2022
2651 Clear 11 1035 28 10000 3.09 360 17:26 15.04.2022
2652 Clear 9 1036 40 10000 0 0 16:25 15.04.2022
2653 Clear 5 1036 56 10000 0 0 15:45 15.04.2022
2654 Clouds -1 1036 86 10000 0 0 13:55 15.04.2022
2655 Clouds -1 1035 93 10000 0 0 12:52 15.04.2022
2656 Clouds -1 1035 93 10000 0 0 12:24 15.04.2022
2657 Clouds 2 1020 93 10000 2.43 314 11:50 15.04.2022
2658 Clouds 2 1019 93 10000 2.4 320 10:46 15.04.2022
2659 Clouds 2 1019 93 10000 2.4 320 10:46 15.04.2022
2660 Clouds 2 1019 91 10000 2.3 330 10:20 15.04.2022
2661 Clouds 3 1019 89 10000 2 336 09:22 15.04.2022
2662 Clouds 3 1019 89 10000 2 336 08:40 15.04.2022
2663 Clear 3 1020 90 10000 2.17 353 06:50 15.04.2022
2664 Clear 4 1019 80 10000 2.42 22 04:49 15.04.2022
2665 Clear 9 1013 36 10000 1.13 282 00:46 15.04.2022
2666 Clear 14 1009 19 10000 6.77 268 23:26 14.04.2022
2667 Clear 14 1009 19 10000 6.77 268 22:46 14.04.2022
2668 Clear 14 1008 16 10000 7.06 274 22:27 14.04.2022
2669 Clear 14 1008 16 10000 7.06 274 21:50 14.04.2022
2670 Clouds 13 1035 38 10000 1.54 60 19:51 14.04.2022
2671 Clouds 13 1035 38 10000 1.54 60 19:22 14.04.2022
2672 Clouds 10 1039 54 10000 3.09 60 17:46 14.04.2022
2673 Clouds 8 1040 61 10000 3.09 20 16:51 14.04.2022
2674 Clouds 8 1040 61 10000 3.09 20 16:21 14.04.2022
2675 Clouds 2 1037 93 10000 0 0 13:54 14.04.2022
2676 Clouds 2 1037 93 10000 0 0 13:25 14.04.2022
2677 Clouds 2 1037 93 10000 0 0 12:33 14.04.2022
2678 Clouds 3 1020 94 5568 1.38 345 11:47 14.04.2022
2679 Clouds 3 1019 95 6041 1.43 356 11:20 14.04.2022
2680 Clouds 3 1019 95 6041 1.43 356 10:33 14.04.2022
2681 Clouds 3 1019 95 6388 1.31 7 09:50 14.04.2022
2682 Clear 3 1019 94 10000 1.51 23 08:35 14.04.2022
2683 Clear 5 1019 76 10000 1.78 34 05:58 14.04.2022
2684 Clear 9 1013 25 10000 1.88 289 01:23 14.04.2022
2685 Clear 13 1010 13 10000 7.15 275 22:38 13.04.2022
2686 Clear 14 1010 12 10000 8.01 277 21:44 13.04.2022
2687 Clear 14 1009 11 10000 8.08 284 20:47 13.04.2022
2688 Clear 14 1034 26 10000 3.09 240 19:54 13.04.2022
2689 Clear 12 1035 33 10000 0 0 18:43 13.04.2022
2690 Clear 11 1036 35 10000 0 0 17:52 13.04.2022
2691 Clear 11 1036 35 10000 0 0 17:23 13.04.2022
2692 Clouds 8 1037 37 10000 1.54 240 16:18 13.04.2022
2693 Clouds 4 1036 56 10000 1.54 240 15:31 13.04.2022
2694 Clouds 1 1036 69 10000 1.54 200 14:46 13.04.2022
2695 Clouds -3 1035 69 10000 0 0 13:57 13.04.2022
2696 Clouds -3 1035 69 10000 2.57 240 12:58 13.04.2022
2697 Clouds -3 1035 69 10000 2.57 240 12:19 13.04.2022
2698 Clear 2 1018 23 10000 1.13 309 10:44 13.04.2022
2699 Clear 3 1017 24 10000 1.93 301 08:50 13.04.2022
2700 Clear 4 1017 24 10000 1.9 314 08:28 13.04.2022
2701 Clear 4 1017 27 10000 1.52 320 06:50 13.04.2022
2702 Clear 5 1017 27 10000 1.25 301 06:25 13.04.2022
2703 Clear 7 1015 22 10000 3.27 255 02:37 13.04.2022
2704 Clouds 11 1009 18 10000 6.02 284 00:20 13.04.2022
2705 Clouds 13 1008 13 10000 8.84 291 22:46 12.04.2022
2706 Clear 14 1007 13 10000 9.21 293 21:57 12.04.2022
2707 Clear 15 1007 12 10000 9.9 293 20:49 12.04.2022
2708 Clear 15 1007 11 10000 9.08 299 20:27 12.04.2022
2709 Clear 15 1007 11 10000 9.08 299 19:47 12.04.2022
2710 Clear 15 1009 11 10000 8.71 292 19:28 12.04.2022
2711 Clear 14 1010 10 10000 6.98 294 17:59 12.04.2022
2712 Clear 12 1013 12 10000 5.04 310 16:53 12.04.2022
2713 Clear 10 1015 13 10000 3.87 302 15:52 12.04.2022
2714 Clear 9 1016 16 10000 2.65 293 15:25 12.04.2022
2715 Clear 7 1016 21 10000 1.54 286 13:54 12.04.2022
2716 Clear 4 1016 30 10000 1.53 285 13:27 12.04.2022
2717 Clear 4 1016 30 10000 1.53 285 12:44 12.04.2022
2718 Clear 3 1015 26 10000 1.79 287 11:42 12.04.2022
2719 Clear 4 1014 28 10000 1.82 303 10:30 12.04.2022
2720 Clear 5 1014 27 10000 1.73 286 08:54 12.04.2022
2721 Clear 5 1014 27 10000 1.73 286 08:54 12.04.2022
2722 Clear 5 1014 25 10000 1.85 287 07:50 12.04.2022
2723 Clear 6 1014 25 10000 1.69 286 05:49 12.04.2022
2724 Clear 8 1013 23 10000 1.45 247 03:28 12.04.2022
2725 Clear 12 1009 17 10000 5.83 268 23:49 11.04.2022
2726 Clear 14 1008 12 10000 7.02 272 22:44 11.04.2022
2727 Clear 15 1007 12 10000 7.39 275 21:37 11.04.2022
2728 Clear 15 1007 12 10000 7.52 281 20:54 11.04.2022
2729 Clouds 15 1007 12 10000 7.27 283 20:28 11.04.2022
2730 Clouds 15 1033 31 10000 1.54 20 19:37 11.04.2022
2731 Clouds 15 1033 31 10000 1.54 20 19:18 11.04.2022
2732 Clouds 14 1034 33 10000 3.09 240 18:40 11.04.2022
2733 Clouds 13 1035 30 10000 0 0 17:56 11.04.2022
2734 Clouds 8 1035 53 10000 0 0 16:54 11.04.2022
2735 Clouds 5 1035 56 10000 0 0 15:24 11.04.2022
2736 Clouds 0 1034 75 10000 0 0 13:53 11.04.2022
2737 Clouds 0 1034 75 10000 0 0 12:44 11.04.2022
2738 Clouds 0 1034 75 10000 0 0 12:25 11.04.2022
2739 Clear 5 1014 33 10000 2.05 275 10:58 11.04.2022
2740 Clear 6 1013 37 10000 2.25 270 10:21 11.04.2022
2741 Clear 7 1013 41 10000 2.23 279 08:50 11.04.2022
2742 Clouds 8 1012 46 10000 1.5 295 05:38 11.04.2022
2743 Clouds 11 1009 33 10000 3.95 264 00:57 11.04.2022
2744 Clouds 14 1006 31 10000 5.37 278 22:33 10.04.2022
2745 Clouds 14 1006 35 10000 4.2 318 21:54 10.04.2022
2746 Clouds 16 1005 29 10000 4.28 292 21:26 10.04.2022
2747 Clouds 16 1006 30 10000 3.33 292 20:25 10.04.2022
2748 Clouds 15 1006 30 10000 3.14 283 19:37 10.04.2022
2749 Clouds 15 1008 35 10000 3.22 291 18:50 10.04.2022
2750 Clouds 15 1008 35 10000 3.22 291 18:30 10.04.2022
2751 Clouds 14 1010 39 10000 2.79 302 17:51 10.04.2022
2752 Clouds 14 1010 39 10000 2.79 302 17:31 10.04.2022
2753 Clouds 11 1013 42 10000 2.51 293 15:53 10.04.2022
2754 Clouds 10 1014 42 10000 2.37 290 14:49 10.04.2022
2755 Clouds 9 1014 51 10000 2.24 290 13:45 10.04.2022
2756 Clouds 7 1014 67 10000 2.02 286 12:33 10.04.2022
2757 Clouds 7 1014 72 10000 1.97 279 11:44 10.04.2022
2758 Clouds 7 1014 75 10000 1.44 285 11:20 10.04.2022
2759 Clouds 7 1014 75 10000 1.44 285 10:38 10.04.2022
2760 Clouds 7 1014 77 10000 1.54 320 09:46 10.04.2022
2761 Clouds 7 1014 78 10000 1.81 315 08:40 10.04.2022
2762 Clouds 7 1014 78 10000 1.88 315 08:18 10.04.2022
2763 Clouds 7 1015 78 10000 2.11 319 06:59 10.04.2022
2764 Clouds 8 1017 77 10000 1.29 71 03:40 10.04.2022
2765 Clouds 7 1017 80 10000 2.44 101 02:19 10.04.2022
2766 Clouds 8 1015 76 10000 2.31 79 23:54 09.04.2022
2767 Clouds 6 1016 83 10000 1.97 119 22:56 09.04.2022
2768 Clouds 6 1016 83 10000 1.97 119 22:38 09.04.2022
2769 Clouds 13 1009 53 10000 2.22 296 21:23 09.04.2022
2770 Clouds 13 1009 53 10000 2.22 296 20:30 09.04.2022
2771 Clouds 14 1010 43 10000 3.85 6 19:57 09.04.2022
2772 Clouds 14 1010 46 10000 3.38 3 19:39 09.04.2022
2773 Clouds 13 1013 45 10000 2.89 13 18:23 09.04.2022
2774 Clouds 13 1013 45 10000 2.89 13 17:50 09.04.2022
2775 Clouds 12 1015 49 10000 2.14 340 16:57 09.04.2022
2776 Clouds 12 1015 49 10000 2.14 340 16:38 09.04.2022
2777 Clouds 12 1015 49 10000 2.14 340 16:38 09.04.2022
2778 Clouds 12 1015 49 10000 2.14 340 16:38 09.04.2022
2779 Clouds 12 1015 49 10000 2.14 340 16:38 09.04.2022
2780 Clouds 12 1015 49 10000 2.14 340 16:38 09.04.2022
2781 Clouds 11 1016 55 10000 2.02 333 15:50 09.04.2022
2782 Clouds 10 1017 59 10000 1.97 337 15:26 09.04.2022
2783 Clouds 9 1017 65 10000 1.72 342 14:26 09.04.2022
2784 Clouds 9 1017 67 10000 2.28 338 13:33 09.04.2022
2785 Clouds 8 1017 75 10000 1.55 346 12:56 09.04.2022
2786 Clouds 8 1016 76 10000 1.39 356 11:50 09.04.2022
2787 Clouds 8 1015 76 10000 1.35 16 10:52 09.04.2022
2788 Clouds 8 1015 77 10000 1.34 34 10:18 09.04.2022
2789 Clouds 7 1016 81 10000 1.21 37 09:23 09.04.2022
2790 Clouds 8 1016 81 10000 1.28 16 08:26 09.04.2022
2791 Clouds 9 1016 72 10000 1.74 29 04:38 09.04.2022
2792 Clouds 10 1013 65 10000 2.64 54 00:35 09.04.2022
2793 Clouds 11 1011 62 10000 3.13 30 23:23 08.04.2022
2794 Clouds 12 1011 58 10000 1.34 101 21:49 08.04.2022
2795 Clouds 13 1010 50 6850 3.48 35 20:43 08.04.2022
2796 Clouds 14 1037 51 10000 5.14 60 19:50 08.04.2022
2797 Clouds 14 1039 55 10000 1.54 60 18:56 08.04.2022
2798 Clouds 14 1039 55 10000 1.54 60 18:22 08.04.2022
2799 Clouds 13 1040 58 10000 4.12 60 17:29 08.04.2022
2800 Clouds 11 1041 71 10000 4.12 60 16:58 08.04.2022
2801 Clouds 11 1041 71 10000 4.12 60 16:31 08.04.2022
2802 Clouds 9 1040 81 10000 3.09 60 15:37 08.04.2022
2803 Clouds 5 1040 87 10000 0 0 14:52 08.04.2022
2804 Clouds 5 1040 87 10000 0 0 14:20 08.04.2022
2805 Clouds 4 1038 93 10000 0 0 13:36 08.04.2022
2806 Clouds 4 1038 93 10000 0 0 13:18 08.04.2022
2807 Clouds 6 1017 80 10000 1.87 34 11:41 08.04.2022
2808 Clouds 7 1015 75 10000 1.77 40 10:20 08.04.2022
2809 Clouds 7 1015 75 10000 1.54 36 09:20 08.04.2022
2810 Clouds 7 1016 76 10000 1.29 19 07:44 08.04.2022
2811 Clouds 8 1016 75 10000 1.36 33 06:46 08.04.2022
2812 Clouds 9 1016 65 10000 1.4 45 03:35 08.04.2022
2813 Clouds 11 1012 59 10000 1.76 74 00:31 08.04.2022
2814 Clouds 12 1011 52 10000 0.62 316 23:52 07.04.2022
2815 Clouds 12 1010 49 10000 1.65 289 22:55 07.04.2022
2816 Clouds 12 1010 49 10000 1.65 289 22:36 07.04.2022
2817 Clouds 12 1011 53 10000 1.01 274 22:18 07.04.2022
2818 Clouds 12 1011 53 10000 1.01 274 21:33 07.04.2022
2819 Clouds 10 1013 61 10000 1.14 78 20:56 07.04.2022
2820 Clouds 10 1014 59 10000 2.96 249 20:26 07.04.2022
2821 Clouds 14 1038 55 10000 0 0 17:45 07.04.2022
2822 Clouds 14 1038 55 10000 0 0 17:23 07.04.2022
2823 Clouds 12 1039 58 10000 0 0 16:42 07.04.2022
2824 Clouds 10 1039 71 10000 0 0 15:58 07.04.2022
2825 Clouds 7 1038 87 10000 0 0 14:28 07.04.2022
2826 Clouds 5 1037 93 10000 0 0 13:41 07.04.2022
2827 Clouds 4 1036 100 10000 0 0 12:28 07.04.2022
2828 Clouds 6 1016 85 10000 0.76 292 10:57 07.04.2022
2829 Clouds 6 1016 88 10000 0.88 306 09:36 07.04.2022
2830 Clouds 6 1016 89 10000 0.99 321 08:35 07.04.2022
2831 Clouds 8 1017 82 10000 2.21 2 06:29 07.04.2022
2832 Clouds 9 1016 72 10000 1.81 75 02:40 07.04.2022
2833 Clouds 10 1014 68 9532 2.22 35 01:27 07.04.2022
2834 Clouds 11 1012 58 10000 2.42 49 23:56 06.04.2022
2835 Clouds 13 1011 52 10000 1.85 350 22:46 06.04.2022
2836 Clouds 14 1009 44 10000 4.64 352 22:24 06.04.2022
2837 Clouds 14 1009 44 10000 4.64 352 21:31 06.04.2022
2838 Clouds 14 1011 41 10000 2.57 22 20:27 06.04.2022
2839 Clouds 15 1040 51 10000 3.09 240 19:53 06.04.2022
2840 Clouds 14 1041 58 10000 1.54 240 18:50 06.04.2022
2841 Clouds 12 1041 67 10000 0 0 17:57 06.04.2022
2842 Clouds 12 1015 52 10000 2.63 347 17:35 06.04.2022
2843 Clouds 11 1017 58 10000 2.78 348 16:36 06.04.2022
2844 Clouds 8 1042 81 10000 0 0 15:48 06.04.2022
2845 Clouds 6 1041 87 10000 0 0 14:23 06.04.2022
2846 Clouds 6 1040 93 8000 0 0 12:58 06.04.2022
2847 Clouds 5 1019 89 10000 1.32 8 11:55 06.04.2022
2848 Clouds 6 1018 88 10000 1.46 350 10:47 06.04.2022
2849 Clouds 6 1018 86 10000 1.26 348 10:24 06.04.2022
2850 Clouds 6 1018 86 10000 1.26 348 09:40 06.04.2022
2851 Clouds 6 1018 85 10000 1.04 333 08:32 06.04.2022
2852 Clouds 6 1019 84 10000 0.78 353 07:47 06.04.2022
2853 Clouds 7 1020 76 10000 0.85 342 03:37 06.04.2022
2854 Clouds 8 1016 73 7236 1.65 150 23:51 05.04.2022
2855 Clouds 9 1015 72 4708 1.99 254 22:31 05.04.2022
2856 Clouds 13 1012 48 10000 2.98 35 21:20 05.04.2022
2857 Clouds 13 1013 48 10000 2.47 15 20:25 05.04.2022
2858 Clouds 14 1038 63 10000 3.09 60 19:41 05.04.2022
2859 Clouds 11 1041 71 10000 0 0 17:55 05.04.2022
2860 Clouds 10 1041 76 10000 1.54 240 16:54 05.04.2022
2861 Clouds 8 1041 81 10000 0 0 15:56 05.04.2022
2862 Clouds 8 1041 81 10000 0 0 15:34 05.04.2022
2863 Clouds 6 1040 93 10000 0 0 14:35 05.04.2022
2864 Clouds 6 1039 93 8000 0 0 13:21 05.04.2022
2865 Clouds 5 1019 91 10000 1.18 6 11:51 05.04.2022
2866 Clouds 5 1019 91 10000 1.18 6 11:32 05.04.2022
2867 Clouds 5 1018 91 10000 1.43 346 09:55 05.04.2022
2868 Clouds 6 1018 90 10000 2.13 345 08:54 05.04.2022
2869 Clouds 6 1019 89 10000 2.33 20 06:58 05.04.2022
2870 Clouds 8 1016 81 10000 2.04 54 01:55 05.04.2022
2871 Rain 10 1012 65 6063 2.82 10 22:42 04.04.2022
2872 Clouds 10 1012 66 10000 2.3 351 22:24 04.04.2022
2873 Clouds 11 1013 64 5982 2.77 314 21:21 04.04.2022
2874 Clouds 11 1013 64 5982 2.77 314 20:50 04.04.2022
2875 Clouds 11 1036 58 10000 6.17 60 19:58 04.04.2022
2876 Clouds 11 1036 58 10000 6.17 60 19:26 04.04.2022
2877 Clouds 11 1037 62 10000 5.14 60 18:33 04.04.2022
2878 Clouds 10 1038 71 10000 3.09 60 16:37 04.04.2022
2879 Clouds 8 1038 81 10000 1.54 40 15:47 04.04.2022
2880 Clouds 8 1038 81 10000 1.54 40 15:29 04.04.2022
2881 Clouds 6 1037 87 10000 2.06 360 14:46 04.04.2022
2882 Clouds 5 1036 93 10000 0 0 13:33 04.04.2022
2883 Clouds 6 1017 78 10000 1.71 50 12:23 04.04.2022
2884 Clouds 6 1016 76 10000 1.42 47 11:29 04.04.2022
2885 Clear 7 1015 73 10000 1.16 40 09:20 04.04.2022
2886 Clouds 9 1015 66 10000 1.1 63 05:21 04.04.2022
2887 Clouds 10 1013 55 10000 0.79 39 01:36 04.04.2022
2888 Clouds 12 1009 47 10000 2.76 21 22:47 03.04.2022
2889 Clouds 13 1009 44 10000 3.06 6 21:48 03.04.2022
2890 Clouds 14 1009 38 10000 5.2 341 21:19 03.04.2022
2891 Clouds 14 1009 34 10000 3.1 337 19:52 03.04.2022
2892 Clouds 13 1011 34 10000 2.71 341 18:34 03.04.2022
2893 Clouds 12 1013 35 10000 3.22 324 17:49 03.04.2022
2894 Clouds 11 1015 37 10000 2.75 313 17:27 03.04.2022
2895 Clouds 11 1015 37 10000 2.75 313 16:48 03.04.2022
2896 Clear 9 1016 38 10000 2.45 300 15:32 03.04.2022
2897 Clouds 7 1017 46 10000 2.26 301 13:58 03.04.2022
2898 Clouds 7 1017 46 10000 2.26 301 13:58 03.04.2022
2899 Clouds 5 1017 53 10000 2.02 295 12:56 03.04.2022
2900 Clouds 5 1016 61 10000 2.05 290 11:33 03.04.2022
2901 Clouds 5 1015 76 10000 1.73 307 09:41 03.04.2022
2902 Clouds 6 1015 81 10000 1.42 302 08:52 03.04.2022
2903 Clouds 6 1016 81 10000 1.73 350 05:44 03.04.2022
2904 Clouds 8 1014 70 10000 2.65 358 02:55 03.04.2022
2905 Clouds 12 1009 54 10000 3.14 318 23:27 02.04.2022
2906 Clouds 12 1009 54 10000 3.14 318 22:41 02.04.2022
2907 Clouds 12 1008 49 10000 4.25 347 21:55 02.04.2022
2908 Clouds 14 1008 42 10000 4.92 303 21:19 02.04.2022
2909 Clouds 14 1008 42 10000 4.92 303 20:36 02.04.2022
2910 Clouds 12 1011 48 10000 3.51 307 18:47 02.04.2022
2911 Clouds 12 1013 52 10000 2.85 304 18:19 02.04.2022
2912 Clouds 10 1015 56 10000 2.37 305 16:50 02.04.2022
2913 Clouds 9 1016 62 10000 2.05 290 15:42 02.04.2022
2914 Clouds 7 1017 70 10000 2.06 298 15:18 02.04.2022
2915 Clouds 7 1017 70 10000 2.06 298 14:31 02.04.2022
2916 Clouds 6 1018 81 10000 2.63 286 13:34 02.04.2022
2917 Clouds 5 1017 89 10000 1.64 334 12:21 02.04.2022
2918 Clouds 5 1016 89 10000 1.92 359 10:31 02.04.2022
2919 Clouds 5 1017 87 10000 2.05 338 08:26 02.04.2022
2920 Clouds 6 1018 81 10000 2.7 15 04:59 02.04.2022
2921 Clouds 7 1017 82 10000 1.43 82 02:37 02.04.2022
2922 Clouds 8 1014 77 10000 3.86 42 23:54 01.04.2022
2923 Clouds 8 1013 77 10000 3.81 47 22:47 01.04.2022
2924 Clouds 12 1010 50 10000 1.38 48 21:24 01.04.2022
2925 Clouds 16 1034 42 10000 3.09 60 20:48 01.04.2022
2926 Clouds 15 1035 44 10000 3.09 40 19:46 01.04.2022
2927 Clouds 15 1035 44 10000 3.09 40 19:26 01.04.2022
2928 Clouds 14 1036 55 10000 4.12 60 18:38 01.04.2022
2929 Clouds 12 1037 58 10000 1.54 60 17:43 01.04.2022
2930 Clouds 10 1037 71 10000 2.57 60 16:24 01.04.2022
2931 Clouds 5 1037 87 10000 1.54 60 14:56 01.04.2022
2932 Clouds 4 1036 93 10000 0 0 13:56 01.04.2022
2933 Clouds 4 1036 93 10000 0 0 13:31 01.04.2022
2934 Clouds 6 1017 72 10000 2.12 349 12:26 01.04.2022
2935 Clouds 6 1016 74 10000 2.18 345 10:52 01.04.2022
2936 Clouds 6 1016 80 10000 2.15 349 09:49 01.04.2022
2937 Clouds 5 1017 85 10000 2.02 358 07:50 01.04.2022
2938 Clouds 6 1017 85 10000 2.54 14 05:45 01.04.2022
2939 Clouds 7 1016 83 10000 2.71 25 04:43 01.04.2022
2940 Clouds 8 1015 77 10000 2.95 42 03:20 01.04.2022
2941 Clouds 9 1014 74 10000 2.56 59 01:52 01.04.2022
2942 Clouds 12 1009 58 10000 4.58 67 22:37 31.03.2022
2943 Clouds 14 1007 44 10000 4.56 90 21:44 31.03.2022
2944 Clouds 15 1006 37 10000 3.52 81 20:51 31.03.2022
2945 Clouds 15 1006 37 10000 3.52 81 20:51 31.03.2022
2946 Clouds 15 1008 36 10000 2.41 51 20:28 31.03.2022
2947 Clouds 15 1008 36 10000 2.41 51 20:28 31.03.2022
2948 Clouds 16 1034 42 10000 3.09 240 19:44 31.03.2022
2949 Clouds 15 1034 39 10000 3.09 240 18:35 31.03.2022
2950 Clouds 13 1034 41 10000 4.12 240 17:25 31.03.2022
2951 Clouds 7 1035 71 10000 3.09 240 15:58 31.03.2022
2952 Clouds 7 1035 71 10000 3.09 240 15:29 31.03.2022
2953 Clouds 5 1035 81 10000 3.09 240 14:49 31.03.2022
2954 Clouds 5 1035 81 10000 3.09 240 14:19 31.03.2022
2955 Clouds 4 1017 94 10000 1.64 18 11:31 31.03.2022
2956 Clouds 5 1015 93 10000 1.38 343 10:27 31.03.2022
2957 Clouds 5 1015 93 10000 1.38 343 09:43 31.03.2022
2958 Clouds 6 1015 91 10000 1.94 338 07:49 31.03.2022
2959 Clouds 8 1015 78 10000 2.67 13 03:48 31.03.2022
2960 Clear 13 1009 38 10000 4.78 9 23:25 30.03.2022
2961 Clear 13 1009 35 10000 5.48 8 22:20 30.03.2022
2962 Clear 13 1009 35 10000 5.48 8 21:32 30.03.2022
2963 Clear 14 1009 33 10000 6.29 9 20:44 30.03.2022
2964 Clouds 14 1035 33 10000 5.14 60 19:54 30.03.2022
2965 Clouds 13 1036 38 10000 5.14 60 18:50 30.03.2022
2966 Clouds 13 1036 33 10000 5.14 60 17:52 30.03.2022
2967 Clouds 13 1036 33 10000 5.14 60 17:29 30.03.2022
2968 Clouds 11 1036 40 10000 5.14 40 16:41 30.03.2022
2969 Clear 11 1036 40 10000 5.14 40 16:18 30.03.2022
2970 Clear 3 1036 70 10000 0 0 14:47 30.03.2022
2971 Clouds 0 1036 75 10000 0 0 13:26 30.03.2022
2972 Clouds 6 1015 44 10000 0.59 183 12:32 30.03.2022
2973 Clear 6 1014 46 10000 0.28 190 10:48 30.03.2022
2974 Clear 6 1013 47 10000 0.1 176 09:58 30.03.2022
2975 Clear 7 1014 45 10000 1.16 318 08:28 30.03.2022
2976 Clear 8 1014 45 10000 1.25 327 07:29 30.03.2022
2977 Clear 8 1014 42 10000 1.47 350 05:40 30.03.2022
2978 Clear 10 1013 39 10000 1.79 74 03:20 30.03.2022
2979 Clear 16 1008 23 10000 5.14 57 22:56 29.03.2022
2980 Clear 17 1008 18 10000 4.6 55 21:58 29.03.2022
2981 Clear 17 1008 18 10000 4.6 55 21:37 29.03.2022
2982 Clear 17 1008 15 10000 3.3 48 20:30 29.03.2022
2983 Clouds 17 1037 29 10000 3.09 60 19:34 29.03.2022
2984 Clouds 14 1038 33 10000 3.09 60 18:54 29.03.2022
2985 Clouds 12 1039 44 10000 0 0 17:57 29.03.2022
2986 Clouds 12 1039 44 10000 0 0 17:19 29.03.2022
2987 Clouds 11 1039 47 10000 4.12 240 16:53 29.03.2022
2988 Clouds 7 1040 57 10000 3.09 240 15:44 29.03.2022
2989 Clouds 3 1039 65 10000 1.54 240 14:43 29.03.2022
2990 Clouds 3 1039 65 10000 1.54 240 14:43 29.03.2022
2991 Clouds 0 1039 69 10000 0 0 13:36 29.03.2022
2992 Clouds -1 1039 80 10000 0 0 12:39 29.03.2022
2993 Clouds 5 1017 50 10000 0.93 251 11:24 29.03.2022
2994 Clouds 6 1017 52 10000 1.02 270 10:20 29.03.2022
2995 Clouds 6 1017 52 10000 0.95 297 08:52 29.03.2022
2996 Clouds 7 1017 50 10000 1.62 326 06:53 29.03.2022
2997 Clear 10 1017 44 10000 1.18 62 02:55 29.03.2022
2998 Clear 13 1014 27 10000 3.23 45 23:40 28.03.2022
2999 Clear 14 1013 22 10000 3.99 42 22:58 28.03.2022
3000 Clear 14 1013 22 10000 3.99 42 22:35 28.03.2022
3001 Clear 15 1012 20 10000 4.15 43 21:47 28.03.2022
3002 Clear 15 1012 19 10000 3.5 42 20:37 28.03.2022
3003 Clear 14 1042 33 10000 4.12 60 19:57 28.03.2022
3004 Clear 14 1042 33 10000 4.12 60 19:38 28.03.2022
3005 Clear 13 1042 38 10000 3.09 60 18:51 28.03.2022
3006 Clear 11 1043 50 10000 4.12 60 17:41 28.03.2022
3007 Clear 8 1043 61 10000 0 0 16:56 28.03.2022
3008 Clear 5 1043 65 10000 0 0 15:35 28.03.2022
3009 Clouds 3 1043 75 10000 0 0 14:24 28.03.2022
3010 Clear -1 1042 93 10000 0 0 13:19 28.03.2022
3011 Clear 4 1022 88 10000 0.84 285 11:52 28.03.2022
3012 Clear 5 1020 84 10000 1.14 330 09:58 28.03.2022
3013 Clear 5 1020 80 10000 1.15 325 09:21 28.03.2022
3014 Clear 5 1020 80 10000 1.15 325 08:40 28.03.2022
3015 Clouds 6 1020 77 10000 0.99 11 08:20 28.03.2022
3016 Clouds 6 1020 75 10000 1.15 39 06:55 28.03.2022
3017 Clouds 9 1017 58 10000 2.24 68 02:20 28.03.2022
3018 Clouds 12 1014 40 10000 4.96 76 22:36 27.03.2022
3019 Clouds 13 1013 35 10000 5.26 81 21:47 27.03.2022
3020 Clouds 13 1013 32 10000 6.18 86 21:26 27.03.2022
3021 Clouds 13 1013 32 10000 6.18 86 20:41 27.03.2022
3022 Clear 14 1014 32 10000 6.73 92 19:37 27.03.2022
3023 Clear 14 1014 31 10000 5.81 90 18:45 27.03.2022
3024 Clear 13 1015 30 10000 4.09 79 18:23 27.03.2022
3025 Clear 13 1015 30 10000 4.09 79 18:23 27.03.2022
3026 Clear 13 1015 30 10000 4.09 79 17:36 27.03.2022
3027 Clear 11 1017 31 10000 1.59 75 15:51 27.03.2022
3028 Clouds 8 1018 46 10000 0.64 181 13:59 27.03.2022
3029 Clouds 6 1018 66 10000 0.95 194 13:25 27.03.2022
3030 Clouds 5 1017 70 10000 0.92 215 11:41 27.03.2022
3031 Clouds 6 1016 71 10000 1.24 231 09:49 27.03.2022
3032 Clouds 6 1016 73 10000 1.11 4 07:39 27.03.2022
3033 Clouds 9 1014 60 10000 1.99 82 04:25 27.03.2022
3034 Clouds 12 1009 38 10000 2.28 185 00:26 27.03.2022
3035 Clouds 14 1007 29 10000 2.91 216 22:52 26.03.2022
3036 Clouds 15 1006 26 10000 3.21 235 22:22 26.03.2022
3037 Clouds 15 1006 26 10000 3.21 235 21:30 26.03.2022
3038 Clouds 16 1005 26 10000 2.1 243 19:38 26.03.2022
3039 Clouds 15 1007 26 10000 2.49 247 18:44 26.03.2022
3040 Clouds 14 1009 29 10000 1.97 303 17:41 26.03.2022
3041 Clouds 13 1011 33 10000 2.2 317 16:46 26.03.2022
3042 Clouds 12 1013 39 10000 2.19 321 15:43 26.03.2022
3043 Clouds 8 1015 67 10000 1.81 330 13:57 26.03.2022
3044 Clouds 8 1015 60 10000 1.79 324 13:36 26.03.2022
3045 Clouds 7 1016 78 10000 1.54 331 12:31 26.03.2022
3046 Clouds 5 1015 89 10000 1.2 333 10:49 26.03.2022
3047 Clouds 6 1015 88 10000 1.1 291 09:21 26.03.2022
3048 Clouds 6 1015 88 10000 1.41 296 07:34 26.03.2022
3049 Clouds 6 1016 89 10000 2.85 349 05:49 26.03.2022
3050 Clouds 7 1016 84 10000 2.9 45 02:34 26.03.2022
3051 Clouds 7 1012 89 2342 0.93 76 22:47 25.03.2022
3052 Clouds 9 1010 77 10000 0.96 2 20:58 25.03.2022
3053 Clouds 11 1009 66 8810 2.39 11 20:26 25.03.2022
3054 Clouds 12 1009 58 10000 4.7 19 19:20 25.03.2022
3055 Clouds 12 1035 62 10000 3.09 40 18:36 25.03.2022
3056 Clouds 11 1036 66 10000 5.14 60 17:34 25.03.2022
3057 Clouds 10 1037 71 10000 3.09 60 16:29 25.03.2022
3058 Clouds 9 1037 81 10000 3.09 60 15:37 25.03.2022
3059 Clouds 7 1036 93 7000 1.54 60 13:32 25.03.2022
3060 Clouds 6 1017 94 4253 1.7 351 11:38 25.03.2022
3061 Clouds 6 1015 92 8977 1.93 13 09:43 25.03.2022
3062 Clouds 6 1015 90 10000 2.03 35 08:56 25.03.2022
3063 Clouds 7 1014 88 10000 1.75 50 07:46 25.03.2022
3064 Clouds 7 1015 85 10000 1.9 48 07:19 25.03.2022
3065 Clouds 9 1015 72 10000 2.23 46 03:45 25.03.2022
3066 Clouds 10 1011 60 10000 2.44 21 23:49 24.03.2022
3067 Clouds 13 1007 47 10000 5.13 12 22:24 24.03.2022
3068 Clouds 16 1006 30 10000 6.57 9 20:58 24.03.2022
3069 Clear 16 1006 21 10000 3.04 19 19:49 24.03.2022
3070 Clouds 15 1035 33 10000 1.54 60 18:45 24.03.2022
3071 Clouds 14 1036 36 10000 4.12 60 17:36 24.03.2022
3072 Clouds 12 1036 44 10000 0 0 16:33 24.03.2022
3073 Clouds 7 1036 53 10000 0 0 14:52 24.03.2022
3074 Clouds 7 1036 53 10000 0 0 14:22 24.03.2022
3075 Clouds 4 1035 81 10000 0 0 13:36 24.03.2022
3076 Clouds 2 1035 87 10000 0 0 12:29 24.03.2022
3077 Clouds 1 1035 93 10000 0 0 11:27 24.03.2022
3078 Clouds 7 1011 47 10000 1.39 279 09:28 24.03.2022
3079 Clouds 7 1011 47 10000 1.39 279 08:38 24.03.2022
3080 Clouds 9 1011 48 10000 1.73 296 05:36 24.03.2022
3081 Clouds 12 1008 43 10000 2.27 240 00:38 24.03.2022
3082 Clouds 17 1003 30 10000 5.28 250 22:21 23.03.2022
3083 Clouds 17 1002 31 10000 6.23 254 21:24 23.03.2022
3084 Clouds 17 1002 31 10000 6.23 254 20:44 23.03.2022
3085 Clouds 16 1004 36 10000 4.14 293 19:33 23.03.2022
3086 Clouds 16 1034 51 10000 4.12 20 18:18 23.03.2022
3087 Clouds 15 1034 55 10000 4.12 240 17:25 23.03.2022
3088 Clouds 11 1036 71 10000 4.12 240 15:56 23.03.2022
3089 Clouds 9 1035 76 10000 2.57 240 14:48 23.03.2022
3090 Clouds 6 1035 87 10000 1.54 240 13:34 23.03.2022
3091 Clouds 7 1014 79 10000 1.69 304 11:38 23.03.2022
3092 Clouds 7 1013 80 10000 0.86 320 08:49 23.03.2022
3093 Clouds 7 1014 85 10000 1.68 359 06:25 23.03.2022
3094 Clouds 7 1015 86 10000 1.44 310 03:44 23.03.2022
3095 Clouds 7 1015 80 10000 1.42 41 00:27 23.03.2022
3096 Rain 5 1015 91 2514 1.32 62 21:53 22.03.2022
3097 Clouds 9 1010 81 2865 5.08 329 21:23 22.03.2022
3098 Rain 14 1006 49 10000 3.36 33 20:29 22.03.2022
3099 Rain 15 1007 43 10000 3.49 19 19:27 22.03.2022
3100 Clouds 15 1034 51 10000 3.09 60 18:49 22.03.2022
3101 Clouds 13 1035 58 10000 4.12 60 17:44 22.03.2022
3102 Clouds 12 1036 62 10000 0 0 16:58 22.03.2022
3103 Clouds 12 1036 62 10000 2.57 240 15:48 22.03.2022
3104 Clouds 12 1036 62 10000 2.57 240 15:21 22.03.2022
3105 Clouds 8 1036 71 10000 1.54 240 14:45 22.03.2022
3106 Clouds 8 1036 71 10000 1.54 240 14:24 22.03.2022
3107 Clouds 3 1035 93 10000 0 0 12:40 22.03.2022
3108 Clouds 3 1035 100 10000 0 0 11:26 22.03.2022
3109 Clouds 6 1014 87 10000 1.23 358 09:52 22.03.2022
3110 Clouds 7 1014 85 10000 1.48 355 07:48 22.03.2022
3111 Clouds 8 1015 75 10000 1.58 7 04:36 22.03.2022
3112 Clouds 7 1016 79 10000 0.6 260 02:54 22.03.2022
3113 Clouds 4 1016 93 1462 2.2 170 23:21 21.03.2022
3114 Clouds 9 1013 77 1382 2.65 167 21:47 21.03.2022
3115 Clouds 12 1009 62 6571 2.85 82 20:45 21.03.2022
3116 Clouds 14 1008 50 10000 3.46 41 20:26 21.03.2022
3117 Clouds 14 1008 50 10000 3.46 41 19:53 21.03.2022
3118 Clouds 15 1009 43 10000 2.05 30 19:23 21.03.2022
3119 Clouds 15 1036 59 10000 3.09 60 17:43 21.03.2022
3120 Clouds 15 1036 59 10000 3.09 60 17:18 21.03.2022
3121 Clouds 13 1038 67 10000 0 0 16:37 21.03.2022
3122 Clouds 11 1038 71 10000 0 0 15:46 21.03.2022
3123 Clouds 10 1038 76 10000 1.54 240 14:51 21.03.2022
3124 Clouds 8 1037 87 10000 0 0 13:43 21.03.2022
3125 Clouds 6 1037 93 8000 0 0 12:33 21.03.2022
3126 Clouds 6 1037 93 8000 0 0 11:44 21.03.2022
3127 Clouds 6 1017 86 10000 2.45 342 10:34 21.03.2022
3128 Clouds 6 1016 91 10000 2.35 4 08:29 21.03.2022
3129 Clouds 7 1017 90 10000 2.16 358 06:36 21.03.2022
3130 Clouds 8 1017 81 10000 2.79 46 02:48 21.03.2022
3131 Clouds 9 1014 75 10000 1.52 74 23:41 20.03.2022
3132 Clouds 11 1013 65 7259 2.37 64 22:43 20.03.2022
3133 Clouds 12 1010 54 10000 3.93 50 21:51 20.03.2022
3134 Rain 13 1011 50 10000 3.06 62 21:23 20.03.2022
3135 Clouds 13 1011 50 10000 3.06 62 20:43 20.03.2022
3136 Clouds 13 1011 50 10000 2.97 58 19:59 20.03.2022
3137 Clouds 12 1013 52 10000 2.37 36 19:28 20.03.2022
3138 Clouds 11 1015 54 10000 2.39 15 18:19 20.03.2022
3139 Clouds 11 1015 54 10000 2.39 15 17:33 20.03.2022
3140 Clouds 11 1015 54 10000 2.39 15 17:33 20.03.2022
3141 Clouds 11 1017 57 10000 2.37 5 16:57 20.03.2022
3142 Clouds 10 1018 60 10000 2.38 3 15:34 20.03.2022
3143 Clouds 9 1019 64 10000 2.2 3 14:34 20.03.2022
3144 Clouds 7 1020 73 10000 1.34 7 12:30 20.03.2022
3145 Clouds 5 1020 84 10000 1.06 2 11:23 20.03.2022
3146 Clouds 4 1020 91 10000 0.67 16 09:26 20.03.2022
3147 Clouds 6 1020 88 10000 1.51 356 07:28 20.03.2022
3148 Clouds 6 1020 86 10000 2.07 355 05:40 20.03.2022
3149 Clouds 7 1020 83 10000 2.53 14 01:50 20.03.2022
3150 Rain 7 1019 82 10000 2.41 15 00:45 20.03.2022
3151 Rain 8 1017 73 10000 2.72 30 23:19 19.03.2022
3152 Clouds 9 1016 70 10000 3.49 37 21:28 19.03.2022
3153 Clouds 9 1016 70 10000 3.49 37 20:58 19.03.2022
3154 Clouds 10 1016 68 10000 3.63 59 18:58 19.03.2022
3155 Clouds 9 1018 71 10000 3.84 62 18:24 19.03.2022
3156 Clouds 9 1018 71 10000 3.84 62 17:35 19.03.2022
3157 Clouds 10 1019 65 5618 3.53 32 15:46 19.03.2022
3158 Clouds 8 1021 71 10000 2.41 33 14:57 19.03.2022
3159 Clouds 7 1021 79 10000 1.56 39 13:19 19.03.2022
3160 Clouds 6 1021 81 10000 1.42 19 12:40 19.03.2022
3161 Clouds 6 1021 85 10000 1.11 26 11:54 19.03.2022
3162 Clouds 6 1021 85 10000 1.11 26 11:54 19.03.2022
3163 Clouds 5 1021 89 10000 1.2 42 10:53 19.03.2022
3164 Clouds 5 1020 90 10000 1.42 24 07:33 19.03.2022
3165 Clouds 7 1020 74 10000 1.93 71 03:49 19.03.2022
3166 Clouds 7 1020 79 10000 2.96 81 02:29 19.03.2022
3167 Clouds 8 1016 74 8395 2.41 56 23:46 18.03.2022
3168 Clouds 10 1014 67 8607 0.8 286 22:28 18.03.2022
3169 Clouds 10 1014 67 8607 0.8 286 21:46 18.03.2022
3170 Clouds 12 1012 50 10000 2.49 30 19:52 18.03.2022
3171 Clouds 12 1012 50 10000 2.49 30 19:52 18.03.2022
3172 Clouds 12 1013 50 10000 2.45 88 19:21 18.03.2022
3173 Clouds 14 1038 47 10000 4.12 60 18:18 18.03.2022
3174 Clouds 12 1040 54 10000 4.12 60 16:51 18.03.2022
3175 Clouds 11 1040 54 10000 4.12 60 15:43 18.03.2022
3176 Clouds 8 1040 57 10000 0 0 14:24 18.03.2022
3177 Clouds 1 1038 80 10000 0 0 12:39 18.03.2022
3178 Clear 6 1016 73 10000 0.58 222 10:58 18.03.2022
3179 Clear 6 1015 73 10000 0.43 254 09:30 18.03.2022
3180 Clear 6 1015 73 10000 0.22 320 08:42 18.03.2022
3181 Clear 7 1015 73 10000 0.65 346 06:40 18.03.2022
3182 Clear 8 1015 69 10000 0.93 48 03:30 18.03.2022
3183 Clouds 10 1012 58 10000 1.06 356 00:53 18.03.2022
3184 Clouds 11 1011 53 10000 1.18 336 23:44 17.03.2022
3185 Clouds 12 1009 47 10000 2.01 16 22:25 17.03.2022
3186 Clouds 12 1009 47 10000 2.01 16 21:51 17.03.2022
3187 Clouds 12 1009 47 10000 3.86 357 21:27 17.03.2022
3188 Clouds 12 1009 47 10000 3.86 357 20:52 17.03.2022
3189 Clouds 13 1009 43 10000 2.7 324 19:55 17.03.2022
3190 Clouds 13 1009 43 10000 2.7 324 19:33 17.03.2022
3191 Clouds 12 1034 58 10000 3.09 200 18:51 17.03.2022
3192 Clouds 11 1035 58 10000 1.54 180 17:26 17.03.2022
3193 Clouds 9 1036 71 10000 1.54 200 15:57 17.03.2022
3194 Clouds 9 1036 71 10000 1.54 200 15:36 17.03.2022
3195 Clouds 7 1036 76 10000 4.12 240 14:55 17.03.2022
3196 Clouds 5 1036 87 10000 3.09 240 13:22 17.03.2022
3197 Clouds 3 1035 100 10000 0 0 12:38 17.03.2022
3198 Clouds 3 1035 100 10000 0 0 11:30 17.03.2022
3199 Clouds 5 1016 81 10000 1.08 294 10:38 17.03.2022
3200 Clouds 5 1015 81 10000 0.98 310 08:42 17.03.2022
3201 Clouds 6 1015 80 10000 1.23 301 07:57 17.03.2022
3202 Clouds 6 1016 76 10000 1.77 8 05:49 17.03.2022
3203 Clouds 6 1018 81 10000 0.79 321 03:46 17.03.2022
3204 Clouds 6 1017 82 1906 1.6 222 00:21 17.03.2022
3205 Clouds 7 1015 73 4183 0.81 271 22:52 16.03.2022
3206 Clouds 7 1015 73 4183 0.81 271 22:33 16.03.2022
3207 Clouds 9 1013 61 4678 2.76 8 21:55 16.03.2022
3208 Clouds 10 1012 51 10000 4.52 29 20:32 16.03.2022
3209 Clouds 11 1012 41 10000 2.97 21 19:22 16.03.2022
3210 Clouds 12 1036 47 10000 5.14 60 18:42 16.03.2022
3211 Clouds 10 1037 50 10000 4.12 60 17:45 16.03.2022
3212 Clouds 10 1037 50 10000 4.12 60 17:27 16.03.2022
3213 Clouds 8 1039 61 10000 1.54 60 15:56 16.03.2022
3214 Clouds 5 1040 70 10000 0 0 14:38 16.03.2022
3215 Clouds 2 1039 81 10000 0 0 13:35 16.03.2022
3216 Snow 1 1038 93 10000 0 0 12:18 16.03.2022
3217 Clouds 2 1037 93 10000 0 0 11:23 16.03.2022
3218 Clouds 3 1020 82 10000 0.25 287 10:30 16.03.2022
3219 Clouds 3 1020 82 10000 0.43 266 09:56 16.03.2022
3220 Rain 4 1020 77 10000 1.03 332 07:23 16.03.2022
3221 Clouds 4 1022 76 10000 1.69 10 02:44 16.03.2022
3222 Clouds 7 1017 56 10000 4.77 44 22:54 15.03.2022
3223 Clouds 7 1017 56 10000 4.77 44 22:35 15.03.2022
3224 Clouds 9 1015 46 10000 5.4 67 20:51 15.03.2022
3225 Clouds 9 1016 46 10000 3.8 85 19:34 15.03.2022
3226 Clouds 8 1041 40 10000 6.17 60 17:42 15.03.2022
3227 Clouds 7 1041 49 10000 6.17 60 16:35 15.03.2022
3228 Clouds 6 1042 65 10000 4.12 60 15:28 15.03.2022
3229 Clouds 4 1042 81 10000 0 0 14:52 15.03.2022
3230 Clouds 3 1041 87 10000 0 0 13:55 15.03.2022
3231 Clouds 3 1041 87 10000 0 0 13:55 15.03.2022
3232 Clouds 3 1041 87 10000 0 0 13:21 15.03.2022
3233 Mist 1 1039 100 5000 0 0 11:32 15.03.2022
3234 Clouds 4 1020 84 10000 1.48 94 10:22 15.03.2022
3235 Clouds 4 1020 85 10000 1.21 47 08:53 15.03.2022
3236 Rain 4 1020 83 10000 1.41 31 07:53 15.03.2022
3237 Rain 4 1020 83 10000 1.41 31 07:35 15.03.2022
3238 Clouds 4 1021 85 10000 1.84 24 05:55 15.03.2022
3239 Clouds 5 1019 76 10000 1.34 60 00:25 15.03.2022
3240 Clouds 5 1019 80 10000 2.43 145 23:27 14.03.2022
3241 Clouds 5 1019 80 10000 2.43 145 22:44 14.03.2022
3242 Clouds 8 1015 58 10000 1.93 159 21:51 14.03.2022
3243 Clouds 8 1014 54 10000 2.4 92 20:55 14.03.2022
3244 Clouds 8 1016 60 10000 2.17 79 20:24 14.03.2022
3245 Rain 4 1020 87 2032 2.08 91 19:22 14.03.2022
3246 Rain 9 1036 76 7000 6.17 60 17:57 14.03.2022
3247 Rain 9 1036 76 7000 6.17 60 17:39 14.03.2022
3248 Clouds 10 1037 71 10000 1.54 60 16:28 14.03.2022
3249 Rain 6 1038 87 10000 0 0 14:47 14.03.2022
3250 Clouds 5 1019 83 10000 2.11 64 13:29 14.03.2022
3251 Clouds 4 1055 100 8000 0 0 11:26 14.03.2022
3252 Clouds 5 1016 83 10000 1.57 79 09:57 14.03.2022
3253 Clouds 5 1016 83 10000 1.57 79 09:34 14.03.2022
3254 Rain 5 1016 83 10000 1.25 55 08:57 14.03.2022
3255 Clouds 5 1016 84 10000 1.38 10 08:26 14.03.2022
3256 Clouds 6 1017 80 10000 2.06 18 06:19 14.03.2022
3257 Clouds 7 1017 82 10000 2.52 53 02:58 14.03.2022
3258 Clouds 7 1016 81 10000 2.56 65 01:36 14.03.2022
3259 Clouds 8 1013 78 10000 3.87 48 23:41 13.03.2022
3260 Clouds 9 1012 73 10000 3.53 65 21:46 13.03.2022
3261 Clouds 9 1012 70 8399 1.55 359 21:21 13.03.2022
3262 Clouds 9 1012 70 8399 1.55 359 20:46 13.03.2022
3263 Clouds 12 1010 52 9706 3.73 37 20:21 13.03.2022
3264 Clouds 12 1010 52 9706 3.73 37 19:41 13.03.2022
3265 Clouds 13 1010 43 10000 4.34 35 19:21 13.03.2022
3266 Clouds 13 1010 40 10000 3.56 35 18:41 13.03.2022
3267 Clouds 12 1013 43 10000 2.84 14 18:22 13.03.2022
3268 Clouds 12 1013 43 10000 2.84 14 17:36 13.03.2022
3269 Clouds 11 1015 49 10000 2.15 0 16:44 13.03.2022
3270 Clouds 9 1017 56 10000 1.72 6 16:21 13.03.2022
3271 Clouds 9 1017 56 10000 1.72 6 15:36 13.03.2022
3272 Clouds 7 1019 65 10000 1.58 11 14:36 13.03.2022
3273 Clouds 4 1020 81 10000 1.35 358 13:27 13.03.2022
3274 Clouds 4 1020 85 10000 1.45 6 12:21 13.03.2022
3275 Clouds 4 1020 85 10000 1.45 6 11:38 13.03.2022
3276 Clouds 3 1019 87 10000 1.42 18 10:49 13.03.2022
3277 Clouds 3 1019 89 10000 1 50 10:25 13.03.2022
3278 Clouds 3 1019 89 10000 1 50 09:42 13.03.2022
3279 Clouds 3 1019 91 10000 1.04 68 08:49 13.03.2022
3280 Clouds 3 1019 91 10000 1.04 68 08:49 13.03.2022
3281 Clouds 4 1018 92 4560 0.97 60 08:23 13.03.2022
3282 Clouds 4 1018 92 10000 0.45 6 06:40 13.03.2022
3283 Clouds 5 1018 91 10000 2.17 340 04:51 13.03.2022
3284 Clear 7 1015 78 10000 2.67 49 01:46 13.03.2022
3285 Clouds 11 1009 57 10000 3.08 56 22:51 12.03.2022
3286 Clouds 13 1007 42 10000 3.29 357 21:29 12.03.2022
3287 Clouds 13 1008 43 10000 2.55 349 20:19 12.03.2022
3288 Clouds 13 1008 43 10000 2.55 349 19:44 12.03.2022
3289 Clouds 11 1010 52 10000 2.21 342 18:38 12.03.2022
3290 Clouds 10 1013 60 10000 2.51 345 17:49 12.03.2022
3291 Clouds 7 1017 74 10000 2.21 339 16:28 12.03.2022
3292 Clouds 7 1017 74 10000 2.21 339 15:48 12.03.2022
3293 Clouds 6 1018 80 10000 2.01 335 15:19 12.03.2022
3294 Clouds 5 1018 84 10000 2.1 334 13:53 12.03.2022
3295 Clouds 3 1019 93 2401 1.4 345 12:27 12.03.2022
3296 Clouds 3 1019 93 2401 1.4 345 11:52 12.03.2022
3297 Clouds 3 1019 93 2401 1.4 345 11:32 12.03.2022
3298 Clouds 5 1016 90 10000 1.39 309 10:18 12.03.2022
3299 Clouds 5 1016 90 10000 1.39 309 09:41 12.03.2022
3300 Clouds 5 1016 90 7445 0.82 332 07:52 12.03.2022
3301 Clouds 6 1016 86 10000 1.59 5 06:30 12.03.2022
3302 Clouds 8 1014 81 10000 2.51 70 00:31 12.03.2022
3303 Clouds 8 1013 78 10000 2.65 68 23:41 11.03.2022
3304 Clouds 10 1010 69 10000 3.9 49 22:29 11.03.2022
3305 Rain 10 1010 68 8378 2.83 50 21:24 11.03.2022
3306 Clouds 10 1010 68 8378 2.83 50 20:46 11.03.2022
3307 Clouds 11 1010 64 7462 3.35 50 20:22 11.03.2022
3308 Clouds 11 1010 64 7462 3.35 50 19:32 11.03.2022
3309 Clouds 12 1035 58 10000 4.12 60 17:53 11.03.2022
3310 Clouds 12 1035 58 10000 4.12 60 17:24 11.03.2022
3311 Clouds 9 1036 76 10000 3.09 60 15:58 11.03.2022
3312 Clouds 9 1036 76 10000 3.09 60 15:32 11.03.2022
3313 Clouds 7 1036 87 8000 1.54 60 13:42 11.03.2022
3314 Clouds 5 1035 93 7000 1.54 60 12:37 11.03.2022
3315 Clouds 5 1035 93 8000 0 0 11:57 11.03.2022
3316 Clouds 6 1016 83 10000 1.76 29 10:44 11.03.2022
3317 Clouds 7 1015 82 10000 1.73 34 09:34 11.03.2022
3318 Clouds 7 1015 83 10000 1.78 53 08:28 11.03.2022
3319 Clouds 7 1015 83 10000 1.78 53 07:48 11.03.2022
3320 Clouds 7 1015 84 10000 1.81 57 06:42 11.03.2022
3321 Clouds 7 1016 82 10000 1.82 77 04:37 11.03.2022
3322 Clouds 9 1012 69 10000 2.83 62 01:29 11.03.2022
3323 Clouds 11 1008 58 10000 3.56 90 22:32 10.03.2022
3324 Clouds 13 1007 53 10000 5.22 83 21:53 10.03.2022
3325 Clouds 14 1007 49 10000 4.86 91 21:25 10.03.2022
3326 Clouds 14 1007 49 10000 4.86 91 20:36 10.03.2022
3327 Clouds 14 1008 44 10000 4.2 83 19:20 10.03.2022
3328 Clouds 14 1035 55 10000 6.17 60 17:51 10.03.2022
3329 Clouds 13 1035 58 10000 5.14 60 16:53 10.03.2022
3330 Clouds 11 1035 71 10000 3.09 60 15:29 10.03.2022
3331 Clouds 8 1035 87 10000 0 0 13:46 10.03.2022
3332 Clouds 4 1035 87 10000 0 0 12:43 10.03.2022
3333 Clouds 3 1034 93 10000 0 0 11:29 10.03.2022
3334 Clouds 5 1015 93 10000 1.18 356 09:43 10.03.2022
3335 Clouds 6 1015 90 10000 1.19 53 08:23 10.03.2022
3336 Clouds 7 1016 86 10000 1.41 77 05:33 10.03.2022
3337 Clouds 8 1015 78 10000 2.27 81 02:39 10.03.2022
3338 Clouds 10 1012 68 10000 2.99 67 23:37 09.03.2022
3339 Clouds 12 1009 54 10000 3.44 89 22:28 09.03.2022
3340 Clouds 12 1009 54 10000 3.44 89 21:47 09.03.2022
3341 Clouds 12 1009 52 10000 3.41 95 20:50 09.03.2022
3342 Clouds 13 1035 58 10000 6.17 60 18:58 09.03.2022
3343 Clouds 12 1035 62 10000 6.17 60 17:28 09.03.2022
3344 Clouds 11 1036 66 10000 5.14 60 16:45 09.03.2022
3345 Clouds 10 1036 82 10000 3.09 60 15:37 09.03.2022
3346 Clouds 8 1036 87 10000 0 0 14:23 09.03.2022
3347 Clouds 6 1036 81 10000 0 0 13:25 09.03.2022
3348 Clouds 13 1036 44 10000 0 0 12:20 09.03.2022
3349 Clouds 2 1035 100 10000 0 0 11:46 09.03.2022
3350 Clouds 5 1017 91 10000 0.48 350 10:54 09.03.2022
3351 Clouds 5 1016 92 10000 1.18 354 09:25 09.03.2022
3352 Clouds 5 1016 92 10000 1.18 354 08:43 09.03.2022
3353 Clouds 6 1017 87 10000 1.84 14 05:56 09.03.2022
3354 Clouds 9 1014 66 10000 3.04 36 00:58 09.03.2022
3355 Clouds 9 1013 61 10000 3.74 35 23:46 08.03.2022
3356 Clouds 10 1012 55 10000 4.03 47 22:45 08.03.2022
3357 Clouds 11 1011 52 10000 3.76 62 21:47 08.03.2022
3358 Clouds 11 1011 52 10000 3.32 78 21:19 08.03.2022
3359 Clouds 11 1011 53 10000 3.29 77 20:19 08.03.2022
3360 Clouds 9 1038 71 10000 4.12 60 18:55 08.03.2022
3361 Clouds 8 1040 71 10000 5.14 60 17:58 08.03.2022
3362 Clouds 5 1041 87 7000 6.17 60 16:40 08.03.2022
3363 Clouds 4 1040 93 7000 6.17 60 14:36 08.03.2022
3364 Clouds 5 1037 87 10000 6.17 60 13:23 08.03.2022
3365 Clouds 6 1036 87 10000 4.12 40 12:20 08.03.2022
3366 Clouds 5 1036 93 8000 0 0 11:41 08.03.2022
3367 Clouds 7 1015 83 10000 1.53 52 10:28 08.03.2022
3368 Clouds 7 1015 82 10000 1.73 66 08:55 08.03.2022
3369 Clouds 8 1015 80 10000 1.69 69 05:49 08.03.2022
3370 Rain 11 1012 64 10000 2.86 80 01:53 08.03.2022
3371 Clouds 13 1008 52 10000 4.11 94 22:41 07.03.2022
3372 Rain 14 1006 48 10000 6.05 87 21:36 07.03.2022
3373 Clouds 15 1006 42 10000 6.15 92 20:55 07.03.2022
3374 Clouds 16 1007 38 10000 6.84 102 20:29 07.03.2022
3375 Clouds 16 1007 38 10000 6.84 102 19:48 07.03.2022
3376 Clouds 16 1034 48 10000 6.17 60 18:50 07.03.2022
3377 Clouds 16 1034 48 10000 6.17 60 18:28 07.03.2022
3378 Clouds 14 1035 63 10000 5.14 60 16:56 07.03.2022
3379 Clouds 14 1035 63 10000 5.14 60 16:37 07.03.2022
3380 Clouds 10 1034 71 10000 1.54 240 14:49 07.03.2022
3381 Clouds 4 1034 93 10000 0 0 12:34 07.03.2022
3382 Clouds 4 1034 93 10000 0 0 11:26 07.03.2022
3383 Clouds 8 1012 81 10000 0.33 163 10:30 07.03.2022
3384 Clouds 9 1011 76 10000 0.66 16 08:19 07.03.2022
3385 Clouds 11 1010 60 10000 2.15 50 01:23 07.03.2022
3386 Clouds 12 1009 55 10000 1.73 27 00:20 07.03.2022
3387 Clouds 13 1007 49 10000 3.51 61 23:22 06.03.2022
3388 Clouds 14 1006 45 10000 3.97 59 22:27 06.03.2022
3389 Clouds 15 1006 41 10000 6.16 58 21:24 06.03.2022
3390 Clouds 17 1006 34 10000 4.77 39 20:29 06.03.2022
3391 Clouds 17 1006 34 10000 4.77 39 19:39 06.03.2022
3392 Clouds 17 1007 33 10000 3.3 31 18:50 06.03.2022
3393 Clouds 16 1009 34 10000 2.22 29 17:46 06.03.2022
3394 Clouds 14 1011 38 10000 1.93 23 17:19 06.03.2022
3395 Clouds 14 1011 38 10000 1.93 23 16:39 06.03.2022
3396 Clouds 11 1015 55 10000 1.19 8 15:26 06.03.2022
3397 Clouds 11 1015 55 10000 1.19 8 14:42 06.03.2022
3398 Clouds 9 1016 68 10000 1.12 17 13:49 06.03.2022
3399 Clouds 8 1017 80 10000 1.12 27 12:40 06.03.2022
3400 Clouds 6 1017 88 10000 1.26 39 11:46 06.03.2022
3401 Clouds 6 1016 91 10000 1.26 59 10:40 06.03.2022
3402 Clouds 7 1015 87 10000 1.51 65 09:21 06.03.2022
3403 Clouds 7 1015 84 10000 1.61 64 08:28 06.03.2022
3404 Clouds 8 1015 81 10000 1.46 61 07:26 06.03.2022
3405 Clouds 10 1014 68 10000 1.91 48 02:45 06.03.2022
3406 Clouds 11 1012 60 10000 2.7 60 00:41 06.03.2022
3407 Clouds 12 1010 52 10000 3.11 77 00:22 06.03.2022
3408 Clouds 13 1009 46 10000 4.15 85 23:19 05.03.2022
3409 Clouds 13 1009 46 10000 4.15 85 22:35 05.03.2022
3410 Clouds 15 1008 41 10000 5.69 86 21:31 05.03.2022
3411 Clouds 16 1008 37 10000 4.79 90 20:38 05.03.2022
3412 Clouds 16 1009 36 10000 3.26 70 19:23 05.03.2022
3413 Clouds 16 1009 36 10000 3.26 70 18:48 05.03.2022
3414 Clouds 15 1011 36 10000 2.5 77 17:35 05.03.2022
3415 Clouds 12 1038 67 10000 5.14 40 16:19 05.03.2022
3416 Clouds 11 1038 71 10000 4.12 60 15:30 05.03.2022
3417 Clouds 10 1038 76 10000 3.09 60 14:36 05.03.2022
3418 Clouds 9 1017 64 10000 1.06 43 13:46 05.03.2022
3419 Clouds 8 1018 75 10000 0.77 95 12:46 05.03.2022
3420 Clouds 7 1017 88 10000 1.42 86 11:21 05.03.2022
3421 Clouds 7 1017 88 10000 1.42 86 10:53 05.03.2022
3422 Clouds 7 1016 88 10000 1.6 100 09:37 05.03.2022
3423 Clouds 7 1015 86 10000 1.6 97 08:46 05.03.2022
3424 Clear 8 1015 82 10000 1.63 83 07:23 05.03.2022
3425 Clear 8 1015 82 10000 1.63 83 07:23 05.03.2022
3426 Clear 8 1016 81 10000 1.49 80 05:39 05.03.2022
3427 Clouds 11 1013 69 10000 2.66 77 01:24 05.03.2022
3428 Clouds 12 1012 59 10000 3.2 75 23:30 04.03.2022
3429 Clouds 13 1010 46 10000 4.57 81 22:40 04.03.2022
3430 Clouds 15 1009 38 10000 5.13 89 21:45 04.03.2022
3431 Clouds 16 1008 36 10000 5.97 95 20:48 04.03.2022
3432 Clouds 16 1008 34 10000 5.16 92 20:18 04.03.2022
3433 Clouds 16 1008 34 10000 5.16 92 19:35 04.03.2022
3434 Clouds 13 1037 58 10000 5.14 60 18:36 04.03.2022
3435 Clouds 12 1038 62 10000 3.09 60 17:30 04.03.2022
3436 Clouds 12 1038 67 10000 1.54 60 16:36 04.03.2022
3437 Clouds 12 1039 71 10000 1.54 60 15:27 04.03.2022
3438 Clouds 12 1039 71 10000 1.54 60 15:27 04.03.2022
3439 Clouds 7 1037 87 10000 0 0 13:53 04.03.2022
3440 Clouds 4 1037 93 10000 0 0 12:54 04.03.2022
3441 Clouds 5 1036 93 10000 0 0 11:38 04.03.2022
3442 Clouds 6 1017 93 10000 0.23 306 10:42 04.03.2022
3443 Clouds 7 1015 90 10000 0.47 355 09:28 04.03.2022
3444 Clouds 7 1015 90 10000 0.47 355 08:31 04.03.2022
3445 Clouds 8 1016 86 10000 1.01 33 06:59 04.03.2022
3446 Clouds 9 1015 74 10000 2.42 56 03:28 04.03.2022
3447 Clouds 12 1011 59 10000 3.01 61 00:19 04.03.2022
3448 Clouds 14 1009 49 10000 3.79 80 22:21 03.03.2022
3449 Clouds 14 1009 49 10000 3.79 80 21:39 03.03.2022
3450 Clouds 14 1009 46 10000 4.36 78 20:59 03.03.2022
3451 Clouds 15 1010 43 10000 3.98 71 19:48 03.03.2022
3452 Clouds 12 1039 67 10000 4.12 20 18:49 03.03.2022
3453 Clouds 12 1039 67 10000 4.12 20 18:22 03.03.2022
3454 Clouds 10 1040 76 10000 5.14 60 17:27 03.03.2022
3455 Clouds 9 1042 81 10000 4.12 60 15:48 03.03.2022
3456 Clouds 6 1041 93 8000 1.54 60 14:59 03.03.2022
3457 Clouds 6 1041 93 8000 1.54 60 14:33 03.03.2022
3458 Clouds 6 1040 87 8000 0 0 13:18 03.03.2022
3459 Clouds 6 1040 87 8000 0 0 13:18 03.03.2022
3460 Clouds 6 1040 87 8000 0 0 13:18 03.03.2022
3461 Rain 5 1038 93 5000 3.09 60 11:45 03.03.2022
3462 Rain 6 1018 90 10000 1.47 82 10:40 03.03.2022
3463 Clouds 7 1016 87 10000 1.34 80 08:52 03.03.2022
3464 Clouds 8 1017 82 10000 1.28 65 07:25 03.03.2022
3465 Clouds 8 1016 82 10000 1.38 62 06:35 03.03.2022
3466 Rain 10 1016 70 10000 1.83 32 01:52 03.03.2022
3467 Rain 12 1012 59 10000 4.77 37 23:29 02.03.2022
3468 Rain 12 1012 59 10000 4.77 37 22:52 02.03.2022
3469 Clouds 13 1010 53 10000 4.77 49 21:30 02.03.2022
3470 Clouds 14 1009 52 10000 4.07 72 20:46 02.03.2022
3471 Clouds 15 1009 49 10000 6.18 66 20:24 02.03.2022
3472 Clouds 15 1009 49 10000 6.18 66 19:35 02.03.2022
3473 Clouds 12 1036 71 10000 6.17 60 18:46 02.03.2022
3474 Clouds 14 1038 63 10000 6.17 60 17:59 02.03.2022
3475 Clouds 14 1038 63 10000 6.17 60 17:32 02.03.2022
3476 Clouds 15 1039 59 10000 4.12 60 16:51 02.03.2022
3477 Clouds 8 1039 81 10000 0 0 14:48 02.03.2022
3478 Clouds 6 1038 87 10000 0 0 13:25 02.03.2022
3479 Clouds 5 1038 93 10000 0 0 12:44 02.03.2022
3480 Clouds 5 1037 93 10000 0 0 11:51 02.03.2022
3481 Clouds 5 1037 93 10000 0 0 11:24 02.03.2022
3482 Clouds 5 1037 93 10000 0 0 11:24 02.03.2022
3483 Clouds 7 1016 82 10000 1.47 7 09:47 02.03.2022
3484 Clouds 8 1015 79 10000 1.7 39 09:23 02.03.2022
3485 Clouds 8 1015 79 10000 1.94 50 07:51 02.03.2022
3486 Clouds 8 1015 75 10000 1.41 42 06:57 02.03.2022
3487 Clouds 10 1015 69 10000 1.61 25 02:54 02.03.2022
3488 Clouds 11 1013 61 10000 2.35 24 00:33 02.03.2022
3489 Clouds 13 1011 50 10000 3.96 21 22:50 01.03.2022
3490 Clouds 13 1011 50 10000 3.96 21 22:31 01.03.2022
3491 Clouds 14 1010 42 10000 5.39 8 21:25 01.03.2022
3492 Clouds 14 1010 42 10000 5.39 8 20:33 01.03.2022
3493 Clouds 15 1010 38 10000 4.69 9 19:50 01.03.2022
3494 Clouds 11 1041 71 10000 3.09 60 18:52 01.03.2022
3495 Clouds 11 1041 71 10000 3.09 60 18:21 01.03.2022
3496 Clouds 10 1042 76 10000 2.57 60 17:37 01.03.2022
3497 Clouds 10 1042 76 10000 3.09 60 16:35 01.03.2022
3498 Clouds 8 1042 81 10000 0 0 15:47 01.03.2022
3499 Clouds 6 1043 87 10000 1.54 60 14:41 01.03.2022
3500 Clouds 6 1043 87 10000 1.54 60 14:23 01.03.2022
3501 Clouds 4 1043 93 8000 1.54 60 13:26 01.03.2022
3502 Clouds 4 1042 93 8000 1.54 60 12:35 01.03.2022
3503 Rain 7 1018 82 10000 1.84 49 10:57 01.03.2022
3504 Rain 8 1017 80 10000 1.8 56 09:43 01.03.2022
3505 Rain 8 1016 75 10000 1.63 62 08:20 01.03.2022
3506 Clouds 9 1017 72 10000 1.71 82 06:47 01.03.2022
3507 Clouds 10 1017 70 10000 1.91 84 02:58 01.03.2022
3508 Clouds 11 1015 65 10000 2.75 53 00:48 01.03.2022
3509 Clouds 12 1012 60 10000 4.76 52 23:39 28.02.2022
3510 Clouds 14 1010 43 10000 5.1 71 22:38 28.02.2022
3511 Clouds 16 1008 34 10000 3.32 83 21:47 28.02.2022
3512 Clouds 16 1009 32 10000 5.63 80 20:46 28.02.2022
3513 Clouds 17 1009 29 10000 6.35 85 19:51 28.02.2022
3514 Clouds 15 1038 36 10000 6.17 60 18:50 28.02.2022
3515 Clouds 15 1039 39 10000 6.17 60 17:43 28.02.2022
3516 Clouds 15 1039 39 10000 6.17 60 17:21 28.02.2022
3517 Clouds 15 1039 48 10000 6.17 60 16:25 28.02.2022
3518 Clouds 10 1039 71 10000 0 0 14:33 28.02.2022
3519 Clouds 7 1038 76 10000 0 0 13:56 28.02.2022
3520 Clouds 7 1038 76 10000 0 0 13:24 28.02.2022
3521 Clouds 4 1037 81 10000 0 0 12:25 28.02.2022
3522 Clouds 4 1036 87 10000 0 0 11:20 28.02.2022
3523 Clouds 8 1014 76 10000 0.45 173 10:23 28.02.2022
3524 Clouds 8 1014 76 10000 0.45 173 09:51 28.02.2022
3525 Clouds 8 1014 75 10000 0.27 129 09:23 28.02.2022
3526 Clouds 8 1014 74 10000 0.88 62 08:21 28.02.2022
3527 Clouds 9 1014 76 10000 0.96 40 06:31 28.02.2022
3528 Clouds 10 1015 73 10000 0.69 28 04:31 28.02.2022
3529 Clouds 11 1014 61 10000 2.01 61 01:42 28.02.2022
3530 Clouds 15 1009 40 10000 4.09 85 22:57 27.02.2022
3531 Clouds 15 1009 40 10000 4.09 85 22:32 27.02.2022
3532 Clouds 16 1008 38 10000 5.41 87 21:42 27.02.2022
3533 Clouds 17 1008 34 10000 5.29 89 20:51 27.02.2022
3534 Clouds 18 1008 30 10000 4.13 74 20:25 27.02.2022
3535 Clouds 18 1008 30 10000 4.13 74 19:50 27.02.2022
3536 Clouds 18 1009 28 10000 3.23 57 19:26 27.02.2022
3537 Clouds 18 1009 28 10000 3.23 57 18:39 27.02.2022
3538 Clouds 17 1011 29 10000 2.33 43 17:53 27.02.2022
3539 Clouds 16 1013 31 10000 1.99 33 16:36 27.02.2022
3540 Clouds 14 1014 35 10000 1.3 23 15:42 27.02.2022
3541 Clouds 9 1019 64 10000 0.51 10 12:53 27.02.2022
3542 Clouds 8 1019 76 10000 0.56 274 12:29 27.02.2022
3543 Clouds 7 1018 83 10000 0.88 290 10:47 27.02.2022
3544 Clouds 7 1018 82 10000 0.99 318 09:58 27.02.2022
3545 Clouds 7 1017 82 10000 0.73 316 09:27 27.02.2022
3546 Clouds 7 1017 82 10000 0.73 316 08:54 27.02.2022
3547 Clouds 8 1018 82 10000 0.95 338 06:43 27.02.2022
3548 Clouds 8 1019 81 10000 1.21 21 05:35 27.02.2022
3549 Clouds 10 1016 70 10000 2.99 58 00:37 27.02.2022
3550 Clouds 13 1013 53 10000 4.4 62 22:51 26.02.2022
3551 Clouds 14 1012 48 10000 4.61 65 21:39 26.02.2022
3552 Clouds 15 1012 46 10000 4.84 69 20:48 26.02.2022
3553 Clouds 16 1012 44 10000 4.34 59 20:19 26.02.2022
3554 Clouds 16 1012 44 10000 4.34 59 19:37 26.02.2022
3555 Clouds 15 1013 44 10000 3.61 47 18:49 26.02.2022
3556 Clouds 15 1015 46 10000 3.25 29 17:45 26.02.2022
3557 Clouds 14 1017 49 10000 2.81 19 16:49 26.02.2022
3558 Clouds 12 1018 55 10000 2.61 17 15:57 26.02.2022
3559 Clouds 11 1020 61 10000 2.08 10 15:23 26.02.2022
3560 Clouds 11 1020 61 10000 2.08 10 14:54 26.02.2022
3561 Clouds 11 1020 61 10000 2.08 10 14:33 26.02.2022
3562 Clouds 8 1022 80 10000 1.29 52 13:19 26.02.2022
3563 Clouds 7 1021 90 10000 0.86 61 12:23 26.02.2022
3564 Clouds 6 1021 93 10000 1.08 73 11:28 26.02.2022
3565 Clouds 6 1021 93 10000 1.08 73 10:49 26.02.2022
3566 Clouds 7 1020 91 10000 1.34 74 08:55 26.02.2022
3567 Clouds 7 1019 90 10000 1.6 79 07:37 26.02.2022
3568 Clouds 10 1017 70 10000 2.8 45 01:27 26.02.2022
3569 Clouds 12 1014 55 10000 4.97 52 22:55 25.02.2022
3570 Clouds 14 1013 50 10000 6.58 58 21:44 25.02.2022
3571 Clouds 15 1013 44 10000 6.05 61 21:25 25.02.2022
3572 Clouds 15 1013 44 10000 6.05 61 20:33 25.02.2022
3573 Clouds 15 1013 44 10000 6.05 61 20:33 25.02.2022
3574 Clouds 15 1013 40 10000 4.66 44 19:21 25.02.2022
3575 Clouds 14 1042 55 10000 6.17 60 17:30 25.02.2022
3576 Clouds 13 1042 58 10000 5.14 60 16:35 25.02.2022
3577 Clouds 14 1042 55 10000 5.14 60 15:48 25.02.2022
3578 Clouds 14 1042 55 10000 5.14 60 15:22 25.02.2022
3579 Clouds 10 1042 76 10000 4.12 60 14:42 25.02.2022
3580 Clouds 8 1041 81 10000 3.09 60 13:58 25.02.2022
3581 Clouds 8 1041 81 10000 3.09 60 13:20 25.02.2022
3582 Clouds 4 1040 93 7000 0 0 11:28 25.02.2022
3583 Clouds 6 1019 88 10000 1.22 48 10:54 25.02.2022
3584 Clouds 6 1019 86 10000 1.19 47 10:23 25.02.2022
3585 Clouds 6 1019 86 10000 1.19 47 09:35 25.02.2022
3586 Clouds 7 1018 83 10000 1.18 56 07:44 25.02.2022
3587 Clouds 8 1018 80 10000 1.88 76 06:19 25.02.2022
3588 Clouds 8 1018 80 10000 1.88 76 05:37 25.02.2022
3589 Clouds 10 1014 72 10000 2.74 41 00:31 25.02.2022
3590 Clouds 14 1008 56 10000 5.09 57 22:29 24.02.2022
3591 Clouds 14 1008 56 10000 5.09 57 21:43 24.02.2022
3592 Clouds 14 1008 56 10000 5.09 57 21:43 24.02.2022
3593 Clouds 15 1008 51 10000 4.79 69 21:21 24.02.2022
3594 Clouds 15 1008 51 10000 4.79 69 20:42 24.02.2022
3595 Clouds 15 1009 47 10000 3.92 70 19:29 24.02.2022
3596 Clouds 15 1010 46 10000 3.97 64 18:20 24.02.2022
3597 Clouds 15 1035 63 10000 6.17 60 17:51 24.02.2022
3598 Clouds 14 1036 67 10000 5.14 60 16:57 24.02.2022
3599 Clouds 14 1036 67 10000 5.14 60 16:25 24.02.2022
3600 Clouds 13 1013 52 10000 1.54 50 15:41 24.02.2022
3601 Clouds 10 1036 82 10000 0 0 14:44 24.02.2022
3602 Clouds 8 1036 87 10000 1.54 240 13:51 24.02.2022
3603 Clouds 8 1036 87 10000 1.54 240 13:30 24.02.2022
3604 Clouds 6 1015 90 10000 1.15 306 10:50 24.02.2022
3605 Clouds 6 1015 90 10000 1.15 306 10:31 24.02.2022
3606 Clouds 7 1014 86 10000 1.34 352 08:43 24.02.2022
3607 Clouds 7 1015 86 10000 1.31 5 06:28 24.02.2022
3608 Clouds 7 1015 86 10000 1.31 5 05:37 24.02.2022
3609 Clouds 10 1013 76 10000 2.87 39 00:30 24.02.2022
3610 Clouds 12 1010 63 10000 2.65 71 21:56 23.02.2022
3611 Clouds 12 1010 63 10000 3.12 76 20:44 23.02.2022
3612 Clouds 13 1010 56 10000 3.43 64 20:23 23.02.2022
3613 Clouds 13 1010 56 10000 3.43 64 19:34 23.02.2022
3614 Clouds 12 1037 67 10000 5.14 60 18:22 23.02.2022
3615 Clouds 9 1040 81 10000 5.14 60 16:27 23.02.2022
3616 Clouds 7 1039 81 8000 1.54 60 13:58 23.02.2022
3617 Clouds 5 1031 93 8000 1.54 60 12:31 23.02.2022
3618 Clouds 6 1018 88 10000 1.59 14 10:58 23.02.2022
3619 Clouds 6 1017 86 10000 1.79 9 09:49 23.02.2022
3620 Clouds 6 1017 85 10000 1.73 7 08:54 23.02.2022
3621 Clouds 6 1017 85 10000 1.68 355 07:53 23.02.2022
3622 Clouds 6 1022 86 10000 1.92 225 02:58 23.02.2022
3623 Clouds 9 1015 72 9412 3.49 53 00:18 23.02.2022
3624 Clouds 9 1015 72 9412 3.49 53 23:33 22.02.2022
3625 Clouds 11 1012 62 10000 4.47 52 22:28 22.02.2022
3626 Clouds 11 1012 62 10000 4.47 52 22:28 22.02.2022
3627 Clouds 11 1012 62 10000 4.47 52 21:45 22.02.2022
3628 Clouds 12 1012 59 9745 4.32 52 21:21 22.02.2022
3629 Clouds 12 1012 59 9745 4.32 52 20:47 22.02.2022
3630 Clouds 12 1012 56 10000 4.08 58 20:28 22.02.2022
3631 Clouds 12 1012 56 10000 4.08 58 19:34 22.02.2022
3632 Clouds 12 1038 62 10000 6.17 60 18:50 22.02.2022
3633 Clouds 11 1040 66 10000 6.17 60 17:36 22.02.2022
3634 Clouds 11 1040 66 10000 5.14 60 16:58 22.02.2022
3635 Clouds 11 1040 66 10000 5.14 60 16:26 22.02.2022
3636 Clouds 10 1040 66 10000 4.12 60 15:36 22.02.2022
3637 Clouds 8 1040 71 10000 0 0 14:37 22.02.2022
3638 Clouds 4 1037 93 10000 0 0 11:41 22.02.2022
3639 Clouds 5 1018 88 10000 0.71 79 10:22 22.02.2022
3640 Clouds 5 1018 88 10000 1.3 317 07:43 22.02.2022
3641 Clouds 6 1018 87 10000 0.48 355 07:25 22.02.2022
3642 Clouds 6 1020 85 10000 2.12 348 02:51 22.02.2022
3643 Clouds 4 1020 92 3834 2.36 320 00:44 22.02.2022
3644 Clouds 5 1018 91 2626 3.88 340 22:38 21.02.2022
3645 Clouds 4 1017 96 603 2.24 167 21:25 21.02.2022
3646 Clouds 11 1010 63 8953 1.2 103 20:19 21.02.2022
3647 Clouds 14 1035 55 10000 5.14 60 18:40 21.02.2022
3648 Clouds 11 1036 71 10000 3.09 60 16:47 21.02.2022
3649 Clouds 9 1036 76 10000 1.54 60 14:24 21.02.2022
3650 Clouds 6 1035 87 10000 0 0 13:56 21.02.2022
3651 Clouds 2 1035 93 10000 0 0 12:58 21.02.2022
3652 Clouds 2 1035 93 10000 0 0 12:22 21.02.2022
3653 Clouds 6 1015 82 10000 1.55 30 10:35 21.02.2022
3654 Clouds 6 1014 83 10000 1.12 29 08:44 21.02.2022
3655 Clouds 6 1017 80 10000 2.35 31 02:31 21.02.2022
3656 Clouds 8 1012 73 10000 1.9 106 22:45 20.02.2022
3657 Clouds 8 1012 73 10000 3.93 68 22:18 20.02.2022
3658 Clouds 8 1012 73 10000 3.93 68 21:41 20.02.2022
3659 Rain 8 1010 73 10000 2.86 92 20:51 20.02.2022
3660 Rain 10 1010 66 10000 3.6 209 20:21 20.02.2022
3661 Clouds 14 1007 41 4996 1.18 51 19:29 20.02.2022
3662 Clouds 14 1007 42 10000 1.76 74 18:49 20.02.2022
3663 Clouds 14 1007 42 10000 1.76 74 18:30 20.02.2022
3664 Clear 14 1009 43 10000 2.34 37 17:30 20.02.2022
3665 Clear 12 1013 53 10000 2.43 344 15:30 20.02.2022
3666 Clear 10 1014 58 10000 2.2 341 14:39 20.02.2022
3667 Clouds 7 1016 72 10000 1.25 341 13:22 20.02.2022
3668 Clouds 7 1016 72 10000 1.25 341 13:22 20.02.2022
3669 Clouds 7 1016 72 10000 1.25 341 13:22 20.02.2022
3670 Clouds 6 1015 79 10000 1.09 353 11:56 20.02.2022
3671 Clouds 6 1015 79 10000 1.09 353 11:56 20.02.2022
3672 Clouds 6 1015 79 10000 1.09 353 11:55 20.02.2022
3673 Clouds 6 1014 80 10000 1.35 23 10:21 20.02.2022
3674 Clouds 6 1014 80 10000 1.35 23 09:35 20.02.2022
3675 Rain 7 1015 70 10000 1.87 299 06:29 20.02.2022
3676 Clouds 7 1014 72 10000 2.09 55 00:32 20.02.2022
3677 Rain 7 1013 77 10000 2.91 106 23:33 19.02.2022
3678 Clouds 8 1011 80 10000 4.41 21 22:24 19.02.2022
3679 Rain 8 1011 80 10000 4.41 21 21:47 19.02.2022
3680 Clouds 14 1006 52 10000 5.71 81 20:28 19.02.2022
3681 Clouds 14 1006 52 10000 5.71 81 19:35 19.02.2022
3682 Clouds 14 1006 44 10000 4.64 127 18:41 19.02.2022
3683 Clouds 16 1006 36 10000 1.28 76 17:57 19.02.2022
3684 Clouds 15 1008 38 10000 1.01 345 17:23 19.02.2022
3685 Clouds 14 1010 43 10000 0.83 321 15:59 19.02.2022
3686 Clouds 12 1011 49 10000 0.83 308 14:55 19.02.2022
3687 Clouds 10 1013 59 10000 0.78 285 13:58 19.02.2022
3688 Clouds 7 1015 83 10000 0.81 286 11:53 19.02.2022
3689 Clouds 6 1014 90 10000 1.14 339 10:54 19.02.2022
3690 Clouds 7 1013 84 10000 2.01 347 08:59 19.02.2022
3691 Clouds 8 1014 79 10000 1.15 54 06:48 19.02.2022
3692 Clouds 10 1011 69 10000 2.49 46 00:42 19.02.2022
3693 Clouds 14 1007 42 10000 5.45 80 22:28 18.02.2022
3694 Clouds 15 1007 40 10000 5.75 86 21:26 18.02.2022
3695 Clear 15 1008 39 10000 5.67 89 20:24 18.02.2022
3696 Clear 15 1008 39 10000 5.67 89 19:50 18.02.2022
3697 Clouds 15 1009 39 10000 4.87 91 18:37 18.02.2022
3698 Clouds 15 1010 42 10000 3.81 87 18:18 18.02.2022
3699 Clouds 12 1036 62 10000 6.17 60 17:18 18.02.2022
3700 Clouds 8 1038 81 10000 1.54 60 14:30 18.02.2022
3701 Clouds 6 1037 93 10000 0 0 13:46 18.02.2022
3702 Clouds 4 1037 93 10000 0 0 12:50 18.02.2022
3703 Clouds 4 1037 93 8000 0 0 11:57 18.02.2022
3704 Clouds 7 1017 86 10000 1.49 103 10:45 18.02.2022
3705 Clouds 7 1015 83 10000 0.91 61 08:47 18.02.2022
3706 Clouds 7 1016 81 10000 1.72 32 06:48 18.02.2022
3707 Clouds 8 1017 78 10000 1.38 157 05:34 18.02.2022
3708 Clouds 11 1012 65 10000 3.88 51 22:39 17.02.2022
3709 Clouds 12 1011 60 10000 5.43 35 21:41 17.02.2022
3710 Clouds 13 1010 53 10000 5.94 48 20:52 17.02.2022
3711 Clouds 13 1010 53 10000 5.94 48 20:33 17.02.2022
3712 Rain 14 1011 48 10000 4.82 64 19:42 17.02.2022
3713 Clouds 15 1039 51 10000 4.12 60 18:29 17.02.2022
3714 Clouds 14 1040 55 10000 3.09 40 17:45 17.02.2022
3715 Clouds 13 1041 58 10000 0 0 16:19 17.02.2022
3716 Clouds 9 1042 76 10000 0 0 14:30 17.02.2022
3717 Clouds 8 1042 81 10000 0 0 13:47 17.02.2022
3718 Clouds 4 1041 87 10000 0 0 11:55 17.02.2022
3719 Clouds 4 1041 87 10000 0 0 11:21 17.02.2022
3720 Clouds 7 1019 88 10000 1.46 59 07:57 17.02.2022
3721 Clouds 11 1014 63 10000 4.16 47 00:20 17.02.2022
3722 Clouds 13 1013 55 10000 5.41 50 22:38 16.02.2022
3723 Clouds 15 1010 43 10000 6.51 45 20:32 16.02.2022
3724 Clouds 16 1012 41 10000 5.5 34 19:27 16.02.2022
3725 Clouds 13 1042 62 10000 5.14 60 18:35 16.02.2022
3726 Clouds 12 1042 67 10000 3.09 60 17:27 16.02.2022
3727 Clouds 10 1043 71 10000 4.12 60 15:24 16.02.2022
3728 Clouds 7 1043 81 10000 0 0 14:29 16.02.2022
3729 Clouds 4 1042 93 10000 0 0 12:31 16.02.2022
3730 Mist 4 1041 93 4000 0 0 11:46 16.02.2022
3731 Clouds 5 1020 96 10000 0.68 341 10:37 16.02.2022
3732 Clouds 6 1019 95 10000 0.96 330 10:18 16.02.2022
3733 Clouds 7 1019 83 10000 1.5 341 06:44 16.02.2022
3734 Clouds 8 1020 78 10000 2.52 33 03:41 16.02.2022
3735 Clouds 11 1014 64 10000 4 49 22:35 15.02.2022
3736 Clouds 12 1013 58 10000 4.07 57 21:52 15.02.2022
3737 Clouds 12 1013 58 10000 4.07 57 21:31 15.02.2022
3738 Clouds 12 1013 57 10000 3.33 61 20:58 15.02.2022
3739 Clouds 12 1013 57 10000 3.33 61 20:38 15.02.2022
3740 Clouds 11 1015 61 10000 2.83 77 19:48 15.02.2022
3741 Clouds 13 1040 58 10000 6.17 60 18:40 15.02.2022
3742 Clouds 13 1040 58 10000 6.17 60 18:18 15.02.2022
3743 Clouds 12 1041 58 10000 5.14 60 17:46 15.02.2022
3744 Clouds 12 1041 58 10000 5.14 60 16:20 15.02.2022
3745 Clouds 7 1041 81 10000 3.09 60 14:35 15.02.2022
3746 Clouds 5 1040 87 10000 2.57 60 13:26 15.02.2022
3747 Fog 3 1038 100 800 4.12 60 11:43 15.02.2022
3748 Clouds 5 1019 85 10000 1.07 98 10:39 15.02.2022
3749 Clouds 6 1018 85 10000 1.17 72 09:23 15.02.2022
3750 Clouds 6 1019 86 10000 1.58 59 06:47 15.02.2022
3751 Clouds 10 1012 67 10000 3.54 47 00:26 15.02.2022
3752 Clouds 13 1009 55 10000 4.27 58 21:59 14.02.2022
3753 Clouds 14 1009 53 10000 4.61 58 21:19 14.02.2022
3754 Clouds 14 1009 49 10000 4.36 62 20:19 14.02.2022
3755 Rain 14 1009 49 10000 4.36 62 19:30 14.02.2022
3756 Clouds 15 1036 55 10000 4.12 40 18:27 14.02.2022
3757 Clouds 13 1036 62 10000 4.12 60 17:43 14.02.2022
3758 Clouds 13 1036 62 10000 4.12 60 17:23 14.02.2022
3759 Clouds 11 1037 71 10000 0 0 15:58 14.02.2022
3760 Clouds 7 1036 87 10000 0 0 13:38 14.02.2022
3761 Clouds 7 1036 87 10000 0 0 13:18 14.02.2022
3762 Clouds 4 1036 93 10000 0 0 12:32 14.02.2022
3763 Clouds 3 1035 100 10000 0 0 11:47 14.02.2022
3764 Rain 5 1017 97 4136 1.45 342 10:25 14.02.2022
3765 Clouds 5 1017 97 6130 1.51 351 08:34 14.02.2022
3766 Clouds 6 1017 94 10000 1.83 350 07:26 14.02.2022
3767 Clouds 9 1013 70 10000 2.24 54 23:41 13.02.2022
3768 Clouds 10 1012 69 10000 2.36 62 22:42 13.02.2022
3769 Clouds 10 1012 69 10000 2.15 74 22:23 13.02.2022
3770 Clouds 9 1013 72 10000 2.76 85 21:28 13.02.2022
3771 Clouds 9 1013 72 10000 2.76 85 20:32 13.02.2022
3772 Clouds 10 1014 64 6301 2.74 64 19:29 13.02.2022
3773 Clouds 10 1013 65 5465 3.12 47 18:44 13.02.2022
3774 Clouds 10 1015 65 10000 2.5 26 17:57 13.02.2022
3775 Clouds 8 1018 75 10000 1.59 3 15:54 13.02.2022
3776 Clouds 7 1019 79 10000 1.53 21 15:20 13.02.2022
3777 Clouds 6 1019 80 10000 1.41 34 13:59 13.02.2022
3778 Clouds 6 1018 80 10000 1.24 44 12:50 13.02.2022
3779 Clouds 6 1018 78 10000 1.49 42 11:35 13.02.2022
3780 Clouds 6 1017 77 10000 1.11 67 10:32 13.02.2022
3781 Rain 6 1017 76 10000 0.83 85 09:45 13.02.2022
3782 Clouds 5 1017 82 10000 1.24 45 07:48 13.02.2022
3783 Rain 6 1018 84 10000 0.54 11 00:35 13.02.2022
3784 Clouds 6 1016 83 2812 0.61 192 23:42 12.02.2022
3785 Clouds 8 1014 76 8284 1.38 57 22:33 12.02.2022
3786 Clouds 10 1012 71 9469 3.53 74 21:27 12.02.2022
3787 Clouds 10 1012 71 9469 3.53 74 20:45 12.02.2022
3788 Clouds 10 1012 69 10000 3.97 59 19:30 12.02.2022
3789 Clouds 10 1013 69 10000 3.1 58 18:53 12.02.2022
3790 Clouds 11 1013 63 10000 4.34 60 18:35 12.02.2022
3791 Clouds 11 1014 59 10000 3.25 41 17:20 12.02.2022
3792 Clouds 10 1015 60 10000 2.95 19 16:29 12.02.2022
3793 Clouds 10 1015 60 10000 2.95 19 15:51 12.02.2022
3794 Clouds 10 1016 62 10000 2.47 3 14:44 12.02.2022
3795 Clouds 8 1017 66 10000 1.86 357 14:24 12.02.2022
3796 Clouds 6 1016 84 10000 1.55 65 11:18 12.02.2022
3797 Clouds 7 1015 80 10000 1.38 65 09:51 12.02.2022
3798 Clouds 7 1015 79 10000 1.17 63 09:27 12.02.2022
3799 Clouds 7 1015 79 10000 1.17 63 08:45 12.02.2022
3800 Clouds 6 1016 84 10000 1.31 13 05:40 12.02.2022
3801 Clouds 7 1017 84 10000 2.52 19 04:36 12.02.2022
3802 Clouds 7 1015 84 10000 3.42 87 02:19 12.02.2022
3803 Clouds 11 1008 62 10000 3.68 70 22:57 11.02.2022
3804 Clouds 11 1007 59 10000 1.21 126 22:20 11.02.2022
3805 Clouds 14 1005 47 10000 2.39 64 20:52 11.02.2022
3806 Clouds 15 1005 43 10000 4.6 54 19:50 11.02.2022
3807 Clouds 16 1005 33 10000 3.29 50 19:27 11.02.2022
3808 Clouds 15 1032 55 10000 5.14 40 18:29 11.02.2022
3809 Clouds 14 1033 55 10000 5.14 60 17:26 11.02.2022
3810 Clouds 13 1034 58 10000 4.12 60 16:26 11.02.2022
3811 Clouds 11 1034 66 10000 3.09 60 15:18 11.02.2022
3812 Clouds 9 1034 76 10000 0 0 14:37 11.02.2022
3813 Clouds 9 1034 76 10000 0 0 14:19 11.02.2022
3814 Clouds 6 1034 87 10000 0 0 13:40 11.02.2022
3815 Clouds 3 1033 87 10000 0 0 12:37 11.02.2022
3816 Clouds 5 1014 92 10000 1.13 297 10:49 11.02.2022
3817 Clouds 5 1013 93 10000 1.29 318 09:31 11.02.2022
3818 Clouds 5 1013 94 10000 1.28 338 08:31 11.02.2022
3819 Clouds 6 1012 93 10000 1.86 5 07:40 11.02.2022
3820 Clouds 8 1012 76 10000 2.29 48 02:40 11.02.2022
3821 Clouds 8 1012 78 10000 3.55 85 02:20 11.02.2022
3822 Clouds 10 1007 65 10000 3.02 51 23:41 10.02.2022
3823 Clouds 11 1006 60 10000 3.11 50 21:55 10.02.2022
3824 Clouds 11 1006 60 10000 3.11 50 21:35 10.02.2022
3825 Clouds 11 1008 57 10000 1.37 90 20:48 10.02.2022
3826 Clouds 11 1008 60 10000 1.99 171 19:49 10.02.2022
3827 Clouds 12 1008 54 10000 1.22 303 19:21 10.02.2022
3828 Clouds 12 1033 67 10000 3.09 40 17:53 10.02.2022
3829 Clouds 12 1033 67 10000 3.09 40 17:21 10.02.2022
3830 Clouds 11 1034 66 10000 0 0 16:31 10.02.2022
3831 Clouds 9 1034 76 10000 0 0 15:39 10.02.2022
3832 Clouds 9 1034 76 10000 0 0 15:20 10.02.2022
3833 Clouds 8 1034 76 10000 0 0 14:34 10.02.2022
3834 Clouds 6 1034 81 10000 0 0 13:37 10.02.2022
3835 Clouds 6 1034 81 10000 0 0 13:18 10.02.2022
3836 Clouds 4 1033 100 7000 0 0 11:50 10.02.2022
3837 Clouds 4 1033 100 7000 0 0 11:28 10.02.2022
3838 Clouds 5 1014 89 10000 1.52 336 10:23 10.02.2022
3839 Clouds 5 1014 89 10000 1.52 336 09:44 10.02.2022
3840 Clouds 5 1015 88 10000 1.92 12 08:25 10.02.2022
3841 Clouds 5 1015 83 10000 2.14 352 06:32 10.02.2022
3842 Clouds 5 1016 87 10000 3.18 357 02:43 10.02.2022
3843 Clouds 6 1015 84 10000 2.23 45 00:52 10.02.2022
3844 Clouds 6 1015 84 6281 2.47 51 00:30 10.02.2022
3845 Clouds 6 1015 84 6281 2.47 51 00:30 10.02.2022
3846 Clouds 6 1014 83 4911 2.58 59 23:53 09.02.2022
3847 Clouds 7 1012 79 10000 2.64 55 22:54 09.02.2022
3848 Clouds 7 1012 79 10000 2.64 55 22:30 09.02.2022
3849 Clouds 8 1012 79 10000 3.45 60 21:46 09.02.2022
3850 Clouds 8 1012 83 10000 3.82 52 21:26 09.02.2022
3851 Clouds 8 1012 83 10000 3.82 52 20:42 09.02.2022
3852 Clouds 9 1012 74 6916 1.82 83 20:22 09.02.2022
3853 Clouds 9 1012 74 6916 1.82 83 19:39 09.02.2022
3854 Clouds 12 1033 62 10000 5.14 60 18:31 09.02.2022
3855 Clouds 10 1035 71 10000 4.12 20 16:54 09.02.2022
3856 Clouds 8 1035 81 10000 3.09 40 15:59 09.02.2022
3857 Clouds 8 1035 81 10000 3.09 40 15:22 09.02.2022
3858 Clouds 5 1035 93 7000 0 0 12:43 09.02.2022
3859 Clouds 4 1035 100 8000 0 0 11:23 09.02.2022
3860 Clouds 6 1016 86 10000 2.07 28 10:33 09.02.2022
3861 Clouds 6 1015 86 10000 1.91 27 09:47 09.02.2022
3862 Clouds 6 1015 86 10000 1.87 27 09:21 09.02.2022
3863 Clouds 6 1015 86 10000 1.87 27 08:43 09.02.2022
3864 Clouds 6 1017 82 10000 1.63 344 05:55 09.02.2022
3865 Clouds 6 1018 85 10000 1.7 355 03:51 09.02.2022
3866 Clouds 6 1018 83 10000 1.9 4 03:25 09.02.2022
3867 Clouds 6 1017 87 10000 1.8 12 23:45 08.02.2022
3868 Clouds 6 1016 88 2558 4.14 318 23:18 08.02.2022
3869 Rain 6 1016 88 2558 4.14 318 22:38 08.02.2022
3870 Rain 10 1012 67 8729 2.53 32 22:18 08.02.2022
3871 Clouds 11 1011 60 10000 3.68 51 21:22 08.02.2022
3872 Clouds 11 1011 60 10000 3.68 51 21:22 08.02.2022
3873 Clouds 11 1011 60 10000 3.68 51 21:22 08.02.2022
3874 Clouds 11 1011 60 10000 3.68 51 20:57 08.02.2022
3875 Clouds 11 1011 60 10000 3.68 51 20:34 08.02.2022
3876 Clouds 12 1013 60 7732 3.54 62 19:27 08.02.2022
3877 Clouds 13 1036 58 10000 6.17 60 18:19 08.02.2022
3878 Clouds 11 1038 66 10000 3.09 60 16:56 08.02.2022
3879 Clouds 10 1039 71 10000 4.12 60 15:46 08.02.2022
3880 Clouds 8 1039 81 10000 3.09 60 14:58 08.02.2022
3881 Clouds 6 1038 87 10000 3.09 60 13:48 08.02.2022
3882 Clouds 5 1037 87 10000 0 0 12:24 08.02.2022
3883 Clouds 6 1017 85 10000 1.8 30 10:48 08.02.2022
3884 Clouds 6 1017 84 10000 1.84 29 09:48 08.02.2022
3885 Clouds 6 1017 83 10000 1.92 34 08:38 08.02.2022
3886 Clouds 6 1017 84 10000 1.73 48 06:38 08.02.2022
3887 Clouds 7 1018 84 10000 1.93 46 04:40 08.02.2022
3888 Clouds 7 1018 82 10000 2.45 40 04:22 08.02.2022
3889 Clouds 7 1018 82 10000 2.45 40 03:36 08.02.2022
3890 Clouds 8 1017 79 10000 2.46 39 03:18 08.02.2022
3891 Clouds 8 1017 79 10000 2.46 39 02:59 08.02.2022
3892 Clouds 8 1017 79 10000 2.46 39 02:36 08.02.2022
3893 Clouds 8 1016 76 10000 1.76 15 02:18 08.02.2022
3894 Clouds 8 1016 76 10000 1.76 15 01:44 08.02.2022
3895 Clouds 9 1015 73 10000 1.55 21 01:25 08.02.2022
3896 Clouds 8 1016 76 10000 0.87 347 00:55 08.02.2022
3897 Clouds 9 1013 70 10000 2.32 47 00:21 08.02.2022
3898 Clouds 9 1013 70 10000 2.32 47 23:44 07.02.2022
3899 Clouds 11 1012 63 10000 3.17 57 23:18 07.02.2022
3900 Clouds 11 1012 63 10000 3.17 57 22:59 07.02.2022
3901 Clouds 12 1011 59 10000 2.9 72 22:19 07.02.2022
3902 Clouds 12 1011 59 10000 2.9 72 21:50 07.02.2022
3903 Clouds 11 1013 61 10000 2.78 84 21:27 07.02.2022
3904 Clouds 11 1013 61 10000 2.78 84 20:45 07.02.2022
3905 Clouds 11 1013 58 10000 3.81 71 20:27 07.02.2022
3906 Clouds 11 1013 58 10000 3.81 71 19:47 07.02.2022
3907 Clouds 13 1039 54 10000 6.17 60 18:37 07.02.2022
3908 Clouds 12 1040 58 10000 3.09 60 17:23 07.02.2022
3909 Clouds 11 1041 66 10000 2.06 60 16:52 07.02.2022
3910 Clouds 9 1041 71 10000 2.06 60 15:48 07.02.2022
3911 Clouds 6 1040 81 10000 0 0 13:58 07.02.2022
3912 Clouds 6 1040 81 10000 0 0 13:27 07.02.2022
3913 Clouds 4 1040 93 10000 2.06 60 12:18 07.02.2022
3914 Clouds 4 1038 93 7000 2.06 60 11:40 07.02.2022
3915 Clouds 4 1038 93 7000 2.06 60 11:22 07.02.2022
3916 Clouds 6 1019 84 10000 1.4 25 10:41 07.02.2022
3917 Clouds 6 1019 84 10000 1.17 34 10:22 07.02.2022
3918 Clouds 6 1019 84 10000 1.17 34 09:51 07.02.2022
3919 Clouds 5 1019 86 10000 1.21 32 09:18 07.02.2022
3920 Clouds 5 1019 86 10000 1.33 30 07:53 07.02.2022
3921 Clouds 6 1019 84 10000 1.65 20 06:34 07.02.2022
3922 Clouds 6 1020 82 10000 2.48 12 04:49 07.02.2022
3923 Clouds 7 1020 81 10000 2.02 24 02:37 07.02.2022
3924 Clouds 7 1017 80 10000 2.64 40 00:24 07.02.2022
3925 Clouds 8 1016 78 10000 2.73 55 23:20 06.02.2022
3926 Clouds 8 1016 78 10000 2.73 55 22:42 06.02.2022
3927 Clouds 8 1015 75 10000 3.14 73 21:47 06.02.2022
3928 Clouds 9 1014 73 10000 3.93 74 21:21 06.02.2022
3929 Clouds 9 1014 73 10000 3.93 74 20:48 06.02.2022
3930 Clouds 10 1014 68 10000 4.6 70 20:24 06.02.2022
3931 Clouds 11 1014 62 10000 3.12 74 19:22 06.02.2022
3932 Clouds 9 1015 65 10000 2.66 88 18:33 06.02.2022
3933 Clouds 9 1017 67 10000 2.58 83 17:39 06.02.2022
3934 Clouds 9 1018 70 4228 2.98 76 16:52 06.02.2022
3935 Clouds 8 1019 74 6984 2.72 69 16:29 06.02.2022
3936 Clouds 8 1019 74 6984 2.72 69 15:47 06.02.2022
3937 Clouds 8 1019 74 6984 2.72 69 15:47 06.02.2022
3938 Clouds 7 1019 78 10000 2.5 66 15:25 06.02.2022
3939 Clouds 6 1020 82 7249 2.2 50 14:23 06.02.2022
3940 Clouds 6 1019 84 10000 2 51 13:23 06.02.2022
3941 Clouds 6 1019 81 10000 2.19 69 12:33 06.02.2022
3942 Clouds 6 1018 85 10000 2.16 48 10:37 06.02.2022
3943 Clouds 6 1017 85 10000 2.22 28 09:48 06.02.2022
3944 Clouds 6 1017 84 10000 2.02 21 08:41 06.02.2022
3945 Clouds 6 1017 85 10000 1.7 10 07:36 06.02.2022
3946 Clouds 7 1018 84 10000 2.14 30 05:29 06.02.2022
3947 Clouds 8 1015 81 10000 3.31 59 02:26 06.02.2022
3948 Clouds 8 1014 76 10000 3.61 54 00:51 06.02.2022
3949 Clouds 10 1011 67 10000 4.74 54 00:24 06.02.2022
3950 Clouds 13 1008 52 10000 3.54 81 21:59 05.02.2022
3951 Clouds 15 1006 42 10000 4.81 70 20:48 05.02.2022
3952 Clouds 16 1006 27 10000 3.17 62 20:23 05.02.2022
3953 Clouds 16 1006 27 10000 3.17 62 19:44 05.02.2022
3954 Clouds 15 1008 25 10000 1.69 25 18:45 05.02.2022
3955 Clouds 14 1010 29 10000 1.79 0 17:36 05.02.2022
3956 Clouds 14 1011 34 10000 1.91 2 16:33 05.02.2022
3957 Clouds 13 1013 38 10000 1.56 7 15:31 05.02.2022
3958 Clouds 10 1014 53 10000 0.39 304 13:58 05.02.2022
3959 Clouds 8 1016 63 10000 0.15 93 12:46 05.02.2022
3960 Clouds 7 1016 70 10000 0.4 109 11:47 05.02.2022
3961 Clouds 5 1015 78 10000 0.38 109 10:46 05.02.2022
3962 Clouds 6 1014 79 10000 0.26 203 09:51 05.02.2022
3963 Clouds 6 1013 80 10000 0.79 289 09:23 05.02.2022
3964 Clouds 7 1013 80 10000 1.35 304 07:36 05.02.2022
3965 Clouds 7 1014 82 10000 1.86 342 06:56 05.02.2022
3966 Clouds 8 1015 80 10000 1.73 17 03:22 05.02.2022
3967 Clouds 8 1013 82 10000 3.38 46 01:19 05.02.2022
3968 Clouds 9 1012 73 10000 2.44 62 00:39 05.02.2022
3969 Clouds 10 1010 64 10000 2.77 95 23:38 04.02.2022
3970 Clouds 12 1008 54 10000 2.17 103 23:20 04.02.2022
3971 Clouds 12 1007 52 10000 1.87 115 21:36 04.02.2022
3972 Clouds 12 1009 55 10000 1.59 172 21:18 04.02.2022
3973 Clouds 12 1009 55 10000 1.59 172 20:46 04.02.2022
3974 Rain 11 1010 60 10000 3 186 19:30 04.02.2022
3975 Clouds 11 1035 71 10000 3.09 180 16:56 04.02.2022
3976 Clouds 10 1035 71 10000 1.54 200 15:38 04.02.2022
3977 Clouds 9 1035 76 10000 1.54 200 14:51 04.02.2022
3978 Clouds 3 1035 93 10000 5.14 200 12:43 04.02.2022
3979 Clouds 3 1034 93 8000 3.09 240 11:46 04.02.2022
3980 Clouds 3 1034 93 8000 3.09 240 11:18 04.02.2022
3981 Clouds 5 1015 90 10000 1.32 292 10:30 04.02.2022
3982 Clouds 5 1015 88 10000 0.86 304 08:33 04.02.2022
3983 Clouds 5 1017 88 10000 1.79 317 05:19 04.02.2022
3984 Clouds 6 1017 83 10000 0.9 305 02:39 04.02.2022
3985 Clouds 6 1015 83 10000 1.15 56 00:26 04.02.2022
3986 Clouds 4 1016 92 2494 1.52 115 22:55 03.02.2022
3987 Clouds 7 1013 85 3394 3.39 261 22:26 03.02.2022
3988 Clouds 7 1013 85 3394 3.39 261 21:47 03.02.2022
3989 Clouds 11 1010 63 9912 2.11 77 20:26 03.02.2022
3990 Rain 11 1010 63 9912 2.11 77 19:57 03.02.2022
3991 Clouds 11 1011 62 10000 1.44 65 19:26 03.02.2022
3992 Clouds 9 1035 81 10000 0 0 18:26 03.02.2022
3993 Clouds 7 1036 87 8000 0 0 17:27 03.02.2022
3994 Clouds 8 1037 76 10000 0 0 15:44 03.02.2022
3995 Clouds 7 1036 81 10000 0 0 14:26 03.02.2022
3996 Clouds 5 1036 93 8000 0 0 12:37 03.02.2022
3997 Clouds 7 1014 82 10000 1.61 78 09:29 03.02.2022
3998 Clouds 7 1014 82 10000 1.46 68 08:19 03.02.2022
3999 Clouds 8 1015 82 10000 2.27 44 02:56 03.02.2022
4000 Clouds 7 1014 84 10000 2.37 83 00:29 03.02.2022
4001 Rain 7 1013 86 4908 0.95 148 22:47 02.02.2022
4002 Clouds 8 1012 77 4541 1.65 138 21:53 02.02.2022
4003 Clouds 10 1010 70 6524 1.41 23 21:29 02.02.2022
4004 Clouds 11 1011 67 7335 2.76 57 20:28 02.02.2022
4005 Clouds 11 1011 67 7335 2.76 57 19:49 02.02.2022
4006 Clouds 11 1012 66 7719 2.94 62 19:20 02.02.2022
4007 Clouds 11 1012 66 7719 2.94 62 19:20 02.02.2022
4008 Clouds 11 1035 66 10000 5.14 60 18:26 02.02.2022
4009 Clouds 9 1036 71 10000 5.14 60 17:37 02.02.2022
4010 Clouds 9 1036 71 10000 5.14 60 17:18 02.02.2022
4011 Clouds 8 1037 71 10000 4.12 60 16:20 02.02.2022
4012 Clouds 4 1036 93 10000 2.06 60 12:54 02.02.2022
4013 Clouds 4 1035 93 8000 0 0 11:51 02.02.2022
4014 Clouds 4 1035 93 8000 0 0 11:31 02.02.2022
4015 Clouds 5 1016 84 10000 1.35 28 09:46 02.02.2022
4016 Clouds 5 1017 86 10000 1.69 26 06:18 02.02.2022
4017 Clouds 8 1012 75 10000 2.81 60 22:44 01.02.2022
4018 Clouds 9 1012 68 10000 2.91 43 21:36 01.02.2022
4019 Clouds 8 1014 75 10000 3.23 50 19:57 01.02.2022
4020 Clouds 6 1037 87 8000 6.17 60 17:38 01.02.2022
4021 Clouds 5 1038 87 8000 4.12 60 16:33 01.02.2022
4022 Mist 4 1036 93 5000 5.14 60 13:32 01.02.2022
4023 Mist 3 1036 100 4000 4.12 60 12:30 01.02.2022
4024 Mist 4 1035 93 4000 4.12 60 11:19 01.02.2022
4025 Clouds 6 1018 87 10000 1.74 8 02:32 01.02.2022
4026 Clouds 4 1017 94 1033 2.48 7 23:41 31.01.2022
4027 Rain 5 1015 91 9670 4.01 14 22:48 31.01.2022
4028 Rain 6 1015 90 2906 2.94 43 21:38 31.01.2022
4029 Clouds 5 1015 91 2730 1.59 34 20:50 31.01.2022
4030 Clouds 6 1014 88 3880 2.18 24 20:27 31.01.2022
4031 Clouds 9 1012 71 9952 2.02 35 19:20 31.01.2022
4032 Clouds 9 1034 76 7000 5.14 240 18:25 31.01.2022
4033 Rain 11 1034 66 10000 5.14 240 17:26 31.01.2022
4034 Rain 11 1034 62 10000 4.12 60 16:26 31.01.2022
4035 Clouds 9 1035 71 10000 0 0 14:54 31.01.2022
4036 Clouds 6 1034 87 10000 0 0 13:52 31.01.2022
4037 Clouds 4 1034 93 10000 0 0 12:38 31.01.2022
4038 Clouds 4 1033 100 10000 0 0 11:47 31.01.2022
4039 Clouds 6 1014 81 10000 2.26 40 10:50 31.01.2022
4040 Clouds 6 1013 79 10000 2.03 41 09:59 31.01.2022
4041 Clouds 7 1013 77 10000 2.16 17 09:23 31.01.2022
4042 Clouds 7 1013 77 10000 2.16 17 08:47 31.01.2022
4043 Clouds 6 1013 81 10000 2.24 8 08:20 31.01.2022
4044 Clouds 6 1015 87 10000 2.31 351 06:18 31.01.2022
4045 Clouds 6 1015 91 2805 1.77 312 00:46 31.01.2022
4046 Rain 9 1010 70 10000 4.01 41 22:40 30.01.2022
4047 Rain 9 1010 69 10000 2.86 95 22:22 30.01.2022
4048 Rain 9 1010 69 10000 2.86 95 21:38 30.01.2022
4049 Rain 10 1010 69 9112 2.39 99 21:18 30.01.2022
4050 Rain 10 1010 69 9112 2.39 99 20:45 30.01.2022
4051 Clouds 12 1009 59 4098 3.49 72 20:27 30.01.2022
4052 Clouds 12 1009 59 4098 3.49 72 19:45 30.01.2022
4053 Clouds 13 1008 51 10000 3.47 52 18:43 30.01.2022
4054 Clouds 13 1010 49 10000 2.37 28 18:18 30.01.2022
4055 Clouds 12 1011 52 10000 2.19 16 17:22 30.01.2022
4056 Clouds 12 1011 52 10000 2.19 16 16:39 30.01.2022
4057 Clouds 11 1013 58 10000 1.95 12 16:21 30.01.2022
4058 Clouds 11 1013 58 10000 1.95 12 15:50 30.01.2022
4059 Clouds 11 1013 58 10000 1.95 12 15:31 30.01.2022
4060 Clouds 9 1014 65 10000 1.47 350 14:46 30.01.2022
4061 Clouds 7 1015 75 10000 1.17 322 12:47 30.01.2022
4062 Clouds 7 1015 79 10000 1.01 306 11:57 30.01.2022
4063 Clouds 6 1014 83 10000 1.4 305 10:32 30.01.2022
4064 Clouds 6 1014 85 10000 1.67 317 09:50 30.01.2022
4065 Clouds 6 1014 87 10000 1.88 341 08:55 30.01.2022
4066 Clouds 6 1014 90 10000 1.64 353 07:28 30.01.2022
4067 Rain 6 1015 94 1097 1.48 293 01:56 30.01.2022
4068 Rain 6 1015 94 1097 1.48 293 01:56 30.01.2022
4069 Rain 7 1012 93 7910 2.34 352 00:23 30.01.2022
4070 Rain 9 1010 85 4321 1.87 24 23:18 29.01.2022
4071 Clouds 9 1009 78 7993 1.95 71 21:50 29.01.2022
4072 Clouds 11 1009 71 6833 2.39 86 21:24 29.01.2022
4073 Clouds 11 1009 71 6833 2.39 86 20:32 29.01.2022
4074 Clouds 11 1009 67 6772 2.94 89 19:34 29.01.2022
4075 Clouds 10 1011 70 10000 3.13 104 18:52 29.01.2022
4076 Clouds 9 1013 78 10000 2.68 115 18:23 29.01.2022
4077 Clouds 10 1013 70 8982 2.02 112 17:29 29.01.2022
4078 Clouds 10 1013 71 10000 1.85 103 16:25 29.01.2022
4079 Clouds 8 1015 80 10000 0.6 57 14:23 29.01.2022
4080 Clouds 8 1015 80 10000 0.6 57 13:44 29.01.2022
4081 Clouds 7 1015 83 10000 0.8 76 13:24 29.01.2022
4082 Clouds 7 1014 85 10000 0.82 60 11:49 29.01.2022
4083 Clouds 7 1014 84 10000 1.15 65 11:24 29.01.2022
4084 Clouds 7 1013 85 9128 1.16 51 08:43 29.01.2022
4085 Clouds 8 1013 87 10000 1.32 32 06:55 29.01.2022
4086 Clouds 9 1012 82 10000 2.27 37 00:35 29.01.2022
4087 Clouds 9 1011 79 10000 2.18 65 23:52 28.01.2022
4088 Clouds 10 1010 73 7816 2.35 83 22:50 28.01.2022
4089 Clouds 11 1009 70 8999 2.54 71 22:21 28.01.2022
4090 Clouds 11 1009 70 8999 2.54 71 21:36 28.01.2022
4091 Clouds 12 1009 58 6473 1.61 64 20:29 28.01.2022
4092 Clouds 12 1009 58 6473 1.61 64 19:31 28.01.2022
4093 Clouds 10 1035 76 10000 5.14 60 18:43 28.01.2022
4094 Clouds 9 1036 81 10000 0 0 16:54 28.01.2022
4095 Clouds 6 1018 93 7000 0 0 15:20 28.01.2022
4096 Clouds 5 1036 93 5000 2.06 60 13:50 28.01.2022
4097 Clouds 5 1036 93 4000 2.06 60 12:30 28.01.2022
4098 Mist 4 1036 100 3000 3.09 60 11:24 28.01.2022
4099 Clouds 6 1016 89 10000 1.53 56 09:52 28.01.2022
4100 Clouds 6 1016 89 10000 1.69 60 08:22 28.01.2022
4101 Clouds 6 1016 89 10000 1.69 60 07:34 28.01.2022
4102 Clouds 7 1018 85 10000 2.14 88 03:57 28.01.2022
4103 Clouds 8 1017 81 10000 2.41 89 03:20 28.01.2022
4104 Clouds 9 1016 76 10000 2.1 88 02:22 28.01.2022
4105 Clouds 9 1016 76 10000 2.1 88 01:31 28.01.2022
4106 Clouds 10 1012 61 10000 2.49 68 22:48 27.01.2022
4107 Clouds 11 1012 60 10000 2.62 56 21:46 27.01.2022
4108 Clouds 11 1013 60 10000 3.18 42 21:28 27.01.2022
4109 Clouds 11 1013 60 10000 3.14 50 20:25 27.01.2022
4110 Rain 11 1039 62 10000 4.12 60 18:26 27.01.2022
4111 Clouds 10 1040 66 10000 4.12 60 17:34 27.01.2022
4112 Rain 5 1040 87 5000 3.09 60 14:42 27.01.2022
4113 Mist 4 1039 100 4000 3.09 60 13:26 27.01.2022
4114 Rain 4 1038 100 3000 3.09 60 12:39 27.01.2022
4115 Rain 7 1016 84 10000 1.78 73 10:23 27.01.2022
4116 Rain 7 1016 85 10000 1.99 85 08:52 27.01.2022
4117 Clouds 7 1016 85 10000 1.99 85 08:30 27.01.2022
4118 Rain 8 1016 81 9973 2.07 60 05:49 27.01.2022
4119 Clouds 9 1015 79 10000 1.81 64 01:46 27.01.2022
4120 Clouds 10 1013 72 10000 1.14 23 22:44 26.01.2022
4121 Clouds 10 1012 68 10000 0.44 94 21:55 26.01.2022
4122 Clouds 10 1012 68 10000 0.44 94 21:31 26.01.2022
4123 Clouds 12 1011 61 9892 1.09 103 20:35 26.01.2022
4124 Clouds 12 1011 60 7106 2.35 99 19:54 26.01.2022
4125 Clouds 12 1012 62 8243 3.02 86 19:19 26.01.2022
4126 Clouds 13 1036 58 10000 3.09 60 18:26 26.01.2022
4127 Clouds 12 1037 67 10000 4.12 60 17:49 26.01.2022
4128 Clouds 12 1037 67 10000 4.12 60 17:21 26.01.2022
4129 Clouds 12 1038 71 10000 4.12 60 16:27 26.01.2022
4130 Clouds 10 1039 71 10000 4.12 20 15:47 26.01.2022
4131 Clouds 7 1038 81 10000 0 0 13:24 26.01.2022
4132 Clouds 6 1036 93 10000 0 0 11:40 26.01.2022
4133 Clouds 7 1015 87 10000 1.12 67 10:20 26.01.2022
4134 Clouds 7 1015 87 10000 1.12 67 09:43 26.01.2022
4135 Clouds 7 1014 86 10000 1.47 61 07:32 26.01.2022
4136 Clouds 9 1015 73 10000 1.53 198 01:53 26.01.2022
4137 Clouds 10 1013 68 10000 2.16 55 23:54 25.01.2022
4138 Clouds 11 1011 62 10000 4.07 59 22:50 25.01.2022
4139 Clouds 12 1011 59 10000 4.8 53 22:21 25.01.2022
4140 Clouds 12 1011 59 10000 4.8 53 21:41 25.01.2022
4141 Clouds 12 1011 57 10000 5.14 44 20:46 25.01.2022
4142 Clouds 13 1011 53 10000 5.97 35 20:22 25.01.2022
4143 Clouds 13 1011 53 10000 5.97 35 19:46 25.01.2022
4144 Clouds 13 1036 67 10000 5.14 60 18:24 25.01.2022
4145 Clouds 12 1037 71 10000 3.09 60 17:42 25.01.2022
4146 Clouds 11 1038 76 10000 3.09 60 16:35 25.01.2022
4147 Clouds 10 1038 71 10000 0 0 15:47 25.01.2022
4148 Clouds 10 1038 71 10000 0 0 15:28 25.01.2022
4149 Clouds 7 1039 81 10000 0 0 14:57 25.01.2022
4150 Clouds 6 1039 87 10000 2.06 60 13:40 25.01.2022
4151 Clouds 7 1016 86 10000 2.28 53 10:39 25.01.2022
4152 Clouds 7 1015 84 9544 1.69 56 08:34 25.01.2022
4153 Clouds 7 1015 85 10000 1.73 56 07:28 25.01.2022
4154 Clouds 8 1016 81 10000 1.64 56 06:29 25.01.2022
4155 Clouds 8 1016 82 10000 1.34 65 04:22 25.01.2022
4156 Clouds 9 1013 72 10000 3.06 37 23:37 24.01.2022
4157 Clouds 9 1013 69 10000 3.63 38 23:18 24.01.2022
4158 Clouds 9 1013 69 10000 3.63 38 22:59 24.01.2022
4159 Clouds 9 1013 69 10000 3.63 38 22:41 24.01.2022
4160 Clouds 10 1012 66 10000 4.73 43 21:52 24.01.2022
4161 Clouds 11 1012 61 10000 5.68 39 21:28 24.01.2022
4162 Clouds 12 1012 59 10000 5.42 31 20:29 24.01.2022
4163 Clouds 12 1012 59 10000 5.42 31 19:39 24.01.2022
4164 Clouds 12 1012 59 5326 4.73 20 19:20 24.01.2022
4165 Clouds 9 1039 76 10000 3.09 60 17:45 24.01.2022
4166 Clouds 9 1039 76 10000 3.09 60 17:23 24.01.2022
4167 Clouds 8 1040 81 10000 4.12 60 16:41 24.01.2022
4168 Clouds 8 1040 81 10000 4.12 60 16:18 24.01.2022
4169 Clouds 4 1041 93 5000 3.09 60 14:35 24.01.2022
4170 Clouds 3 1039 100 3000 2.06 60 12:40 24.01.2022
4171 Clouds 3 1039 100 3000 2.06 60 12:22 24.01.2022
4172 Rain 7 1015 83 10000 1.16 342 10:27 24.01.2022
4173 Clouds 7 1015 83 10000 1.16 342 09:48 24.01.2022
4174 Clouds 7 1015 84 10000 1.48 329 08:34 24.01.2022
4175 Clouds 7 1016 84 10000 2.39 16 06:19 24.01.2022
4176 Clouds 9 1014 77 10000 2.94 57 01:30 24.01.2022
4177 Rain 8 1014 79 10000 2.38 356 00:35 24.01.2022
4178 Clouds 9 1013 75 10000 0.7 15 23:52 23.01.2022
4179 Clouds 9 1012 75 10000 1.43 261 22:32 23.01.2022
4180 Clouds 10 1011 72 10000 3.67 304 21:49 23.01.2022
4181 Clouds 11 1011 63 6101 2.48 360 21:25 23.01.2022
4182 Clouds 11 1011 63 6101 2.48 360 20:44 23.01.2022
4183 Clouds 12 1011 57 2432 3.07 33 19:52 23.01.2022
4184 Clouds 12 1011 56 10000 2.45 33 18:52 23.01.2022
4185 Clouds 11 1013 59 10000 2.33 19 17:49 23.01.2022
4186 Clouds 10 1014 60 10000 1.92 18 16:47 23.01.2022
4187 Clouds 7 1017 72 10000 0.29 54 15:00 23.01.2022
4188 Clouds 5 1019 84 10000 1.37 199 14:25 23.01.2022
4189 Clouds 4 1020 90 2093 1.29 63 13:22 23.01.2022
4190 Clouds 6 1018 86 10000 0.5 79 12:36 23.01.2022
4191 Clouds 5 1017 90 5736 1.84 59 12:18 23.01.2022
4192 Clouds 6 1016 88 8003 1.33 68 11:23 23.01.2022
4193 Clouds 6 1015 86 10000 1.79 77 10:28 23.01.2022
4194 Clouds 6 1015 86 10000 1.79 77 09:51 23.01.2022
4195 Clouds 7 1014 87 9609 1.59 49 08:59 23.01.2022
4196 Clouds 7 1015 87 10000 1.08 21 05:58 23.01.2022
4197 Clouds 7 1015 83 10000 1.71 43 01:53 23.01.2022
4198 Clouds 7 1015 83 10000 1.71 43 01:33 23.01.2022
4199 Clouds 8 1013 78 9344 1.22 165 00:23 23.01.2022
4200 Clouds 8 1013 78 9344 1.22 165 23:57 22.01.2022
4201 Rain 8 1011 75 10000 1.03 333 22:46 22.01.2022
4202 Rain 8 1011 77 10000 2.12 86 21:38 22.01.2022
4203 Rain 11 1010 63 10000 3.63 74 20:23 22.01.2022
4204 Clouds 13 1009 51 10000 1.87 59 19:21 22.01.2022
4205 Clouds 13 1010 50 10000 1.5 42 18:25 22.01.2022
4206 Clouds 13 1010 50 10000 1.5 42 17:41 22.01.2022
4207 Clouds 13 1011 51 10000 1.12 359 16:56 22.01.2022
4208 Clouds 12 1012 54 10000 1.55 330 15:53 22.01.2022
4209 Rain 12 1012 54 10000 1.55 330 15:32 22.01.2022
4210 Rain 9 1014 64 10000 1.42 314 13:59 22.01.2022
4211 Clouds 8 1015 70 10000 1.04 311 12:55 22.01.2022
4212 Clouds 8 1015 71 10000 1.44 333 12:30 22.01.2022
4213 Clouds 7 1016 76 10000 0.75 334 11:49 22.01.2022
4214 Clouds 6 1015 82 10000 1.08 327 10:38 22.01.2022
4215 Clouds 6 1014 81 10000 0.9 343 10:19 22.01.2022
4216 Clouds 6 1014 80 10000 0.94 332 08:54 22.01.2022
4217 Clouds 7 1014 79 10000 1.24 342 08:27 22.01.2022
4218 Clouds 6 1016 84 10000 1.63 319 05:20 22.01.2022
4219 Clouds 8 1015 77 10000 2.29 318 01:58 22.01.2022
4220 Clouds 10 1010 66 10000 3.02 42 23:49 21.01.2022
4221 Clouds 11 1009 62 10000 3.29 65 22:44 21.01.2022
4222 Clouds 12 1010 58 4145 2.77 104 20:45 21.01.2022
4223 Clouds 13 1035 62 10000 5.14 60 18:41 21.01.2022
4224 Clouds 12 1036 67 10000 4.12 60 17:45 21.01.2022
4225 Clouds 10 1038 76 10000 3.09 240 15:48 21.01.2022
4226 Clouds 8 1038 76 10000 2.06 240 14:37 21.01.2022
4227 Clouds 4 1038 93 10000 0 0 12:42 21.01.2022
4228 Clouds 3 1038 100 7000 0 0 11:29 21.01.2022
4229 Clouds 6 1016 85 10000 0.64 26 10:27 21.01.2022
4230 Clouds 7 1016 84 10000 0.84 5 08:50 21.01.2022
4231 Clouds 7 1016 83 10000 1.09 10 07:37 21.01.2022
4232 Clouds 9 1016 71 10000 2.56 39 01:48 21.01.2022
4233 Clouds 11 1013 57 10000 5.66 47 22:47 20.01.2022
4234 Clouds 13 1012 49 10000 6.95 57 21:48 20.01.2022
4235 Clouds 14 1011 45 10000 6 63 21:24 20.01.2022
4236 Clouds 14 1012 42 10000 5.58 53 19:46 20.01.2022
4237 Clouds 13 1013 46 10000 5.2 46 19:18 20.01.2022
4238 Clouds 11 1041 66 10000 5.14 60 17:37 20.01.2022
4239 Clouds 9 1042 71 10000 4.12 60 15:59 20.01.2022
4240 Clouds 9 1042 71 10000 4.12 60 15:29 20.01.2022
4241 Clouds 8 1042 81 10000 4.12 60 14:19 20.01.2022
4242 Clouds 5 1042 87 10000 0 0 12:48 20.01.2022
4243 Clouds 5 1042 87 10000 0 0 12:27 20.01.2022
4244 Clouds 6 1019 86 10000 1.71 63 10:59 20.01.2022
4245 Clouds 6 1019 88 10000 1.67 68 09:50 20.01.2022
4246 Rain 6 1019 89 10000 1.79 71 08:45 20.01.2022
4247 Rain 7 1018 87 10000 1.95 57 06:49 20.01.2022
4248 Clouds 9 1017 76 9371 2.14 45 00:30 20.01.2022
4249 Clouds 10 1014 67 10000 3.39 63 22:38 19.01.2022
4250 Clouds 11 1014 62 10000 3.8 62 21:34 19.01.2022
4251 Clouds 12 1013 57 10000 3.74 58 20:56 19.01.2022
4252 Clouds 12 1013 57 10000 3.74 58 20:30 19.01.2022
4253 Clouds 14 1040 63 10000 4.12 60 18:52 19.01.2022
4254 Rain 13 1041 62 10000 5.14 60 17:51 19.01.2022
4255 Rain 13 1041 62 10000 5.14 60 17:18 19.01.2022
4256 Rain 13 1041 62 10000 5.14 60 17:18 19.01.2022
4257 Rain 13 1041 62 10000 5.14 60 17:18 19.01.2022
4258 Rain 13 1041 62 10000 5.14 60 17:18 19.01.2022
4259 Clouds 9 1042 76 10000 4.12 60 15:32 19.01.2022
4260 Clouds 8 1041 81 10000 2.06 60 13:26 19.01.2022
4261 Clouds 7 1019 81 10000 1.19 79 11:59 19.01.2022
4262 Clouds 7 1019 81 10000 1.19 79 11:38 19.01.2022
4263 Clouds 7 1017 79 10000 0.94 67 09:36 19.01.2022
4264 Clouds 7 1017 77 10000 0.61 103 08:38 19.01.2022
4265 Rain 6 1019 87 10000 1.39 308 05:29 19.01.2022
4266 Rain 5 1019 91 10000 2.05 281 00:22 19.01.2022
4267 Rain 5 1018 93 1619 1.56 294 23:18 18.01.2022
4268 Rain 7 1015 83 5053 4.31 290 21:50 18.01.2022
4269 Rain 10 1011 66 8244 0.6 191 20:38 18.01.2022
4270 Rain 11 1011 63 10000 2.44 91 19:51 18.01.2022
4271 Rain 10 1012 70 9986 2.47 84 19:33 18.01.2022
4272 Thunderstorm 11 1036 66 10000 6.17 60 18:25 18.01.2022
4273 Thunderstorm 13 1035 58 10000 5.14 60 17:33 18.01.2022
4274 Clouds 12 1036 62 10000 0 0 16:22 18.01.2022
4275 Clouds 12 1037 67 10000 0 0 15:25 18.01.2022
4276 Clouds 9 1038 76 10000 0 0 14:34 18.01.2022
4277 Clouds 4 1036 100 10000 0 0 11:52 18.01.2022
4278 Clouds 8 1015 73 10000 0.68 70 10:30 18.01.2022
4279 Rain 8 1013 71 10000 0.92 197 08:36 18.01.2022
4280 Rain 8 1013 72 10000 1.16 227 07:45 18.01.2022
4281 Rain 8 1013 72 10000 1.16 227 07:45 18.01.2022
4282 Clouds 7 1015 78 10000 1.86 76 01:34 18.01.2022
4283 Clouds 5 1013 88 10000 3.63 287 23:22 17.01.2022
4284 Rain 7 1013 85 1168 2.63 269 21:58 17.01.2022
4285 Rain 7 1013 85 1168 2.63 269 21:31 17.01.2022
4286 Rain 13 1008 55 5036 4.46 69 19:42 17.01.2022
4287 Clouds 15 1034 55 10000 4.12 60 18:27 17.01.2022
4288 Clouds 12 1034 71 10000 3.09 60 17:22 17.01.2022
4289 Clouds 13 1035 72 10000 3.09 60 16:24 17.01.2022
4290 Clouds 9 1036 76 10000 1.54 240 14:58 17.01.2022
4291 Clouds 9 1036 76 10000 1.54 240 14:33 17.01.2022
4292 Clouds 6 1035 87 10000 1.54 240 13:19 17.01.2022
4293 Clouds 5 1035 87 10000 0 0 12:52 17.01.2022
4294 Clouds 4 1034 100 10000 0 0 11:47 17.01.2022
4295 Clouds 8 1012 73 10000 1.05 273 10:21 17.01.2022
4296 Clouds 8 1012 73 10000 0.76 221 08:44 17.01.2022
4297 Clouds 8 1013 76 10000 0.27 188 07:22 17.01.2022
4298 Clouds 7 1015 79 10000 1.09 157 02:20 17.01.2022
4299 Clouds 7 1015 80 10000 2.36 79 00:53 17.01.2022
4300 Rain 7 1014 83 8485 2.89 108 21:26 16.01.2022
4301 Rain 7 1014 83 8485 2.89 108 20:30 16.01.2022
4302 Clouds 13 1010 54 10000 3.04 336 18:48 16.01.2022
4303 Clouds 15 1009 40 10000 1.06 9 17:55 16.01.2022
4304 Clouds 15 1010 40 10000 1.84 20 16:56 16.01.2022
4305 Clouds 14 1012 43 10000 1.61 342 15:50 16.01.2022
4306 Clouds 12 1013 47 10000 1.57 325 14:30 16.01.2022
4307 Clouds 11 1014 53 10000 1.62 314 13:34 16.01.2022
4308 Clouds 8 1015 68 10000 1.36 294 12:27 16.01.2022
4309 Clouds 8 1015 68 10000 1.36 294 11:38 16.01.2022
4310 Clouds 7 1015 78 10000 1.08 282 10:46 16.01.2022
4311 Clouds 7 1015 80 10000 0.98 279 09:59 16.01.2022
4312 Clouds 7 1015 80 10000 0.98 279 09:40 16.01.2022
4313 Clouds 7 1015 82 10000 1.3 282 09:21 16.01.2022
4314 Clouds 7 1015 83 10000 1.65 318 07:23 16.01.2022
4315 Clouds 9 1015 73 10000 1.7 80 00:36 16.01.2022
4316 Clouds 11 1012 62 10000 4.1 59 23:22 15.01.2022
4317 Rain 11 1013 60 5761 1.45 28 21:23 15.01.2022
4318 Clouds 11 1013 60 5761 1.45 28 20:48 15.01.2022
4319 Clouds 12 1013 54 10000 4.08 23 20:29 15.01.2022
4320 Clouds 14 1011 40 10000 3.66 14 19:27 15.01.2022
4321 Clouds 14 1013 38 10000 2.51 33 18:23 15.01.2022
4322 Clouds 13 1014 41 10000 2.66 4 16:49 15.01.2022
4323 Clear 10 1017 51 10000 2.32 356 14:48 15.01.2022
4324 Clouds 7 1019 65 10000 1.54 357 13:29 15.01.2022
4325 Clouds 6 1019 73 10000 1.25 283 11:32 15.01.2022
4326 Clouds 5 1019 83 10000 1.21 331 09:46 15.01.2022
4327 Clouds 6 1019 72 10000 2.19 9 05:18 15.01.2022
4328 Clouds 8 1016 63 10000 3.47 90 23:32 14.01.2022
4329 Clouds 13 1012 33 10000 7.1 114 21:19 14.01.2022
4330 Clouds 13 1012 33 10000 7.1 114 20:37 14.01.2022
4331 Clouds 13 1012 30 10000 6.07 117 19:55 14.01.2022
4332 Clouds 13 1014 30 10000 6.49 104 18:42 14.01.2022
4333 Clouds 10 1038 58 10000 4.12 60 17:52 14.01.2022
4334 Clouds 8 1040 66 10000 2.57 60 16:43 14.01.2022
4335 Clouds 8 1040 71 10000 4.12 60 15:33 14.01.2022
4336 Clouds 7 1041 71 10000 0 0 14:28 14.01.2022
4337 Clouds 1 1040 87 10000 0 0 12:59 14.01.2022
4338 Clouds 1 1040 93 10000 0 0 11:53 14.01.2022
4339 Clouds 4 1020 79 10000 1.44 122 10:40 14.01.2022
4340 Clouds 4 1019 77 10000 1.46 114 08:53 14.01.2022
4341 Clouds 5 1019 77 10000 1.31 105 07:32 14.01.2022
4342 Clear 6 1019 67 10000 2.35 66 02:28 14.01.2022
4343 Clouds 7 1018 66 10000 3.25 96 00:33 14.01.2022
4344 Clouds 9 1017 58 10000 4.7 124 21:52 13.01.2022
4345 Clouds 11 1015 45 10000 6.48 118 21:29 13.01.2022
4346 Clouds 12 1015 37 10000 7.76 113 19:58 13.01.2022
4347 Clouds 12 1016 35 10000 7.37 115 19:29 13.01.2022
4348 Clouds 13 1040 54 10000 4.12 60 18:49 13.01.2022
4349 Clouds 9 1042 66 10000 0 0 16:57 13.01.2022
4350 Clouds 8 1042 66 10000 0 0 15:45 13.01.2022
4351 Clouds 8 1042 66 10000 0 0 15:26 13.01.2022
4352 Clouds 5 1042 81 10000 0 0 13:36 13.01.2022
4353 Clouds 0 1042 93 10000 0 0 11:38 13.01.2022
4354 Clear 4 1021 80 10000 1.78 159 09:24 13.01.2022
4355 Clear 4 1021 80 10000 1.78 159 08:52 13.01.2022
4356 Clear 4 1021 81 10000 2.05 140 08:18 13.01.2022
4357 Clouds 5 1021 80 10000 2.16 132 07:20 13.01.2022
4358 Clouds 6 1021 76 10000 2.85 123 05:21 13.01.2022
4359 Clouds 6 1021 76 10000 2.85 123 04:55 13.01.2022
4360 Clouds 8 1019 61 10000 3.44 112 01:41 13.01.2022
4361 Clouds 8 1018 67 10000 3.8 101 23:54 12.01.2022
4362 Clouds 8 1018 67 10000 3.8 101 23:34 12.01.2022
4363 Clouds 9 1017 57 10000 5.59 102 22:49 12.01.2022
4364 Clouds 11 1016 46 10000 6.54 110 21:54 12.01.2022
4365 Clouds 11 1016 47 10000 7.24 115 21:21 12.01.2022
4366 Clouds 11 1016 47 10000 7.24 115 20:53 12.01.2022
4367 Clouds 12 1017 47 10000 7.77 118 19:28 12.01.2022
4368 Clouds 11 1018 62 10000 3.09 20 18:28 12.01.2022
4369 Clouds 8 1042 81 10000 2.57 60 16:59 12.01.2022
4370 Clouds 7 1042 81 10000 1.54 40 15:58 12.01.2022
4371 Clouds 7 1042 76 10000 1.54 40 14:47 12.01.2022
4372 Clouds 4 1041 93 10000 0 0 12:58 12.01.2022
4373 Clouds 4 1041 93 10000 0 0 12:58 12.01.2022
4374 Clouds 6 1019 81 10000 2.26 108 09:59 12.01.2022
4375 Clouds 6 1019 83 10000 2.14 109 08:36 12.01.2022
4376 Clouds 6 1019 83 10000 2.52 111 07:34 12.01.2022
4377 Clouds 6 1019 88 10000 2.3 106 06:21 12.01.2022
4378 Clouds 9 1016 72 10000 3.1 109 23:30 11.01.2022
4379 Clouds 10 1015 69 10000 3.4 108 22:49 11.01.2022
4380 Clouds 10 1014 66 10000 3.8 103 22:21 11.01.2022
4381 Clouds 11 1013 59 10000 3.48 100 20:51 11.01.2022
4382 Clouds 11 1014 59 10000 3.11 108 19:45 11.01.2022
4383 Clouds 10 1039 82 10000 5.14 20 18:31 11.01.2022
4384 Clouds 10 1039 76 10000 5.14 60 17:19 11.01.2022
4385 Clouds 9 1040 81 10000 3.09 60 16:37 11.01.2022
4386 Clouds 8 1040 81 10000 0 0 15:34 11.01.2022
4387 Clouds 9 1041 76 10000 0 0 14:41 11.01.2022
4388 Clouds 6 1040 87 10000 0 0 13:54 11.01.2022
4389 Clouds 6 1040 87 10000 0 0 13:32 11.01.2022
4390 Clouds 5 1039 93 10000 0 0 12:41 11.01.2022
4391 Clouds 7 1017 83 10000 2.01 106 10:59 11.01.2022
4392 Clouds 7 1016 85 10000 1.58 79 09:28 11.01.2022
4393 Clouds 7 1016 85 10000 1.57 74 06:36 11.01.2022
4394 Clouds 9 1016 75 10000 3.04 57 00:30 11.01.2022
4395 Clouds 9 1014 69 10000 3.29 65 23:41 10.01.2022
4396 Clouds 11 1012 61 10000 4.5 67 22:51 10.01.2022
4397 Clouds 12 1011 55 10000 3.96 63 22:19 10.01.2022
4398 Clouds 12 1011 55 10000 3.96 63 21:52 10.01.2022
4399 Clouds 12 1011 56 10000 3.86 60 21:19 10.01.2022
4400 Clouds 12 1011 56 10000 3.86 60 20:56 10.01.2022
4401 Clouds 12 1013 57 10000 4.33 56 20:27 10.01.2022
4402 Clouds 12 1013 57 10000 4.33 56 19:41 10.01.2022
4403 Clouds 11 1014 63 7311 3.11 76 19:20 10.01.2022
4404 Clouds 12 1038 67 10000 5.14 60 18:48 10.01.2022
4405 Clouds 12 1039 67 10000 4.12 60 17:40 10.01.2022
4406 Clouds 11 1040 76 10000 4.12 60 16:41 10.01.2022
4407 Clouds 9 1041 81 10000 4.12 60 15:45 10.01.2022
4408 Clouds 8 1041 81 10000 4.12 60 14:26 10.01.2022
4409 Clouds 4 1038 87 10000 5.14 240 11:58 10.01.2022
4410 Clouds 4 1038 87 10000 5.14 240 11:25 10.01.2022
4411 Clouds 7 1016 87 10000 1.5 49 09:50 10.01.2022
4412 Rain 7 1016 84 9333 2.19 55 07:18 10.01.2022
4413 Clouds 8 1016 81 10000 1.95 50 05:49 10.01.2022
4414 Clouds 8 1016 81 10000 1.95 50 05:49 10.01.2022
4415 Clouds 9 1015 75 7995 2.4 44 01:30 10.01.2022
4416 Rain 10 1012 67 8455 2.98 62 00:25 10.01.2022
4417 Clouds 10 1012 67 8455 2.98 62 23:33 09.01.2022
4418 Clouds 11 1010 64 8037 3.39 66 22:38 09.01.2022
4419 Rain 12 1009 60 10000 3.77 73 21:46 09.01.2022
4420 Rain 13 1010 57 10000 3.48 73 21:23 09.01.2022
4421 Rain 13 1010 57 10000 3.48 73 20:52 09.01.2022
4422 Clouds 13 1010 57 10000 3.48 73 20:34 09.01.2022
4423 Clouds 13 1010 56 6778 3.98 56 19:45 09.01.2022
4424 Clouds 14 1011 51 10000 3.7 43 19:23 09.01.2022
4425 Clouds 14 1010 49 10000 3.62 51 18:56 09.01.2022
4426 Clouds 14 1010 49 10000 3.62 51 18:34 09.01.2022
4427 Clouds 14 1012 48 10000 1.98 33 17:45 09.01.2022
4428 Clouds 13 1013 49 10000 1.88 15 17:21 09.01.2022
4429 Clouds 12 1014 53 10000 1.75 2 15:59 09.01.2022
4430 Clouds 12 1014 53 10000 1.75 2 15:36 09.01.2022
4431 Clouds 10 1016 59 10000 1.75 360 14:41 09.01.2022
4432 Clouds 9 1017 67 10000 1.7 357 13:56 09.01.2022
4433 Clouds 9 1017 67 10000 1.7 357 13:36 09.01.2022
4434 Clouds 7 1018 82 10000 1.16 21 11:56 09.01.2022
4435 Clouds 6 1018 86 10000 1 38 11:19 09.01.2022
4436 Clouds 6 1017 85 10000 1.23 48 09:51 09.01.2022
4437 Clouds 7 1016 83 10000 1.85 47 08:54 09.01.2022
4438 Clouds 8 1017 81 10000 1.47 44 05:54 09.01.2022
4439 Clouds 9 1015 75 10000 2.81 48 01:26 09.01.2022
4440 Clouds 10 1014 67 10000 3.51 32 00:37 09.01.2022
4441 Clouds 11 1011 65 10000 4.7 51 23:27 08.01.2022
4442 Clouds 11 1011 65 10000 4.7 51 22:35 08.01.2022
4443 Clouds 12 1011 60 9540 3.91 69 21:27 08.01.2022
4444 Clouds 12 1011 60 9540 3.91 69 20:43 08.01.2022
4445 Clouds 13 1011 55 10000 4.46 74 20:21 08.01.2022
4446 Clouds 13 1011 53 10000 4.06 60 18:46 08.01.2022
4447 Clouds 12 1013 55 8985 3.38 36 17:24 08.01.2022
4448 Clouds 12 1013 55 8985 3.38 36 16:40 08.01.2022
4449 Clouds 10 1016 64 10000 2.73 43 14:52 08.01.2022
4450 Clouds 9 1016 69 10000 2.24 47 13:56 08.01.2022
4451 Clouds 7 1018 81 10000 1.18 65 11:30 08.01.2022
4452 Clouds 7 1017 82 10000 1.89 24 10:33 08.01.2022
4453 Clouds 7 1016 81 10000 1.56 37 09:57 08.01.2022
4454 Clouds 7 1016 81 10000 1.56 37 09:30 08.01.2022
4455 Rain 8 1017 80 10000 2 43 05:39 08.01.2022
4456 Rain 9 1016 77 5423 0.53 227 00:59 08.01.2022
4457 Rain 10 1013 69 8674 2.05 52 23:30 07.01.2022
4458 Clouds 12 1010 64 5028 3.4 61 21:46 07.01.2022
4459 Clouds 13 1010 57 10000 3.6 81 20:26 07.01.2022
4460 Clouds 13 1011 55 10000 3.06 103 19:26 07.01.2022
4461 Clouds 13 1035 62 10000 7.72 60 18:46 07.01.2022
4462 Clouds 13 1035 62 10000 7.72 60 18:18 07.01.2022
4463 Clouds 13 1035 67 10000 5.14 60 17:23 07.01.2022
4464 Clouds 11 1037 66 10000 4.12 60 14:55 07.01.2022
4465 Clouds 8 1037 87 10000 0 0 13:52 07.01.2022
4466 Clouds 6 1037 93 8000 1.54 60 12:51 07.01.2022
4467 Clouds 8 1015 75 10000 1.63 2 10:21 07.01.2022
4468 Clouds 8 1016 77 10000 2.38 56 02:59 07.01.2022
4469 Clouds 8 1016 77 10000 2.38 56 02:59 07.01.2022
4470 Clouds 9 1015 76 10000 2.75 51 02:22 07.01.2022
4471 Clouds 9 1015 76 10000 2.75 51 01:48 07.01.2022
4472 Clouds 9 1013 74 10000 3.05 52 01:25 07.01.2022
4473 Clouds 9 1014 75 10000 2.67 53 00:30 07.01.2022
4474 Clouds 11 1010 61 10000 3.44 65 22:33 06.01.2022
4475 Clouds 13 1010 52 10000 3.75 81 20:43 06.01.2022
4476 Clouds 13 1010 49 10000 3.78 77 19:58 06.01.2022
4477 Clouds 13 1010 49 10000 3.78 77 19:36 06.01.2022
4478 Clouds 11 1036 76 10000 4.12 60 17:51 06.01.2022
4479 Clouds 11 1036 76 10000 4.12 60 17:23 06.01.2022
4480 Clouds 9 1037 87 10000 4.12 60 16:32 06.01.2022
4481 Clouds 9 1037 81 10000 4.12 60 15:44 06.01.2022
4482 Clouds 9 1037 81 10000 4.12 60 15:21 06.01.2022
4483 Clouds 7 1037 81 10000 1.54 60 14:20 06.01.2022
4484 Clouds 5 1036 93 6000 4.12 60 13:39 06.01.2022
4485 Clouds 5 1036 87 8000 3.09 60 12:20 06.01.2022
4486 Clouds 5 1036 87 6000 1.54 60 11:30 06.01.2022
4487 Clouds 5 1018 82 10000 1.56 351 10:50 06.01.2022
4488 Clouds 6 1017 80 10000 1.67 24 06:38 06.01.2022
4489 Clouds 9 1015 71 10000 3.9 40 00:34 06.01.2022
4490 Clouds 9 1013 69 10000 4.29 40 23:33 05.01.2022
4491 Clouds 10 1012 66 10000 4.46 53 22:48 05.01.2022
4492 Clouds 11 1010 64 10000 4.4 57 22:26 05.01.2022
4493 Clouds 11 1010 62 10000 4.1 72 21:28 05.01.2022
4494 Clouds 11 1010 62 10000 4.1 72 20:44 05.01.2022
4495 Clouds 11 1010 59 10000 3.73 73 19:42 05.01.2022
4496 Rain 11 1034 71 10000 7.72 60 18:22 05.01.2022
4497 Clouds 9 1036 76 10000 6.17 60 16:57 05.01.2022
4498 Rain 9 1036 76 10000 6.17 60 16:21 05.01.2022
4499 Clouds 7 1036 87 10000 4.12 60 15:20 05.01.2022
4500 Clouds 8 1036 81 10000 1.54 60 13:35 05.01.2022
4501 Clouds 6 1035 87 10000 3.09 60 12:30 05.01.2022
4502 Clouds 7 1014 78 10000 1.71 85 08:47 05.01.2022
4503 Clouds 7 1014 78 10000 1.46 142 07:19 05.01.2022
4504 Clouds 8 1014 80 10000 1.55 122 01:58 05.01.2022
4505 Clouds 10 1009 63 10000 4.47 61 23:44 04.01.2022
4506 Clouds 12 1007 51 10000 2.75 47 23:26 04.01.2022
4507 Clouds 11 1008 54 10000 0.72 157 22:19 04.01.2022
4508 Clouds 9 1011 69 10000 2.51 55 20:46 04.01.2022
4509 Clouds 14 1033 51 10000 7.72 60 18:46 04.01.2022
4510 Clouds 14 1034 55 10000 6.17 60 17:37 04.01.2022
4511 Clouds 12 1035 67 10000 5.14 60 16:39 04.01.2022
4512 Clouds 12 1035 67 10000 5.14 60 16:20 04.01.2022
4513 Clouds 10 1035 76 10000 1.54 60 14:46 04.01.2022
4514 Clouds 10 1035 76 10000 1.54 60 14:23 04.01.2022
4515 Clouds 8 1035 81 10000 2.57 60 13:26 04.01.2022
4516 Clouds 6 1015 79 10000 1 282 10:29 04.01.2022
4517 Clouds 6 1015 79 10000 1.11 287 08:59 04.01.2022
4518 Clouds 7 1016 79 10000 1.15 342 06:46 04.01.2022
4519 Clouds 6 1018 84 10000 2.35 34 01:19 04.01.2022
4520 Clouds 6 1018 84 10000 2.35 34 00:40 04.01.2022
4521 Clouds 6 1017 81 10000 1.93 274 22:41 03.01.2022
4522 Clouds 8 1015 76 10000 4.67 14 21:41 03.01.2022
4523 Clouds 9 1014 68 10000 3.29 348 21:23 03.01.2022
4524 Clouds 9 1014 71 10000 3.16 25 19:46 03.01.2022
4525 Clouds 13 1038 44 10000 6.17 60 18:33 03.01.2022
4526 Clouds 14 1039 47 10000 5.14 180 17:40 03.01.2022
4527 Clouds 14 1039 47 10000 5.14 180 17:40 03.01.2022
4528 Clouds 14 1039 41 10000 4.12 60 16:57 03.01.2022
4529 Clouds 10 1040 66 10000 1.54 240 14:55 03.01.2022
4530 Clouds 10 1040 66 10000 1.54 240 14:29 03.01.2022
4531 Clouds 5 1039 81 10000 0 0 12:35 03.01.2022
4532 Clouds 4 1039 81 10000 0 0 11:33 03.01.2022
4533 Clouds 9 1015 69 10000 0.7 13 10:25 03.01.2022
4534 Clouds 9 1014 68 10000 0.54 16 08:46 03.01.2022
4535 Clouds 9 1014 66 10000 0.5 27 07:32 03.01.2022
4536 Clouds 15 1007 37 10000 2.11 124 23:54 02.01.2022
4537 Clouds 17 1003 16 10000 5.79 201 23:18 02.01.2022
4538 Clouds 17 1003 16 10000 5.79 201 22:43 02.01.2022
4539 Clouds 18 1004 15 10000 2.53 169 21:38 02.01.2022
4540 Clouds 18 1005 16 10000 1.45 146 20:31 02.01.2022
4541 Clouds 18 1006 17 10000 2.02 78 19:52 02.01.2022
4542 Clouds 18 1007 16 10000 0.89 117 19:25 02.01.2022
4543 Clouds 18 1007 19 10000 2.87 82 18:33 02.01.2022
4544 Clear 18 1008 16 10000 0.82 179 17:43 02.01.2022
4545 Clear 17 1009 17 10000 1.37 227 17:21 02.01.2022
4546 Clear 17 1009 17 10000 1.37 227 16:33 02.01.2022
4547 Clear 16 1011 18 10000 1.7 224 15:51 02.01.2022
4548 Clear 14 1013 30 10000 2.04 261 14:19 02.01.2022
4549 Clear 12 1014 40 10000 1.65 274 12:34 02.01.2022
4550 Clear 10 1014 50 10000 1.36 269 11:57 02.01.2022
4551 Clear 8 1014 60 10000 1.42 274 11:20 02.01.2022
4552 Clear 8 1014 60 10000 1.42 274 10:37 02.01.2022
4553 Clear 9 1013 60 10000 1.53 281 08:27 02.01.2022
4554 Clear 10 1015 61 10000 1.77 49 03:25 02.01.2022
4555 Clouds 11 1012 53 10000 3.14 58 23:58 01.01.2022
4556 Clouds 11 1012 53 10000 3.14 58 23:39 01.01.2022
4557 Clouds 12 1010 48 10000 3.22 3 22:45 01.01.2022
4558 Clouds 13 1009 45 10000 2.35 7 22:19 01.01.2022
4559 Clouds 13 1009 45 10000 2.35 7 21:43 01.01.2022
4560 Clouds 11 1011 53 10000 2.71 64 20:53 01.01.2022
4561 Clouds 14 1010 40 10000 3.18 70 19:55 01.01.2022
4562 Clouds 17 1007 24 10000 2.1 127 18:58 01.01.2022
4563 Clear 18 1008 22 10000 0.61 82 17:57 01.01.2022
4564 Clear 17 1010 23 10000 0.38 214 16:37 01.01.2022
4565 Clear 16 1011 25 10000 0.97 239 16:19 01.01.2022
4566 Clear 15 1012 27 10000 1.46 251 15:22 01.01.2022
4567 Clear 13 1013 33 10000 1.96 256 13:42 01.01.2022
4568 Clouds 11 1014 41 10000 2.11 254 12:49 01.01.2022
4569 Clouds 9 1015 53 10000 0.91 236 11:51 01.01.2022
4570 Clouds 8 1015 65 10000 0.9 225 11:22 01.01.2022
4571 Clouds 9 1014 60 10000 1.54 272 10:26 01.01.2022
4572 Clouds 9 1014 60 10000 1.54 272 09:45 01.01.2022
4573 Rain 9 1015 58 10000 2.09 210 08:25 01.01.2022
4574 Clouds 9 1015 58 10000 2.09 210 07:44 01.01.2022
4575 Clouds 9 1015 65 10000 1 228 06:47 01.01.2022
4576 Clouds 9 1016 63 10000 1.24 304 05:26 01.01.2022
4577 Clouds 9 1016 63 10000 1.24 304 04:37 01.01.2022
4578 Clouds 10 1016 61 10000 2.51 308 01:59 01.01.2022
4579 Clouds 11 1013 55 10000 2.58 345 23:36 31.12.2021
4580 Clouds 12 1011 50 10000 2.66 42 21:53 31.12.2021
4581 Clouds 13 1010 48 10000 3.62 59 20:38 31.12.2021
4582 Clouds 14 1011 47 10000 4.87 73 19:30 31.12.2021
4583 Clouds 15 1011 43 10000 7.66 104 18:37 31.12.2021
4584 Clouds 14 1039 55 10000 4.12 60 17:40 31.12.2021
4585 Clouds 14 1039 55 10000 4.12 60 17:18 31.12.2021
4586 Clouds 13 1040 58 10000 4.12 60 16:38 31.12.2021
4587 Clouds 11 1040 66 10000 4.12 60 15:57 31.12.2021
4588 Clouds 11 1040 66 10000 4.12 60 15:29 31.12.2021
4589 Clouds 9 1040 62 10000 3.09 60 14:57 31.12.2021
4590 Clouds 9 1040 62 10000 3.09 60 14:30 31.12.2021
4591 Clear 8 1040 61 10000 0 0 13:36 31.12.2021
4592 Clear 4 1040 81 10000 0 0 12:49 31.12.2021
4593 Clear 2 1039 87 10000 0 0 11:52 31.12.2021
4594 Clear 2 1039 87 10000 0 0 11:33 31.12.2021
4595 Clear 7 1018 75 10000 1.69 106 10:38 31.12.2021
4596 Clear 7 1018 75 10000 1.69 106 10:38 31.12.2021
4597 Clear 7 1018 75 10000 1.69 106 10:38 31.12.2021
4598 Clear 7 1017 74 10000 1.66 104 10:20 31.12.2021
4599 Clear 7 1017 74 10000 1.66 104 09:33 31.12.2021
4600 Clear 7 1016 72 10000 1.88 108 08:43 31.12.2021
4601 Clear 8 1016 70 10000 1.79 109 07:32 31.12.2021
4602 Clouds 10 1014 56 10000 2.5 139 23:35 30.12.2021
4603 Clouds 9 1016 65 10000 1.3 93 22:38 30.12.2021
4604 Clouds 9 1016 66 10000 5.74 88 22:20 30.12.2021
4605 Clouds 9 1016 66 10000 5.74 88 21:37 30.12.2021
4606 Clouds 17 1008 27 10000 6.24 125 20:48 30.12.2021
4607 Clear 18 1008 23 10000 6.17 121 20:28 30.12.2021
4608 Clear 18 1008 23 10000 6.17 121 19:48 30.12.2021
4609 Clear 18 1010 24 10000 6.19 127 18:51 30.12.2021
4610 Clear 17 1011 25 10000 5.13 126 18:20 30.12.2021
4611 Clouds 14 1039 58 10000 3.09 60 16:34 30.12.2021
4612 Clear 12 1039 67 10000 1.54 200 15:52 30.12.2021
4613 Clear 8 1039 76 10000 3.09 240 14:49 30.12.2021
4614 Clear 8 1039 76 10000 3.09 240 14:30 30.12.2021
4615 Clear 7 1038 76 10000 3.09 240 13:24 30.12.2021
4616 Clear 2 1038 93 10000 0 0 11:35 30.12.2021
4617 Clear 7 1016 81 10000 0.97 241 10:27 30.12.2021
4618 Clear 7 1017 82 10000 0.97 250 09:27 30.12.2021
4619 Clouds 7 1017 82 10000 1.09 315 06:55 30.12.2021
4620 Clear 8 1018 79 10000 1.14 327 04:42 30.12.2021
4621 Clear 8 1018 77 10000 1.37 333 03:40 30.12.2021
4622 Clear 9 1017 71 10000 1.78 16 01:56 30.12.2021
4623 Clear 12 1013 55 10000 3.04 85 23:36 29.12.2021
4624 Clouds 13 1011 49 10000 3.58 87 22:33 29.12.2021
4625 Clouds 14 1010 47 10000 6.08 98 21:54 29.12.2021
4626 Clouds 15 1010 39 10000 6.36 118 20:56 29.12.2021
4627 Clouds 16 1011 39 10000 6.01 115 20:25 29.12.2021
4628 Clouds 16 1011 39 10000 6.01 115 19:31 29.12.2021
4629 Clouds 13 1039 62 10000 6.17 60 18:35 29.12.2021
4630 Clouds 13 1040 67 10000 5.14 40 17:41 29.12.2021
4631 Clouds 13 1040 67 10000 5.14 40 17:20 29.12.2021
4632 Clouds 13 1041 67 10000 0 0 16:21 29.12.2021
4633 Clouds 12 1041 71 10000 0 0 15:21 29.12.2021
4634 Clouds 6 1041 87 10000 0 0 12:57 29.12.2021
4635 Clouds 6 1041 87 10000 0 0 12:32 29.12.2021
4636 Clouds 5 1041 93 5000 0 0 11:23 29.12.2021
4637 Clouds 6 1018 86 10000 1.52 9 09:30 29.12.2021
4638 Clouds 7 1018 85 10000 1.91 13 07:30 29.12.2021
4639 Clouds 7 1018 83 10000 1.99 11 06:32 29.12.2021
4640 Clouds 7 1019 82 10000 2.15 27 05:56 29.12.2021
4641 Clouds 7 1020 81 10000 2.32 49 04:58 29.12.2021
4642 Clouds 8 1017 74 10000 2.75 42 00:43 29.12.2021
4643 Clouds 9 1016 69 10000 3.17 35 23:58 28.12.2021
4644 Clouds 10 1015 66 10000 3.19 36 22:57 28.12.2021
4645 Clouds 11 1014 61 10000 4.63 42 22:25 28.12.2021
4646 Clouds 11 1014 61 10000 4.63 42 22:25 28.12.2021
4647 Clouds 11 1014 61 10000 4.63 42 21:54 28.12.2021
4648 Clouds 11 1014 61 10000 4.63 42 21:35 28.12.2021
4649 Clouds 11 1015 55 10000 2.61 58 20:25 28.12.2021
4650 Clouds 11 1040 71 10000 5.14 60 18:54 28.12.2021
4651 Clouds 11 1040 71 10000 5.14 60 18:28 28.12.2021
4652 Clouds 9 1041 76 10000 5.14 40 17:39 28.12.2021
4653 Clouds 8 1041 81 10000 4.12 40 16:21 28.12.2021
4654 Clouds 7 1041 81 10000 3.09 40 15:41 28.12.2021
4655 Clouds 7 1020 73 10000 1.82 47 14:56 28.12.2021
4656 Clouds 7 1020 73 10000 1.82 47 14:56 28.12.2021
4657 Clouds 7 1020 73 10000 1.82 47 14:38 28.12.2021
4658 Clouds 7 1020 76 10000 1.79 53 14:19 28.12.2021
4659 Clouds 6 1040 87 10000 2.06 60 13:38 28.12.2021
4660 Clouds 6 1039 93 10000 0 0 12:56 28.12.2021
4661 Clouds 6 1039 93 10000 0 0 12:29 28.12.2021
4662 Clouds 5 1019 84 10000 1.84 79 10:51 28.12.2021
4663 Clouds 6 1017 81 10000 1.95 34 07:39 28.12.2021
4664 Clouds 6 1018 78 10000 1.91 56 06:40 28.12.2021
4665 Clouds 8 1016 77 10000 2.29 79 23:42 27.12.2021
4666 Clouds 8 1015 77 10000 2.54 92 22:31 27.12.2021
4667 Clouds 8 1015 77 10000 2.07 114 21:33 27.12.2021
4668 Clouds 9 1015 75 10000 1.94 122 20:45 27.12.2021
4669 Clouds 9 1016 71 10000 1.82 104 19:56 27.12.2021
4670 Clouds 9 1016 71 10000 1.82 104 19:38 27.12.2021
4671 Clouds 10 1039 71 10000 6.17 60 17:55 27.12.2021
4672 Clouds 10 1039 71 10000 6.17 60 17:37 27.12.2021
4673 Clouds 9 1040 76 10000 4.12 60 16:36 27.12.2021
4674 Clouds 8 1041 81 10000 3.09 60 15:51 27.12.2021
4675 Clouds 7 1041 81 10000 3.09 40 14:30 27.12.2021
4676 Clouds 5 1040 93 10000 2.06 60 13:38 27.12.2021
4677 Clouds 5 1038 93 7000 0 0 11:53 27.12.2021
4678 Clouds 5 1019 85 10000 0.45 27 10:29 27.12.2021
4679 Clouds 5 1019 85 10000 0.45 27 09:39 27.12.2021
4680 Clouds 6 1018 82 10000 1.14 46 07:35 27.12.2021
4681 Clouds 5 1019 85 10000 0.66 77 06:38 27.12.2021
4682 Clouds 6 1020 78 10000 1.84 100 01:59 27.12.2021
4683 Clouds 6 1018 82 10000 2.01 88 23:57 26.12.2021
4684 Clouds 6 1018 82 10000 2.01 88 23:34 26.12.2021
4685 Clouds 7 1017 85 10000 2.53 101 21:53 26.12.2021
4686 Clouds 7 1017 86 10000 2.39 98 20:54 26.12.2021
4687 Clouds 7 1018 85 8727 2.15 93 19:46 26.12.2021
4688 Clouds 6 1020 88 10000 0.88 87 18:23 26.12.2021
4689 Clouds 6 1021 89 10000 0.78 69 16:20 26.12.2021
4690 Clouds 6 1021 88 10000 0.92 90 14:27 26.12.2021
4691 Clouds 6 1021 88 10000 0.92 90 13:40 26.12.2021
4692 Clouds 6 1020 87 10000 1.02 93 13:19 26.12.2021
4693 Clouds 6 1021 86 4608 1.04 64 12:32 26.12.2021
4694 Clouds 5 1019 88 10000 1.52 109 10:32 26.12.2021
4695 Clouds 5 1019 88 9700 1.02 114 09:21 26.12.2021
4696 Clouds 5 1019 88 9700 1.02 114 08:44 26.12.2021
4697 Clouds 5 1019 88 4435 1.01 134 07:49 26.12.2021
4698 Clouds 4 1021 92 1783 3.1 175 01:27 26.12.2021
4699 Rain 5 1018 90 1737 4.25 186 23:54 25.12.2021
4700 Clouds 8 1013 80 4351 1.34 237 23:27 25.12.2021
4701 Clouds 11 1011 69 10000 3.1 49 22:26 25.12.2021
4702 Clouds 12 1010 64 10000 3.19 54 20:59 25.12.2021
4703 Clouds 11 1013 63 10000 3.07 47 19:26 25.12.2021
4704 Clouds 11 1013 63 10000 3.07 47 18:55 25.12.2021
4705 Clouds 12 1013 60 10000 3.67 24 17:38 25.12.2021
4706 Clouds 12 1014 58 7321 3.83 14 16:41 25.12.2021
4707 Clouds 10 1016 64 10000 3.06 7 15:24 25.12.2021
4708 Clouds 9 1017 71 10000 2.32 15 13:31 25.12.2021
4709 Clouds 7 1017 85 10000 1.49 37 11:53 25.12.2021
4710 Clouds 6 1016 89 10000 1.75 24 10:18 25.12.2021
4711 Clouds 6 1016 89 10000 1.75 24 09:42 25.12.2021
4712 Rain 9 1016 78 10000 2.79 38 04:36 25.12.2021
4713 Clouds 10 1013 74 10000 3.06 53 01:27 25.12.2021
4714 Clouds 11 1011 70 10000 3.69 61 23:48 24.12.2021
4715 Clouds 12 1009 61 10000 2.03 69 20:53 24.12.2021
4716 Clouds 12 1011 61 10000 3.45 69 19:25 24.12.2021
4717 Clouds 11 1036 66 10000 3.09 60 18:23 24.12.2021
4718 Clouds 10 1038 76 10000 0 0 16:30 24.12.2021
4719 Clouds 9 1038 81 10000 0 0 15:49 24.12.2021
4720 Clouds 9 1038 81 10000 0 0 15:20 24.12.2021
4721 Clouds 7 1037 87 10000 0 0 14:31 24.12.2021
4722 Clouds 6 1037 93 7000 3.09 60 13:45 24.12.2021
4723 Clouds 5 1036 93 6000 1.54 60 12:55 24.12.2021
4724 Clouds 5 1036 93 6000 1.54 60 12:35 24.12.2021
4725 Clouds 4 1036 100 5000 3.09 60 11:42 24.12.2021
4726 Clouds 4 1036 100 5000 3.09 60 11:19 24.12.2021
4727 Clouds 6 1017 90 10000 1.38 9 10:33 24.12.2021
4728 Clouds 6 1016 90 10000 1.14 342 08:40 24.12.2021
4729 Clouds 6 1016 89 10000 1.33 336 07:58 24.12.2021
4730 Clouds 7 1016 86 10000 1.31 357 06:44 24.12.2021
4731 Clouds 8 1016 79 10000 1.84 40 00:21 24.12.2021
4732 Clouds 8 1016 79 10000 1.84 40 23:39 23.12.2021
4733 Clouds 8 1015 78 10000 1.52 37 22:51 23.12.2021
4734 Clouds 8 1015 78 10000 0.97 37 22:24 23.12.2021
4735 Clouds 8 1015 78 10000 0.97 37 21:39 23.12.2021
4736 Clouds 7 1016 80 10000 0.99 40 20:30 23.12.2021
4737 Clouds 7 1017 83 10000 0.82 62 19:30 23.12.2021
4738 Clouds 9 1037 76 10000 6.17 60 18:18 23.12.2021
4739 Clouds 9 1039 81 10000 5.14 60 17:45 23.12.2021
4740 Clouds 9 1039 81 8000 5.14 60 16:27 23.12.2021
4741 Clouds 8 1040 87 6000 5.14 60 15:48 23.12.2021
4742 Clouds 8 1040 87 6000 5.14 60 15:30 23.12.2021
4743 Clouds 7 1039 87 6000 3.09 200 14:42 23.12.2021
4744 Mist 5 1038 93 3000 0 0 13:43 23.12.2021
4745 Fog 5 1036 100 800 2.06 60 11:52 23.12.2021
4746 Clouds 5 1017 91 10000 2.3 107 09:55 23.12.2021
4747 Clouds 5 1017 91 10000 2.3 107 09:34 23.12.2021
4748 Rain 6 1016 87 10000 2.27 92 08:38 23.12.2021
4749 Clouds 6 1017 91 10000 1.88 115 05:43 23.12.2021
4750 Clouds 6 1018 90 10000 0.86 96 02:56 23.12.2021
4751 Clouds 6 1016 90 10000 0.95 3 22:53 22.12.2021
4752 Clouds 6 1015 89 10000 0.43 14 22:22 22.12.2021
4753 Clouds 6 1015 89 10000 0.43 14 22:22 22.12.2021
4754 Clouds 6 1015 89 10000 0.43 14 21:48 22.12.2021
4755 Clouds 6 1015 90 10000 0.84 75 21:25 22.12.2021
4756 Clouds 6 1015 90 10000 0.84 75 20:41 22.12.2021
4757 Clouds 6 1015 90 9767 0.79 52 19:57 22.12.2021
4758 Clouds 8 1035 81 5000 6.17 60 18:56 22.12.2021
4759 Rain 6 1035 93 4000 7.72 60 17:38 22.12.2021
4760 Clouds 7 1036 87 5000 6.17 60 16:32 22.12.2021
4761 Clouds 7 1035 87 6000 6.17 60 15:21 22.12.2021
4762 Mist 6 1035 93 4000 1.54 200 12:59 22.12.2021
4763 Mist 5 1034 100 5000 0 0 11:58 22.12.2021
4764 Rain 7 1013 87 7254 2.23 96 09:53 22.12.2021
4765 Clouds 7 1012 85 10000 1.63 83 08:58 22.12.2021
4766 Clouds 8 1013 84 10000 1.46 80 07:21 22.12.2021
4767 Clouds 7 1014 85 10000 0.62 46 05:39 22.12.2021
4768 Clouds 8 1015 83 10000 0.99 50 05:20 22.12.2021
4769 Clouds 8 1015 83 10000 0.99 50 04:42 22.12.2021
4770 Clouds 8 1015 82 10000 1.2 69 03:56 22.12.2021
4771 Clouds 8 1015 82 10000 1.2 69 03:31 22.12.2021
4772 Clouds 10 1011 74 10000 2.88 55 23:57 21.12.2021
4773 Clouds 10 1010 72 10000 3.03 59 22:44 21.12.2021
4774 Clouds 11 1009 69 10000 3.19 74 22:24 21.12.2021
4775 Clouds 11 1009 69 10000 3.19 74 21:42 21.12.2021
4776 Rain 11 1009 66 10000 3.08 85 20:53 21.12.2021
4777 Clouds 11 1009 66 10000 2.25 91 20:20 21.12.2021
4778 Clouds 11 1009 66 10000 2.25 91 19:41 21.12.2021
4779 Clouds 11 1033 66 10000 5.14 60 18:36 21.12.2021
4780 Clouds 10 1034 71 10000 7.72 60 17:59 21.12.2021
4781 Clouds 10 1034 71 10000 7.72 60 17:40 21.12.2021
4782 Clouds 7 1035 87 10000 3.09 360 15:46 21.12.2021
4783 Clouds 7 1036 87 10000 1.54 60 14:59 21.12.2021
4784 Rain 6 1035 93 6000 1.54 60 13:44 21.12.2021
4785 Rain 5 1035 93 6000 1.54 60 12:58 21.12.2021
4786 Clouds 6 1015 86 10000 0.57 2 10:53 21.12.2021
4787 Clouds 6 1014 88 10000 0.75 3 09:57 21.12.2021
4788 Clouds 6 1014 88 10000 0.78 359 09:18 21.12.2021
4789 Clouds 6 1015 89 10000 0.89 354 07:50 21.12.2021
4790 Rain 6 1015 90 10000 1.12 5 07:25 21.12.2021
4791 Clouds 6 1017 87 10000 0.73 42 04:48 21.12.2021
4792 Clouds 6 1017 85 10000 0.99 63 02:39 21.12.2021
4793 Clouds 6 1017 89 10000 0.77 62 23:57 20.12.2021
4794 Clouds 6 1016 90 8381 1.28 44 22:48 20.12.2021
4795 Clouds 6 1015 90 5969 2.1 43 22:27 20.12.2021
4796 Clouds 6 1015 90 5969 2.1 43 21:41 20.12.2021
4797 Clouds 7 1015 88 6312 2.41 43 21:22 20.12.2021
4798 Clouds 7 1015 88 6312 2.41 43 20:40 20.12.2021
4799 Clouds 7 1015 84 9660 1.93 59 19:39 20.12.2021
4800 Clouds 7 1016 81 10000 2.03 96 19:20 20.12.2021
4801 Rain 7 1037 93 4000 6.17 60 18:35 20.12.2021
4802 Rain 7 1038 93 5000 0 0 17:52 20.12.2021
4803 Clouds 6 1039 100 4000 0 0 16:53 20.12.2021
4804 Clouds 6 1039 100 4000 0 0 16:35 20.12.2021
4805 Rain 6 1039 100 5000 4.12 300 15:43 20.12.2021
4806 Clouds 6 1033 100 5000 2.06 240 14:41 20.12.2021
4807 Clouds 6 1036 93 7000 3.09 60 12:44 20.12.2021
4808 Clouds 7 1016 82 10000 1.75 101 10:55 20.12.2021
4809 Clouds 7 1016 81 10000 1.62 110 09:47 20.12.2021
4810 Clouds 7 1015 80 10000 1.93 111 08:56 20.12.2021
4811 Clouds 7 1015 80 10000 1.93 111 08:38 20.12.2021
4812 Rain 7 1015 80 10000 1.32 106 07:46 20.12.2021
4813 Clouds 7 1016 80 10000 0.99 71 06:40 20.12.2021
4814 Clouds 8 1018 76 10000 1.4 62 02:32 20.12.2021
4815 Clouds 7 1017 83 10000 2.68 102 23:50 19.12.2021
4816 Rain 7 1016 82 10000 3 106 22:44 19.12.2021
4817 Clouds 8 1015 80 10000 3.03 105 21:49 19.12.2021
4818 Clouds 8 1015 75 10000 2.9 110 21:25 19.12.2021
4819 Clouds 8 1016 74 10000 2.43 112 20:29 19.12.2021
4820 Clouds 8 1016 74 10000 2.43 112 19:45 19.12.2021
4821 Clouds 11 1014 59 10000 3.65 74 18:54 19.12.2021
4822 Clouds 11 1015 59 10000 3.46 90 18:24 19.12.2021
4823 Clouds 11 1015 59 10000 3.46 90 17:46 19.12.2021
4824 Clouds 11 1016 58 5587 3.65 104 16:55 19.12.2021
4825 Clouds 11 1016 57 10000 3.57 102 15:58 19.12.2021
4826 Rain 10 1016 54 10000 1.57 92 15:26 19.12.2021
4827 Rain 10 1016 54 10000 1.57 92 14:50 19.12.2021
4828 Rain 9 1018 60 10000 1.51 85 13:46 19.12.2021
4829 Rain 8 1018 66 10000 1.99 90 13:21 19.12.2021
4830 Rain 8 1018 66 10000 1.99 90 12:33 19.12.2021
4831 Clouds 8 1018 69 10000 1.82 95 11:40 19.12.2021
4832 Clouds 7 1017 72 10000 1.34 100 10:52 19.12.2021
4833 Clouds 7 1016 76 10000 0.87 100 10:23 19.12.2021
4834 Clouds 7 1016 78 10000 0.63 63 09:26 19.12.2021
4835 Clouds 7 1016 79 10000 0.96 23 07:47 19.12.2021
4836 Clouds 9 1018 68 10000 2.48 53 02:35 19.12.2021
4837 Clouds 10 1015 58 10000 2.96 47 00:55 19.12.2021
4838 Clouds 10 1015 58 10000 2.96 47 00:55 19.12.2021
4839 Rain 11 1014 53 10000 3.34 59 23:52 18.12.2021
4840 Clouds 12 1013 48 10000 3.85 73 22:31 18.12.2021
4841 Clouds 13 1012 46 10000 5.2 71 21:54 18.12.2021
4842 Clouds 13 1012 46 10000 5.2 71 21:34 18.12.2021
4843 Clouds 13 1012 44 10000 5.07 66 20:44 18.12.2021
4844 Clouds 14 1012 41 10000 4.68 59 19:51 18.12.2021
4845 Clouds 14 1013 41 10000 4.5 52 19:19 18.12.2021
4846 Clouds 13 1015 44 10000 3.99 47 18:19 18.12.2021
4847 Clouds 13 1015 44 10000 3.99 47 17:47 18.12.2021
4848 Clouds 12 1017 47 10000 2.59 40 16:25 18.12.2021
4849 Clouds 10 1019 52 10000 2.21 44 15:26 18.12.2021
4850 Clouds 9 1019 61 10000 1.45 44 14:22 18.12.2021
4851 Clouds 7 1020 70 10000 0.93 40 13:18 18.12.2021
4852 Clouds 6 1020 83 10000 1.36 48 11:21 18.12.2021
4853 Clouds 6 1019 85 10000 1.59 48 09:37 18.12.2021
4854 Clouds 6 1018 84 10000 1.8 45 08:43 18.12.2021
4855 Clouds 7 1018 83 10000 1.96 39 08:19 18.12.2021
4856 Clouds 7 1018 82 10000 2.9 68 01:48 18.12.2021
4857 Clouds 8 1016 78 10000 2.07 96 00:27 18.12.2021
4858 Clouds 8 1016 78 10000 2.07 96 23:37 17.12.2021
4859 Clouds 9 1014 69 10000 2.74 101 21:56 17.12.2021
4860 Clouds 10 1014 62 5700 1.55 99 20:51 17.12.2021
4861 Clouds 10 1014 62 5700 1.55 99 20:31 17.12.2021
4862 Clouds 12 1038 58 10000 6.17 60 18:58 17.12.2021
4863 Clouds 12 1038 58 10000 6.17 60 18:38 17.12.2021
4864 Clouds 10 1039 66 10000 6.17 60 17:26 17.12.2021
4865 Clouds 9 1040 71 10000 4.12 60 16:44 17.12.2021
4866 Clouds 9 1040 71 10000 4.12 60 16:21 17.12.2021
4867 Clouds 7 1041 76 10000 2.06 20 15:20 17.12.2021
4868 Clouds 6 1041 87 10000 3.09 20 14:38 17.12.2021
4869 Clouds 4 1040 93 4000 2.06 60 12:46 17.12.2021
4870 Rain 3 1038 93 7000 2.06 60 11:27 17.12.2021
4871 Clouds 6 1018 88 8635 1.03 106 09:59 17.12.2021
4872 Clouds 6 1018 87 6750 1.73 74 08:58 17.12.2021
4873 Clouds 6 1017 87 10000 2.11 81 08:29 17.12.2021
4874 Clouds 7 1018 79 10000 2.02 81 05:41 17.12.2021
4875 Clouds 8 1018 73 10000 2.18 73 02:52 17.12.2021
4876 Clouds 10 1013 57 10000 2.38 81 23:23 16.12.2021
4877 Clouds 10 1013 54 10000 2.24 88 22:24 16.12.2021
4878 Clouds 10 1013 54 10000 2.24 88 22:24 16.12.2021
4879 Clouds 10 1013 54 10000 2.24 88 22:24 16.12.2021
4880 Clouds 10 1013 54 10000 2.24 88 21:50 16.12.2021
4881 Clouds 10 1013 52 10000 2.29 91 21:25 16.12.2021
4882 Clouds 10 1015 53 10000 1.83 88 20:28 16.12.2021
4883 Clouds 10 1015 53 10000 1.83 88 19:36 16.12.2021
4884 Clouds 10 1038 66 10000 5.14 60 18:38 16.12.2021
4885 Clouds 9 1038 76 10000 6.17 60 17:55 16.12.2021
4886 Clouds 9 1038 76 10000 6.17 60 17:28 16.12.2021
4887 Rain 7 1039 81 10000 6.17 60 16:21 16.12.2021
4888 Clouds 5 1039 87 8000 3.09 40 14:50 16.12.2021
4889 Clouds 4 1037 100 8000 3.09 60 12:57 16.12.2021
4890 Clouds 5 1036 87 10000 2.06 60 11:20 16.12.2021
4891 Rain 6 1017 87 4654 3.08 106 10:48 16.12.2021
4892 Rain 7 1015 85 3663 2.18 101 10:20 16.12.2021
4893 Rain 7 1015 79 10000 1.52 75 07:31 16.12.2021
4894 Rain 8 1016 78 10000 1.61 32 06:19 16.12.2021
4895 Rain 9 1014 72 8382 1.34 87 00:54 16.12.2021
4896 Clouds 10 1011 63 9503 2.23 57 23:22 15.12.2021
4897 Clouds 10 1011 63 9503 2.23 57 22:41 15.12.2021
4898 Rain 12 1009 56 10000 3.09 56 21:52 15.12.2021
4899 Clouds 12 1009 51 10000 3.17 74 21:26 15.12.2021
4900 Clouds 12 1010 51 10000 3.68 82 20:18 15.12.2021
4901 Clouds 12 1010 51 10000 3.68 82 19:45 15.12.2021
4902 Clouds 13 1035 54 10000 3.09 240 18:37 15.12.2021
4903 Clouds 11 1036 66 10000 2.06 240 17:51 15.12.2021
4904 Clouds 11 1036 66 10000 2.06 240 17:51 15.12.2021
4905 Clouds 11 1036 66 10000 2.06 240 17:32 15.12.2021
4906 Clouds 9 1036 71 10000 0 0 16:28 15.12.2021
4907 Clouds 9 1037 71 10000 0 0 15:46 15.12.2021
4908 Clouds 9 1037 71 10000 0 0 15:27 15.12.2021
4909 Clouds 7 1037 81 10000 0 0 14:18 15.12.2021
4910 Clouds 5 1036 87 10000 0 0 12:37 15.12.2021
4911 Clouds 6 1016 80 10000 1.19 49 10:27 15.12.2021
4912 Clouds 6 1016 81 10000 0.93 19 08:55 15.12.2021
4913 Clouds 6 1016 84 10000 0.32 351 06:54 15.12.2021
4914 Clouds 8 1016 75 9088 2.94 89 01:20 15.12.2021
4915 Clouds 7 1015 79 6969 3.41 101 23:42 14.12.2021
4916 Clouds 7 1014 75 4467 3.69 88 22:49 14.12.2021
4917 Clouds 7 1014 79 4515 3.06 85 22:19 14.12.2021
4918 Clouds 8 1034 93 5000 6.17 200 20:29 14.12.2021
4919 Clouds 12 1033 62 8000 7.72 60 19:43 14.12.2021
4920 Clouds 12 1033 62 8000 7.72 60 19:19 14.12.2021
4921 Clouds 12 1034 58 10000 6.17 60 18:28 14.12.2021
4922 Clouds 12 1034 67 10000 5.14 60 17:33 14.12.2021
4923 Clouds 9 1035 76 10000 2.06 60 16:40 14.12.2021
4924 Clouds 7 1036 81 10000 1.54 60 15:36 14.12.2021
4925 Clouds 7 1034 87 8000 3.09 40 13:31 14.12.2021
4926 Clouds 7 1034 93 5000 4.12 60 12:21 14.12.2021
4927 Clouds 6 1034 87 10000 3.09 60 11:24 14.12.2021
4928 Clouds 7 1014 77 10000 1.77 32 10:24 14.12.2021
4929 Clouds 7 1014 77 10000 1.77 32 09:51 14.12.2021
4930 Clouds 8 1013 70 10000 1.89 18 08:28 14.12.2021
4931 Clouds 8 1013 70 10000 1.89 18 07:59 14.12.2021
4932 Clouds 9 1013 63 10000 2.39 37 05:38 14.12.2021
4933 Clouds 15 1005 34 10000 4.36 63 22:59 13.12.2021
4934 Clouds 16 1004 30 10000 6.27 45 21:53 13.12.2021
4935 Clouds 16 1004 30 10000 6.27 45 21:34 13.12.2021
4936 Clouds 17 1003 25 10000 6.34 43 20:45 13.12.2021
4937 Clear 18 1004 19 10000 3.34 41 19:57 13.12.2021
4938 Clear 17 1005 18 10000 2.91 43 19:19 13.12.2021
4939 Clouds 15 1033 41 10000 4.12 40 17:26 13.12.2021
4940 Clear 14 1033 38 10000 3.09 240 16:20 13.12.2021
4941 Clear 12 1034 41 10000 3.09 240 15:38 13.12.2021
4942 Clear 7 1033 53 10000 3.09 240 13:49 13.12.2021
4943 Clouds 7 1033 53 10000 3.09 240 13:18 13.12.2021
4944 Clouds 5 1033 61 10000 2.06 200 12:22 13.12.2021
4945 Clouds 2 1032 87 10000 3.09 240 11:36 13.12.2021
4946 Clouds 7 1012 45 10000 1.84 264 10:53 13.12.2021
4947 Clouds 8 1011 44 10000 1.72 261 10:21 13.12.2021
4948 Clouds 9 1010 41 10000 1.78 252 08:28 13.12.2021
4949 Clouds 10 1009 38 10000 1.37 273 05:37 13.12.2021
4950 Clouds 11 1009 37 10000 1.15 331 03:32 13.12.2021
4951 Clear 13 1005 25 10000 2.99 84 23:39 12.12.2021
4952 Clear 15 1003 15 10000 0.55 53 21:52 12.12.2021
4953 Clear 15 1003 14 10000 0.43 275 20:45 12.12.2021
4954 Clear 15 1004 15 10000 1.69 237 19:30 12.12.2021
4955 Clouds 14 1006 17 10000 1.46 257 17:46 12.12.2021
4956 Clouds 11 1010 19 10000 1.58 288 16:28 12.12.2021
4957 Clouds 11 1010 19 10000 1.58 288 15:51 12.12.2021
4958 Clouds 9 1011 22 10000 1.98 288 15:26 12.12.2021
4959 Clouds 9 1011 22 10000 1.98 288 14:37 12.12.2021
4960 Clouds 8 1012 27 10000 2.33 288 13:43 12.12.2021
4961 Clouds 7 1013 29 10000 2.3 288 12:37 12.12.2021
4962 Clouds 6 1013 35 10000 2.3 288 11:45 12.12.2021
4963 Clouds 5 1013 44 10000 2.22 290 11:25 12.12.2021
4964 Clouds 5 1013 44 10000 2.22 290 10:43 12.12.2021
4965 Clouds 5 1011 43 10000 2.37 302 09:45 12.12.2021
4966 Clouds 6 1011 42 10000 2.4 298 08:38 12.12.2021
4967 Clouds 7 1010 41 10000 2.43 278 06:35 12.12.2021
4968 Clouds 9 1010 40 10000 2.46 282 05:27 12.12.2021
4969 Clouds 10 1009 39 10000 2.14 272 03:58 12.12.2021
4970 Clouds 12 1006 31 10000 3.7 225 00:42 12.12.2021
4971 Clouds 15 1002 22 10000 7.26 245 22:42 11.12.2021
4972 Clouds 16 1001 23 10000 6.87 259 22:19 11.12.2021
4973 Clear 17 1001 23 10000 6.02 259 21:24 11.12.2021
4974 Clouds 17 1001 23 10000 6.94 262 19:46 11.12.2021
4975 Clouds 17 1002 24 10000 6.17 267 19:20 11.12.2021
4976 Clouds 17 1003 24 10000 6.31 262 18:39 11.12.2021
4977 Clouds 16 1004 27 10000 5.28 272 17:41 11.12.2021
4978 Clouds 14 1007 39 10000 3.32 304 15:57 11.12.2021
4979 Clouds 14 1007 39 10000 3.32 304 15:37 11.12.2021
4980 Clouds 12 1009 50 10000 2.69 305 14:33 11.12.2021
4981 Clouds 8 1012 71 10000 1.45 338 12:20 11.12.2021
4982 Clouds 7 1012 79 10000 1.25 341 10:43 11.12.2021
4983 Clouds 7 1011 81 10000 1.44 335 09:38 11.12.2021
4984 Clouds 8 1012 79 10000 2.41 43 03:26 11.12.2021
4985 Clouds 9 1011 77 10000 2.17 69 00:47 11.12.2021
4986 Clouds 10 1009 71 7473 2.84 59 23:42 10.12.2021
4987 Clouds 10 1008 68 10000 2.76 59 22:33 10.12.2021
4988 Clouds 12 1007 61 10000 1.78 360 21:40 10.12.2021
4989 Clouds 12 1008 60 8145 1.86 318 20:22 10.12.2021
4990 Clouds 12 1008 56 8711 3.18 3 19:18 10.12.2021
4991 Clouds 9 1034 81 10000 1.54 60 17:46 10.12.2021
4992 Clouds 9 1035 71 10000 4.12 60 16:35 10.12.2021
4993 Clouds 9 1036 71 10000 0 0 15:43 10.12.2021
4994 Clouds 9 1036 71 10000 0 0 15:25 10.12.2021
4995 Clouds 7 1036 81 10000 1.54 60 14:29 10.12.2021
4996 Rain 7 1036 81 7000 1.54 60 13:48 10.12.2021
4997 Rain 5 1035 93 6000 3.09 40 12:55 10.12.2021
4998 Rain 5 1035 93 6000 3.09 40 12:55 10.12.2021
4999 Clouds 5 1035 93 6000 3.09 60 11:41 10.12.2021
5000 Clouds 7 1014 84 10000 2.46 6 10:56 10.12.2021
5001 Clouds 7 1014 83 10000 2.1 16 09:46 10.12.2021
5002 Clouds 8 1014 80 10000 2.64 6 07:28 10.12.2021
5003 Clouds 8 1016 82 10000 2.71 28 04:57 10.12.2021
5004 Rain 8 1016 79 10000 2.63 23 02:39 10.12.2021
5005 Rain 9 1033 87 10000 3.09 60 23:42 09.12.2021
5006 Clouds 10 1011 63 10000 4.69 20 22:41 09.12.2021
5007 Clouds 11 1011 58 10000 4.5 18 22:22 09.12.2021
5008 Clouds 11 1011 58 10000 4.5 18 21:40 09.12.2021
5009 Clouds 12 1034 67 10000 3.09 40 20:35 09.12.2021
5010 Clouds 12 1035 67 10000 3.09 60 19:43 09.12.2021
5011 Clouds 12 1035 67 10000 3.09 60 19:20 09.12.2021
5012 Clouds 12 1036 67 10000 3.09 40 18:22 09.12.2021
5013 Clouds 11 1038 71 10000 3.09 60 17:48 09.12.2021
5014 Clouds 11 1038 71 10000 3.09 60 17:24 09.12.2021
5015 Clouds 10 1039 71 10000 0 0 16:41 09.12.2021
5016 Rain 6 1040 81 10000 0 0 15:19 09.12.2021
5017 Rain 4 1041 87 7000 1.54 240 14:36 09.12.2021
5018 Mist 3 1040 93 3000 4.12 240 12:48 09.12.2021
5019 Rain 2 1040 100 3000 0 0 11:51 09.12.2021
5020 Rain 6 1017 87 10000 1.55 358 10:40 09.12.2021
5021 Rain 7 1016 83 10000 2.16 58 07:53 09.12.2021
5022 Clouds 8 1018 80 9382 2.42 72 03:58 09.12.2021
5023 Clouds 10 1013 73 8534 3.63 64 00:26 09.12.2021
5024 Clouds 10 1013 73 8534 3.63 64 23:37 08.12.2021
5025 Clouds 11 1012 67 10000 3.34 60 22:57 08.12.2021
5026 Clouds 11 1012 67 10000 3.34 60 22:37 08.12.2021
5027 Clouds 12 1010 62 10000 3.97 59 21:39 08.12.2021
5028 Clouds 13 1010 57 10000 3.2 69 20:58 08.12.2021
5029 Rain 13 1011 57 10000 2.85 71 19:57 08.12.2021
5030 Rain 12 1012 59 7829 2.29 67 19:29 08.12.2021
5031 Rain 12 1036 71 7000 4.12 120 18:22 08.12.2021
5032 Thunderstorm 11 1036 71 10000 4.12 100 17:24 08.12.2021
5033 Clouds 9 1039 76 10000 0 0 15:45 08.12.2021
5034 Clouds 9 1039 76 10000 0 0 15:23 08.12.2021
5035 Clouds 7 1038 87 10000 0 0 13:27 08.12.2021
5036 Clouds 7 1017 82 10000 1.21 346 10:45 08.12.2021
5037 Clouds 7 1016 81 10000 1.02 346 10:23 08.12.2021
5038 Clouds 7 1016 80 10000 0.98 47 08:54 08.12.2021
5039 Clouds 5 1018 89 10000 1.41 322 06:52 08.12.2021
5040 Clouds 8 1017 85 6117 2.54 8 01:21 08.12.2021
5041 Clouds 10 1014 73 8193 2.53 81 23:29 07.12.2021
5042 Clouds 11 1013 65 10000 2.15 103 21:26 07.12.2021
5043 Rain 12 1013 60 10000 1.61 106 20:26 07.12.2021
5044 Rain 13 1013 55 10000 1.69 67 19:23 07.12.2021
5045 Clouds 12 1039 67 10000 5.14 60 18:37 07.12.2021
5046 Clouds 11 1041 66 10000 5.14 60 17:27 07.12.2021
5047 Clouds 10 1041 71 10000 3.09 20 16:57 07.12.2021
5048 Clouds 10 1041 71 10000 3.09 20 16:27 07.12.2021
5049 Clouds 7 1042 81 10000 3.09 40 14:47 07.12.2021
5050 Clouds 6 1042 87 8000 4.12 40 13:45 07.12.2021
5051 Clouds 5 1041 93 7000 3.09 40 12:41 07.12.2021
5052 Clouds 5 1041 93 7000 3.09 40 11:23 07.12.2021
5053 Clouds 6 1019 80 10000 2.35 15 09:43 07.12.2021
5054 Clouds 7 1019 76 10000 2.11 14 07:52 07.12.2021
5055 Clouds 7 1020 79 10000 2.18 48 05:54 07.12.2021
5056 Clouds 7 1020 75 10000 2.31 34 05:27 07.12.2021
5057 Clouds 8 1018 73 10000 3.05 51 23:41 06.12.2021
5058 Clouds 9 1016 69 10000 3.2 53 22:44 06.12.2021
5059 Clouds 9 1016 68 10000 3.22 49 22:18 06.12.2021
5060 Clouds 9 1016 68 10000 3.22 49 21:37 06.12.2021
5061 Clouds 9 1016 71 10000 3.15 43 20:33 06.12.2021
5062 Clouds 9 1018 72 10000 3.34 26 19:27 06.12.2021
5063 Clouds 8 1042 93 7000 5.14 60 18:57 06.12.2021
5064 Clouds 9 1042 81 4000 5.14 60 17:55 06.12.2021
5065 Clouds 9 1042 81 4000 5.14 60 17:34 06.12.2021
5066 Clouds 7 1042 87 3000 5.14 60 16:21 06.12.2021
5067 Clouds 6 1042 87 7000 5.14 60 14:51 06.12.2021
5068 Clouds 5 1042 93 6000 4.12 60 13:45 06.12.2021
5069 Mist 4 1042 100 3000 3.09 60 12:39 06.12.2021
5070 Clouds 6 1020 88 10000 2.39 66 10:31 06.12.2021
5071 Clouds 6 1019 90 3913 2 72 07:59 06.12.2021
5072 Clouds 7 1020 85 10000 2.7 64 04:28 06.12.2021
5073 Clouds 8 1017 84 5510 1.52 28 22:30 05.12.2021
5074 Clouds 9 1015 73 10000 3.33 81 21:26 05.12.2021
5075 Clouds 9 1015 73 10000 3.33 81 20:59 05.12.2021
5076 Rain 10 1015 69 10000 3.33 81 20:18 05.12.2021
5077 Clouds 10 1015 69 10000 3.33 81 19:33 05.12.2021
5078 Clouds 10 1016 68 10000 2.71 87 18:41 05.12.2021
5079 Clouds 9 1018 70 10000 2.14 111 18:19 05.12.2021
5080 Rain 9 1018 70 10000 2.14 111 17:47 05.12.2021
5081 Rain 8 1020 74 10000 1.9 153 16:45 05.12.2021
5082 Rain 7 1021 78 9137 2.38 185 16:24 05.12.2021
5083 Rain 7 1021 77 3609 1.87 206 14:49 05.12.2021
5084 Clouds 7 1021 77 3609 1.87 206 14:30 05.12.2021
5085 Clouds 7 1021 77 10000 0.54 235 13:50 05.12.2021
5086 Clouds 7 1021 79 10000 0.57 40 13:22 05.12.2021
5087 Clouds 6 1022 81 10000 0.4 46 12:31 05.12.2021
5088 Clouds 6 1021 84 10000 1.71 73 11:57 05.12.2021
5089 Rain 6 1020 86 10000 2.73 54 10:52 05.12.2021
5090 Rain 7 1018 85 10000 3.19 39 09:58 05.12.2021
5091 Rain 7 1017 87 3555 2.83 77 07:55 05.12.2021
5092 Clouds 9 1017 79 7352 2.08 104 02:28 05.12.2021
5093 Rain 7 1016 86 6347 2.59 147 23:34 04.12.2021
5094 Clouds 11 1011 70 5640 2.91 9 21:54 04.12.2021
5095 Clouds 12 1010 60 6631 4.27 11 20:55 04.12.2021
5096 Clouds 13 1011 57 6104 3.57 3 19:55 04.12.2021
5097 Clouds 13 1011 57 6104 3.57 3 19:32 04.12.2021
5098 Clouds 14 1011 50 10000 3.88 23 18:20 04.12.2021
5099 Clouds 14 1011 50 10000 3.88 23 17:38 04.12.2021
5100 Clouds 13 1012 50 10000 3.75 19 16:49 04.12.2021
5101 Clouds 13 1012 50 10000 3.75 19 16:30 04.12.2021
5102 Clouds 12 1014 55 10000 1.99 354 15:22 04.12.2021
5103 Clouds 8 1016 75 10000 1.41 3 11:51 04.12.2021
5104 Clouds 8 1016 75 10000 1.41 3 11:32 04.12.2021
5105 Clouds 8 1016 78 10000 1.43 11 10:44 04.12.2021
5106 Clouds 8 1014 78 10000 0.94 343 08:48 04.12.2021
5107 Clouds 8 1014 78 10000 1.61 340 06:28 04.12.2021
5108 Clouds 8 1014 79 10000 1.27 5 04:42 04.12.2021
5109 Clouds 8 1013 76 10000 2.53 239 00:24 04.12.2021
5110 Clouds 10 1011 68 9654 2.02 308 23:26 03.12.2021
5111 Clouds 10 1011 68 9654 2.02 308 23:26 03.12.2021
5112 Clouds 10 1011 68 9654 2.02 308 22:46 03.12.2021
5113 Rain 12 1009 57 10000 3.93 20 21:26 03.12.2021
5114 Clouds 12 1009 57 10000 3.93 20 20:54 03.12.2021
5115 Clouds 11 1010 61 10000 3.66 18 19:53 03.12.2021
5116 Rain 12 1034 71 10000 6.17 60 18:34 03.12.2021
5117 Rain 15 1035 59 10000 4.12 60 17:59 03.12.2021
5118 Clouds 13 1036 58 10000 3.09 60 16:33 03.12.2021
5119 Rain 6 1035 87 7000 0 0 12:59 03.12.2021
5120 Clouds 6 1035 87 7000 0 0 12:20 03.12.2021
5121 Rain 7 1015 81 10000 2.42 37 10:56 03.12.2021
5122 Clouds 8 1013 78 10000 1.9 23 08:29 03.12.2021
5123 Clouds 8 1013 78 10000 1.9 23 07:43 03.12.2021
5124 Clouds 8 1013 78 10000 1.9 23 07:43 03.12.2021
5125 Clouds 8 1014 74 10000 1.89 4 05:42 03.12.2021
5126 Clouds 10 1013 68 10000 2.65 71 00:48 03.12.2021
5127 Clouds 10 1013 66 10000 2.23 73 23:47 02.12.2021
5128 Clouds 11 1010 59 10000 4.15 48 22:38 02.12.2021
5129 Clouds 10 1034 71 10000 7.72 80 21:41 02.12.2021
5130 Rain 13 1032 58 10000 4.24 67 20:44 02.12.2021
5131 Clouds 13 1032 58 10000 6.88 55 20:22 02.12.2021
5132 Rain 13 1034 62 10000 6.17 60 18:47 02.12.2021
5133 Clouds 14 1035 55 10000 6.17 40 16:35 02.12.2021
5134 Clouds 12 1035 62 10000 3.09 60 15:41 02.12.2021
5135 Clouds 12 1035 62 10000 3.09 60 15:41 02.12.2021
5136 Clouds 11 1036 71 10000 3.09 60 14:52 02.12.2021
5137 Clouds 11 1035 71 10000 0 0 13:36 02.12.2021
5138 Clouds 9 1015 69 10000 1.93 52 12:25 02.12.2021
5139 Clouds 9 1014 73 10000 2.03 51 10:42 02.12.2021
5140 Clouds 9 1013 74 10000 1.77 77 09:26 02.12.2021
5141 Clouds 9 1012 78 10000 2.03 59 07:19 02.12.2021
5142 Clouds 12 1009 61 10000 3.7 32 01:26 02.12.2021
5143 Clouds 12 1009 61 10000 3.7 32 00:35 02.12.2021
5144 Clouds 14 1005 50 10000 3.61 67 22:31 01.12.2021
5145 Clouds 16 1004 45 10000 4.76 90 21:44 01.12.2021
5146 Clouds 19 1003 24 10000 4.88 65 20:24 01.12.2021
5147 Clouds 19 1003 24 10000 4.88 65 19:46 01.12.2021
5148 Clouds 18 1004 21 10000 3.57 58 18:55 01.12.2021
5149 Clouds 17 1033 39 10000 6.17 60 17:31 01.12.2021
5150 Clouds 15 1034 39 10000 3.09 60 16:34 01.12.2021
5151 Clouds 13 1011 34 10000 1.15 326 14:39 01.12.2021
5152 Clouds 9 1034 71 10000 3.09 200 13:37 01.12.2021
5153 Clouds 7 1013 85 10000 0.87 335 11:26 01.12.2021
5154 Clouds 7 1013 85 10000 0.87 335 10:40 01.12.2021
5155 Clouds 7 1012 82 10000 1.34 359 08:53 01.12.2021
5156 Clouds 8 1011 80 10000 1.6 359 08:26 01.12.2021
5157 Clouds 8 1011 80 10000 1.6 359 07:32 01.12.2021
5158 Clouds 9 1012 77 10000 2.67 9 03:59 01.12.2021
5159 Clouds 9 1012 77 10000 2.67 9 03:32 01.12.2021
5160 Clouds 11 1009 68 10000 3.26 50 00:45 01.12.2021
5161 Clouds 12 1007 60 10000 3.58 57 23:33 30.11.2021
5162 Clouds 13 1005 54 10000 3.73 61 22:39 30.11.2021
5163 Clouds 15 1004 44 10000 4.3 68 20:48 30.11.2021
5164 Clouds 15 1005 44 10000 4.34 57 20:27 30.11.2021
5165 Clouds 15 1005 44 10000 4.34 57 19:47 30.11.2021
5166 Clouds 16 1005 41 10000 4.7 34 19:24 30.11.2021
5167 Clouds 14 1033 55 10000 4.12 60 17:57 30.11.2021
5168 Clouds 12 1034 62 10000 4.12 60 16:25 30.11.2021
5169 Clouds 10 1034 66 10000 2.06 60 14:35 30.11.2021
5170 Clouds 8 1034 81 10000 0 0 13:52 30.11.2021
5171 Clouds 8 1034 81 10000 0 0 13:23 30.11.2021
5172 Clouds 5 1034 93 7000 0 0 12:44 30.11.2021
5173 Clouds 4 1033 93 7000 0 0 11:26 30.11.2021
5174 Clouds 8 1013 78 10000 1.01 55 10:37 30.11.2021
5175 Clouds 8 1012 81 10000 1.12 53 09:44 30.11.2021
5176 Clouds 8 1011 80 10000 1.25 45 08:48 30.11.2021
5177 Clouds 8 1011 81 10000 1.14 36 08:19 30.11.2021
5178 Clouds 8 1011 81 10000 1.14 36 07:39 30.11.2021
5179 Clouds 11 1010 66 10000 2.75 33 01:52 30.11.2021
5180 Clouds 11 1010 66 10000 2.75 33 01:32 30.11.2021
5181 Clouds 13 1006 51 10000 2.85 34 23:57 29.11.2021
5182 Clouds 13 1005 51 10000 3.46 24 23:21 29.11.2021
5183 Clouds 13 1005 51 10000 3.46 24 22:44 29.11.2021
5184 Clouds 14 1004 46 10000 4.21 39 22:25 29.11.2021
5185 Clouds 14 1004 46 10000 3.77 22 21:22 29.11.2021
5186 Clouds 14 1004 46 10000 3.77 22 20:56 29.11.2021
5187 Clouds 15 1004 44 10000 3.33 18 20:22 29.11.2021
5188 Clouds 15 1004 44 10000 3.33 18 19:50 29.11.2021
5189 Clouds 15 1005 38 10000 2.47 354 19:27 29.11.2021
5190 Clouds 15 1005 38 10000 2.47 354 18:48 29.11.2021
5191 Clouds 13 1008 39 10000 1.78 284 17:22 29.11.2021
5192 Clouds 13 1008 39 10000 1.78 284 16:57 29.11.2021
5193 Clouds 12 1010 46 10000 1.73 284 16:28 29.11.2021
5194 Clouds 11 1012 55 10000 2.01 317 15:27 29.11.2021
5195 Clouds 11 1012 55 10000 2.01 317 14:42 29.11.2021
5196 Clouds 9 1013 64 10000 1.99 330 13:32 29.11.2021
5197 Clouds 6 1015 79 10000 1.38 321 12:28 29.11.2021
5198 Clouds 6 1015 79 10000 1.38 321 11:34 29.11.2021
5199 Clouds 6 1014 83 10000 1.81 318 10:32 29.11.2021
5200 Clouds 6 1013 84 10000 2.34 323 09:24 29.11.2021
5201 Clouds 6 1015 86 10000 1.86 313 06:19 29.11.2021
5202 Clouds 6 1016 84 10000 4.61 10 01:38 29.11.2021
5203 Rain 5 1016 89 2136 2.06 94 00:39 29.11.2021
5204 Clouds 7 1012 87 1767 3.26 350 23:43 28.11.2021
5205 Clouds 9 1009 76 5489 5.57 2 22:47 28.11.2021
5206 Clouds 12 1005 64 10000 6.33 3 21:42 28.11.2021
5207 Clouds 15 1003 48 10000 9.53 27 21:19 28.11.2021
5208 Clouds 16 1003 42 10000 7.53 32 19:58 28.11.2021
5209 Clouds 16 1004 37 10000 8.67 46 18:46 28.11.2021
5210 Clouds 18 1004 31 10000 7.75 69 18:27 28.11.2021
5211 Clouds 18 1004 31 10000 7.75 69 17:54 28.11.2021
5212 Clouds 18 1004 31 10000 7.75 69 17:31 28.11.2021
5213 Clouds 17 1006 29 10000 3.61 93 16:29 28.11.2021
5214 Clouds 17 1006 29 10000 3.61 93 15:58 28.11.2021
5215 Clouds 15 1007 33 10000 1.68 104 15:24 28.11.2021
5216 Clouds 15 1007 33 10000 1.68 104 14:44 28.11.2021
5217 Clouds 12 1009 44 10000 0.92 216 12:58 28.11.2021
5218 Clouds 12 1010 47 10000 1.26 223 12:37 28.11.2021
5219 Clouds 10 1009 60 10000 1.44 219 10:58 28.11.2021
5220 Clouds 9 1009 61 10000 1.12 246 10:21 28.11.2021
5221 Clouds 9 1009 61 10000 1.12 246 09:37 28.11.2021
5222 Clouds 10 1008 59 10000 0.87 286 07:32 28.11.2021
5223 Clouds 13 1007 50 10000 5.94 33 23:56 27.11.2021
5224 Clouds 16 1005 30 10000 9.11 28 20:57 27.11.2021
5225 Clouds 17 1007 26 10000 8.39 25 19:23 27.11.2021
5226 Clouds 16 1010 30 10000 5.08 4 17:27 27.11.2021
5227 Clouds 15 1011 32 10000 4.12 1 15:57 27.11.2021
5228 Clouds 11 1014 42 10000 1.58 8 13:58 27.11.2021
5229 Clouds 10 1015 52 10000 1.06 340 12:57 27.11.2021
5230 Clouds 7 1016 73 10000 1 232 10:52 27.11.2021
5231 Clouds 7 1016 78 10000 1.18 262 09:53 27.11.2021
5232 Clouds 7 1016 78 10000 1.45 311 08:44 27.11.2021
5233 Clouds 8 1015 72 10000 2.14 355 06:34 27.11.2021
5234 Clouds 9 1015 64 10000 2.74 31 01:58 27.11.2021
5235 Clouds 10 1013 59 10000 4.98 37 23:38 26.11.2021
5236 Clouds 13 1010 46 10000 4.47 62 22:25 26.11.2021
5237 Clouds 13 1010 46 10000 4.47 62 21:38 26.11.2021
5238 Clouds 13 1010 44 10000 4.45 76 21:18 26.11.2021
5239 Clouds 13 1010 44 10000 4.45 76 20:30 26.11.2021
5240 Clouds 13 1011 42 10000 5.06 82 19:54 26.11.2021
5241 Clouds 12 1040 54 10000 5.14 120 18:44 26.11.2021
5242 Clouds 12 1040 58 7000 6.17 120 17:24 26.11.2021
5243 Clouds 12 1041 58 10000 6.17 120 16:29 26.11.2021
5244 Clouds 9 1015 71 10000 5.14 100 14:25 26.11.2021
5245 Clouds 7 1041 76 10000 4.12 80 13:31 26.11.2021
5246 Clouds 8 1016 76 10000 1.92 93 10:43 26.11.2021
5247 Clouds 8 1016 75 10000 2.17 76 09:49 26.11.2021
5248 Clouds 8 1015 74 10000 2.65 71 08:50 26.11.2021
5249 Clouds 9 1014 70 10000 2.58 94 08:19 26.11.2021
5250 Clouds 9 1014 74 10000 2.35 78 06:30 26.11.2021
5251 Clouds 10 1015 71 10000 2.24 73 04:52 26.11.2021
5252 Clouds 10 1016 70 10000 1.89 62 03:35 26.11.2021
5253 Rain 10 1012 70 4288 2.67 125 23:43 25.11.2021
5254 Rain 13 1009 57 10000 4.39 58 22:25 25.11.2021
5255 Clouds 15 1007 48 10000 10.25 59 20:45 25.11.2021
5256 Clouds 18 1006 30 10000 6.62 84 19:22 25.11.2021
5257 Clouds 18 1034 37 10000 6.17 180 18:31 25.11.2021
5258 Clouds 17 1035 42 10000 6.17 100 17:28 25.11.2021
5259 Clouds 15 1035 51 10000 1.54 200 16:47 25.11.2021
5260 -273 0 0 0 0 0 16:01 25.11.2021
5261 Clouds 12 1035 62 10000 3.09 240 14:44 25.11.2021
5262 Clouds 12 1013 51 10000 0.92 215 13:20 25.11.2021
5263 Clouds 5 1035 93 10000 1.54 200 11:57 25.11.2021
5264 Clouds 10 1013 66 10000 1.42 223 10:50 25.11.2021
5265 Clouds 10 1011 65 10000 1.46 312 08:30 25.11.2021
5266 Clouds 11 1013 64 10000 1.19 14 03:42 25.11.2021
5267 Clouds 12 1012 61 10000 1.89 27 02:43 25.11.2021
5268 Rain 14 1008 48 10000 4.35 39 22:41 24.11.2021
5269 Rain 15 1007 40 10000 4.75 40 22:20 24.11.2021
5270 Clouds 16 1007 35 10000 3.79 36 21:26 24.11.2021
5271 Clouds 16 1008 34 10000 3.3 31 20:28 24.11.2021
5272 Clouds 16 1008 34 10000 3.3 31 19:46 24.11.2021
5273 Clouds 15 1011 37 10000 2.89 45 18:29 24.11.2021
5274 Clouds 14 1013 39 10000 1.85 38 16:53 24.11.2021
5275 Rain 11 1017 53 10000 0.64 350 15:22 24.11.2021
5276 Clouds 8 1041 81 10000 0 0 14:31 24.11.2021
5277 Clouds 7 1040 81 10000 1.54 60 13:51 24.11.2021
5278 Clouds 5 1040 93 8000 1.54 40 11:49 24.11.2021
5279 Clouds 5 1040 93 8000 1.54 40 11:19 24.11.2021
5280 Rain 7 1019 77 10000 2.01 166 10:38 24.11.2021
5281 Rain 7 1018 79 10000 2.08 149 09:40 24.11.2021
5282 Rain 8 1016 74 10000 1.55 109 07:42 24.11.2021
5283 Rain 9 1016 68 9851 2.27 70 06:21 24.11.2021
5284 Rain 10 1016 68 6707 3.23 46 03:50 24.11.2021
5285 Clouds 12 1012 58 10000 4.1 45 23:44 23.11.2021
5286 Clouds 13 1010 51 10000 5.83 24 22:39 23.11.2021
5287 Clouds 14 1010 48 10000 5.88 45 21:46 23.11.2021
5288 Clouds 14 1008 43 10000 7.88 16 20:48 23.11.2021
5289 Clouds 15 1009 37 10000 8.19 28 19:37 23.11.2021
5290 Clouds 17 1035 42 10000 7.72 40 18:39 23.11.2021
5291 Clouds 17 1036 42 10000 6.17 60 17:57 23.11.2021
5292 Clouds 17 1037 45 10000 5.14 60 16:55 23.11.2021
5293 Clouds 15 1039 51 10000 3.09 60 15:59 23.11.2021
5294 Clouds 13 1016 40 10000 2.78 39 15:19 23.11.2021
5295 Clouds 11 1039 66 10000 0 0 13:46 23.11.2021
5296 Clouds 4 1039 87 10000 0 0 11:40 23.11.2021
5297 Clouds 8 1016 65 10000 1.59 68 09:59 23.11.2021
5298 Clouds 9 1016 64 10000 1.17 84 08:44 23.11.2021
5299 Clouds 9 1016 64 10000 1.56 70 06:39 23.11.2021
5300 Clouds 10 1016 50 10000 2 50 03:45 23.11.2021
5301 Clouds 11 1013 42 10000 3.82 46 00:54 23.11.2021
5302 Clouds 13 1011 36 10000 6.09 43 23:21 22.11.2021
5303 Clouds 13 1011 36 10000 6.09 43 22:33 22.11.2021
5304 Clouds 14 1009 29 10000 5.39 40 21:49 22.11.2021
5305 Clouds 14 1009 29 10000 5.39 40 21:31 22.11.2021
5306 Clouds 16 1007 23 10000 6.29 43 20:50 22.11.2021
5307 Clouds 17 1007 23 10000 6.22 50 19:55 22.11.2021
5308 Clouds 17 1007 24 10000 8.11 49 19:19 22.11.2021
5309 Clouds 19 1034 30 10000 5.14 60 18:39 22.11.2021
5310 Clouds 17 1009 24 10000 4.24 45 17:20 22.11.2021
5311 Clouds 15 1011 28 10000 2.34 43 15:47 22.11.2021
5312 Clouds 11 1015 36 10000 0.9 7 13:58 22.11.2021
5313 Clouds 7 1017 62 10000 1.11 321 11:59 22.11.2021
5314 Clouds 6 1017 70 10000 1.27 327 10:41 22.11.2021
5315 Clouds 6 1016 67 10000 1.7 337 09:26 22.11.2021
5316 Clouds 6 1016 67 10000 1.7 337 08:40 22.11.2021
5317 Clouds 8 1016 57 10000 2.61 18 04:36 22.11.2021
5318 Clouds 12 1011 41 10000 5.94 53 23:28 21.11.2021
5319 Clouds 12 1011 41 10000 5.94 53 22:49 21.11.2021
5320 Clouds 14 1010 34 10000 5.7 52 21:53 21.11.2021
5321 Clouds 15 1009 29 10000 6.53 46 20:42 21.11.2021
5322 Clouds 16 1009 26 10000 7.07 36 19:48 21.11.2021
5323 Clear 16 1011 24 10000 4.29 26 18:24 21.11.2021
5324 Clear 16 1011 24 10000 4.29 26 17:38 21.11.2021
5325 Clear 13 1015 33 10000 2.36 14 15:53 21.11.2021
5326 Clear 11 1017 43 10000 1.73 359 14:45 21.11.2021
5327 Clouds 9 1018 55 10000 1.71 348 13:47 21.11.2021
5328 Clear 8 1019 65 10000 1.54 350 12:37 21.11.2021
5329 Clear 6 1019 77 10000 1.05 5 11:53 21.11.2021
5330 Clear 6 1019 77 10000 1.05 5 11:35 21.11.2021
5331 Clear 5 1018 83 10000 1.07 356 10:18 21.11.2021
5332 Clouds 5 1018 81 10000 0.89 346 08:45 21.11.2021
5333 Clouds 6 1018 79 10000 1.75 356 08:25 21.11.2021
5334 Clouds 6 1018 79 10000 1.75 356 07:48 21.11.2021
5335 Clouds 7 1018 74 10000 2.72 14 06:18 21.11.2021
5336 Clouds 7 1019 72 10000 3.08 12 05:26 21.11.2021
5337 Clouds 8 1018 66 10000 2.94 22 03:19 21.11.2021
5338 Clouds 8 1018 66 10000 2.94 22 02:52 21.11.2021
5339 Rain 10 1015 57 10000 4.33 20 00:59 21.11.2021
5340 Clouds 10 1014 57 10000 2.92 351 23:59 20.11.2021
5341 Clouds 12 1011 46 10000 4.14 77 21:49 20.11.2021
5342 Clouds 13 1010 41 10000 3.41 62 21:28 20.11.2021
5343 Clouds 15 1010 37 10000 7.38 41 19:23 20.11.2021
5344 Clouds 15 1010 37 10000 7.38 41 18:45 20.11.2021
5345 Clouds 15 1011 35 10000 5.58 37 18:19 20.11.2021
5346 Clouds 14 1012 35 10000 3.5 35 17:18 20.11.2021
5347 Clouds 11 1015 46 10000 1.65 24 14:49 20.11.2021
5348 Clouds 9 1017 54 10000 1.28 12 14:28 20.11.2021
5349 Clouds 9 1017 54 10000 1.28 12 13:32 20.11.2021
5350 Clouds 6 1016 64 10000 0.88 25 11:20 20.11.2021
5351 Clouds 7 1015 63 10000 1 26 09:54 20.11.2021
5352 Clouds 7 1015 66 10000 1.3 345 08:26 20.11.2021
5353 Clouds 7 1016 71 10000 2.05 355 05:30 20.11.2021
5354 Clouds 7 1017 71 10000 2.27 6 04:51 20.11.2021
5355 Clouds 8 1016 70 10000 2.86 31 03:25 20.11.2021
5356 Clouds 8 1015 69 10000 3.49 48 00:42 20.11.2021
5357 Clouds 9 1013 67 10000 4.01 52 23:44 19.11.2021
5358 Clouds 10 1011 61 10000 5.18 42 22:53 19.11.2021
5359 Clear 13 1007 48 10000 4.87 76 21:23 19.11.2021
5360 Clear 13 1007 48 10000 4.87 76 20:39 19.11.2021
5361 Clear 14 1007 44 10000 5.52 73 20:20 19.11.2021
5362 Clear 14 1007 44 10000 5.52 73 19:43 19.11.2021
5363 Clouds 16 1033 45 10000 5.14 60 18:44 19.11.2021
5364 Clouds 14 1034 47 10000 4.12 60 17:39 19.11.2021
5365 Clouds 13 1035 47 10000 6.17 60 16:40 19.11.2021
5366 Clouds 10 1035 62 10000 3.09 60 14:51 19.11.2021
5367 Clouds 7 1015 66 10000 1.86 33 10:57 19.11.2021
5368 Clouds 7 1014 64 10000 1.91 29 10:23 19.11.2021
5369 Clouds 8 1013 61 10000 1.4 36 08:32 19.11.2021
5370 Clouds 8 1014 73 10000 2.36 50 04:58 19.11.2021
5371 Clouds 8 1013 73 10000 2.6 64 03:37 19.11.2021
5372 Clear 13 1005 34 10000 2.55 104 23:54 18.11.2021
5373 Clear 15 1003 26 10000 1.25 159 22:49 18.11.2021
5374 Clear 18 1001 12 10000 1.56 221 20:57 18.11.2021
5375 Clear 18 1001 12 10000 1.56 221 20:39 18.11.2021
5376 Clear 18 1001 10 10000 1.13 169 20:19 18.11.2021
5377 Clear 18 1001 10 10000 1.13 169 19:36 18.11.2021
5378 Clouds 18 1031 27 10000 3.09 360 18:37 18.11.2021
5379 Clouds 17 1032 34 10000 0 0 17:52 18.11.2021
5380 Clouds 17 1032 34 10000 0 0 17:22 18.11.2021
5381 Clouds 16 1033 36 10000 0 0 16:42 18.11.2021
5382 Clouds 12 1033 44 10000 1.54 240 14:57 18.11.2021
5383 Clouds 5 1033 52 10000 0 0 12:56 18.11.2021
5384 Clouds 1 1033 60 10000 0 0 11:44 18.11.2021
5385 Clouds 1 1033 60 10000 0 0 11:26 18.11.2021
5386 Clouds 7 1012 54 10000 1.22 307 10:35 18.11.2021
5387 Clouds 8 1011 72 10000 1.21 285 08:44 18.11.2021
5388 Clouds 8 1010 73 10000 1.43 349 07:19 18.11.2021
5389 Clouds 9 1011 68 10000 1.88 9 05:46 18.11.2021
5390 Clouds 11 1008 60 10000 2.83 32 01:27 18.11.2021
5391 Clouds 11 1008 60 10000 2.83 32 01:27 18.11.2021
5392 Clouds 12 1006 57 10000 3.16 38 23:46 17.11.2021
5393 Clouds 13 1005 54 10000 4.23 53 22:40 17.11.2021
5394 Clouds 13 1005 54 10000 4.23 53 22:40 17.11.2021
5395 Clouds 14 1002 48 10000 4.42 48 22:19 17.11.2021
5396 Clouds 14 1002 48 10000 4.42 48 21:36 17.11.2021
5397 Clouds 16 1002 37 10000 5.1 38 20:18 17.11.2021
5398 Clouds 17 1032 42 10000 5.14 60 17:36 17.11.2021
5399 Clouds 16 1032 48 10000 0 0 16:45 17.11.2021
5400 Clouds 11 1034 66 10000 1.54 240 13:50 17.11.2021
5401 Clouds 9 1034 76 10000 0 0 12:39 17.11.2021
5402 Clouds 6 1033 87 10000 0 0 11:37 17.11.2021
5403 Clouds 7 1014 78 10000 1.43 6 09:58 17.11.2021
5404 Clouds 7 1013 75 10000 1.57 15 09:23 17.11.2021
5405 Clouds 7 1013 73 10000 1.6 18 07:41 17.11.2021
5406 Clouds 8 1015 71 10000 3.23 22 03:31 17.11.2021
5407 Clouds 10 1014 62 10000 3.62 105 00:46 17.11.2021
5408 Clouds 9 1012 72 10000 3.81 329 22:41 16.11.2021
5409 Clouds 15 1006 40 10000 7.21 68 20:20 16.11.2021
5410 Clouds 15 1006 40 10000 7.21 68 19:59 16.11.2021
5411 Clouds 16 1007 39 10000 6.88 68 18:53 16.11.2021
5412 Clouds 17 1007 32 10000 6.02 53 18:29 16.11.2021
5413 Clouds 17 1007 32 10000 6.02 53 17:34 16.11.2021
5414 Clouds 17 1008 30 10000 4.36 49 16:32 16.11.2021
5415 Clouds 15 1009 31 10000 2.93 50 15:49 16.11.2021
5416 Clouds 14 1011 34 10000 2.03 41 14:31 16.11.2021
5417 Clouds 9 1013 68 10000 0.85 38 11:22 16.11.2021
5418 Clouds 9 1012 67 10000 1.49 43 09:45 16.11.2021
5419 Clouds 10 1010 62 10000 1.47 28 08:26 16.11.2021
5420 Clouds 10 1010 62 10000 1.47 28 07:31 16.11.2021
5421 Clouds 12 1010 56 10000 2.02 60 01:38 16.11.2021
5422 Clouds 13 1007 47 10000 3.04 61 22:52 15.11.2021
5423 Clouds 13 1007 49 10000 4 89 22:21 15.11.2021
5424 Clouds 13 1007 49 10000 4 89 21:52 15.11.2021
5425 Clouds 14 1007 47 10000 3.24 120 21:28 15.11.2021
5426 Clouds 16 1004 35 10000 4.68 93 19:41 15.11.2021
5427 Clouds 15 1033 51 10000 5.14 60 18:30 15.11.2021
5428 Clouds 13 1034 62 10000 3.09 60 16:20 15.11.2021
5429 Clouds 11 1035 66 10000 1.54 60 15:40 15.11.2021
5430 Clouds 11 1035 66 10000 1.54 60 15:21 15.11.2021
5431 Clouds 8 1034 81 10000 1.54 60 13:29 15.11.2021
5432 Clouds 7 1014 83 10000 1.08 13 10:57 15.11.2021
5433 Clouds 7 1013 83 10000 1.63 325 09:27 15.11.2021
5434 Clouds 8 1013 82 10000 1.84 342 07:52 15.11.2021
5435 Clouds 8 1014 74 10000 2.53 27 05:19 15.11.2021
5436 Clouds 11 1009 61 10000 5.1 23 23:54 14.11.2021
5437 Clouds 13 1007 47 10000 6.62 37 22:35 14.11.2021
5438 Clouds 16 1006 25 10000 6.41 51 19:57 14.11.2021
5439 Clouds 17 1007 25 10000 5.15 55 19:18 14.11.2021
5440 Clouds 17 1007 26 10000 5.05 54 18:54 14.11.2021
5441 Clouds 17 1007 26 10000 5.05 54 18:36 14.11.2021
5442 Clouds 16 1008 26 10000 4.19 57 18:18 14.11.2021
5443 Clouds 16 1008 26 10000 4.19 57 17:56 14.11.2021
5444 Clouds 16 1008 26 10000 4.19 57 17:38 14.11.2021
5445 Clouds 15 1009 22 10000 2.42 54 17:20 14.11.2021
5446 Clouds 15 1009 22 10000 2.42 54 16:47 14.11.2021
5447 Clouds 14 1011 22 10000 1.42 48 16:20 14.11.2021
5448 Clouds 13 1012 23 10000 0.44 30 15:23 14.11.2021
5449 Clouds 13 1012 23 10000 0.44 30 14:49 14.11.2021
5450 Clouds 11 1013 26 10000 0.26 302 14:29 14.11.2021
5451 Clouds 11 1013 26 10000 0.26 302 13:57 14.11.2021
5452 Clouds 11 1013 26 10000 0.26 302 13:39 14.11.2021
5453 Clouds 9 1014 41 10000 0.82 220 12:28 14.11.2021
5454 Clouds 9 1014 41 10000 0.82 220 11:52 14.11.2021
5455 Clouds 7 1014 57 10000 1.01 233 10:42 14.11.2021
5456 Clouds 7 1013 62 10000 0.86 219 09:52 14.11.2021
5457 Clouds 7 1013 64 10000 0.91 239 08:55 14.11.2021
5458 Clouds 6 1014 70 10000 1.12 317 07:24 14.11.2021
5459 Clouds 8 1014 65 10000 4.46 351 01:24 14.11.2021
5460 Clouds 8 1011 76 10000 2.88 81 22:26 13.11.2021
5461 Clouds 8 1011 76 10000 2.88 81 21:57 13.11.2021
5462 Clouds 8 1011 76 7124 0.4 170 21:25 13.11.2021
5463 Clouds 11 1009 60 10000 2.55 292 19:48 13.11.2021
5464 Clouds 14 1007 46 9459 1.99 347 18:33 13.11.2021
5465 Clouds 15 1008 40 10000 3.58 33 17:56 13.11.2021
5466 Clouds 14 1010 42 10000 3.52 20 16:38 13.11.2021
5467 Clouds 13 1012 47 10000 2.87 354 15:37 13.11.2021
5468 Clouds 11 1014 55 10000 2.6 349 14:33 13.11.2021
5469 Clouds 10 1015 62 10000 2.46 346 13:38 13.11.2021
5470 Clouds 7 1016 78 10000 1.66 2 12:28 13.11.2021
5471 Clouds 7 1016 78 10000 1.66 2 11:38 13.11.2021
5472 Clouds 7 1016 86 10000 1.23 12 10:45 13.11.2021
5473 Clouds 7 1015 87 10000 1.29 9 10:23 13.11.2021
5474 Clouds 7 1015 87 10000 1.29 9 09:38 13.11.2021
5475 Clouds 7 1015 86 10000 1.29 19 08:56 13.11.2021
5476 Clouds 7 1015 86 10000 1.29 19 08:34 13.11.2021
5477 Clouds 8 1015 77 10000 2.29 14 06:27 13.11.2021
5478 Clouds 8 1016 75 10000 2.84 22 04:32 13.11.2021
5479 Clouds 10 1015 62 10000 2.32 28 01:54 13.11.2021
5480 Clouds 9 1014 69 10000 2.51 78 23:23 12.11.2021
5481 Clouds 10 1013 66 10000 3.53 107 21:51 12.11.2021
5482 Clouds 14 1009 44 10000 6 33 20:19 12.11.2021
5483 Clouds 14 1009 44 10000 6 33 19:30 12.11.2021
5484 Clouds 16 1035 42 10000 7.72 60 18:52 12.11.2021
5485 Clouds 14 1037 55 10000 5.14 60 16:40 12.11.2021
5486 Clouds 13 1038 58 10000 3.09 60 15:34 12.11.2021
5487 Clouds 9 1039 71 10000 1.54 240 13:21 12.11.2021
5488 Clouds 5 1037 93 10000 0 0 11:21 12.11.2021
5489 Clouds 7 1017 79 10000 1.67 54 09:45 12.11.2021
5490 Clouds 7 1016 78 10000 1.76 71 08:44 12.11.2021
5491 Clouds 8 1017 74 10000 2.09 67 05:54 12.11.2021
5492 Clouds 11 1012 58 10000 3.72 59 23:43 11.11.2021
5493 Clouds 11 1012 58 10000 3.72 59 23:43 11.11.2021
5494 Clouds 12 1010 53 10000 3.65 64 22:46 11.11.2021
5495 Clouds 13 1009 47 10000 4.42 58 21:29 11.11.2021
5496 Clouds 13 1009 47 10000 4.42 58 20:48 11.11.2021
5497 Clouds 14 1009 47 10000 4.02 89 19:30 11.11.2021
5498 Clouds 14 1035 51 10000 5.14 60 18:25 11.11.2021
5499 Clouds 14 1035 51 10000 4.12 60 17:37 11.11.2021
5500 Clouds 13 1037 54 10000 4.12 60 15:20 11.11.2021
5501 Clouds 11 1037 58 10000 2.06 60 14:36 11.11.2021
5502 Clouds 11 1037 58 10000 2.06 60 14:18 11.11.2021
5503 Clouds 9 1037 62 10000 2.06 300 13:34 11.11.2021
5504 Clouds 5 1036 87 10000 2.06 220 11:57 11.11.2021
5505 Clouds 7 1015 73 10000 1.33 79 09:54 11.11.2021
5506 Clouds 8 1014 67 10000 1.54 44 08:28 11.11.2021
5507 Clouds 8 1014 71 10000 1.98 5 06:44 11.11.2021
5508 Clouds 9 1014 70 10000 2.79 8 00:37 11.11.2021
5509 Clouds 10 1011 65 10000 6.23 22 22:41 10.11.2021
5510 Clouds 11 1010 60 10000 6.64 26 21:46 10.11.2021
5511 Clouds 12 1008 55 10000 7.83 21 20:53 10.11.2021
5512 Clouds 14 1007 45 10000 5.19 20 19:50 10.11.2021
5513 Clouds 14 1007 44 10000 6.94 21 19:32 10.11.2021
5514 Clouds 14 1035 44 10000 5.14 60 16:50 10.11.2021
5515 Clouds 12 1035 54 10000 2.06 60 15:46 10.11.2021
5516 Clouds 10 1035 62 10000 3.09 60 14:24 10.11.2021
5517 Clouds 9 1035 66 10000 1.54 60 13:31 10.11.2021
5518 Clouds 2 1035 93 10000 0 0 11:40 10.11.2021
5519 Clouds 7 1013 70 10000 1.55 25 09:18 10.11.2021
5520 Clouds 7 1013 70 10000 1.55 25 08:41 10.11.2021
5521 Clouds 7 1014 73 10000 1.97 21 06:45 10.11.2021
5522 Clouds 7 1015 72 10000 1.99 36 05:58 10.11.2021
5523 Clouds 9 1014 67 10000 3.2 32 01:56 10.11.2021
5524 Clouds 12 1032 58 10000 9.26 60 21:59 09.11.2021
5525 Clouds 15 1032 44 10000 7.72 80 20:39 09.11.2021
5526 Clouds 15 1007 31 10000 3.85 53 19:29 09.11.2021
5527 Clouds 15 1034 44 10000 6.17 60 18:49 09.11.2021
5528 Clouds 14 1035 51 10000 4.12 60 16:53 09.11.2021
5529 Clouds 12 1037 58 10000 3.09 60 15:20 09.11.2021
5530 Clouds 9 1037 71 10000 2.06 90 13:31 09.11.2021
5531 Clouds 6 1037 81 10000 0 0 12:47 09.11.2021
5532 Clouds 6 1017 81 10000 1.6 53 10:58 09.11.2021
5533 Clouds 6 1016 80 10000 1.66 63 09:59 09.11.2021
5534 Clouds 7 1015 77 10000 1.5 63 09:21 09.11.2021
5535 Clouds 7 1014 74 10000 1.5 67 07:52 09.11.2021
5536 Clear 9 1014 64 10000 2.13 18 02:37 09.11.2021
5537 Clear 10 1013 62 10000 3.17 17 01:55 09.11.2021
5538 Clear 10 1013 62 10000 3.17 17 01:36 09.11.2021
5539 Clouds 11 1010 55 10000 4.33 15 23:31 08.11.2021
5540 Clouds 12 1009 50 10000 3.93 29 22:45 08.11.2021
5541 Clouds 13 1007 48 10000 4.83 49 21:45 08.11.2021
5542 Clouds 14 1007 46 10000 4.55 74 20:36 08.11.2021
5543 Clouds 15 1006 42 10000 6.58 60 19:40 08.11.2021
5544 Clouds 16 1034 36 10000 4.12 60 17:44 08.11.2021
5545 Clouds 14 1036 36 10000 0 0 15:56 08.11.2021
5546 Clouds 11 1036 32 10000 3.09 240 14:57 08.11.2021
5547 Clouds 11 1036 32 10000 3.09 240 14:33 08.11.2021
5548 Clouds 8 1036 49 10000 0 0 13:18 08.11.2021
5549 Clouds 3 1035 81 10000 0 0 11:55 08.11.2021
5550 Clouds 7 1015 76 10000 1.08 15 10:50 08.11.2021
5551 Clouds 8 1013 68 10000 1.34 7 09:26 08.11.2021
5552 Clouds 8 1013 68 10000 1.34 7 08:42 08.11.2021
5553 Clouds 9 1012 67 10000 1.09 0 06:56 08.11.2021
5554 Clouds 10 1013 66 10000 1.81 351 03:36 08.11.2021
5555 Clouds 11 1012 58 10000 2.7 11 01:35 08.11.2021
5556 Clouds 13 1008 46 10000 3.75 34 23:25 07.11.2021
5557 Clouds 14 1007 41 10000 4.2 68 21:31 07.11.2021
5558 Clouds 15 1006 33 10000 5.89 62 20:36 07.11.2021
5559 Clouds 17 1006 14 10000 3.07 37 19:19 07.11.2021
5560 Clouds 17 1008 15 10000 2.92 31 17:44 07.11.2021
5561 Clouds 15 1011 19 10000 2.41 11 16:42 07.11.2021
5562 Clouds 14 1013 26 10000 2.3 349 15:41 07.11.2021
5563 Clouds 10 1016 45 10000 1.94 340 14:28 07.11.2021
5564 Clouds 8 1017 57 10000 1.49 346 12:55 07.11.2021
5565 Clouds 7 1017 73 10000 1.06 358 11:42 07.11.2021
5566 Clouds 6 1015 82 10000 1.25 349 09:21 07.11.2021
5567 Clouds 8 1015 71 10000 1.81 344 04:33 07.11.2021
5568 Clouds 10 1014 55 10000 2.9 40 02:28 07.11.2021
5569 Clouds 14 1007 32 10000 0.72 31 22:57 06.11.2021
5570 Clouds 16 1005 20 10000 0.26 268 22:29 06.11.2021
5571 Clouds 17 1005 17 10000 1.22 147 21:27 06.11.2021
5572 Clouds 17 1005 17 10000 1.22 147 20:30 06.11.2021
5573 Clouds 17 1006 11 10000 0.61 135 18:56 06.11.2021
5574 Clouds 14 1011 16 10000 1.58 324 16:38 06.11.2021
5575 Clouds 11 1015 33 10000 1.56 330 14:31 06.11.2021
5576 Clouds 10 1016 45 10000 1.29 329 13:38 06.11.2021
5577 Clouds 6 1017 80 10000 1.18 347 11:25 06.11.2021
5578 Clear 6 1015 78 10000 1.18 352 09:21 06.11.2021
5579 Clouds 6 1017 74 10000 2.45 343 04:56 06.11.2021
5580 Clouds 7 1016 78 10000 3.8 356 01:27 06.11.2021
5581 Clouds 8 1014 74 10000 4.58 11 23:34 05.11.2021
5582 Clouds 9 1011 70 10000 4.9 14 22:33 05.11.2021
5583 Clouds 9 1011 70 10000 4.9 14 22:33 05.11.2021
5584 Clouds 15 1031 44 10000 5.14 60 20:50 05.11.2021
5585 Clouds 15 1031 44 10000 5.14 60 20:19 05.11.2021
5586 Clouds 16 1032 42 10000 5.14 60 19:32 05.11.2021
5587 Clouds 15 1033 44 10000 5.14 80 18:38 05.11.2021
5588 Clouds 16 1033 42 10000 6.17 60 17:25 05.11.2021
5589 Clouds 13 1034 44 10000 4.12 60 15:20 05.11.2021
5590 Clouds 9 1034 57 10000 0 0 13:35 05.11.2021
5591 Clouds 8 1011 52 10000 1.07 271 10:29 05.11.2021
5592 Clouds 8 1011 54 10000 1.35 297 08:39 05.11.2021
5593 Clouds 8 1012 55 10000 1.21 318 07:21 05.11.2021
5594 Clouds 8 1014 61 10000 2.11 307 04:43 05.11.2021
5595 Clouds 7 1015 67 10000 1.94 347 02:24 05.11.2021
5596 Clouds 7 1014 73 10000 0.98 32 00:30 05.11.2021
5597 Clouds 12 1007 46 10000 7.52 22 22:59 04.11.2021
5598 Clouds 12 1006 44 10000 3.12 69 22:18 04.11.2021
5599 Clouds 12 1006 44 10000 3.12 69 21:31 04.11.2021
5600 Clouds 13 1006 47 10000 6.62 62 20:40 04.11.2021
5601 Clouds 17 1003 21 10000 2.26 14 20:19 04.11.2021
5602 Clouds 17 1003 21 10000 2.26 14 19:40 04.11.2021
5603 Clouds 18 1032 27 10000 5.14 40 18:43 04.11.2021
5604 Clouds 17 1032 29 10000 3.09 20 17:36 04.11.2021
5605 Clouds 16 1033 29 10000 4.12 360 16:29 04.11.2021
5606 Clouds 13 1034 44 10000 0 0 14:20 04.11.2021
5607 Clouds 1 1033 93 10000 0 0 11:43 04.11.2021
5608 Clouds 8 1011 74 10000 1.24 328 09:29 04.11.2021
5609 Clouds 8 1011 74 10000 1.24 328 08:30 04.11.2021
5610 Clouds 8 1010 72 10000 1.63 350 07:34 04.11.2021
5611 Clouds 11 1008 49 10000 3.99 356 23:54 03.11.2021
5612 Clouds 13 1006 44 10000 4.4 32 22:50 03.11.2021
5613 Clouds 14 1006 41 10000 4.69 66 21:47 03.11.2021
5614 Clouds 15 1005 37 10000 5.34 71 21:25 03.11.2021
5615 Clouds 14 1005 40 10000 5.21 71 20:34 03.11.2021
5616 Clouds 16 1004 26 10000 4.96 35 19:40 03.11.2021
5617 Clouds 17 1033 42 10000 4.12 40 18:55 03.11.2021
5618 Clouds 17 1033 42 10000 4.12 40 18:19 03.11.2021
5619 Clouds 16 1033 48 10000 4.12 40 17:34 03.11.2021
5620 Clear 13 1013 36 10000 2.58 356 16:18 03.11.2021
5621 Clouds 13 1036 58 10000 0 0 15:42 03.11.2021
5622 Clouds 8 1036 76 10000 3.09 240 13:49 03.11.2021
5623 Clouds 3 1035 93 10000 0 0 11:39 03.11.2021
5624 Clouds 6 1017 79 10000 2.01 3 10:53 03.11.2021
5625 Clouds 6 1015 76 10000 1.79 22 10:28 03.11.2021
5626 Clouds 7 1015 74 10000 1.81 37 09:29 03.11.2021
5627 Clouds 7 1014 74 10000 1.92 40 08:22 03.11.2021
5628 Clouds 7 1014 74 10000 1.92 40 07:39 03.11.2021
5629 Clouds 8 1015 69 10000 1.93 21 04:26 03.11.2021
5630 Clear 10 1014 61 10000 2.71 24 01:49 03.11.2021
5631 Clear 10 1014 61 10000 2.71 24 01:49 03.11.2021
5632 Clouds 12 1010 46 10000 3.16 53 23:33 02.11.2021
5633 Clouds 14 1007 37 10000 3.5 42 22:29 02.11.2021
5634 Clouds 14 1006 36 10000 4.14 68 20:54 02.11.2021
5635 Clouds 14 1006 36 10000 4.14 68 20:32 02.11.2021
5636 Clouds 15 1007 36 10000 4.84 85 19:47 02.11.2021
5637 Clouds 16 1007 29 10000 4.21 52 18:59 02.11.2021
5638 Clouds 15 1009 29 10000 3.55 27 17:58 02.11.2021
5639 Clouds 15 1009 29 10000 3.55 27 17:32 02.11.2021
5640 Clear 13 1014 41 10000 3.09 359 16:29 02.11.2021
5641 Clear 13 1014 41 10000 3.09 359 15:30 02.11.2021
5642 Clouds 10 1016 52 10000 2.62 4 14:22 02.11.2021
5643 Clouds 9 1017 57 10000 2.13 17 13:27 02.11.2021
5644 Clear 9 1017 56 10000 2 24 12:33 02.11.2021
5645 Clear 8 1017 61 10000 1.84 53 11:32 02.11.2021
5646 Clear 7 1016 68 10000 1.61 56 10:51 02.11.2021
5647 Clear 7 1015 67 10000 1.69 49 10:26 02.11.2021
5648 Clear 8 1015 66 10000 1.6 55 08:43 02.11.2021
5649 Clouds 8 1015 62 10000 1.29 38 06:53 02.11.2021
5650 Clouds 9 1017 65 10000 1.89 350 03:48 02.11.2021
5651 Clouds 10 1016 58 10000 2.9 17 02:18 02.11.2021
5652 Clouds 10 1013 61 10000 2.56 36 22:47 01.11.2021
5653 Clouds 15 1007 33 10000 4.85 48 20:52 01.11.2021
5654 Clouds 15 1007 33 10000 4.85 48 20:33 01.11.2021
5655 Clouds 17 1007 24 10000 4.35 59 19:52 01.11.2021
5656 Clouds 16 1009 22 10000 3.44 38 19:25 01.11.2021
5657 Clouds 16 1035 42 10000 2.57 360 18:21 01.11.2021
5658 Clouds 14 1037 51 10000 3.09 40 17:21 01.11.2021
5659 Clouds 12 1039 58 10000 3.09 40 16:45 01.11.2021
5660 Clouds 10 1040 62 10000 1.54 20 15:47 01.11.2021
5661 Clouds 10 1040 62 10000 1.54 20 15:21 01.11.2021
5662 Clouds 9 1040 71 10000 4.12 360 14:42 01.11.2021
5663 Clouds 9 1040 71 10000 4.12 360 14:20 01.11.2021
5664 Clouds 7 1040 81 10000 0 0 13:25 01.11.2021
5665 Clouds 5 1040 87 10000 0 0 12:25 01.11.2021
5666 Clouds 6 1018 85 10000 1.2 21 10:33 01.11.2021
5667 Clouds 7 1017 81 10000 1.44 19 08:53 01.11.2021
5668 Clouds 7 1017 80 10000 1.35 11 07:48 01.11.2021
5669 Clouds 7 1018 77 10000 1.86 9 05:57 01.11.2021
5670 Clouds 7 1019 73 10000 1.91 24 03:44 01.11.2021
5671 Clouds 6 1019 73 10000 2.13 18 00:27 01.11.2021
5672 Clouds 6 1018 79 9602 4.62 45 21:55 31.10.2021
5673 Clouds 9 1015 60 10000 3.73 353 20:36 31.10.2021
5674 Clear 15 1011 28 10000 4.79 37 18:54 31.10.2021
5675 Clear 15 1011 28 10000 4.79 37 18:32 31.10.2021
5676 Clear 14 1015 33 10000 2.93 8 16:53 31.10.2021
5677 Clear 11 1018 49 10000 2.19 357 15:29 31.10.2021
5678 Clear 9 1019 58 10000 1.79 10 13:38 31.10.2021
5679 Clouds 8 1020 66 10000 0.54 357 12:37 31.10.2021
5680 Clouds 6 1020 77 10000 1.25 345 10:57 31.10.2021
5681 Clouds 6 1020 77 10000 1.25 345 10:36 31.10.2021
5682 Clouds 6 1018 78 10000 1.24 11 09:19 31.10.2021
5683 Clear 8 1018 74 10000 1.97 355 04:55 31.10.2021
5684 Clouds 9 1015 68 10000 3.85 63 00:48 31.10.2021
5685 Clouds 14 1008 37 10000 2.23 102 22:33 30.10.2021
5686 Clouds 13 1009 39 10000 2.76 95 21:33 30.10.2021
5687 Clouds 16 1009 27 10000 3.83 86 20:19 30.10.2021
5688 Clear 15 1011 28 10000 2.85 76 18:33 30.10.2021
5689 Clear 13 1015 39 10000 2.38 17 16:42 30.10.2021
5690 Clear 10 1017 52 10000 1.23 357 14:36 30.10.2021
5691 Clear 8 1018 63 10000 0.95 24 13:39 30.10.2021
5692 Clear 6 1018 71 10000 0.56 55 13:20 30.10.2021
5693 Clear 5 1018 81 10000 0.6 72 11:51 30.10.2021
5694 Clear 5 1018 81 10000 0.6 72 11:32 30.10.2021
5695 Clear 5 1017 81 10000 0.49 251 10:24 30.10.2021
5696 Clear 5 1017 82 10000 0.74 243 08:48 30.10.2021
5697 Clouds 5 1020 86 10000 1.13 351 06:26 30.10.2021
5698 Clouds 5 1020 86 10000 1.13 351 05:38 30.10.2021
5699 Clouds 6 1019 79 10000 2.68 354 00:43 30.10.2021
5700 Clouds 5 1020 86 9769 0.98 326 22:37 29.10.2021
5701 Clouds 5 1021 88 2344 3.07 54 21:52 29.10.2021
5702 Clouds 10 1015 58 10000 2.9 72 20:44 29.10.2021
5703 Clouds 16 1040 45 10000 6.17 40 19:49 29.10.2021
5704 Clouds 14 1042 55 10000 4.12 60 18:27 29.10.2021
5705 Clouds 9 1043 62 10000 4.12 60 16:51 29.10.2021
5706 Clouds 7 1043 76 10000 3.09 60 14:33 29.10.2021
5707 Clouds 5 1023 88 8638 0.26 59 11:43 29.10.2021
5708 Clouds 5 1022 87 10000 0.73 78 10:35 29.10.2021
5709 Clouds 6 1021 81 9619 0.8 228 08:19 29.10.2021
5710 Clouds 4 1024 86 2822 1.14 234 00:36 29.10.2021
5711 Clouds 3 1024 95 683 2.78 76 22:59 28.10.2021
5712 Clouds 7 1020 71 1353 2.58 50 21:56 28.10.2021
5713 Clouds 12 1015 45 10000 7.08 56 20:32 28.10.2021
5714 Clouds 15 1042 33 10000 4.12 60 19:48 28.10.2021
5715 Clouds 14 1043 38 10000 5.14 60 18:23 28.10.2021
5716 Clouds 11 1044 54 10000 4.12 60 16:58 28.10.2021
5717 Clear 9 1044 57 10000 0 0 15:24 28.10.2021
5718 Clouds 3 1044 87 10000 0 0 13:46 28.10.2021
5719 Clouds 3 1044 87 10000 0 0 13:22 28.10.2021
5720 Clouds -1 1044 100 10000 0 0 12:41 28.10.2021
5721 Clouds 4 1023 73 10000 1.25 25 10:57 28.10.2021
5722 Clouds 4 1022 70 10000 1.29 28 09:39 28.10.2021
5723 Clouds 5 1022 68 10000 1.89 18 08:59 28.10.2021
5724 Clouds 5 1022 68 10000 1.89 18 08:34 28.10.2021
5725 Clouds 6 1022 65 10000 2.28 31 07:20 28.10.2021
5726 Clouds 9 1017 48 10000 5.69 46 23:59 27.10.2021
5727 Clouds 9 1017 49 10000 4.22 59 22:31 27.10.2021
5728 Clouds 11 1015 38 10000 5.62 68 21:33 27.10.2021
5729 Clouds 14 1013 26 10000 4.4 68 20:53 27.10.2021
5730 Clouds 14 1013 26 10000 4.4 68 20:33 27.10.2021
5731 Clouds 14 1039 38 10000 5.14 80 19:41 27.10.2021
5732 Clouds 12 1040 44 10000 5.14 40 18:53 27.10.2021
5733 Clouds 11 1042 47 10000 5.14 60 16:38 27.10.2021
5734 Clouds 11 1042 47 10000 5.14 60 16:18 27.10.2021
5735 Clouds 9 1042 57 10000 3.09 60 15:21 27.10.2021
5736 Clouds 0 1040 86 10000 1.54 240 12:51 27.10.2021
5737 Clouds 4 1020 59 10000 0.86 307 10:58 27.10.2021
5738 Clouds 5 1020 56 10000 1.66 324 10:00 27.10.2021
5739 Clouds 5 1020 53 10000 2.39 337 08:58 27.10.2021
5740 Clouds 4 1020 59 10000 2.03 4 07:36 27.10.2021
5741 Clouds 4 1022 62 10000 1.44 265 05:34 27.10.2021
5742 Clouds 5 1021 57 10000 4.44 18 00:58 27.10.2021
5743 Clouds 5 1021 57 10000 4.42 18 00:33 27.10.2021
5744 Clouds 6 1020 48 10000 5.74 13 23:51 26.10.2021
5745 Clouds 10 1015 31 10000 7.19 39 22:42 26.10.2021
5746 Clouds 9 1017 35 10000 4.82 19 22:19 26.10.2021
5747 Clouds 12 1014 25 10000 8.27 30 20:51 26.10.2021
5748 Clouds 13 1040 38 10000 6.17 60 19:33 26.10.2021
5749 Clouds 12 1041 38 10000 5.14 80 18:53 26.10.2021
5750 Clear 11 1042 40 10000 5.14 60 16:58 26.10.2021
5751 Clear 8 1043 49 10000 4.12 60 15:40 26.10.2021
5752 Clear 3 1023 64 10000 0.17 223 11:50 26.10.2021
5753 Clear 3 1023 65 10000 0.41 1 10:46 26.10.2021
5754 Clouds 4 1022 55 10000 1.64 350 08:24 26.10.2021
5755 Clouds 5 1022 53 10000 2.39 12 07:21 26.10.2021
5756 Clouds 9 1016 38 10000 10.27 60 23:53 25.10.2021
5757 Clouds 11 1014 25 10000 8.76 60 23:20 25.10.2021
5758 Clouds 11 1014 24 10000 5.61 80 22:21 25.10.2021
5759 Clouds 11 1014 24 10000 5.61 80 21:42 25.10.2021
5760 Clouds 12 1015 23 10000 7.47 78 20:26 25.10.2021
5761 Clouds 10 1039 40 10000 7.72 200 19:43 25.10.2021
5762 Clouds 10 1039 40 10000 7.72 200 19:21 25.10.2021
5763 Clouds 11 1039 43 10000 4.12 60 18:33 25.10.2021
5764 Clear 10 1019 21 10000 2.36 36 16:38 25.10.2021
5765 Clear 6 1022 38 10000 0.45 73 14:47 25.10.2021
5766 Clouds 3 1023 70 10000 1.09 352 12:31 25.10.2021
5767 Clouds 3 1022 70 10000 1.27 334 10:46 25.10.2021
5768 Clouds 3 1021 64 10000 0.62 345 08:57 25.10.2021
5769 Clouds 4 1022 71 10000 1.68 17 06:27 25.10.2021
5770 Clouds 4 1022 72 10000 2.94 69 03:18 25.10.2021
5771 Clouds 5 1019 71 10000 3.24 72 00:49 25.10.2021
5772 Clouds 5 1019 71 10000 3.24 72 00:31 25.10.2021
5773 Clouds 5 1018 70 10000 4.96 80 23:33 24.10.2021
5774 Clouds 9 1013 47 10000 5.7 85 22:37 24.10.2021
5775 Clear 15 1006 18 10000 1.67 225 22:19 24.10.2021
5776 Clear 17 1006 7 10000 9.37 258 20:54 24.10.2021
5777 Clear 17 1006 7 10000 10.41 275 20:28 24.10.2021
5778 Clear 17 1008 7 10000 10.61 277 19:29 24.10.2021
5779 Clear 16 1010 7 10000 10.71 277 18:28 24.10.2021
5780 Clear 16 1010 7 10000 10.71 277 17:43 24.10.2021
5781 Clear 12 1014 11 10000 5.4 320 15:55 24.10.2021
5782 Clear 11 1016 13 10000 5.27 318 14:41 24.10.2021
5783 Clear 7 1017 17 10000 2.13 277 12:58 24.10.2021
5784 Clear 5 1017 22 10000 2.37 315 11:44 24.10.2021
5785 Clear 6 1016 21 10000 2.71 322 10:56 24.10.2021
5786 Clear 6 1014 20 10000 2.75 325 10:27 24.10.2021
5787 Clear 7 1014 18 10000 2.03 335 07:47 24.10.2021
5788 Clouds 14 1008 10 10000 9.81 242 01:21 24.10.2021
5789 Clouds 16 1006 9 10000 10.8 247 23:47 23.10.2021
5790 Clear 18 1004 8 10000 9.91 263 22:18 23.10.2021
5791 Clear 19 1005 8 10000 11.78 269 20:37 23.10.2021
5792 Clear 18 1007 9 10000 10.07 280 18:59 23.10.2021
5793 Clear 18 1007 9 10000 10.07 280 18:30 23.10.2021
5794 Clear 17 1008 10 10000 10.42 277 17:43 23.10.2021
5795 Clear 15 1011 12 10000 10.01 268 16:24 23.10.2021
5796 Clouds 13 1012 13 10000 9.37 264 14:32 23.10.2021
5797 Clear 7 1013 16 10000 2.69 285 09:45 23.10.2021
5798 Clear 17 1005 6 10000 8.11 235 00:22 23.10.2021
5799 Clear 18 1004 5 10000 6.85 240 23:18 22.10.2021
5800 Clear 19 1004 5 10000 4.76 247 20:50 22.10.2021
5801 Clouds 17 1034 27 10000 4.12 240 18:45 22.10.2021
5802 Clouds 15 1035 29 10000 5.14 200 17:44 22.10.2021
5803 Clouds 11 1036 30 10000 4.12 240 15:37 22.10.2021
5804 Clear 4 1036 60 10000 3.09 240 13:54 22.10.2021
5805 Clear 5 1016 27 10000 1.88 286 11:33 22.10.2021
5806 Clear 6 1016 32 10000 1.59 277 10:48 22.10.2021
5807 Clear 6 1015 39 10000 1.42 268 09:56 22.10.2021
5808 Clear 6 1015 45 10000 1.19 255 08:36 22.10.2021
5809 Clouds 7 1016 51 10000 1.48 342 07:23 22.10.2021
5810 Clouds 10 1015 38 10000 0.96 311 03:32 22.10.2021
5811 Clouds 16 1007 5 10000 7.66 243 00:19 22.10.2021
5812 Clouds 16 1007 5 10000 7.66 243 23:39 21.10.2021
5813 Clear 18 1006 5 10000 9.94 244 22:21 21.10.2021
5814 Clear 19 1034 22 10000 10.29 200 20:53 21.10.2021
5815 Clouds 19 1034 22 10000 10.29 200 20:19 21.10.2021
5816 Clouds 18 1035 24 10000 7.72 200 19:30 21.10.2021
5817 Clouds 17 1036 27 10000 3.09 240 18:52 21.10.2021
5818 Clouds 17 1036 27 10000 3.09 240 18:19 21.10.2021
5819 Clouds 15 1037 29 10000 4.12 200 17:39 21.10.2021
5820 Clouds 12 1037 24 10000 7.72 200 16:18 21.10.2021
5821 Clouds 9 1038 32 10000 4.12 240 15:21 21.10.2021
5822 Clouds 5 1037 36 10000 4.12 240 14:39 21.10.2021
5823 Clouds 2 1037 52 10000 3.09 240 13:20 21.10.2021
5824 Clouds 5 1016 14 10000 1.82 282 11:27 21.10.2021
5825 Clouds 6 1015 15 10000 1.93 269 08:59 21.10.2021
5826 Clouds 7 1016 24 10000 1.57 274 07:29 21.10.2021
5827 Clear 10 1015 25 10000 1.05 344 03:49 21.10.2021
5828 Clouds 15 1009 6 10000 6.49 255 23:45 20.10.2021
5829 Clouds 17 1007 5 10000 7.41 265 22:21 20.10.2021
5830 Clouds 17 1007 5 10000 7.41 265 21:43 20.10.2021
5831 Clouds 17 1008 5 10000 6.37 267 20:56 20.10.2021
5832 Clouds 17 1008 5 10000 6.37 267 20:35 20.10.2021
5833 Clouds 17 1035 25 10000 7.72 200 19:59 20.10.2021
5834 Clouds 16 1036 25 10000 9.26 200 18:56 20.10.2021
5835 Clouds 14 1037 26 10000 5.14 200 17:51 20.10.2021
5836 Clouds 4 1039 60 10000 5.14 240 15:44 20.10.2021
5837 Clouds 4 1019 70 10000 1.72 291 11:42 20.10.2021
5838 Clouds 4 1018 78 10000 1.9 326 08:54 20.10.2021
5839 Clear 6 1019 70 10000 3 26 05:23 20.10.2021
5840 Clouds 10 1013 41 10000 2.03 49 00:48 20.10.2021
5841 Clouds 10 1013 41 10000 2.03 49 00:48 20.10.2021
5842 Clouds 13 1011 26 10000 0.76 172 00:22 20.10.2021
5843 Clouds 17 1006 11 10000 4.95 290 21:45 19.10.2021
5844 Clouds 17 1006 8 10000 5.38 277 20:56 19.10.2021
5845 Clouds 17 1007 7 10000 5.65 263 20:25 19.10.2021
5846 Clouds 17 1036 39 10000 0 0 19:44 19.10.2021
5847 Clouds 17 1036 39 10000 0 0 19:20 19.10.2021
5848 Clouds 14 1038 44 10000 1.54 90 17:59 19.10.2021
5849 Clouds 9 1039 62 10000 0 0 15:57 19.10.2021
5850 Clouds 9 1039 62 10000 0 0 15:20 19.10.2021
5851 Clouds 7 1039 71 10000 0 0 14:27 19.10.2021
5852 Clouds 3 1037 87 10000 0 0 13:36 19.10.2021
5853 Clouds 4 1019 79 10000 1.75 358 11:37 19.10.2021
5854 Clouds 5 1018 78 10000 1.43 3 10:39 19.10.2021
5855 Clouds 5 1017 79 10000 2.02 13 08:59 19.10.2021
5856 Clouds 5 1018 78 10000 2.27 14 07:50 19.10.2021
5857 Clouds 15 1007 7 10000 7.16 280 00:27 19.10.2021
5858 Clouds 15 1007 7 10000 7.16 280 23:56 18.10.2021
5859 Clouds 16 1006 6 10000 9.27 275 23:20 18.10.2021
5860 Clouds 16 1006 6 10000 9.27 275 22:54 18.10.2021
5861 Clouds 17 1005 5 10000 8.58 280 21:54 18.10.2021
5862 Clouds 18 1006 5 10000 7.87 282 20:42 18.10.2021
5863 Clouds 18 1007 6 10000 8.09 279 20:20 18.10.2021
5864 Clouds 16 1033 29 10000 3.09 60 19:30 18.10.2021
5865 Clouds 16 1036 31 10000 3.09 40 18:58 18.10.2021
5866 Clouds 10 1037 43 10000 1.54 200 15:56 18.10.2021
5867 Clouds 7 1036 34 10000 2.06 240 14:30 18.10.2021
5868 Clouds 4 1018 31 10000 1.75 337 11:44 18.10.2021
5869 Clear 5 1016 30 10000 1.76 320 09:42 18.10.2021
5870 Clear 7 1015 30 10000 1.91 323 06:39 18.10.2021
5871 Clouds 15 1008 5 10000 6.47 278 23:52 17.10.2021
5872 Clouds 17 1006 5 10000 9.2 277 22:23 17.10.2021
5873 Clouds 17 1006 5 10000 9.2 277 21:42 17.10.2021
5874 Clouds 18 1007 5 10000 8.72 278 20:49 17.10.2021
5875 Clouds 17 1008 6 10000 8.93 277 19:56 17.10.2021
5876 Clouds 17 1008 6 10000 8.93 277 19:37 17.10.2021
5877 Clouds 16 1011 6 10000 8.77 271 18:28 17.10.2021
5878 Clouds 16 1012 6 10000 8.92 273 16:38 17.10.2021
5879 Clouds 11 1016 9 10000 2.63 299 14:39 17.10.2021
5880 Clouds 9 1017 11 10000 2.14 301 13:59 17.10.2021
5881 Clouds 9 1017 11 10000 2.14 301 13:30 17.10.2021
5882 Clouds 5 1017 23 10000 1.92 297 11:31 17.10.2021
5883 Clouds 6 1016 33 10000 1.86 296 10:19 17.10.2021
5884 Clear 7 1015 36 10000 1.56 289 08:29 17.10.2021
5885 Clear 12 1012 18 10000 1.61 200 02:57 17.10.2021
5886 Clear 14 1010 8 10000 5.64 267 00:31 17.10.2021
5887 Clear 16 1007 6 10000 8.22 275 22:54 16.10.2021
5888 Clear 17 1007 7 10000 8.27 276 20:45 16.10.2021
5889 Clear 17 1008 7 10000 7.56 278 20:27 16.10.2021
5890 Clear 17 1008 7 10000 7.56 278 19:40 16.10.2021
5891 Clear 17 1009 7 10000 7.79 281 19:19 16.10.2021
5892 Clear 17 1009 7 10000 7.79 281 19:19 16.10.2021
5893 Clear 17 1009 7 10000 7.79 281 18:44 16.10.2021
5894 Clear 16 1011 8 10000 7.28 292 18:23 16.10.2021
5895 Clear 16 1011 8 10000 7.28 292 17:33 16.10.2021
5896 Clear 12 1016 12 10000 4.8 299 16:20 16.10.2021
5897 Clear 6 1018 48 10000 2.12 340 13:26 16.10.2021
5898 Clear 6 1016 55 10000 1.59 351 11:25 16.10.2021
5899 Clear 6 1015 54 10000 1.64 346 09:35 16.10.2021
5900 Clear 10 1013 53 10000 1.2 22 04:33 16.10.2021
5901 Clear 14 1008 14 10000 7.78 270 01:22 16.10.2021
5902 Clear 16 1005 11 10000 9.33 291 23:27 15.10.2021
5903 Clear 17 1004 10 10000 8.67 293 22:21 15.10.2021
5904 Clear 17 1004 10 10000 8.67 293 21:45 15.10.2021
5905 Clear 17 1004 12 10000 5.35 325 21:19 15.10.2021
5906 Clear 17 1004 12 10000 5.35 325 20:41 15.10.2021
5907 Clouds 17 1033 25 10000 5.14 40 19:20 15.10.2021
5908 Clouds 15 1034 29 10000 4.12 40 18:25 15.10.2021
5909 Clear 13 1036 38 10000 4.12 300 16:19 15.10.2021
5910 Clear 7 1035 42 10000 2.06 240 14:37 15.10.2021
5911 Clear 2 1035 56 10000 2.06 200 12:27 15.10.2021
5912 Clear 5 1017 35 10000 2.22 274 11:20 15.10.2021
5913 Clear 5 1017 35 10000 2.22 274 10:34 15.10.2021
5914 Clear 7 1015 33 10000 2.53 289 08:36 15.10.2021
5915 Clear 9 1013 31 10000 1.74 300 05:31 15.10.2021
5916 Clear 15 1004 16 10000 8.02 241 00:30 15.10.2021
5917 Clear 16 1002 13 10000 8.31 266 23:34 14.10.2021
5918 Clear 16 1002 13 10000 8.31 266 23:34 14.10.2021
5919 Clear 17 1002 12 10000 9.64 282 22:44 14.10.2021
5920 Clouds 18 1002 11 10000 8.38 290 21:41 14.10.2021
5921 Clear 19 1003 10 10000 9.13 290 20:22 14.10.2021
5922 Clouds 19 1032 26 10000 10.29 200 19:50 14.10.2021
5923 Clouds 18 1032 27 10000 10.29 200 18:50 14.10.2021
5924 Clear 17 1033 25 10000 6.17 240 17:25 14.10.2021
5925 Clear 15 1034 31 10000 3.09 240 16:46 14.10.2021
5926 Clear 12 1012 35 10000 3.09 240 15:24 14.10.2021
5927 Clear 9 1034 46 10000 2.06 240 14:40 14.10.2021
5928 Clouds 6 1034 49 10000 3.09 200 13:35 14.10.2021
5929 Clouds 6 1034 49 10000 3.09 200 13:35 14.10.2021
5930 Clouds 7 1013 33 10000 2.09 276 11:43 14.10.2021
5931 Clouds 8 1012 30 10000 2.36 282 09:50 14.10.2021
5932 Clouds 10 1012 27 10000 2.48 309 06:47 14.10.2021
5933 Clouds 15 1007 17 10000 4.74 225 00:54 14.10.2021
5934 Clouds 17 1005 12 10000 7.42 256 22:51 13.10.2021
5935 Clouds 18 1004 11 10000 7.73 259 21:45 13.10.2021
5936 Clouds 19 1004 11 10000 8.78 265 21:27 13.10.2021
5937 Clouds 19 1033 21 10000 12.86 240 19:48 13.10.2021
5938 Clouds 18 1034 22 10000 7.72 240 18:49 13.10.2021
5939 Clouds 18 1034 22 10000 7.72 240 18:49 13.10.2021
5940 Clouds 17 1035 25 10000 9.26 240 17:36 13.10.2021
5941 Clouds 12 1036 41 10000 2.06 180 15:24 13.10.2021
5942 Clouds 9 1036 37 10000 3.09 240 14:44 13.10.2021
5943 Clouds 3 1035 56 10000 3.09 240 12:55 13.10.2021
5944 Clouds 8 1015 19 10000 3.11 275 11:55 13.10.2021
5945 Clouds 8 1014 17 10000 3.32 271 10:39 13.10.2021
5946 Clouds 10 1013 19 10000 3.9 265 07:58 13.10.2021
5947 Clouds 11 1013 31 10000 3.59 281 06:41 13.10.2021
5948 Clouds 12 1013 53 10000 2.99 349 02:26 13.10.2021
5949 Clouds 14 1009 37 10000 5.13 7 00:18 13.10.2021
5950 Clouds 17 1006 31 10000 3.91 67 23:29 12.10.2021
5951 Clouds 17 1006 31 10000 3.91 67 22:44 12.10.2021
5952 Clouds 19 1005 19 10000 3.89 113 21:30 12.10.2021
5953 Clouds 19 1005 12 10000 2.59 119 20:34 12.10.2021
5954 Clouds 19 1036 32 10000 2.06 200 19:52 12.10.2021
5955 Clouds 17 1038 34 10000 2.06 240 18:27 12.10.2021
5956 Clouds 15 1039 36 10000 2.06 240 17:44 12.10.2021
5957 Clouds 12 1039 44 10000 2.06 240 16:38 12.10.2021
5958 Clouds 12 1039 44 10000 2.06 240 16:38 12.10.2021
5959 Clouds 10 1040 43 10000 3.09 240 15:46 12.10.2021
5960 Clouds 7 1039 71 10000 3.09 240 14:38 12.10.2021
5961 Clouds 4 1038 75 10000 1.54 200 13:42 12.10.2021
5962 Clouds 6 1017 87 10000 1.05 332 11:37 12.10.2021
5963 Clouds 7 1016 85 10000 1.25 341 09:41 12.10.2021
5964 Clouds 7 1015 83 10000 1.61 355 08:42 12.10.2021
5965 Clouds 7 1015 83 10000 1.61 355 08:42 12.10.2021
5966 Clouds 8 1016 79 10000 1.22 350 06:56 12.10.2021
5967 Clouds 9 1017 75 10000 2.21 20 05:29 12.10.2021
5968 Clouds 9 1017 75 10000 2.21 20 04:31 12.10.2021
5969 Clear 15 1008 27 10000 1.3 174 00:27 12.10.2021
5970 Clear 15 1008 27 10000 1.3 174 23:40 11.10.2021
5971 Clear 17 1006 17 10000 1.86 201 22:56 11.10.2021
5972 Clear 18 1006 10 10000 3.01 184 21:45 11.10.2021
5973 Clear 19 1007 8 10000 2.93 216 20:35 11.10.2021
5974 Clouds 18 1037 32 10000 2.57 60 19:38 11.10.2021
5975 Clouds 16 1039 29 10000 2.06 60 18:25 11.10.2021
5976 Clouds 12 1041 33 10000 4.12 60 16:51 11.10.2021
5977 Clouds 12 1041 33 10000 4.12 60 16:31 11.10.2021
5978 Clouds 11 1041 37 10000 3.09 60 15:47 11.10.2021
5979 Clouds 9 1040 50 10000 0 0 14:54 11.10.2021
5980 Clouds 9 1040 50 10000 0 0 14:22 11.10.2021
5981 Clouds 3 1040 70 10000 0 0 13:36 11.10.2021
5982 Clear 6 1018 25 10000 2.15 0 11:38 11.10.2021
5983 Clear 6 1016 23 10000 2.01 353 10:31 11.10.2021
5984 Clear 8 1015 25 10000 1.62 316 09:19 11.10.2021
5985 Clear 11 1014 21 10000 2.03 249 04:55 11.10.2021
5986 Clear 14 1009 25 10000 1.67 214 01:37 11.10.2021
5987 Clear 15 1008 24 10000 2.46 239 00:45 11.10.2021
5988 Clear 16 1008 19 10000 5.17 263 23:57 10.10.2021
5989 Clear 18 1006 16 10000 9.15 273 21:51 10.10.2021
5990 Clear 18 1007 16 10000 8.97 273 21:29 10.10.2021
5991 Clear 18 1007 16 10000 8.97 273 20:42 10.10.2021
5992 Clear 18 1007 16 10000 8.6 277 20:21 10.10.2021
5993 Clear 18 1007 16 10000 8.6 277 19:53 10.10.2021
5994 Clear 18 1007 16 10000 8.6 277 19:34 10.10.2021
5995 Clear 18 1009 18 10000 7.66 278 18:33 10.10.2021
5996 Clear 15 1013 26 10000 5.7 279 16:45 10.10.2021
5997 Clear 13 1015 30 10000 4.39 288 15:42 10.10.2021
5998 Clouds 9 1017 40 10000 2.5 278 13:43 10.10.2021
5999 Clouds 8 1017 46 10000 2.34 273 12:51 10.10.2021
6000 Clouds 8 1017 46 10000 2.34 273 12:33 10.10.2021
6001 Clouds 7 1015 49 10000 2.19 272 10:43 10.10.2021
6002 Clouds 9 1014 45 10000 2.15 279 09:29 10.10.2021
6003 Clear 9 1014 46 10000 2.19 296 08:53 10.10.2021
6004 Clouds 10 1015 47 10000 2.77 300 07:27 10.10.2021
6005 Clouds 11 1012 60 10000 2.87 2 02:38 10.10.2021
6006 Clouds 13 1008 47 10000 4.14 16 00:55 10.10.2021
6007 Clouds 14 1007 41 10000 3.72 2 23:57 09.10.2021
6008 Clouds 15 1006 38 10000 4.8 359 22:45 09.10.2021
6009 Clouds 15 1006 40 10000 4.88 350 21:39 09.10.2021
6010 Clouds 15 1007 41 10000 5.92 358 21:20 09.10.2021
6011 Clouds 14 1009 46 10000 4.36 3 19:44 09.10.2021
6012 Clouds 16 1035 42 10000 4.12 360 18:59 09.10.2021
6013 Clouds 16 1035 42 10000 4.12 360 18:32 09.10.2021
6014 Clouds 13 1036 58 10000 0 0 16:37 09.10.2021
6015 Clouds 12 1036 67 10000 0 0 15:32 09.10.2021
6016 Clouds 10 1014 59 10000 1.05 353 13:43 09.10.2021
6017 Clouds 9 1014 66 10000 0.95 9 12:40 09.10.2021
6018 Clouds 8 1013 70 10000 0.81 7 11:48 09.10.2021
6019 Clouds 8 1013 69 10000 0.97 331 10:42 09.10.2021
6020 Clouds 8 1013 69 10000 0.97 331 10:42 09.10.2021
6021 Clouds 9 1012 68 10000 1.28 320 09:36 09.10.2021
6022 Clouds 9 1012 69 10000 1.12 326 08:30 09.10.2021
6023 Clouds 9 1012 70 10000 1.15 344 07:47 09.10.2021
6024 Clouds 10 1013 67 10000 2.57 4 05:29 09.10.2021
6025 Clouds 11 1012 59 10000 2.76 355 02:59 09.10.2021
6026 Clouds 11 1011 57 10000 3.24 13 02:39 09.10.2021
6027 Clouds 13 1007 45 10000 3.89 64 23:41 08.10.2021
6028 Clouds 14 1007 42 10000 3 41 22:54 08.10.2021
6029 Clouds 15 1006 38 10000 3.61 17 22:23 08.10.2021
6030 Clouds 16 1006 30 10000 4.28 7 20:53 08.10.2021
6031 Clouds 15 1035 48 10000 4.12 40 18:54 08.10.2021
6032 Clouds 15 1035 48 10000 2.06 200 17:34 08.10.2021
6033 Clouds 11 1036 54 10000 2.06 200 16:51 08.10.2021
6034 Clouds 11 1036 54 10000 2.06 200 16:23 08.10.2021
6035 Clouds 9 1015 41 10000 1.94 287 13:57 08.10.2021
6036 Clouds 8 1015 49 10000 1.85 285 12:48 08.10.2021
6037 Clouds 7 1015 60 10000 1.82 282 11:31 08.10.2021
6038 Clouds 8 1014 61 10000 1.29 295 10:41 08.10.2021
6039 Clear 8 1013 65 10000 0.55 288 09:18 08.10.2021
6040 Clouds 12 1010 50 10000 3.02 358 23:55 07.10.2021
6041 Clouds 13 1009 49 10000 3.13 17 23:18 07.10.2021
6042 Clouds 13 1009 47 10000 2.63 9 21:46 07.10.2021
6043 Clouds 12 1010 48 10000 1.75 355 21:23 07.10.2021
6044 Clouds 12 1011 52 10000 1.74 0 20:20 07.10.2021
6045 Clouds 14 1034 51 10000 4.12 60 19:29 07.10.2021
6046 Clouds 13 1036 54 10000 2.06 60 18:22 07.10.2021
6047 Clouds 12 1037 67 10000 3.09 180 17:18 07.10.2021
6048 Clouds 8 1037 81 10000 2.06 180 15:34 07.10.2021
6049 Clouds 5 1037 87 8000 0 0 13:52 07.10.2021
6050 Clouds 5 1037 87 8000 0 0 13:34 07.10.2021
6051 Clouds 5 1036 93 8000 0 0 12:40 07.10.2021
6052 Clouds 4 1018 87 10000 1.13 334 10:52 07.10.2021
6053 Clouds 4 1018 87 10000 1.13 334 10:52 07.10.2021
6054 Clouds 4 1018 92 2483 2.31 40 10:19 07.10.2021
6055 Clouds 4 1018 92 2483 2.31 40 09:32 07.10.2021
6056 Clouds 4 1018 95 930 2.57 352 08:41 07.10.2021
6057 Clouds 4 1018 96 755 1.82 331 07:42 07.10.2021
6058 Clouds 6 1017 86 4431 0.69 320 07:19 07.10.2021
6059 Clouds 8 1016 76 10000 2.78 60 02:26 07.10.2021
6060 Clouds 9 1014 72 10000 4.08 38 23:55 06.10.2021
6061 Clouds 9 1013 66 10000 3.85 34 22:50 06.10.2021
6062 Clouds 9 1013 68 10000 1.18 175 21:53 06.10.2021
6063 Clouds 10 1012 60 10000 3.42 289 20:38 06.10.2021
6064 Clouds 17 1034 36 10000 4.12 60 19:53 06.10.2021
6065 Clouds 17 1035 36 10000 4.63 60 18:40 06.10.2021
6066 Clouds 13 1037 51 10000 1.54 180 16:56 06.10.2021
6067 Clouds 11 1036 47 10000 3.09 200 15:27 06.10.2021
6068 Clouds 8 1036 61 10000 2.06 200 14:22 06.10.2021
6069 Clouds 5 1034 81 10000 0 0 12:59 06.10.2021
6070 Clouds 5 1034 81 10000 0 0 12:41 06.10.2021
6071 Clouds 5 1034 81 10000 0 0 12:21 06.10.2021
6072 Clouds 8 1013 67 10000 2.26 285 10:18 06.10.2021
6073 Clouds 8 1013 67 10000 2.26 285 09:39 06.10.2021
6074 Clouds 8 1013 66 10000 2.4 295 08:42 06.10.2021
6075 Clouds 7 1014 70 10000 1.67 285 07:48 06.10.2021
6076 Clouds 6 1017 79 10000 2.33 339 05:26 06.10.2021
6077 Clouds 7 1013 83 4920 2.71 17 00:28 06.10.2021
6078 Clouds 7 1013 83 4920 2.71 17 23:58 05.10.2021
6079 Clouds 7 1013 83 4920 2.71 17 23:39 05.10.2021
6080 Clouds 12 1005 50 10000 4 46 23:20 05.10.2021
6081 Clouds 15 1005 41 10000 5.82 63 22:27 05.10.2021
6082 Clouds 15 1005 41 10000 5.82 63 22:27 05.10.2021
6083 Clouds 15 1005 41 10000 5.82 63 21:47 05.10.2021
6084 Clouds 17 1003 26 10000 4.55 53 20:42 05.10.2021
6085 Clouds 17 1004 24 10000 3.65 32 20:24 05.10.2021
6086 Clouds 17 1033 36 10000 3.09 60 19:43 05.10.2021
6087 Clouds 17 1033 34 10000 0 0 18:54 05.10.2021
6088 Clouds 14 1035 31 10000 1.54 180 16:38 05.10.2021
6089 Clouds 8 1035 43 10000 2.06 240 14:36 05.10.2021
6090 Clouds 5 1034 56 10000 0 0 13:34 05.10.2021
6091 Clouds 3 1034 70 10000 0 0 12:47 05.10.2021
6092 Clouds 3 1034 70 10000 0 0 12:18 05.10.2021
6093 Clouds 8 1012 58 10000 1.64 354 10:59 05.10.2021
6094 Clouds 8 1012 55 10000 1.7 344 09:25 05.10.2021
6095 Clouds 9 1014 59 10000 2.96 303 04:47 05.10.2021
6096 Clouds 11 1009 53 10000 4.62 28 23:53 04.10.2021
6097 Clouds 14 1007 40 10000 5.96 24 22:38 04.10.2021
6098 Clouds 17 1033 45 10000 2.06 20 19:59 04.10.2021
6099 Clouds 15 1034 48 10000 0 0 18:34 04.10.2021
6100 Clouds 13 1035 51 10000 4.12 60 16:24 04.10.2021
6101 Clear 10 1036 58 10000 4.12 40 15:31 04.10.2021
6102 Clear 8 1035 61 10000 0 0 14:42 04.10.2021
6103 Clear 4 1035 81 10000 0 0 13:57 04.10.2021
6104 Clear 4 1035 81 10000 0 0 13:25 04.10.2021
6105 Clear 2 1034 87 10000 0 0 12:27 04.10.2021
6106 Clear 6 1015 81 10000 2.18 345 11:31 04.10.2021
6107 Clear 6 1013 74 10000 1.85 351 10:18 04.10.2021
6108 Clear 7 1013 74 10000 1.85 339 08:41 04.10.2021
6109 Clear 7 1013 75 10000 1.83 341 07:36 04.10.2021
6110 Clear 12 1009 39 10000 3.05 18 00:40 04.10.2021
6111 Clear 15 1005 26 10000 8.45 31 22:37 03.10.2021
6112 Clear 17 1003 13 10000 6.72 12 21:41 03.10.2021
6113 Clear 17 1004 8 10000 5.27 350 21:22 03.10.2021
6114 Clear 17 1006 8 10000 5.99 350 19:59 03.10.2021
6115 Clear 17 1006 8 10000 5.99 350 19:30 03.10.2021
6116 Clear 14 1011 8 10000 4.09 348 18:27 03.10.2021
6117 Clear 13 1013 7 10000 2.83 339 17:24 03.10.2021
6118 Clear 9 1015 8 10000 1.71 322 14:47 03.10.2021
6119 Clear 7 1016 10 10000 1.79 313 14:18 03.10.2021
6120 Clear 7 1016 10 10000 1.79 313 13:34 03.10.2021
6121 Clear 3 1015 17 10000 1.77 306 12:29 03.10.2021
6122 Clear 4 1015 17 10000 1.78 297 10:37 03.10.2021
6123 Clear 5 1013 16 10000 1.78 279 08:43 03.10.2021
6124 Clear 12 1009 14 10000 4.94 227 01:51 03.10.2021
6125 Clear 16 1004 9 10000 7.16 264 22:40 02.10.2021
6126 Clear 17 1004 12 10000 6.93 276 20:57 02.10.2021
6127 Clear 17 1006 13 10000 6.65 279 19:50 02.10.2021
6128 Clear 16 1007 14 10000 7.14 277 18:54 02.10.2021
6129 Clear 16 1009 16 10000 7.16 280 17:57 02.10.2021
6130 Clear 14 1011 20 10000 6.12 282 17:21 02.10.2021
6131 Clear 11 1013 25 10000 4.61 270 15:29 02.10.2021
6132 Clear 14 1038 58 10000 2.06 200 16:36 30.09.2021
6133 Clear 11 1037 58 10000 3.09 240 15:36 30.09.2021
6134 Clouds 5 1036 70 10000 2.06 200 13:20 30.09.2021
6135 Clouds 7 1015 59 10000 2.03 283 11:37 30.09.2021
6136 Clouds 7 1014 60 10000 1.98 285 10:43 30.09.2021
6137 Clouds 7 1014 63 10000 2.03 286 09:32 30.09.2021
6138 Clouds 7 1015 63 10000 1.79 301 08:29 30.09.2021
6139 Clouds 8 1016 61 10000 2.33 312 07:23 30.09.2021
6140 Clouds 8 1017 55 10000 3.07 325 04:52 30.09.2021
6141 Clouds 11 1016 50 10000 4.35 320 01:19 30.09.2021
6142 Rain 11 1014 47 10000 6.64 15 23:49 29.09.2021
6143 Clear 15 1009 38 10000 7.08 34 22:28 29.09.2021
6144 Clear 16 1008 33 10000 6.07 31 21:24 29.09.2021
6145 Clear 16 1010 33 10000 5.03 17 20:24 29.09.2021
6146 Clouds 15 1037 51 10000 3.09 60 19:43 29.09.2021
6147 Clouds 15 1039 48 10000 4.12 60 18:28 29.09.2021
6148 Clouds 13 1040 62 10000 3.09 60 17:33 29.09.2021
6149 Clouds 12 1040 62 10000 3.09 60 16:46 29.09.2021
6150 Clouds 8 1040 76 8000 3.09 300 15:49 29.09.2021
6151 Clouds 7 1040 81 8000 0 0 14:39 29.09.2021
6152 Clouds 5 1039 87 8000 0 0 13:41 29.09.2021
6153 Clouds 4 1013 93 8000 0 0 12:50 29.09.2021
6154 Clouds 5 1019 83 10000 2.03 5 11:54 29.09.2021
6155 Clouds 6 1018 79 10000 1.63 10 10:44 29.09.2021
6156 Clouds 6 1018 75 10000 1.9 31 09:49 29.09.2021
6157 Clouds 7 1017 70 10000 1.83 40 08:49 29.09.2021
6158 Clear 7 1017 63 10000 1.44 22 07:31 29.09.2021
6159 Clear 9 1018 53 10000 2.84 6 03:39 29.09.2021
6160 Clear 13 1012 41 10000 4.96 74 23:26 28.09.2021
6161 Clear 14 1011 38 10000 5.34 70 22:23 28.09.2021
6162 Clear 14 1011 38 10000 5.34 70 21:35 28.09.2021
6163 Clear 16 1010 35 10000 6.28 66 20:35 28.09.2021
6164 Clear 16 1011 34 10000 5.06 54 19:42 28.09.2021
6165 Clouds 15 1039 51 10000 3.09 20 18:45 28.09.2021
6166 Clouds 13 1040 58 10000 3.09 60 17:54 28.09.2021
6167 Clouds 11 1041 66 8000 3.09 60 15:44 28.09.2021
6168 Clear 4 1040 87 8000 0 0 13:44 28.09.2021
6169 Clear 3 1039 87 8000 0 0 12:47 28.09.2021
6170 Clear 3 1039 87 8000 0 0 12:19 28.09.2021
6171 Clear 6 1018 72 10000 0.1 35 11:45 28.09.2021
6172 Clear 7 1018 71 10000 0.5 20 10:55 28.09.2021
6173 Clear 7 1017 70 10000 1.08 18 09:53 28.09.2021
6174 Clear 8 1017 68 10000 1.31 11 08:58 28.09.2021
6175 Clear 8 1017 68 10000 1.31 11 08:37 28.09.2021
6176 Clear 8 1017 65 10000 1.52 8 07:31 28.09.2021
6177 Clear 10 1018 57 10000 2.4 33 05:28 28.09.2021
6178 Clear 11 1015 50 10000 2.77 53 01:23 28.09.2021
6179 Clear 12 1013 47 10000 3.51 77 00:25 28.09.2021
6180 Clear 12 1013 47 10000 3.51 77 23:41 27.09.2021
6181 Clear 14 1012 41 10000 5.26 86 22:55 27.09.2021
6182 Clear 16 1010 30 10000 5.27 84 21:54 27.09.2021
6183 Clear 16 1010 22 10000 3.78 74 20:44 27.09.2021
6184 Clear 16 1040 48 10000 0 0 19:56 27.09.2021
6185 Clear 16 1040 48 10000 0 0 19:28 27.09.2021
6186 Clear 15 1041 41 10000 1.54 240 18:50 27.09.2021
6187 Clear 13 1041 44 10000 1.54 200 17:29 27.09.2021
6188 Clear 12 1042 44 10000 0 0 16:50 27.09.2021
6189 Clear 9 1042 62 10000 0 0 15:45 27.09.2021
6190 Clear 9 1042 62 10000 0 0 15:19 27.09.2021
6191 Clear 2 1042 81 10000 0 0 13:32 27.09.2021
6192 Clear 5 1021 76 10000 1.31 332 11:49 27.09.2021
6193 Clear 6 1020 75 10000 1.48 341 10:37 27.09.2021
6194 Clear 6 1020 70 10000 1.2 337 08:59 27.09.2021
6195 Clear 7 1021 66 10000 1.97 349 06:30 27.09.2021
6196 Clear 9 1019 60 10000 3.33 45 03:25 27.09.2021
6197 Clear 15 1011 18 10000 4.34 73 22:39 26.09.2021
6198 Clear 15 1011 14 10000 3.43 70 21:53 26.09.2021
6199 Clear 15 1012 13 10000 2.76 52 21:26 26.09.2021
6200 Clear 15 1013 12 10000 1.97 25 20:23 26.09.2021
6201 Clear 15 1013 12 10000 1.97 25 19:52 26.09.2021
6202 Clear 14 1015 12 10000 1.44 20 18:47 26.09.2021
6203 Clear 14 1016 13 10000 0.77 29 17:57 26.09.2021
6204 Clear 14 1016 13 10000 0.77 29 17:36 26.09.2021
6205 Clear 13 1017 13 10000 0.36 102 17:18 26.09.2021
6206 Clear 12 1018 14 10000 0.64 203 16:21 26.09.2021
6207 Clear 10 1019 20 10000 1 237 15:22 26.09.2021
6208 Clear 2 1041 65 10000 1.54 180 13:57 26.09.2021
6209 Clear 2 1041 65 10000 1.54 180 13:31 26.09.2021
6210 Clear 6 1019 45 10000 2.17 222 12:25 26.09.2021
6211 Clear 6 1019 45 10000 2.17 222 11:51 26.09.2021
6212 Clear 6 1018 51 10000 2.37 221 10:38 26.09.2021
6213 Clear 7 1018 58 10000 2.44 216 09:37 26.09.2021
6214 Clear 7 1018 70 10000 1.43 238 08:20 26.09.2021
6215 Clear 14 1012 17 10000 1.51 221 00:28 26.09.2021
6216 Clear 14 1012 17 10000 1.51 221 23:41 25.09.2021
6217 Clear 15 1011 16 10000 2.36 178 22:39 25.09.2021
6218 Clear 15 1011 14 10000 2.23 187 22:18 25.09.2021
6219 Clear 15 1011 14 10000 2.23 187 21:36 25.09.2021
6220 Clear 16 1011 12 10000 2.53 211 20:52 25.09.2021
6221 Clear 15 1013 12 10000 2.88 204 19:33 25.09.2021
6222 Clear 14 1016 12 10000 1.78 244 18:27 25.09.2021
6223 Clear 12 1018 15 10000 2.38 254 17:19 25.09.2021
6224 Clear 8 1021 34 10000 2.12 265 14:25 25.09.2021
6225 Clear 8 1021 34 10000 2.12 265 13:54 25.09.2021
6226 Clear 6 1021 47 10000 2.12 254 12:36 25.09.2021
6227 Clear 6 1019 53 10000 2.13 247 10:42 25.09.2021
6228 Clear 6 1019 60 10000 2.15 245 09:59 25.09.2021
6229 Clear 5 1020 74 10000 1.88 247 08:52 25.09.2021
6230 Clear 5 1021 81 10000 1.61 256 07:47 25.09.2021
6231 Clouds 9 1016 57 10000 3.19 49 00:52 25.09.2021
6232 Clouds 12 1013 43 10000 3.53 59 21:58 24.09.2021
6233 Clouds 12 1013 39 10000 3.16 87 21:25 24.09.2021
6234 Clouds 12 1013 39 10000 3.16 87 20:31 24.09.2021
6235 Clouds 14 1040 51 10000 0 0 19:29 24.09.2021
6236 Clouds 13 1041 51 10000 3.09 180 18:18 24.09.2021
6237 Clear 12 1042 62 10000 0 0 17:42 24.09.2021
6238 Clear 12 1042 62 10000 0 0 17:23 24.09.2021
6239 Clear 7 1043 71 10000 3.09 240 15:38 24.09.2021
6240 Clear 2 1042 87 10000 0 0 13:21 24.09.2021
6241 Clear 0 1041 93 10000 0 0 12:43 24.09.2021
6242 Clear 0 1041 93 10000 0 0 12:25 24.09.2021
6243 Clear 4 1021 80 10000 1.75 338 10:49 24.09.2021
6244 Clear 5 1021 79 10000 1.48 319 08:59 24.09.2021
6245 Clouds 5 1021 78 10000 1.53 351 07:57 24.09.2021
6246 Clouds 5 1022 78 10000 2 343 06:59 24.09.2021
6247 Clouds 4 1023 82 10000 2.49 335 05:57 24.09.2021
6248 Clouds 5 1021 78 10000 2.51 16 02:29 24.09.2021
6249 Clouds 6 1018 74 10000 4.91 13 22:37 23.09.2021
6250 Clouds 7 1015 65 10000 5.53 28 21:58 23.09.2021
6251 Clouds 11 1011 47 10000 2.58 332 20:52 23.09.2021
6252 Clouds 12 1011 39 10000 4.99 357 20:27 23.09.2021
6253 Clouds 13 1038 44 10000 0 0 18:32 23.09.2021
6254 Clouds 6 1041 76 10000 3.09 60 15:53 23.09.2021
6255 Clouds 9 1018 50 10000 3.12 356 15:19 23.09.2021
6256 Clouds 5 1040 75 10000 0 0 14:24 23.09.2021
6257 Clouds 3 1039 87 10000 0 0 13:27 23.09.2021
6258 Clouds 2 1038 93 10000 0 0 12:55 23.09.2021
6259 Clouds 2 1038 93 10000 0 0 12:26 23.09.2021
6260 Clouds 7 1017 57 10000 1.28 7 11:57 23.09.2021
6261 Clouds 7 1017 59 10000 0.1 286 10:30 23.09.2021
6262 Clouds 7 1017 61 10000 0.96 337 09:54 23.09.2021
6263 Clouds 7 1017 64 10000 1.6 342 08:56 23.09.2021
6264 Clouds 7 1019 67 10000 3.01 344 05:32 23.09.2021
6265 Clouds 13 1010 34 10000 1 93 23:50 22.09.2021
6266 Clouds 14 1008 22 10000 0.48 137 22:50 22.09.2021
6267 Clouds 14 1008 20 10000 1.84 276 22:20 22.09.2021
6268 Clouds 14 1008 20 10000 1.84 276 21:42 22.09.2021
6269 Clouds 14 1010 22 10000 1.5 274 20:57 22.09.2021
6270 Clouds 14 1038 51 10000 2.06 240 19:47 22.09.2021
6271 Clouds 14 1038 51 10000 2.06 240 19:26 22.09.2021
6272 Clouds 12 1040 58 10000 2.06 240 18:30 22.09.2021
6273 Clouds 12 1017 38 10000 1.95 315 17:18 22.09.2021
6274 Clouds 10 1018 45 10000 1.9 306 15:38 22.09.2021
6275 Clouds 4 1041 81 10000 3.09 240 14:27 22.09.2021
6276 Clouds 1 1040 100 10000 0 0 12:55 22.09.2021
6277 Clouds 6 1018 70 10000 1.56 321 11:18 22.09.2021
6278 Clouds 6 1018 71 10000 1.66 338 09:30 22.09.2021
6279 Clouds 6 1018 71 10000 2.13 333 08:44 22.09.2021
6280 Rain 6 1019 72 10000 2.42 331 07:31 22.09.2021
6281 Clouds 7 1020 70 10000 2.95 334 06:23 22.09.2021
6282 Clouds 7 1020 70 10000 2.95 334 05:45 22.09.2021
6283 Clouds 8 1019 69 10000 3.19 2 03:59 22.09.2021
6284 Rain 8 1019 70 10000 3.05 349 02:55 22.09.2021
6285 Clouds 9 1016 60 10000 0.54 343 23:42 21.09.2021
6286 Clouds 9 1015 60 10000 1.51 305 22:26 21.09.2021
6287 Clouds 8 1017 66 10000 2.08 305 20:31 21.09.2021
6288 Clouds 9 1018 69 3651 4.07 321 19:25 21.09.2021
6289 Thunderstorm 9 1042 69 10000 4.12 40 18:35 21.09.2021
6290 Clouds 5 1043 93 10000 1.54 80 16:47 21.09.2021
6291 Rain 5 1043 93 6000 2.06 60 15:56 21.09.2021
6292 Clouds 4 1042 93 8000 0 0 14:59 21.09.2021
6293 Rain 4 1042 93 8000 0 0 14:20 21.09.2021
6294 Clouds 3 1042 93 8000 0 0 13:39 21.09.2021
6295 Clouds 2 1040 100 8000 0 0 12:44 21.09.2021
6296 Clouds 5 1020 80 10000 1.43 348 10:43 21.09.2021
6297 Rain 5 1019 76 10000 2.22 21 09:22 21.09.2021
6298 Clouds 5 1020 79 10000 2.62 37 07:38 21.09.2021
6299 Rain 6 1021 87 5470 3.49 24 05:18 21.09.2021
6300 Rain 8 1014 74 7198 6.48 49 23:19 20.09.2021
6301 Clouds 8 1014 71 7026 5.75 32 21:51 20.09.2021
6302 Clouds 8 1014 71 7026 5.75 32 21:30 20.09.2021
6303 Clouds 16 1035 42 10000 5.14 60 19:49 20.09.2021
6304 Clouds 16 1036 36 10000 3.09 60 18:36 20.09.2021
6305 Clouds 15 1037 41 10000 3.09 60 17:25 20.09.2021
6306 Clouds 14 1038 38 10000 3.09 40 16:26 20.09.2021
6307 Clouds 12 1037 50 10000 2.06 40 15:43 20.09.2021
6308 Clouds 7 1036 49 10000 3.09 240 14:42 20.09.2021
6309 Clouds 4 1035 65 10000 2.06 240 12:46 20.09.2021
6310 Clouds 4 1035 65 10000 2.06 240 12:26 20.09.2021
6311 Clouds 7 1013 46 10000 1.65 259 10:57 20.09.2021
6312 Clouds 8 1013 45 10000 1.84 258 09:51 20.09.2021
6313 Clouds 8 1013 45 10000 1.84 258 09:33 20.09.2021
6314 Clouds 8 1013 45 10000 1.84 258 09:33 20.09.2021
6315 Clouds 8 1013 47 10000 2.01 265 08:54 20.09.2021
6316 Clouds 9 1014 50 10000 2.2 325 06:33 20.09.2021
6317 Clear 16 1006 26 10000 7.13 31 23:28 19.09.2021
6318 Clear 17 1005 19 10000 5.46 25 21:51 19.09.2021
6319 Clear 17 1006 18 10000 4.14 25 21:21 19.09.2021
6320 Clear 17 1006 18 10000 4.14 25 20:32 19.09.2021
6321 Clear 16 1009 17 10000 3.26 7 18:54 19.09.2021
6322 Clear 15 1011 18 10000 3 358 17:56 19.09.2021
6323 Clear 14 1013 21 10000 2.44 345 16:52 19.09.2021
6324 Clear 12 1015 29 10000 1.76 330 15:44 19.09.2021
6325 Clear 10 1016 42 10000 1.59 317 14:49 19.09.2021
6326 Clear 8 1016 52 10000 1.4 295 14:24 19.09.2021
6327 Clear 7 1016 71 10000 1.35 289 12:56 19.09.2021
6328 Clear 7 1016 71 10000 1.35 289 12:30 19.09.2021
6329 Clear 6 1014 79 10000 1.33 313 11:25 19.09.2021
6330 Clear 6 1014 78 10000 1.36 318 09:52 19.09.2021
6331 Clear 7 1014 77 10000 1.3 329 09:26 19.09.2021
6332 Clouds 8 1016 73 10000 1.42 12 06:49 19.09.2021
6333 Clouds 11 1014 55 10000 2.12 56 01:39 19.09.2021
6334 Clouds 14 1009 39 10000 9.03 40 23:25 18.09.2021
6335 Clouds 16 1008 30 10000 8.2 39 21:58 18.09.2021
6336 Clouds 18 1035 27 10000 3.09 360 20:48 18.09.2021
6337 Clouds 18 1035 27 10000 3.09 360 20:26 18.09.2021
6338 Clouds 18 1036 32 10000 3.09 360 19:37 18.09.2021
6339 Clouds 18 1036 32 10000 3.09 360 19:19 18.09.2021
6340 Clouds 17 1038 36 10000 3.09 360 18:31 18.09.2021
6341 Clouds 14 1014 21 10000 1.81 20 17:22 18.09.2021
6342 Clouds 10 1040 40 10000 3.09 200 15:45 18.09.2021
6343 Clouds 4 1039 60 10000 1.54 200 13:46 18.09.2021
6344 Clouds 4 1039 60 10000 1.54 200 13:24 18.09.2021
6345 Clouds 7 1017 57 10000 0.75 296 12:24 18.09.2021
6346 Clouds 7 1017 57 10000 0.75 296 11:34 18.09.2021
6347 Clouds 7 1016 57 10000 0.9 280 10:31 18.09.2021
6348 Clouds 8 1016 58 10000 0.79 273 09:25 18.09.2021
6349 Clouds 8 1017 58 10000 1.18 296 08:29 18.09.2021
6350 Clouds 5 1022 82 3622 1.63 108 00:55 18.09.2021
6351 Clouds 9 1016 61 10000 1.77 304 23:56 17.09.2021
6352 Clouds 9 1016 61 10000 1.77 304 23:32 17.09.2021
6353 Clouds 17 1008 23 10000 1.64 34 22:25 17.09.2021
6354 Clouds 17 1008 23 10000 1.64 34 21:47 17.09.2021
6355 Clouds 17 1039 42 10000 3.09 240 19:53 17.09.2021
6356 Clouds 16 1041 45 10000 2.06 240 18:43 17.09.2021
6357 Clouds 14 1016 29 10000 1.96 318 16:47 17.09.2021
6358 Clouds 12 1018 38 10000 1.98 301 15:32 17.09.2021
6359 Clouds 2 1041 87 10000 0 0 12:31 17.09.2021
6360 Clouds 7 1018 65 10000 1.65 294 10:40 17.09.2021
6361 Clouds 8 1018 63 10000 1.72 269 07:50 17.09.2021
6362 Clouds 8 1019 63 10000 2.28 304 06:29 17.09.2021
6363 Clouds 8 1019 73 10000 6.03 349 00:34 17.09.2021
6364 Clouds 12 1011 49 10000 4.93 40 22:46 16.09.2021
6365 Clouds 17 1007 27 10000 3.38 335 22:24 16.09.2021
6366 Clouds 17 1007 27 10000 3.38 335 21:36 16.09.2021
6367 Clouds 15 1009 35 10000 5.34 359 20:36 16.09.2021
6368 Clouds 16 1011 31 10000 6.43 3 19:18 16.09.2021
6369 Clouds 15 1014 37 10000 4.68 355 18:19 16.09.2021
6370 Clouds 15 1014 37 10000 4.68 355 18:19 16.09.2021
6371 Clouds 14 1041 44 10000 3.09 60 17:22 16.09.2021
6372 Clouds 6 1042 76 10000 0 0 14:51 16.09.2021
6373 Clouds 2 1041 87 10000 0 0 13:47 16.09.2021
6374 Clouds 1 1040 100 10000 0 0 12:47 16.09.2021
6375 Clouds 6 1019 71 10000 1.97 346 11:55 16.09.2021
6376 Clouds 7 1018 68 10000 1.82 325 11:24 16.09.2021
6377 Clouds 7 1017 66 10000 1.89 324 10:29 16.09.2021
6378 Clouds 7 1017 66 10000 1.89 324 09:32 16.09.2021
6379 Clouds 8 1017 63 10000 1.35 318 08:28 16.09.2021
6380 Clouds 8 1017 61 10000 1.63 307 06:58 16.09.2021
6381 Clouds 8 1017 61 10000 1.63 307 06:39 16.09.2021
6382 Clouds 9 1017 56 10000 1.28 345 04:18 16.09.2021
6383 Clouds 12 1011 35 10000 6.66 327 00:59 16.09.2021
6384 Clouds 14 1009 27 10000 6.13 312 23:32 15.09.2021
6385 Clouds 14 1009 27 10000 6.13 312 23:32 15.09.2021
6386 Clouds 16 1007 22 10000 8.67 302 22:45 15.09.2021
6387 Clouds 17 1007 22 10000 8.84 301 21:37 15.09.2021
6388 Clouds 17 1007 20 10000 8.71 294 20:54 15.09.2021
6389 Clouds 17 1007 19 10000 8.65 295 19:34 15.09.2021
6390 Clouds 13 1036 38 10000 3.09 300 18:59 15.09.2021
6391 Clouds 15 1012 22 10000 5.25 324 17:46 15.09.2021
6392 Clouds 12 1015 22 10000 4.16 320 16:44 15.09.2021
6393 Clouds 9 1017 30 10000 2.83 327 15:29 15.09.2021
6394 Clouds 9 1017 30 10000 2.83 327 14:44 15.09.2021
6395 Clouds 1 1037 80 10000 0 0 13:51 15.09.2021
6396 Clouds 5 1018 38 10000 1.93 327 13:29 15.09.2021
6397 Clouds -1 1036 86 10000 0 0 12:34 15.09.2021
6398 Clouds 4 1018 44 10000 1.92 317 11:51 15.09.2021
6399 Clouds 5 1017 48 10000 1.99 319 11:18 15.09.2021
6400 Clouds 5 1017 48 10000 1.99 319 10:35 15.09.2021
6401 Clouds 6 1015 53 10000 1.09 307 09:23 15.09.2021
6402 Clouds 7 1015 63 10000 0.8 332 07:37 15.09.2021
6403 Clouds 8 1016 61 10000 1.38 57 04:19 15.09.2021
6404 Clouds 16 1006 11 10000 9.8 285 22:56 14.09.2021
6405 Clear 17 1004 7 10000 10.03 289 21:38 14.09.2021
6406 Clouds 18 1006 8 10000 8.29 326 20:27 14.09.2021
6407 Clouds 14 1034 36 10000 3.09 20 19:41 14.09.2021
6408 Clouds 12 1037 47 10000 3.09 300 17:34 14.09.2021
6409 Clouds 11 1038 47 10000 0 0 16:56 14.09.2021
6410 Clouds 8 1038 46 10000 4.12 200 15:28 14.09.2021
6411 Clouds 5 1038 52 10000 3.09 240 14:31 14.09.2021
6412 Clouds 3 1019 42 10000 1.65 270 11:52 14.09.2021
6413 Clouds 3 1018 42 10000 1.91 286 10:54 14.09.2021
6414 Clouds 4 1018 40 10000 2.18 292 09:50 14.09.2021
6415 Clouds 4 1017 37 10000 2.25 287 08:39 14.09.2021
6416 Clouds 7 1016 28 10000 2.31 309 06:23 14.09.2021
6417 Clouds 14 1009 17 10000 6.98 280 23:57 13.09.2021
6418 Clouds 15 1008 16 10000 8.29 279 22:46 13.09.2021
6419 Clouds 16 1007 13 10000 8.82 293 22:23 13.09.2021
6420 Clouds 16 1007 13 10000 8.82 293 21:45 13.09.2021
6421 Clouds 17 1007 13 10000 9.05 294 20:48 13.09.2021
6422 Clouds 14 1036 33 10000 3.09 240 18:46 13.09.2021
6423 Clouds 13 1038 33 10000 5.14 260 17:42 13.09.2021
6424 Clouds 12 1038 38 10000 4.12 220 16:50 13.09.2021
6425 Clouds 12 1038 38 10000 4.12 220 16:50 13.09.2021
6426 Clouds 9 1037 43 10000 4.12 240 15:22 13.09.2021
6427 Clouds 4 1018 37 10000 2.45 287 11:55 13.09.2021
6428 Clouds 4 1017 36 10000 2.39 279 10:58 13.09.2021
6429 Clouds 5 1017 33 10000 2.69 281 09:35 13.09.2021
6430 Clouds 8 1016 23 10000 2.2 230 04:38 13.09.2021
6431 Clouds 16 1008 10 10000 7.29 275 22:59 12.09.2021
6432 Clouds 17 1007 11 10000 7.61 278 22:25 12.09.2021
6433 Clouds 17 1007 11 10000 7.61 278 21:36 12.09.2021
6434 Clouds 17 1008 11 10000 7.7 284 20:28 12.09.2021
6435 Clouds 17 1008 11 10000 7.7 284 20:28 12.09.2021
6436 Clouds 17 1008 12 10000 7.46 283 19:50 12.09.2021
6437 Clouds 17 1009 12 10000 6.77 286 19:19 12.09.2021
6438 Clouds 16 1011 14 10000 5.22 292 18:20 12.09.2021
6439 Clouds 14 1014 15 10000 4.21 294 16:30 12.09.2021
6440 Clouds 14 1014 15 10000 4.21 294 16:30 12.09.2021
6441 Clouds 14 1014 15 10000 4.21 294 16:30 12.09.2021
6442 Clouds 10 1017 13 10000 2.76 289 14:50 12.09.2021
6443 Clouds 6 1018 15 10000 1.98 285 12:48 12.09.2021
6444 Clouds 5 1015 17 10000 2.31 284 10:44 12.09.2021
6445 Clear 6 1015 29 10000 2.31 276 08:59 12.09.2021
6446 Clear 6 1015 29 10000 2.31 276 08:36 12.09.2021
6447 Clear 12 1011 22 10000 1.5 17 00:56 12.09.2021
6448 Clear 16 1007 5 10000 2.57 315 23:19 11.09.2021
6449 Clear 16 1007 4 10000 3.73 323 21:41 11.09.2021
6450 Clouds 15 1010 4 10000 2.49 24 20:18 11.09.2021
6451 Clouds 14 1013 5 10000 1.96 16 18:35 11.09.2021
6452 Clouds 12 1017 6 10000 2.25 333 17:29 11.09.2021
6453 Clouds 10 1018 7 10000 1.84 322 15:39 11.09.2021
6454 Clear 6 1020 10 10000 1.46 281 13:30 11.09.2021
6455 Clear 3 1020 19 10000 1.77 275 12:30 11.09.2021
6456 Clear 2 1019 35 10000 1.72 276 11:18 11.09.2021
6457 Clear 2 1019 48 10000 1.82 281 09:35 11.09.2021
6458 Clear 3 1020 75 10000 1.37 283 07:44 11.09.2021
6459 Clear 4 1020 75 10000 1.48 321 06:47 11.09.2021
6460 Clouds 14 1009 4 10000 9.08 272 22:48 10.09.2021
6461 Clouds 14 1009 4 10000 9.08 272 22:48 10.09.2021
6462 Clouds 15 1009 6 10000 9.56 278 22:23 10.09.2021
6463 Clouds 15 1009 6 10000 9.56 278 21:48 10.09.2021
6464 Clear 15 1034 29 10000 3.09 300 19:49 10.09.2021
6465 Clear 15 1035 23 10000 3.09 240 18:20 10.09.2021
6466 Clouds 11 1037 28 10000 4.12 200 16:40 10.09.2021
6467 Clouds -1 1036 47 10000 1.54 200 13:55 10.09.2021
6468 Clear 2 1018 17 10000 1.95 299 11:54 10.09.2021
6469 Clear 3 1018 55 10000 1.88 296 08:36 10.09.2021
6470 Clear 4 1018 71 10000 1.57 300 07:48 10.09.2021
6471 Clouds 11 1011 9 10000 2.96 210 00:42 10.09.2021
6472 Clouds 15 1006 7 10000 8.64 253 22:31 09.09.2021
6473 Clouds 16 1005 9 10000 9.44 271 21:39 09.09.2021
6474 Clouds 16 1005 11 10000 10.61 275 20:46 09.09.2021
6475 Clouds 15 1033 36 10000 3.09 60 19:33 09.09.2021
6476 Clouds 14 1034 38 10000 4.12 20 18:26 09.09.2021
6477 Clouds 12 1036 54 10000 0 0 16:40 09.09.2021
6478 Clouds 9 1036 57 10000 0 0 15:27 09.09.2021
6479 Clouds 0 1035 100 10000 0 0 12:48 09.09.2021
6480 Clear 4 1017 89 10000 2.02 351 11:41 09.09.2021
6481 Clear 4 1016 80 10000 2.08 349 09:50 09.09.2021
6482 Clouds 5 1016 78 10000 1.99 352 08:47 09.09.2021
6483 Clear 6 1017 70 10000 2.26 18 06:25 09.09.2021
6484 Clouds 11 1013 20 10000 1.12 234 02:19 09.09.2021
6485 Clouds 14 1007 7 10000 7 271 22:40 08.09.2021
6486 Clouds 16 1006 7 10000 5.92 305 21:23 08.09.2021
6487 Clouds 14 1034 26 10000 5.14 240 19:56 08.09.2021
6488 Clouds 13 1035 41 10000 4.63 240 18:55 08.09.2021
6489 Clouds 13 1035 41 10000 4.63 240 18:29 08.09.2021
6490 Clouds 12 1035 44 10000 0 0 17:55 08.09.2021
6491 Clouds 10 1036 46 10000 3.09 240 16:28 08.09.2021
6492 Clouds 6 1036 53 10000 3.09 200 14:25 08.09.2021
6493 Clouds 3 1034 87 10000 3.09 200 12:46 08.09.2021
6494 Clouds 3 1034 87 10000 3.09 200 12:26 08.09.2021
6495 Clouds 5 1016 29 10000 2.67 276 11:29 08.09.2021
6496 Clouds 5 1016 29 10000 2.67 276 10:33 08.09.2021
6497 Clouds 6 1015 29 10000 2.54 276 09:59 08.09.2021
6498 Clouds 7 1014 29 10000 2.3 273 08:36 08.09.2021
6499 Clouds 7 1014 31 10000 2.07 269 07:35 08.09.2021
6500 Clouds 9 1014 27 10000 2.6 261 05:28 08.09.2021
6501 Clouds 16 1004 21 10000 6.53 285 22:46 07.09.2021
6502 Clouds 17 1004 20 10000 7.8 295 21:52 07.09.2021
6503 Clouds 16 1032 31 10000 4.12 300 19:54 07.09.2021
6504 Clouds 15 1033 29 10000 4.12 360 18:45 07.09.2021
6505 Clouds 13 1034 41 10000 2.57 290 17:49 07.09.2021
6506 Clouds 12 1035 50 10000 2.57 200 16:39 07.09.2021
6507 Clouds 9 1035 53 10000 0 0 15:37 07.09.2021
6508 Clouds 5 1034 70 10000 0 0 14:42 07.09.2021
6509 Clouds 2 1033 75 10000 0 0 12:43 07.09.2021
6510 Clear 6 1013 40 10000 2.1 288 11:45 07.09.2021
6511 Clear 6 1012 44 10000 2.03 288 10:41 07.09.2021
6512 Clear 7 1012 57 10000 1.47 286 08:34 07.09.2021
6513 Clear 8 1013 60 10000 1.72 304 07:23 07.09.2021
6514 Clear 8 1014 59 10000 2.19 332 05:41 07.09.2021
6515 Clear 10 1012 50 10000 1.6 51 02:36 07.09.2021
6516 Clouds 10 1011 52 10000 2.21 49 00:46 07.09.2021
6517 Clouds 11 1011 46 10000 6.13 11 23:34 06.09.2021
6518 Clouds 14 1008 32 10000 4.91 348 22:54 06.09.2021
6519 Clouds 14 1008 32 10000 4.91 348 22:35 06.09.2021
6520 Clouds 17 1006 19 10000 7.12 7 21:25 06.09.2021
6521 Clouds 16 1036 36 10000 3.09 60 19:31 06.09.2021
6522 Clouds 16 1037 42 10000 2.57 360 18:50 06.09.2021
6523 Clouds 16 1037 42 10000 2.57 360 18:24 06.09.2021
6524 Clear 14 1039 44 10000 0 0 17:36 06.09.2021
6525 Clear 9 1040 66 10000 2.06 200 15:52 06.09.2021
6526 Clear 2 1038 93 10000 0 0 13:48 06.09.2021
6527 Clear 2 1038 87 10000 0 0 12:48 06.09.2021
6528 Clear 4 1018 91 10000 1.45 301 10:54 06.09.2021
6529 Clear 5 1017 89 10000 1.79 332 08:35 06.09.2021
6530 Clear 6 1018 82 10000 2.21 354 06:47 06.09.2021
6531 Clouds 10 1014 54 10000 3.89 328 23:40 05.09.2021
6532 Clouds 12 1011 46 10000 4.55 18 23:18 05.09.2021
6533 Clouds 14 1009 35 10000 5.64 24 22:28 05.09.2021
6534 Clouds 14 1009 35 10000 5.64 24 21:49 05.09.2021
6535 Clouds 15 1009 30 10000 5.71 18 20:50 05.09.2021
6536 Clouds 14 1013 32 10000 4.77 19 18:59 05.09.2021
6537 Clear 13 1015 37 10000 4.57 10 17:34 05.09.2021
6538 Clear 11 1018 51 10000 3.48 12 15:40 05.09.2021
6539 Clear 9 1019 64 10000 2.42 18 14:37 05.09.2021
6540 Clear 6 1020 86 10000 1.09 38 12:34 05.09.2021
6541 Clear 5 1018 85 10000 1.04 41 10:59 05.09.2021
6542 Clear 5 1018 85 10000 1.04 41 10:33 05.09.2021
6543 Clear 6 1017 78 10000 1.12 20 09:25 05.09.2021
6544 Clouds 7 1017 75 10000 1.35 14 08:22 05.09.2021
6545 Clouds 11 1015 35 10000 1.16 71 03:19 05.09.2021
6546 Clear 13 1011 22 10000 1.5 147 00:32 05.09.2021
6547 Clear 15 1009 13 10000 2.62 179 23:43 04.09.2021
6548 Clear 16 1008 9 10000 3.25 170 22:36 04.09.2021
6549 Clear 17 1008 7 10000 3.22 184 21:59 04.09.2021
6550 Clear 17 1010 7 10000 2.89 235 19:54 04.09.2021
6551 Clear 16 1011 8 10000 3.11 248 19:29 04.09.2021
6552 Clear 13 1016 11 10000 2.85 274 16:27 04.09.2021
6553 Clear 8 1018 16 10000 2.25 273 13:36 04.09.2021
6554 Clouds 5 1016 29 10000 2.01 284 11:20 04.09.2021
6555 Clouds 6 1015 36 10000 1.77 279 09:33 04.09.2021
6556 Clear 7 1017 70 10000 1.72 327 06:55 04.09.2021
6557 Clouds 14 1010 23 10000 3.52 246 00:28 04.09.2021
6558 Clouds 14 1010 23 10000 3.52 246 23:32 03.09.2021
6559 Clouds 16 1008 18 10000 4.25 238 22:40 03.09.2021
6560 Clouds 17 1007 16 10000 3.59 240 21:36 03.09.2021
6561 Clouds 17 1008 16 10000 4.19 244 20:49 03.09.2021
6562 Clouds 15 1037 48 10000 2.57 60 19:56 03.09.2021
6563 Clouds 15 1037 48 10000 2.57 60 19:23 03.09.2021
6564 Clouds 12 1041 58 10000 4.12 40 17:57 03.09.2021
6565 Clouds 11 1041 62 10000 4.12 60 16:40 03.09.2021
6566 Clouds 9 1041 71 10000 3.09 60 15:20 03.09.2021
6567 Clouds 4 1039 87 10000 0 0 12:59 03.09.2021
6568 Clear 4 1020 92 10000 2.11 9 10:43 03.09.2021
6569 Clear 6 1019 83 10000 2.28 17 09:19 03.09.2021
6570 Clear 6 1019 81 10000 2.16 18 07:51 03.09.2021
6571 Clear 7 1019 74 10000 2.1 359 05:30 03.09.2021
6572 Clear 7 1019 74 10000 2.1 359 05:30 03.09.2021
6573 Clouds 16 1009 17 10000 6.02 78 23:25 02.09.2021
6574 Clouds 17 1008 15 10000 5.44 74 21:41 02.09.2021
6575 Clear 17 1010 13 10000 1.32 23 20:18 02.09.2021
6576 Clear 12 1040 35 10000 2.06 200 17:33 02.09.2021
6577 Clear 10 1041 37 10000 4.12 260 16:19 02.09.2021
6578 Clear 2 1038 65 10000 3.09 240 13:59 02.09.2021
6579 Clear 1 1037 64 10000 2.06 200 12:58 02.09.2021
6580 Clear 6 1018 30 10000 3.01 227 11:40 02.09.2021
6581 Clear 6 1017 28 10000 3 221 10:37 02.09.2021
6582 Clear 7 1016 42 10000 2.92 216 08:40 02.09.2021
6583 Clouds 8 1016 65 10000 1.37 253 07:20 02.09.2021
6584 Clouds 10 1014 57 10000 2.25 355 02:58 02.09.2021
6585 Clouds 10 1014 57 10000 2.25 355 02:33 02.09.2021
6586 Clouds 11 1013 50 10000 1.96 23 01:34 02.09.2021
6587 Clouds 13 1010 35 10000 4.78 52 23:40 01.09.2021
6588 Clouds 16 1008 17 10000 5.58 49 22:42 01.09.2021
6589 Clouds 17 1008 12 10000 3.64 49 21:41 01.09.2021
6590 Clouds 17 1009 11 10000 3.12 32 20:53 01.09.2021
6591 Clouds 17 1038 25 10000 3.09 100 19:22 01.09.2021
6592 Clouds 14 1040 33 10000 2.57 180 17:47 01.09.2021
6593 Clouds 11 1041 50 10000 3.09 240 16:48 01.09.2021
6594 Clouds 7 1041 57 10000 3.09 240 15:52 01.09.2021
6595 Clouds 0 1038 86 10000 0 0 12:41 01.09.2021
6596 Clouds 4 1019 71 10000 1.26 261 11:45 01.09.2021
6597 Clouds 5 1018 71 10000 1.39 296 09:25 01.09.2021
6598 Clear 6 1019 70 10000 1.45 322 07:53 01.09.2021
6599 Clear 7 1019 65 10000 2 345 05:40 01.09.2021
6600 Clouds 13 1011 30 10000 5.59 89 23:19 31.08.2021
6601 Clouds 15 1010 17 10000 5.49 71 21:40 31.08.2021
6602 Clear 15 1037 39 10000 3.09 60 19:48 31.08.2021
6603 Clear 14 1039 33 10000 0 0 18:44 31.08.2021
6604 Clear 12 1040 35 10000 0 0 17:39 31.08.2021
6605 Clear 12 1040 35 10000 0 0 17:20 31.08.2021
6606 Clear 9 1040 34 10000 4.12 200 16:24 31.08.2021
6607 Clouds -1 1038 64 10000 0 0 13:47 31.08.2021
6608 Clouds 3 1019 69 10000 1.63 246 11:36 31.08.2021
6609 Clouds 4 1018 74 10000 1.5 259 10:56 31.08.2021
6610 Clear 4 1018 78 10000 1.38 295 09:45 31.08.2021
6611 Clear 4 1018 74 10000 1.83 337 08:41 31.08.2021
6612 Clouds 5 1018 66 10000 1.97 358 07:38 31.08.2021
6613 Clouds 6 1019 52 10000 1.56 41 05:55 31.08.2021
6614 Clear 11 1013 25 10000 3.64 102 23:35 30.08.2021
6615 Clear 14 1011 7 10000 1.53 111 21:53 30.08.2021
6616 Clear 14 1011 7 10000 1.53 111 21:35 30.08.2021
6617 Clear 14 1011 6 10000 0.84 60 20:32 30.08.2021
6618 Clouds 13 1013 6 10000 0.96 21 19:30 30.08.2021
6619 Clouds 12 1040 41 10000 1.54 180 18:57 30.08.2021
6620 Clouds 10 1041 46 10000 2.57 200 17:48 30.08.2021
6621 Clouds 7 1041 53 10000 1.54 200 16:25 30.08.2021
6622 Clouds 4 1041 60 10000 0 0 15:39 30.08.2021
6623 Clouds -1 1040 80 10000 0 0 13:51 30.08.2021
6624 Clouds -2 1039 93 10000 1.03 0 12:49 30.08.2021
6625 Clouds 1 1022 91 5218 1.83 298 10:41 30.08.2021
6626 Clear 6 1020 49 10000 1.99 93 03:24 30.08.2021
6627 Clear 13 1014 7 10000 6.59 254 21:33 29.08.2021
6628 Clear 14 1014 6 10000 7.64 264 20:44 29.08.2021
6629 Clear 12 1017 8 10000 4.01 306 19:26 29.08.2021
6630 Clear 11 1019 12 10000 2.96 336 17:58 29.08.2021
6631 Clear 8 1023 24 10000 2.71 311 15:50 29.08.2021
6632 Clouds 4 1025 62 10000 1.9 321 14:25 29.08.2021
6633 Clouds 3 1025 61 10000 1.63 314 13:47 29.08.2021
6634 Clouds 1 1025 75 10000 1.26 323 12:42 29.08.2021
6635 Clouds 0 1024 77 10000 1.09 343 11:53 29.08.2021
6636 Clouds 1 1023 73 10000 1.15 345 11:28 29.08.2021
6637 Clouds 1 1023 73 10000 1.15 345 10:46 29.08.2021
6638 Clouds 1 1022 67 10000 1.61 2 10:27 29.08.2021
6639 Clouds 2 1023 62 10000 1.11 353 09:21 29.08.2021
6640 Clear 5 1020 10 10000 1.72 170 02:37 29.08.2021
6641 Clear 11 1014 7 10000 8.21 258 22:25 28.08.2021
6642 Clear 11 1014 7 10000 8.48 258 20:30 28.08.2021
6643 Clear 11 1015 7 10000 9.64 267 18:53 28.08.2021
6644 Clear 11 1016 7 10000 10.22 269 18:21 28.08.2021
6645 Clear 11 1016 7 10000 10.22 269 17:45 28.08.2021
6646 Clear 9 1019 9 10000 9.48 269 16:21 28.08.2021
6647 Clear 6 1020 13 10000 7.63 271 14:43 28.08.2021
6648 Clear 4 1021 18 10000 3.94 261 13:47 28.08.2021
6649 Clear 0 1022 25 10000 3.03 255 12:46 28.08.2021
6650 Clouds 0 1021 25 10000 2.7 257 11:58 28.08.2021
6651 Clouds 0 1020 24 10000 2.71 262 10:44 28.08.2021
6652 Clouds 1 1020 23 10000 2.57 280 09:33 28.08.2021
6653 Clouds 3 1019 17 10000 1.22 239 07:25 28.08.2021
6654 Clear 11 1010 7 10000 12.76 275 22:50 27.08.2021
6655 Clear 12 1010 8 10000 11.72 289 21:26 27.08.2021
6656 Clear 12 1010 8 10000 11.72 289 20:33 27.08.2021
6657 Clouds 12 1011 8 10000 11.36 290 19:29 27.08.2021
6658 Clouds 11 1033 24 10000 6.17 260 18:38 27.08.2021
6659 Clouds 11 1013 8 10000 10.11 291 17:30 27.08.2021
6660 Clouds 7 1035 36 10000 4.12 300 16:28 27.08.2021
6661 Clouds 2 1034 56 10000 2.57 200 14:44 27.08.2021
6662 Clouds -3 1033 69 10000 1.54 200 12:55 27.08.2021
6663 Clear -1 1017 21 10000 1.69 267 11:38 27.08.2021
6664 Clear 0 1017 21 10000 2.19 283 10:45 27.08.2021
6665 Clear 0 1016 21 10000 2.21 293 09:52 27.08.2021
6666 Clear 1 1016 20 10000 2.29 302 08:48 27.08.2021
6667 Clouds 1 1016 19 10000 1.8 307 07:39 27.08.2021
6668 Clouds 3 1016 17 10000 2.39 337 05:33 27.08.2021
6669 Clear 9 1009 9 10000 9.18